|   SEND TIME |   WIND SPEED |   WIND DIRECTION |   WIND MAX |   TEMPERATURE   |   SUN   |   PRESSURE   |   MOIST   |   CLOUD BASE |   DEW POINT |   VOLTAGE(V) |
|---|---|---|---|---|---|---|---|---|---|---|
2026-08-31 03:41:57 | 0.36 | ENE | 0.44 | 16.94 | 0 | 1028.13 | 89.39 | 565 | 15.18 | 4.05 |
2026-08-31 03:40:58 | 0.7 | ENE | 0.84 | 17.07 | 0 | 1028.13 | 89.3 | 567 | 15.29 | 4.05 |
2026-08-31 03:40:00 | 0.86 | ENE | 0.97 | 17.18 | 0 | 1028.12 | 89.18 | 570 | 15.38 | 4.05 |
2026-08-31 03:39:02 | 0.89 | ENE | 0.97 | 17.28 | 0 | 1028.13 | 89.04 | 574 | 15.46 | 4.05 |
2026-08-31 03:38:03 | 1.05 | ENE | 1.19 | 17.38 | 0 | 1028.12 | 89.22 | 569 | 15.59 | 4.05 |
2026-08-31 03:37:05 | 1.06 | ENE | 1.23 | 17.43 | 0 | 1028.12 | 89.38 | 565 | 15.66 | 4.05 |
2026-08-31 03:36:06 | 1.27 | ENE | 1.58 | 17.45 | 0 | 1028.11 | 89.43 | 564 | 15.69 | 4.05 |
2026-08-31 03:35:08 | 1.12 | ENE | 1.36 | 17.42 | 0 | 1028.13 | 89.44 | 564 | 15.66 | 4.05 |
2026-08-31 03:34:09 | 0.89 | ESE | 1.14 | 17.4 | 0 | 1028.12 | 89.31 | 567 | 15.62 | 4.05 |
2026-08-31 03:33:11 | 0.73 | ESE | 0.79 | 17.39 | 0 | 1028.13 | 89.11 | 572 | 15.58 | 4.05 |
2026-08-31 03:32:12 | 0.79 | ESE | 0.92 | 17.39 | 0 | 1028.17 | 88.82 | 579 | 15.53 | 4.05 |
2026-08-31 03:31:14 | 0.82 | ESE | 0.97 | 17.39 | 0 | 1028.14 | 88.57 | 586 | 15.48 | 4.05 |
2026-08-31 03:30:15 | 0.72 | ESE | 1.1 | 17.45 | 0 | 1028.16 | 88.37 | 591 | 15.51 | 4.05 |
2026-08-31 03:29:17 | 0 | ESE | 0 | 17.54 | 0 | 1028.15 | 88.34 | 591 | 15.59 | 4.05 |
2026-08-31 03:28:19 | 0 | ESE | 0 | 17.57 | 0 | 1028.11 | 88.35 | 591 | 15.62 | 4.05 |
2026-08-31 03:27:20 | 0 | ESE | 0 | 17.56 | 0 | 1028.13 | 88.22 | 594 | 15.59 | 4.05 |
2026-08-31 03:26:22 | 0 | ESE | 0 | 17.59 | 0 | 1028.13 | 88.18 | 595 | 15.61 | 4.05 |
2026-08-31 03:25:23 | 0 | ESE | 0 | 17.62 | 0 | 1028.13 | 88.08 | 598 | 15.62 | 4.05 |
2026-08-31 03:24:25 | 0 | ESE | 0 | 17.63 | 0 | 1028.15 | 88.05 | 599 | 15.63 | 4.05 |
2026-08-31 03:23:26 | 0 | ESE | 0 | 17.65 | 0 | 1028.15 | 87.95 | 601 | 15.63 | 4.05 |
2026-08-31 03:22:27 | 0 | ESE | 0 | 17.66 | 0 | 1028.17 | 87.85 | 604 | 15.62 | 4.05 |
2026-08-31 03:21:29 | 0 | ESE | 0 | 17.69 | 0 | 1028.19 | 87.79 | 605 | 15.64 | 4.05 |
2026-08-31 03:20:30 | 0.02 | ESE | 0.22 | 17.67 | 0 | 1028.14 | 87.73 | 607 | 15.61 | 4.05 |
2026-08-31 03:19:32 | 0 | ESE | 0 | 17.69 | 0 | 1028.21 | 87.63 | 609 | 15.61 | 4.05 |
2026-08-31 03:18:33 | 0 | ESE | 0 | 17.72 | 0 | 1028.18 | 87.51 | 612 | 15.62 | 4.05 |
2026-08-31 03:17:35 | 0 | ESE | 0 | 17.73 | 0 | 1028.2 | 87.44 | 614 | 15.62 | 4.05 |
2026-08-31 03:16:36 | 0.12 | ESE | 0.22 | 17.78 | 0 | 1028.19 | 87.43 | 614 | 15.66 | 4.05 |
2026-08-31 03:15:37 | 0.45 | ESE | 0.57 | 17.8 | 0 | 1028.19 | 87.39 | 615 | 15.68 | 4.05 |
2026-08-31 03:14:39 | 0.73 | ESE | 0.88 | 17.8 | 0 | 1028.2 | 87.24 | 619 | 15.65 | 4.05 |
2026-08-31 03:13:41 | 0.76 | ESE | 0.97 | 17.8 | 0 | 1028.14 | 87.02 | 624 | 15.61 | 4.05 |
2026-08-31 03:12:42 | 0.88 | ESE | 1.01 | 17.88 | 0 | 1028.16 | 87.04 | 624 | 15.69 | 4.05 |
2026-08-31 03:11:44 | 0.66 | ESE | 0.88 | 17.88 | 0 | 1028.22 | 87.06 | 623 | 15.69 | 4.05 |
2026-08-31 03:10:44 | 0 | ESE | 0 | 17.87 | 0 | 1028.2 | 87.02 | 624 | 15.68 | 4.05 |
2026-08-31 03:09:46 | 0 | ESE | 0 | 17.86 | 0 | 1028.18 | 86.97 | 626 | 15.66 | 4.05 |
2026-08-31 03:08:48 | 0 | ESE | 0 | 17.86 | 0 | 1028.14 | 86.96 | 626 | 15.66 | 4.05 |
2026-08-31 03:07:49 | 0 | ESE | 0 | 17.86 | 0 | 1028.15 | 87.02 | 624 | 15.67 | 4.05 |
2026-08-31 03:06:50 | 0 | ESE | 0 | 17.86 | 0 | 1028.18 | 87.08 | 623 | 15.68 | 4.05 |
2026-08-31 03:05:52 | 0 | ESE | 0 | 17.87 | 0 | 1028.22 | 87.22 | 619 | 15.71 | 4.05 |
2026-08-31 03:04:53 | 0 | ESE | 0 | 17.86 | 0 | 1028.19 | 87.26 | 618 | 15.71 | 4.05 |
2026-08-31 03:03:55 | 0 | ESE | 0 | 17.84 | 0 | 1028.23 | 87.3 | 617 | 15.7 | 4.05 |
2026-08-31 03:02:56 | 0 | ESE | 0 | 17.84 | 0 | 1028.25 | 87.4 | 615 | 15.72 | 4.05 |
2026-08-31 03:01:58 | 0 | ESE | 0 | 17.87 | 0 | 1028.3 | 87.53 | 612 | 15.77 | 4.05 |
2026-08-31 03:01:00 | 0.1 | ESE | 0.31 | 17.84 | 0 | 1028.34 | 87.64 | 609 | 15.76 | 4.05 |
2026-08-31 03:00:01 | 0.36 | ESE | 0.48 | 17.84 | 0 | 1028.29 | 87.72 | 607 | 15.77 | 4.05 |
2026-08-31 02:59:03 | 0.53 | ESE | 0.57 | 17.8 | 0 | 1028.32 | 87.84 | 604 | 15.76 | 4.05 |
2026-08-31 02:57:05 | 0.88 | ESE | 1.19 | 17.74 | 0 | 1028.36 | 87.97 | 601 | 15.72 | 4.05 |
2026-08-31 02:56:07 | 1.21 | ESE | 1.28 | 17.69 | 0 | 1028.35 | 87.9 | 602 | 15.66 | 4.05 |
2026-08-31 02:55:08 | 1.32 | ESE | 1.45 | 17.72 | 0 | 1028.43 | 87.86 | 603 | 15.68 | 4.05 |
2026-08-31 02:54:10 | 1.21 | ESE | 1.23 | 17.72 | 0 | 1028.38 | 87.77 | 606 | 15.66 | 4.05 |
2026-08-31 02:53:11 | 1.33 | ESE | 1.45 | 17.72 | 0 | 1028.38 | 87.64 | 609 | 15.64 | 4.05 |
2026-08-31 02:52:13 | 1.18 | ESE | 1.45 | 17.73 | 0 | 1028.34 | 87.47 | 613 | 15.62 | 4.05 |
2026-08-31 02:51:14 | 0.66 | NE | 0.97 | 17.72 | 0 | 1028.33 | 87.2 | 620 | 15.56 | 4.05 |
2026-08-31 02:50:15 | 0 | N | 0 | 17.72 | 0 | 1028.34 | 86.91 | 627 | 15.51 | 4.05 |
2026-08-31 02:49:17 | 0 | N | 0 | 17.7 | 0 | 1028.3 | 86.61 | 635 | 15.44 | 4.05 |
2026-08-31 02:48:19 | 0 | N | 0 | 17.7 | 0 | 1028.27 | 86.36 | 641 | 15.39 | 4.05 |
2026-08-31 02:47:20 | 0 | N | 0 | 17.72 | 0 | 1028.28 | 86.22 | 644 | 15.39 | 4.05 |
2026-08-31 02:46:21 | 0 | N | 0 | 17.74 | 0 | 1028.29 | 86.16 | 646 | 15.39 | 4.05 |
2026-08-31 02:45:23 | 0 | N | 0 | 17.8 | 0 | 1028.28 | 86.1 | 647 | 15.44 | 4.05 |
2026-08-31 02:44:25 | 0 | N | 0 | 17.8 | 0 | 1028.27 | 85.91 | 652 | 15.41 | 4.05 |
2026-08-31 02:43:26 | 0 | N | 0 | 17.87 | 0 | 1028.26 | 85.75 | 656 | 15.45 | 4.05 |
2026-08-31 02:42:28 | 0 | N | 0 | 17.88 | 0 | 1028.31 | 85.51 | 662 | 15.41 | 4.05 |
2026-08-31 02:41:29 | 0 | N | 0 | 17.86 | 0 | 1028.32 | 85.27 | 668 | 15.35 | 4.05 |
2026-08-31 02:40:31 | 0 | N | 0 | 17.9 | 0 | 1028.28 | 85.19 | 670 | 15.38 | 4.05 |
2026-08-31 02:39:32 | 0 | N | 0 | 17.97 | 0 | 1028.33 | 85.18 | 670 | 15.44 | 4.05 |
2026-08-31 02:38:34 | 0.06 | N | 0.22 | 18.04 | 0 | 1028.32 | 85.09 | 673 | 15.49 | 4.05 |
2026-08-31 02:37:35 | 0.32 | N | 0.44 | 18.04 | 0 | 1028.29 | 85.01 | 675 | 15.48 | 4.05 |
2026-08-31 02:36:37 | 0.53 | N | 0.62 | 18.09 | 0 | 1028.28 | 84.86 | 678 | 15.5 | 4.05 |
2026-08-31 02:35:38 | 0.49 | N | 0.57 | 18.16 | 0 | 1028.3 | 84.58 | 685 | 15.52 | 4.05 |
2026-08-31 02:34:40 | 0.43 | N | 0.53 | 18.22 | 0 | 1028.3 | 84.42 | 689 | 15.55 | 4.05 |
2026-08-31 02:33:41 | 0.47 | N | 0.57 | 18.28 | 0 | 1028.35 | 84.34 | 691 | 15.59 | 4.05 |
2026-08-31 02:32:43 | 0.44 | N | 0.62 | 18.33 | 0 | 1028.33 | 84.14 | 696 | 15.6 | 4.06 |
2026-08-31 02:31:44 | 0.23 | N | 0.57 | 18.36 | 0 | 1028.33 | 83.98 | 700 | 15.6 | 4.05 |
2026-08-31 02:30:46 | 0 | N | 0 | 18.39 | 0 | 1028.35 | 83.8 | 705 | 15.6 | 4.05 |
2026-08-31 02:29:47 | 0 | N | 0 | 18.46 | 0 | 1028.43 | 83.74 | 706 | 15.66 | 4.05 |
2026-08-31 02:28:49 | 0 | N | 0 | 18.52 | 0 | 1028.36 | 83.62 | 709 | 15.69 | 4.05 |
2026-08-31 02:27:50 | 0 | NNW | 0 | 18.53 | 0 | 1028.37 | 83.45 | 714 | 15.67 | 4.05 |
2026-08-31 02:26:52 | 0 | NNW | 0 | 18.56 | 0 | 1028.4 | 83.24 | 719 | 15.66 | 4.05 |
2026-08-31 02:25:53 | 0 | NNW | 0 | 18.59 | 0 | 1028.36 | 83.14 | 721 | 15.67 | 4.06 |
2026-08-31 02:24:55 | 0 | NNW | 0 | 18.63 | 0 | 1028.42 | 82.99 | 725 | 15.68 | 4.06 |
2026-08-31 02:23:56 | 0 | NNW | 0 | 18.66 | 0 | 1028.42 | 82.98 | 725 | 15.71 | 4.05 |
2026-08-31 02:22:58 | 0 | NNW | 0 | 18.69 | 0 | 1028.43 | 82.99 | 725 | 15.74 | 4.06 |
2026-08-31 02:21:59 | 0 | NNW | 0 | 18.71 | 0 | 1028.39 | 83.01 | 725 | 15.76 | 4.06 |
2026-08-31 02:21:01 | 0 | NNW | 0 | 18.7 | 0 | 1028.4 | 83.04 | 724 | 15.76 | 4.06 |
2026-08-31 02:20:02 | 0 | NNW | 0 | 18.69 | 0 | 1028.43 | 83.04 | 724 | 15.75 | 4.06 |
2026-08-31 02:19:04 | 0 | NNW | 0 | 18.7 | 0 | 1028.41 | 83.04 | 724 | 15.76 | 4.06 |
2026-08-31 02:18:05 | 0 | NNW | 0 | 18.69 | 0 | 1028.42 | 83 | 725 | 15.74 | 4.06 |
2026-08-31 02:17:06 | 0 | NNW | 0 | 18.69 | 0 | 1028.43 | 82.95 | 726 | 15.73 | 4.06 |
2026-08-31 02:16:08 | 0 | NNW | 0 | 18.7 | 0 | 1028.42 | 82.93 | 727 | 15.74 | 4.06 |
2026-08-31 02:15:06 | 0 | NNW | 0 | 18.71 | 0 | 1028.43 | 82.93 | 727 | 15.75 | 4.06 |
2026-08-31 02:14:07 | 0 | NNW | 0 | 18.7 | 0 | 1028.43 | 82.93 | 727 | 15.74 | 4.06 |
2026-08-31 02:13:09 | 0 | NNW | 0 | 18.69 | 0 | 1028.39 | 82.88 | 728 | 15.72 | 4.06 |
2026-08-31 02:12:11 | 0 | NNW | 0 | 18.71 | 0 | 1028.43 | 82.8 | 730 | 15.72 | 4.06 |
2026-08-31 02:11:12 | 0 | NNW | 0 | 18.7 | 0 | 1028.4 | 82.79 | 730 | 15.71 | 4.06 |
2026-08-31 02:10:14 | 0 | NNW | 0 | 18.69 | 0 | 1028.41 | 82.75 | 731 | 15.69 | 4.06 |
2026-08-31 02:09:15 | 0 | NNW | 0 | 18.69 | 0 | 1028.43 | 82.59 | 735 | 15.66 | 4.06 |
2026-08-31 02:08:17 | 0 | NNW | 0 | 18.71 | 0 | 1028.44 | 82.39 | 740 | 15.65 | 4.06 |
2026-08-31 02:07:18 | 0 | NNW | 0 | 18.71 | 0 | 1028.41 | 82.3 | 742 | 15.63 | 4.06 |
2026-08-31 02:06:20 | 0 | NNW | 0 | 18.76 | 0 | 1028.45 | 82.13 | 747 | 15.65 | 4.06 |
2026-08-31 02:05:21 | 0.18 | NNW | 0.44 | 18.77 | 0 | 1028.41 | 82.05 | 749 | 15.64 | 4.06 |
2026-08-31 02:04:23 | 0.35 | NNW | 0.4 | 18.83 | 0 | 1028.38 | 82.07 | 748 | 15.7 | 4.06 |
2026-08-31 02:03:24 | 0.35 | NNW | 0.44 | 18.86 | 0 | 1028.44 | 82.13 | 747 | 15.74 | 4.06 |
2026-08-31 02:02:25 | 0.39 | NNW | 0.48 | 18.83 | 0 | 1028.4 | 82.18 | 745 | 15.72 | 4.06 |
2026-08-31 02:01:27 | 0.23 | NNW | 0.35 | 18.84 | 0 | 1028.38 | 82.26 | 743 | 15.75 | 4.06 |
2026-08-31 02:00:28 | 0.25 | NNW | 0.35 | 18.82 | 0 | 1028.45 | 82.33 | 742 | 15.74 | 4.06 |
2026-08-31 01:59:30 | 0.29 | NNW | 0.31 | 18.82 | 0 | 1028.42 | 82.42 | 739 | 15.76 | 4.06 |
2026-08-31 01:58:31 | 0.35 | NNW | 0.48 | 18.77 | 0 | 1028.42 | 82.4 | 740 | 15.71 | 4.06 |
2026-08-31 01:57:33 | 0.4 | NNW | 0.48 | 18.74 | 0 | 1028.43 | 82.34 | 741 | 15.67 | 4.06 |
2026-08-31 01:56:34 | 0.46 | NNW | 0.57 | 18.77 | 0 | 1028.4 | 82.2 | 745 | 15.67 | 4.06 |
2026-08-31 01:55:36 | 0.22 | NNW | 0.48 | 18.76 | 0 | 1028.45 | 81.84 | 754 | 15.59 | 4.06 |
2026-08-31 01:54:37 | 0 | NNW | 0 | 18.74 | 0 | 1028.43 | 81.77 | 756 | 15.56 | 4.06 |
2026-08-31 01:53:39 | 0 | NNW | 0 | 18.83 | 0 | 1028.48 | 81.73 | 757 | 15.64 | 4.06 |
2026-08-31 01:52:40 | 0 | NNW | 0 | 18.84 | 0 | 1028.43 | 81.62 | 759 | 15.63 | 4.06 |
2026-08-31 01:51:42 | 0 | NNW | 0 | 18.83 | 0 | 1028.48 | 81.4 | 765 | 15.57 | 4.06 |
2026-08-31 01:50:43 | 0 | NNW | 0 | 18.87 | 0 | 1028.49 | 81.09 | 773 | 15.55 | 4.06 |
2026-08-31 01:49:44 | 0 | NNW | 0 | 18.87 | 0 | 1028.48 | 80.86 | 778 | 15.51 | 4.06 |
2026-08-31 01:48:46 | 0 | NNW | 0 | 18.88 | 0 | 1028.46 | 80.79 | 780 | 15.51 | 4.06 |
2026-08-31 01:47:47 | 0 | NNW | 0 | 18.93 | 0 | 1028.44 | 80.72 | 782 | 15.54 | 4.06 |
2026-08-31 01:46:49 | 0 | NNW | 0 | 18.94 | 0 | 1028.46 | 80.6 | 785 | 15.53 | 4.06 |
2026-08-31 01:45:50 | 0 | NNW | 0 | 18.95 | 0 | 1028.46 | 80.48 | 788 | 15.51 | 4.06 |
2026-08-31 01:44:51 | 0 | NNW | 0 | 19.04 | 0 | 1028.45 | 80.42 | 789 | 15.59 | 4.06 |
2026-08-31 01:43:53 | 0 | NNW | 0 | 19.1 | 0 | 1028.45 | 80.39 | 790 | 15.64 | 4.06 |
2026-08-31 01:42:54 | 0 | NNW | 0 | 19.14 | 0 | 1028.47 | 80.28 | 793 | 15.66 | 4.06 |
2026-08-31 01:41:56 | 0 | NNW | 0 | 19.17 | 0 | 1028.43 | 80.04 | 799 | 15.64 | 4.06 |
2026-08-31 01:40:57 | 0 | NNW | 0 | 19.21 | 0 | 1028.44 | 79.83 | 804 | 15.64 | 4.06 |
2026-08-31 01:39:59 | 0 | NNW | 0 | 19.26 | 0 | 1028.44 | 79.69 | 808 | 15.66 | 4.06 |
2026-08-31 01:39:00 | 0 | NNW | 0 | 19.32 | 0 | 1028.46 | 79.63 | 809 | 15.71 | 4.06 |
2026-08-31 01:38:02 | 0 | NNW | 0 | 19.33 | 0 | 1028.41 | 79.55 | 811 | 15.7 | 4.06 |
2026-08-31 01:37:03 | 0 | NNW | 0 | 19.39 | 0 | 1028.44 | 79.51 | 812 | 15.75 | 4.06 |
2026-08-31 01:36:05 | 0.06 | NNW | 0.22 | 19.44 | 0 | 1028.43 | 79.44 | 814 | 15.79 | 4.06 |
2026-08-31 01:35:06 | 0.34 | NNW | 0.4 | 19.49 | 0 | 1028.4 | 79.37 | 816 | 15.82 | 4.06 |
2026-08-31 01:34:08 | 0.38 | NNW | 0.44 | 19.52 | 0 | 1028.4 | 79.32 | 817 | 15.84 | 4.06 |
2026-08-31 01:33:09 | 0.66 | NNW | 0.84 | 19.53 | 0 | 1028.37 | 79.33 | 817 | 15.85 | 4.06 |
2026-08-31 01:32:11 | 0.58 | NNW | 0.84 | 19.58 | 0 | 1028.4 | 79.4 | 815 | 15.92 | 4.06 |
2026-08-31 01:31:12 | 0.74 | NW | 0.84 | 19.58 | 0 | 1028.42 | 79.38 | 815 | 15.91 | 4.06 |
2026-08-31 01:30:13 | 0.54 | NW | 0.62 | 19.55 | 0 | 1028.4 | 79.44 | 814 | 15.89 | 4.06 |
2026-08-31 01:29:14 | 0.52 | NNW | 0.62 | 19.55 | 0 | 1028.4 | 79.45 | 814 | 15.9 | 4.06 |
2026-08-31 01:28:16 | 0.59 | NW | 0.66 | 19.55 | 0 | 1028.44 | 79.43 | 814 | 15.89 | 4.06 |
2026-08-31 01:27:17 | 0.66 | NW | 0.7 | 19.56 | 0 | 1028.43 | 79.49 | 813 | 15.91 | 4.06 |
2026-08-31 01:26:19 | 0.78 | NW | 0.88 | 19.55 | 0 | 1028.48 | 79.48 | 813 | 15.9 | 4.06 |
2026-08-31 01:25:20 | 0.96 | NW | 1.1 | 19.53 | 0 | 1028.49 | 79.52 | 812 | 15.89 | 4.06 |
2026-08-31 01:24:22 | 1.05 | NW | 1.19 | 19.55 | 0 | 1028.48 | 79.53 | 812 | 15.91 | 4.06 |
2026-08-31 01:23:23 | 1.08 | NW | 1.19 | 19.56 | 0 | 1028.48 | 79.56 | 811 | 15.93 | 4.06 |
2026-08-31 01:22:25 | 1.18 | NNW | 1.32 | 19.55 | 0 | 1028.45 | 79.6 | 810 | 15.93 | 4.06 |
2026-08-31 01:21:26 | 1.17 | NNW | 1.28 | 19.52 | 0 | 1028.48 | 79.63 | 809 | 15.9 | 4.06 |
2026-08-31 01:20:28 | 1.12 | NNW | 1.19 | 19.53 | 0 | 1028.45 | 79.7 | 807 | 15.93 | 4.06 |
2026-08-31 01:19:29 | 1.06 | NNW | 1.19 | 19.53 | 0 | 1028.51 | 79.77 | 806 | 15.94 | 4.06 |
2026-08-31 01:18:31 | 1.02 | NNW | 1.1 | 19.5 | 0 | 1028.51 | 79.87 | 803 | 15.93 | 4.06 |
2026-08-31 01:17:32 | 1.05 | NNW | 1.14 | 19.46 | 0 | 1028.49 | 79.9 | 802 | 15.9 | 4.06 |
2026-08-31 01:16:34 | 1.13 | NNW | 1.28 | 19.44 | 0 | 1028.49 | 79.99 | 800 | 15.9 | 4.06 |
2026-08-31 01:15:35 | 1.05 | NNW | 1.23 | 19.4 | 0 | 1028.55 | 80.05 | 799 | 15.87 | 4.06 |
2026-08-31 01:14:37 | 0.95 | NNW | 1.1 | 19.38 | 0 | 1028.54 | 80.02 | 799 | 15.84 | 4.06 |
2026-08-31 01:13:38 | 0.89 | NNW | 0.97 | 19.36 | 0 | 1028.51 | 79.99 | 800 | 15.82 | 4.06 |
2026-08-31 01:12:40 | 0.9 | NNW | 1.1 | 19.39 | 0 | 1028.55 | 79.96 | 801 | 15.84 | 4.06 |
2026-08-31 01:11:41 | 0.84 | NNW | 1.1 | 19.35 | 0 | 1028.53 | 79.87 | 803 | 15.78 | 4.06 |
2026-08-31 01:10:43 | 0.77 | NNW | 0.92 | 19.39 | 0 | 1028.52 | 79.87 | 803 | 15.82 | 4.06 |
2026-08-31 01:09:44 | 0.89 | NNW | 1.06 | 19.39 | 0 | 1028.58 | 79.86 | 803 | 15.82 | 4.06 |
2026-08-31 01:08:46 | 0.85 | NNW | 1.1 | 19.4 | 0 | 1028.55 | 79.8 | 805 | 15.82 | 4.06 |
2026-08-31 01:07:47 | 0.79 | NNW | 0.88 | 19.42 | 0 | 1028.53 | 79.73 | 807 | 15.83 | 4.06 |
2026-08-31 01:06:49 | 0.91 | NNW | 1.19 | 19.44 | 0 | 1028.55 | 79.71 | 807 | 15.84 | 4.06 |
2026-08-31 01:05:50 | 0.76 | NNW | 0.84 | 19.44 | 0 | 1028.55 | 79.68 | 808 | 15.83 | 4.06 |
2026-08-31 01:04:52 | 0.6 | NNW | 0.66 | 19.45 | 0 | 1028.58 | 79.69 | 808 | 15.85 | 4.06 |
2026-08-31 01:03:53 | 0.73 | NNW | 0.84 | 19.46 | 0 | 1028.55 | 79.69 | 808 | 15.86 | 4.06 |
2026-08-31 01:02:54 | 0.59 | NNW | 0.75 | 19.45 | 0 | 1028.55 | 79.5 | 812 | 15.81 | 4.06 |
2026-08-31 01:01:56 | 0.52 | NNW | 0.62 | 19.49 | 0 | 1028.51 | 79.51 | 812 | 15.85 | 4.06 |
2026-08-31 01:00:58 | 0.6 | NNW | 0.7 | 19.49 | 0 | 1028.54 | 79.48 | 813 | 15.84 | 4.06 |
2026-08-31 00:59:59 | 1.06 | NNW | 1.23 | 19.48 | 0 | 1028.51 | 79.45 | 814 | 15.83 | 4.06 |
2026-08-31 00:59:00 | 0.82 | NNW | 0.97 | 19.5 | 0 | 1028.54 | 79.37 | 816 | 15.83 | 4.06 |
2026-08-31 00:58:02 | 0.72 | NNW | 1.01 | 19.53 | 0 | 1028.56 | 79.3 | 817 | 15.85 | 4.06 |
2026-08-31 00:57:04 | 0.67 | NNW | 0.97 | 19.56 | 0 | 1028.56 | 79.33 | 817 | 15.88 | 4.06 |
2026-08-31 00:56:05 | 0.72 | NNW | 0.88 | 19.58 | 0 | 1028.53 | 79.38 | 815 | 15.91 | 4.06 |
2026-08-31 00:55:06 | 0.64 | NNW | 0.79 | 19.58 | 0 | 1028.51 | 79.49 | 813 | 15.93 | 4.06 |
2026-08-31 00:54:08 | 0.76 | NNW | 0.92 | 19.55 | 0 | 1028.54 | 79.64 | 809 | 15.93 | 4.06 |
2026-08-31 00:53:09 | 0.5 | NNW | 0.66 | 19.5 | 0 | 1028.55 | 79.87 | 803 | 15.93 | 4.06 |
2026-08-31 00:52:11 | 0.46 | NNW | 0.53 | 19.52 | 0 | 1028.56 | 80.08 | 798 | 15.99 | 4.06 |
2026-08-31 00:51:12 | 0.55 | NNW | 0.66 | 19.5 | 0 | 1028.56 | 80.2 | 795 | 15.99 | 4.06 |
2026-08-31 00:50:14 | 0.5 | NNW | 0.75 | 19.48 | 0 | 1028.48 | 80.12 | 797 | 15.96 | 4.06 |
2026-08-31 00:49:15 | 0.28 | NNW | 0.35 | 19.48 | 0 | 1028.52 | 80.06 | 798 | 15.95 | 4.06 |
2026-08-31 00:48:16 | 0.38 | NNW | 0.57 | 19.44 | 0 | 1028.55 | 80.12 | 797 | 15.92 | 4.06 |
2026-08-31 00:47:18 | 0.68 | NNW | 1.06 | 19.45 | 0 | 1028.54 | 80.26 | 793 | 15.96 | 4.06 |
2026-08-31 00:46:19 | 0.51 | NNW | 0.62 | 19.42 | 0 | 1028.56 | 80.38 | 790 | 15.95 | 4.06 |
2026-08-31 00:45:21 | 0.54 | NNW | 0.7 | 19.38 | 0 | 1028.51 | 80.56 | 786 | 15.95 | 4.06 |
2026-08-31 00:44:22 | 0.81 | NNW | 1.01 | 19.32 | 0 | 1028.53 | 80.71 | 782 | 15.92 | 4.06 |
2026-08-31 00:43:24 | 0.71 | NNW | 0.97 | 19.28 | 0 | 1028.55 | 80.9 | 777 | 15.92 | 4.06 |
2026-08-31 00:42:25 | 0.46 | N | 0.66 | 19.22 | 0 | 1028.55 | 80.89 | 778 | 15.86 | 4.06 |
2026-08-31 00:41:27 | 0.31 | N | 0.4 | 19.18 | 0 | 1028.56 | 80.89 | 778 | 15.82 | 4.06 |
2026-08-31 00:40:28 | 0.15 | N | 0.26 | 19.19 | 0 | 1028.57 | 80.9 | 777 | 15.83 | 4.06 |
2026-08-31 00:39:30 | 0.34 | N | 0.48 | 19.17 | 0 | 1028.56 | 80.91 | 777 | 15.81 | 4.06 |
2026-08-31 00:38:31 | 0.42 | N | 0.62 | 19.17 | 0 | 1028.56 | 80.96 | 776 | 15.82 | 4.06 |
2026-08-31 00:37:33 | 0.7 | N | 1.1 | 19.19 | 0 | 1028.53 | 81.01 | 775 | 15.85 | 4.06 |
2026-08-31 00:36:34 | 1.08 | N | 1.28 | 19.18 | 0 | 1028.61 | 81.02 | 774 | 15.84 | 4.06 |
2026-08-31 00:35:36 | 0.99 | N | 1.19 | 19.21 | 0 | 1028.6 | 81.04 | 774 | 15.88 | 4.06 |
2026-08-31 00:34:37 | 1.05 | N | 1.23 | 19.21 | 0 | 1028.62 | 81.19 | 770 | 15.9 | 4.06 |
2026-08-31 00:33:38 | 0.93 | N | 1.06 | 19.22 | 0 | 1028.64 | 81.24 | 769 | 15.92 | 4.06 |
2026-08-31 00:32:39 | 0.82 | N | 1.06 | 19.23 | 0 | 1028.67 | 81.19 | 770 | 15.92 | 4.06 |
2026-08-31 00:31:41 | 0.79 | N | 1.1 | 19.26 | 0 | 1028.64 | 81.17 | 771 | 15.95 | 4.06 |
2026-08-31 00:30:42 | 1.01 | N | 1.19 | 19.25 | 0 | 1028.62 | 81.28 | 768 | 15.96 | 4.06 |
2026-08-31 00:29:44 | 0.9 | N | 0.97 | 19.23 | 0 | 1028.64 | 81.41 | 765 | 15.97 | 4.06 |
2026-08-31 00:28:45 | 0.85 | N | 0.92 | 19.22 | 0 | 1028.62 | 81.52 | 762 | 15.98 | 4.06 |
2026-08-31 00:27:47 | 0.86 | N | 1.06 | 19.19 | 0 | 1028.61 | 81.63 | 759 | 15.97 | 4.06 |
2026-08-31 00:26:48 | 0.74 | N | 0.88 | 19.15 | 0 | 1028.63 | 81.9 | 752 | 15.98 | 4.06 |
2026-08-31 00:25:50 | 0.8 | N | 0.97 | 19.12 | 0 | 1028.65 | 82.16 | 746 | 16 | 4.06 |
2026-08-31 00:24:51 | 0.92 | N | 0.92 | 19.07 | 0 | 1028.62 | 82.65 | 734 | 16.05 | 4.06 |
2026-08-31 00:23:53 | 1.04 | N | 1.19 | 18.98 | 0 | 1028.63 | 83.01 | 725 | 16.03 | 4.06 |
2026-08-31 00:22:54 | 0.92 | N | 1.01 | 18.95 | 0 | 1028.61 | 83.16 | 721 | 16.03 | 4.06 |
2026-08-31 00:21:56 | 0.78 | N | 0.97 | 18.9 | 0 | 1028.64 | 83.09 | 723 | 15.96 | 4.06 |
2026-08-31 00:20:57 | 0.69 | N | 0.79 | 18.91 | 0 | 1028.65 | 83.12 | 722 | 15.98 | 4.06 |
2026-08-31 00:19:58 | 0.73 | N | 0.84 | 18.95 | 0 | 1028.65 | 83.08 | 723 | 16.01 | 4.06 |
2026-08-31 00:18:59 | 0.83 | N | 0.92 | 18.95 | 0 | 1028.63 | 82.87 | 728 | 15.97 | 4.06 |
2026-08-31 00:18:01 | 0.86 | N | 1.06 | 19.01 | 0 | 1028.65 | 82.52 | 737 | 15.96 | 4.06 |
2026-08-31 00:17:02 | 0.87 | N | 1.06 | 19.07 | 0 | 1028.65 | 82.1 | 747 | 15.94 | 4.06 |
2026-08-31 00:16:04 | 0.79 | N | 0.88 | 19.12 | 0 | 1028.58 | 81.6 | 760 | 15.9 | 4.06 |
2026-08-31 00:15:05 | 0.81 | N | 0.92 | 19.23 | 0 | 1028.63 | 81.24 | 769 | 15.93 | 4.06 |
2026-08-31 00:14:07 | 0.74 | N | 0.79 | 19.31 | 0 | 1028.61 | 80.85 | 779 | 15.94 | 4.06 |
2026-08-31 00:13:08 | 0.79 | N | 0.88 | 19.36 | 0 | 1028.66 | 80.5 | 787 | 15.92 | 4.06 |
2026-08-31 00:12:10 | 0.68 | N | 0.84 | 19.45 | 0 | 1028.59 | 80.17 | 796 | 15.94 | 4.06 |
2026-08-31 00:11:11 | 0.42 | N | 0.48 | 19.5 | 0 | 1028.59 | 79.69 | 808 | 15.9 | 4.06 |
2026-08-31 00:10:13 | 0.45 | N | 0.53 | 19.55 | 0 | 1028.59 | 79.52 | 812 | 15.91 | 4.06 |
2026-08-31 00:09:14 | 0.76 | N | 0.97 | 19.65 | 0 | 1028.61 | 79.39 | 815 | 15.98 | 4.06 |
2026-08-31 00:08:16 | 0.78 | N | 0.88 | 19.7 | 0 | 1028.58 | 79.22 | 819 | 16 | 4.06 |
2026-08-31 00:07:17 | 0.83 | N | 0.88 | 19.74 | 0 | 1028.58 | 79.25 | 819 | 16.04 | 4.06 |
2026-08-31 00:06:19 | 0.83 | N | 0.88 | 19.74 | 0 | 1028.56 | 79.12 | 822 | 16.02 | 4.06 |
2026-08-31 00:05:20 | 0.96 | N | 1.06 | 19.76 | 0 | 1028.56 | 79 | 825 | 16.01 | 4.06 |
2026-08-31 00:04:22 | 0.69 | N | 0.88 | 19.8 | 0 | 1028.54 | 78.63 | 834 | 15.98 | 4.06 |
2026-08-31 00:03:23 | 0.55 | N | 0.57 | 19.81 | 0 | 1028.55 | 78.49 | 838 | 15.96 | 4.06 |
2026-08-31 00:02:24 | 0.72 | N | 0.79 | 19.84 | 0 | 1028.57 | 78.38 | 840 | 15.97 | 4.06 |
2026-08-31 00:01:26 | 0.52 | N | 0.66 | 19.83 | 0 | 1028.58 | 78.1 | 847 | 15.9 | 4.06 |
2026-08-31 00:00:27 | 0.41 | N | 0.53 | 19.87 | 0 | 1028.57 | 77.81 | 855 | 15.88 | 4.06 |
2026-08-30 23:59:29 | 0.44 | N | 0.57 | 19.91 | 0 | 1028.56 | 77.53 | 862 | 15.86 | 4.06 |
2026-08-30 23:58:30 | 0.6 | N | 0.75 | 19.97 | 0 | 1028.57 | 77.47 | 863 | 15.91 | 4.06 |
2026-08-30 23:57:32 | 0.64 | N | 0.84 | 20.03 | 0 | 1028.56 | 77.28 | 868 | 15.93 | 4.06 |
2026-08-30 23:56:33 | 0.21 | N | 0.62 | 20.07 | 0 | 1028.54 | 76.83 | 879 | 15.88 | 4.06 |
2026-08-30 23:55:35 | 0 | N | 0 | 20.07 | 0 | 1028.53 | 76.23 | 894 | 15.75 | 4.06 |
2026-08-30 23:54:36 | 0 | N | 0 | 20.12 | 0 | 1028.59 | 76.06 | 898 | 15.77 | 4.06 |
2026-08-30 23:53:38 | 0 | N | 0 | 20.2 | 0 | 1028.54 | 76.03 | 899 | 15.84 | 4.06 |
2026-08-30 23:52:39 | 0.15 | N | 0.44 | 20.25 | 0 | 1028.53 | 75.87 | 903 | 15.85 | 4.06 |
2026-08-30 23:51:40 | 0.41 | N | 0.48 | 20.29 | 0 | 1028.55 | 75.6 | 910 | 15.84 | 4.06 |
2026-08-30 23:50:42 | 0.33 | N | 0.4 | 20.36 | 0 | 1028.5 | 75.23 | 919 | 15.83 | 4.06 |
2026-08-30 23:49:43 | 0.37 | N | 0.4 | 20.45 | 0 | 1028.5 | 74.86 | 928 | 15.84 | 4.06 |
2026-08-30 23:48:44 | 0.49 | N | 0.62 | 20.55 | 0 | 1028.49 | 74.4 | 940 | 15.84 | 4.06 |
2026-08-30 23:47:45 | 0.59 | N | 0.66 | 20.66 | 0 | 1028.48 | 74.02 | 949 | 15.86 | 4.06 |
2026-08-30 23:46:47 | 0.37 | N | 0.44 | 20.73 | 0 | 1028.54 | 73.67 | 958 | 15.86 | 4.06 |
2026-08-30 23:45:48 | 0.39 | N | 0.44 | 20.8 | 0 | 1028.51 | 73.49 | 963 | 15.88 | 4.06 |
2026-08-30 23:44:50 | 0.49 | N | 0.62 | 20.84 | 0 | 1028.53 | 73.39 | 965 | 15.9 | 4.06 |
2026-08-30 23:43:51 | 0.75 | N | 0.84 | 20.91 | 0 | 1028.5 | 73.26 | 968 | 15.94 | 4.06 |
2026-08-30 23:42:53 | 0.7 | N | 0.84 | 20.95 | 0 | 1028.52 | 73.1 | 972 | 15.95 | 4.06 |
2026-08-30 23:41:54 | 0.89 | N | 1.14 | 21 | 0 | 1028.56 | 72.97 | 976 | 15.97 | 4.06 |
2026-08-30 23:40:56 | 0.68 | N | 0.84 | 21.03 | 0 | 1028.57 | 72.75 | 981 | 15.95 | 4.06 |
2026-08-30 23:39:57 | 0.71 | N | 0.84 | 21.08 | 0 | 1028.56 | 72.67 | 983 | 15.98 | 4.06 |
2026-08-30 23:38:58 | 0.66 | N | 0.92 | 21.12 | 0 | 1028.55 | 72.57 | 986 | 16 | 4.06 |
2026-08-30 23:38:00 | 0.69 | N | 0.79 | 21.15 | 0 | 1028.55 | 72.55 | 986 | 16.02 | 4.06 |
2026-08-30 23:37:01 | 0.76 | N | 0.88 | 21.15 | 0 | 1028.55 | 72.5 | 987 | 16.01 | 4.06 |
2026-08-30 23:36:03 | 0.76 | N | 0.92 | 21.18 | 0 | 1028.58 | 72.36 | 991 | 16.01 | 4.06 |
2026-08-30 23:35:04 | 0.75 | N | 0.88 | 21.17 | 0 | 1028.52 | 72.38 | 990 | 16 | 4.06 |
2026-08-30 23:34:05 | 0.91 | N | 1.01 | 21.14 | 0 | 1028.53 | 72.65 | 984 | 16.03 | 4.06 |
2026-08-30 23:33:07 | 0.9 | N | 0.97 | 21.14 | 0 | 1028.52 | 72.77 | 981 | 16.06 | 4.06 |
2026-08-30 23:32:08 | 0.83 | N | 0.92 | 21.1 | 0 | 1028.53 | 73.07 | 973 | 16.08 | 4.06 |
2026-08-30 23:31:10 | 1.03 | N | 1.14 | 21.05 | 0 | 1028.52 | 73.41 | 965 | 16.11 | 4.06 |
2026-08-30 23:30:11 | 1.13 | N | 1.23 | 20.97 | 0 | 1028.53 | 73.66 | 958 | 16.08 | 4.06 |
2026-08-30 23:29:13 | 0.93 | N | 1.1 | 20.93 | 0 | 1028.48 | 73.76 | 956 | 16.07 | 4.06 |
2026-08-30 23:28:14 | 0.59 | N | 0.75 | 20.89 | 0 | 1028.57 | 73.66 | 958 | 16.01 | 4.06 |
2026-08-30 23:27:15 | 0.47 | N | 0.62 | 20.89 | 0 | 1028.64 | 73.53 | 962 | 15.98 | 4.06 |
2026-08-30 23:26:17 | 0.31 | N | 0.53 | 20.91 | 0 | 1028.55 | 73.25 | 969 | 15.94 | 4.06 |
2026-08-30 23:25:18 | 0.32 | N | 0.4 | 20.94 | 0 | 1028.55 | 73.08 | 973 | 15.93 | 4.06 |
2026-08-30 23:24:20 | 0.42 | N | 0.48 | 21 | 0 | 1028.6 | 73.08 | 973 | 15.99 | 4.06 |
2026-08-30 23:23:21 | 0.74 | N | 0.97 | 20.98 | 0 | 1028.56 | 73.08 | 973 | 15.97 | 4.06 |
2026-08-30 23:22:23 | 0.67 | N | 0.79 | 20.97 | 0 | 1028.54 | 72.52 | 987 | 15.84 | 4.06 |
2026-08-30 23:21:24 | 0.51 | N | 0.62 | 21.01 | 0 | 1028.55 | 72.49 | 988 | 15.87 | 4.06 |
2026-08-30 23:20:26 | 0.39 | N | 0.48 | 21.04 | 0 | 1028.58 | 72.2 | 995 | 15.84 | 4.06 |
2026-08-30 23:19:27 | 0.46 | N | 0.53 | 21.1 | 0 | 1028.54 | 71.96 | 1001 | 15.84 | 4.06 |
2026-08-30 23:18:29 | 0.44 | N | 0.48 | 21.12 | 0 | 1028.48 | 71.75 | 1006 | 15.82 | 4.06 |
2026-08-30 23:17:30 | 0.4 | N | 0.53 | 21.14 | 0 | 1028.57 | 71.53 | 1012 | 15.79 | 4.06 |
2026-08-30 23:16:31 | 0.39 | N | 0.44 | 21.14 | 0 | 1028.54 | 71.18 | 1020 | 15.71 | 4.06 |
2026-08-30 23:15:33 | 0.4 | N | 0.53 | 21.14 | 0 | 1028.53 | 71.07 | 1023 | 15.69 | 4.06 |
2026-08-30 23:14:34 | 0.58 | N | 0.66 | 21.15 | 0 | 1028.55 | 71.08 | 1023 | 15.7 | 4.06 |
2026-08-30 23:13:36 | 0.59 | N | 0.66 | 21.15 | 0 | 1028.55 | 71.2 | 1020 | 15.73 | 4.06 |
2026-08-30 23:12:37 | 0.33 | N | 0.62 | 21.22 | 0 | 1028.52 | 71.3 | 1017 | 15.82 | 4.06 |
2026-08-30 23:11:39 | 0 | N | 0 | 21.25 | 0 | 1028.56 | 71.21 | 1020 | 15.82 | 4.06 |
2026-08-30 23:09:42 | 0 | N | 0 | 21.32 | 0 | 1028.54 | 71.13 | 1022 | 15.87 | 4.06 |
2026-08-30 23:08:43 | 0 | N | 0 | 21.41 | 0 | 1028.53 | 71.45 | 1014 | 16.03 | 4.06 |
2026-08-30 23:07:45 | 0 | N | 0 | 21.44 | 0 | 1028.55 | 71.5 | 1012 | 16.07 | 4.06 |
2026-08-30 23:06:46 | 0 | N | 0 | 21.44 | 0 | 1028.55 | 71.16 | 1021 | 16 | 4.06 |
2026-08-30 23:05:47 | 0 | N | 0 | 21.45 | 0 | 1028.56 | 70.83 | 1029 | 15.93 | 4.06 |
2026-08-30 23:04:49 | 0 | N | 0 | 21.48 | 0 | 1028.6 | 70.86 | 1028 | 15.97 | 4.06 |
2026-08-30 23:03:50 | 0 | N | 0 | 21.49 | 0 | 1028.58 | 70.82 | 1029 | 15.97 | 4.06 |
2026-08-30 23:02:52 | 0 | N | 0 | 21.49 | 0 | 1028.53 | 70.48 | 1038 | 15.89 | 4.06 |
2026-08-30 23:01:54 | 0 | N | 0 | 21.58 | 0 | 1028.51 | 69.78 | 1055 | 15.82 | 4.06 |
2026-08-30 23:00:55 | 0 | N | 0 | 21.62 | 0 | 1028.49 | 69.54 | 1061 | 15.81 | 4.06 |
2026-08-30 22:59:56 | 0 | N | 0 | 21.66 | 0 | 1028.51 | 69.35 | 1066 | 15.8 | 4.06 |
2026-08-30 22:58:58 | 0 | N | 0 | 21.72 | 0 | 1028.44 | 69.26 | 1068 | 15.84 | 4.06 |
2026-08-30 22:57:58 | 0 | N | 0 | 21.76 | 0 | 1028.43 | 69.05 | 1074 | 15.83 | 4.06 |
2026-08-30 22:57:00 | 0.41 | N | 0.62 | 21.77 | 0 | 1028.39 | 69.14 | 1071 | 15.86 | 4.06 |
2026-08-30 22:56:01 | 0.59 | N | 0.75 | 21.86 | 0 | 1028.38 | 69.13 | 1072 | 15.94 | 4.06 |
2026-08-30 22:55:03 | 0.7 | N | 0.84 | 21.9 | 0 | 1028.37 | 68.72 | 1082 | 15.89 | 4.06 |
2026-08-30 22:54:04 | 0.73 | N | 0.79 | 21.96 | 0 | 1028.39 | 68.67 | 1083 | 15.93 | 4.06 |
2026-08-30 22:53:06 | 0.68 | N | 0.7 | 22.03 | 0 | 1028.4 | 68.72 | 1082 | 16.01 | 4.06 |
2026-08-30 22:52:07 | 0.71 | N | 0.79 | 22.07 | 0 | 1028.37 | 68.79 | 1080 | 16.07 | 4.06 |
2026-08-30 22:51:08 | 0.75 | N | 0.88 | 22.1 | 0 | 1028.35 | 68.85 | 1079 | 16.11 | 4.07 |
2026-08-30 22:50:10 | 0.78 | N | 0.88 | 22.15 | 0 | 1028.39 | 68.9 | 1077 | 16.17 | 4.06 |
2026-08-30 22:49:11 | 0.77 | N | 1.06 | 22.15 | 0 | 1028.36 | 68.83 | 1079 | 16.15 | 4.07 |
2026-08-30 22:48:13 | 1.03 | N | 1.14 | 22.2 | 0 | 1028.38 | 68.77 | 1081 | 16.19 | 4.06 |
2026-08-30 22:47:14 | 0.75 | NNW | 0.88 | 22.24 | 0 | 1028.35 | 68.41 | 1090 | 16.14 | 4.07 |
2026-08-30 22:46:15 | 0.69 | NW | 0.88 | 22.27 | 0 | 1028.38 | 67.82 | 1104 | 16.04 | 4.07 |
2026-08-30 22:45:17 | 0.82 | NW | 0.92 | 22.3 | 0 | 1028.34 | 67.54 | 1111 | 16 | 4.07 |
2026-08-30 22:44:18 | 0.93 | NW | 1.01 | 22.31 | 0 | 1028.34 | 67.39 | 1115 | 15.97 | 4.07 |
2026-08-30 22:43:20 | 0.8 | NW | 0.92 | 22.34 | 0 | 1028.34 | 67.42 | 1114 | 16.01 | 4.07 |
2026-08-30 22:42:21 | 1.01 | NW | 1.28 | 22.37 | 0 | 1028.35 | 67.49 | 1113 | 16.05 | 4.07 |
2026-08-30 22:41:23 | 1.12 | NW | 1.23 | 22.41 | 0 | 1028.37 | 67.41 | 1115 | 16.07 | 4.07 |
2026-08-30 22:40:24 | 1.1 | NW | 1.19 | 22.41 | 0 | 1028.34 | 67.44 | 1114 | 16.08 | 4.07 |
2026-08-30 22:39:25 | 1.06 | NW | 1.14 | 22.44 | 0 | 1028.37 | 67.31 | 1117 | 16.08 | 4.07 |
2026-08-30 22:38:27 | 0.98 | NW | 1.01 | 22.45 | 0 | 1028.35 | 67.21 | 1120 | 16.07 | 4.07 |
2026-08-30 22:37:28 | 0.83 | NW | 0.88 | 22.47 | 0 | 1028.33 | 67.17 | 1121 | 16.08 | 4.07 |
2026-08-30 22:36:29 | 1.02 | NW | 1.23 | 22.48 | 0 | 1028.37 | 67.19 | 1120 | 16.09 | 4.07 |
2026-08-30 22:35:31 | 1.06 | N | 1.14 | 22.49 | 0 | 1028.33 | 67.03 | 1124 | 16.06 | 4.07 |
2026-08-30 22:34:32 | 0.97 | N | 1.01 | 22.48 | 0 | 1028.34 | 67.05 | 1124 | 16.06 | 4.07 |
2026-08-30 22:33:33 | 0.98 | N | 1.06 | 22.48 | 0 | 1028.37 | 67.06 | 1123 | 16.06 | 4.07 |
2026-08-30 22:32:35 | 0.97 | N | 1.06 | 22.44 | 0 | 1028.35 | 67.04 | 1124 | 16.02 | 4.07 |
2026-08-30 22:31:36 | 0.96 | N | 1.23 | 22.38 | 0 | 1028.38 | 67.22 | 1119 | 16 | 4.07 |
2026-08-30 22:30:37 | 0.99 | N | 1.23 | 22.34 | 0 | 1028.37 | 67.38 | 1115 | 16 | 4.07 |
2026-08-30 22:29:39 | 0.89 | NNE | 1.06 | 22.28 | 0 | 1028.38 | 67.57 | 1111 | 15.99 | 4.07 |
2026-08-30 22:28:40 | 0.74 | NE | 0.88 | 22.21 | 0 | 1028.35 | 67.66 | 1108 | 15.94 | 4.07 |
2026-08-30 22:27:42 | 0.74 | NE | 0.84 | 22.2 | 0 | 1028.4 | 67.78 | 1105 | 15.96 | 4.07 |
2026-08-30 22:26:43 | 0.7 | NE | 0.84 | 22.18 | 0 | 1028.41 | 67.87 | 1103 | 15.96 | 4.07 |
2026-08-30 22:25:44 | 0.71 | NE | 0.84 | 22.2 | 0 | 1028.38 | 68 | 1100 | 16.01 | 4.07 |
2026-08-30 22:24:45 | 0.73 | NE | 0.84 | 22.2 | 0 | 1028.39 | 67.85 | 1104 | 15.98 | 4.07 |
2026-08-30 22:23:46 | 0.79 | NE | 1.01 | 22.17 | 0 | 1028.4 | 67.69 | 1108 | 15.91 | 4.07 |
2026-08-30 22:22:48 | 0.66 | NE | 0.75 | 22.21 | 0 | 1028.36 | 67.63 | 1109 | 15.93 | 4.07 |
2026-08-30 22:21:49 | 0.62 | NE | 0.7 | 22.24 | 0 | 1028.39 | 67.65 | 1109 | 15.97 | 4.07 |
2026-08-30 22:20:51 | 0.67 | NE | 0.79 | 22.28 | 0 | 1028.4 | 67.55 | 1111 | 15.98 | 4.07 |
2026-08-30 22:19:52 | 0.62 | NE | 0.7 | 22.34 | 0 | 1028.36 | 67.44 | 1114 | 16.01 | 4.07 |
2026-08-30 22:18:54 | 0.68 | NE | 0.75 | 22.35 | 0 | 1028.4 | 67.27 | 1118 | 15.98 | 4.07 |
2026-08-30 22:17:55 | 0.81 | NE | 1.01 | 22.38 | 0 | 1028.4 | 67.03 | 1124 | 15.96 | 4.07 |
2026-08-30 22:16:57 | 0.84 | NE | 1.06 | 22.44 | 0 | 1028.34 | 66.76 | 1131 | 15.95 | 4.07 |
2026-08-30 22:15:58 | 0.94 | NE | 1.06 | 22.45 | 0 | 1028.37 | 66.45 | 1139 | 15.89 | 4.07 |
2026-08-30 22:14:59 | 0.81 | NE | 0.92 | 22.54 | 0 | 1028.34 | 66.28 | 1143 | 15.93 | 4.07 |
2026-08-30 22:14:01 | 0.9 | NE | 1.01 | 22.56 | 0 | 1028.35 | 65.98 | 1150 | 15.88 | 4.07 |
2026-08-30 22:13:02 | 0.9 | NE | 1.1 | 22.6 | 0 | 1028.33 | 65.93 | 1152 | 15.91 | 4.07 |
2026-08-30 22:12:04 | 0.79 | NE | 0.92 | 22.67 | 0 | 1028.33 | 65.89 | 1153 | 15.96 | 4.07 |
2026-08-30 22:11:05 | 0.85 | NE | 0.92 | 22.75 | 0 | 1028.32 | 65.67 | 1158 | 15.99 | 4.07 |
2026-08-30 22:10:07 | 0.85 | NE | 0.97 | 22.79 | 0 | 1028.34 | 65.4 | 1165 | 15.96 | 4.07 |
2026-08-30 22:09:08 | 0.87 | NE | 1.06 | 22.82 | 0 | 1028.27 | 65.23 | 1169 | 15.95 | 4.07 |
2026-08-30 22:08:09 | 0.8 | NE | 0.97 | 22.83 | 0 | 1028.29 | 65.09 | 1173 | 15.92 | 4.07 |
2026-08-30 22:07:11 | 0.85 | NE | 1.06 | 22.8 | 0 | 1028.29 | 65.01 | 1175 | 15.88 | 4.07 |
2026-08-30 22:06:12 | 0.92 | NE | 1.06 | 22.77 | 0 | 1028.31 | 64.67 | 1183 | 15.77 | 4.07 |
2026-08-30 22:05:14 | 0.69 | NE | 0.79 | 22.73 | 0 | 1028.28 | 64.65 | 1184 | 15.72 | 4.07 |
2026-08-30 22:04:15 | 0.55 | NE | 0.66 | 22.73 | 0 | 1028.3 | 64.86 | 1178 | 15.77 | 4.07 |
2026-08-30 22:03:16 | 0.39 | NE | 0.53 | 22.69 | 0 | 1028.25 | 64.89 | 1178 | 15.74 | 4.07 |
2026-08-30 22:02:18 | 0.4 | NE | 0.44 | 22.72 | 0 | 1028.3 | 64.92 | 1177 | 15.78 | 4.07 |
2026-08-30 22:01:19 | 0.34 | NE | 0.44 | 22.72 | 0 | 1028.28 | 64.8 | 1180 | 15.75 | 4.07 |
2026-08-30 22:00:21 | 0.34 | NE | 0.4 | 22.75 | 0 | 1028.29 | 64.65 | 1184 | 15.74 | 4.07 |
2026-08-30 21:59:22 | 0.46 | NE | 0.48 | 22.8 | 0 | 1028.28 | 64.79 | 1180 | 15.82 | 4.07 |
2026-08-30 21:58:24 | 0.5 | NE | 0.57 | 22.79 | 0 | 1028.3 | 64.86 | 1178 | 15.83 | 4.07 |
2026-08-30 21:57:25 | 0.48 | NE | 0.62 | 22.86 | 0 | 1028.27 | 65.5 | 1162 | 16.05 | 4.07 |
2026-08-30 21:56:26 | 0.41 | NE | 0.66 | 22.86 | 0 | 1028.26 | 65.45 | 1164 | 16.04 | 4.07 |
2026-08-30 21:55:28 | 0 | NE | 0 | 22.92 | 0 | 1028.23 | 64.9 | 1177 | 15.96 | 4.07 |
2026-08-30 21:54:29 | 0 | NE | 0 | 22.93 | 0 | 1028.29 | 64.12 | 1197 | 15.78 | 4.07 |
2026-08-30 21:53:31 | 0 | NE | 0 | 22.96 | 0 | 1028.23 | 63.51 | 1212 | 15.66 | 4.07 |
2026-08-30 21:52:32 | 0 | NE | 0 | 23.03 | 0 | 1028.22 | 63.29 | 1218 | 15.67 | 4.07 |
2026-08-30 21:51:34 | 0 | NE | 0 | 23.07 | 0 | 1028.26 | 63.24 | 1219 | 15.7 | 4.07 |
2026-08-30 21:50:35 | 0 | NE | 0 | 23.17 | 0 | 1028.26 | 63.33 | 1217 | 15.82 | 4.07 |
2026-08-30 21:49:36 | 0 | NE | 0 | 23.2 | 0 | 1028.24 | 62.9 | 1227 | 15.74 | 4.07 |
2026-08-30 21:48:38 | 0 | NE | 0 | 23.24 | 0 | 1028.24 | 62.82 | 1229 | 15.76 | 4.07 |
2026-08-30 21:47:39 | 0.37 | NE | 0.53 | 23.31 | 0 | 1028.21 | 63.06 | 1223 | 15.88 | 4.07 |
2026-08-30 21:46:37 | 0.43 | NE | 0.62 | 23.37 | 0 | 1028.19 | 62.95 | 1226 | 15.91 | 4.07 |
2026-08-30 21:45:39 | 0.38 | NE | 0.48 | 23.4 | 0 | 1028.2 | 62.58 | 1235 | 15.85 | 4.07 |
2026-08-30 21:44:40 | 0.72 | NE | 0.88 | 23.45 | 0 | 1028.21 | 62.87 | 1228 | 15.97 | 4.07 |
2026-08-30 21:43:42 | 0.74 | NE | 1.1 | 23.45 | 0 | 1028.19 | 62.05 | 1249 | 15.76 | 4.07 |
2026-08-30 21:42:43 | 0.47 | NE | 0.57 | 23.54 | 0 | 1028.21 | 62.22 | 1244 | 15.89 | 4.07 |
2026-08-30 21:41:44 | 0.39 | NE | 0.48 | 23.52 | 0 | 1028.23 | 61.51 | 1262 | 15.69 | 4.07 |
2026-08-30 21:40:46 | 0.45 | NE | 0.62 | 23.52 | 0 | 1028.21 | 61.58 | 1260 | 15.71 | 4.07 |
2026-08-30 21:39:47 | 0.39 | NE | 0.44 | 23.49 | 0 | 1028.23 | 60.89 | 1278 | 15.5 | 4.07 |
2026-08-30 21:38:49 | 0.5 | NE | 0.62 | 23.48 | 0 | 1028.21 | 61.24 | 1269 | 15.58 | 4.07 |
2026-08-30 21:37:50 | 0.52 | NE | 0.62 | 23.47 | 0 | 1028.19 | 61.77 | 1256 | 15.71 | 4.07 |
2026-08-30 21:36:51 | 0.48 | NE | 0.53 | 23.47 | 0 | 1028.18 | 61.33 | 1267 | 15.6 | 4.07 |
2026-08-30 21:35:53 | 0.67 | NE | 0.75 | 23.48 | 0 | 1028.22 | 61.89 | 1253 | 15.75 | 4.07 |
2026-08-30 21:34:54 | 0.61 | NE | 0.75 | 23.51 | 0 | 1028.19 | 62.03 | 1249 | 15.81 | 4.07 |
2026-08-30 21:33:56 | 0.46 | NE | 0.62 | 23.56 | 0 | 1028.22 | 62.15 | 1246 | 15.89 | 4.07 |
2026-08-30 21:32:57 | 0.56 | NE | 0.62 | 23.61 | 0 | 1028.19 | 62.5 | 1237 | 16.03 | 4.07 |
2026-08-30 21:31:58 | 0.6 | NE | 0.75 | 23.66 | 0 | 1028.18 | 62.85 | 1229 | 16.16 | 4.07 |
2026-08-30 21:31:00 | 0.45 | NE | 0.53 | 23.72 | 0 | 1028.22 | 63.31 | 1217 | 16.33 | 4.07 |
2026-08-30 21:30:01 | 0.59 | NE | 0.66 | 23.75 | 0 | 1028.21 | 63.23 | 1219 | 16.34 | 4.07 |
2026-08-30 21:29:02 | 0.64 | NE | 0.7 | 23.79 | 0 | 1028.25 | 63.09 | 1223 | 16.34 | 4.07 |
2026-08-30 21:28:04 | 0.51 | NE | 0.57 | 23.83 | 0 | 1028.2 | 62.09 | 1248 | 16.13 | 4.07 |
2026-08-30 21:27:05 | 0.56 | NE | 0.62 | 23.86 | 0 | 1028.24 | 61.33 | 1267 | 15.97 | 4.07 |
2026-08-30 21:26:07 | 0.66 | NE | 0.75 | 23.9 | 0 | 1028.29 | 61.65 | 1259 | 16.08 | 4.07 |
2026-08-30 21:25:08 | 0.72 | NE | 0.79 | 23.95 | 0 | 1028.24 | 61.84 | 1254 | 16.18 | 4.07 |
2026-08-30 21:24:09 | 0.7 | NE | 0.84 | 23.99 | 0 | 1028.27 | 62.06 | 1248 | 16.27 | 4.07 |
2026-08-30 21:23:11 | 0.5 | NE | 0.57 | 24.01 | 0 | 1028.27 | 61.39 | 1265 | 16.12 | 4.07 |
2026-08-30 21:22:12 | 0.3 | NE | 0.44 | 24.04 | 0 | 1028.24 | 60.71 | 1282 | 15.98 | 4.07 |
2026-08-30 21:21:14 | 0.32 | NE | 0.35 | 24.09 | 0 | 1028.24 | 60.61 | 1285 | 16 | 4.07 |
2026-08-30 21:20:15 | 0.42 | NE | 0.53 | 24.17 | 0 | 1028.19 | 60.6 | 1285 | 16.07 | 4.07 |
2026-08-30 21:19:16 | 0.44 | NE | 0.66 | 24.23 | 0 | 1028.15 | 60.36 | 1291 | 16.06 | 4.07 |
2026-08-30 21:18:18 | 0.21 | NE | 0.57 | 24.3 | 0 | 1028.18 | 60.05 | 1299 | 16.05 | 4.07 |
2026-08-30 21:17:19 | 0.2 | NE | 0.4 | 24.37 | 0 | 1028.21 | 59.6 | 1310 | 16 | 4.07 |
2026-08-30 21:16:20 | 0 | NE | 0 | 24.44 | 0 | 1028.17 | 58.89 | 1328 | 15.87 | 4.07 |
2026-08-30 21:15:22 | 0.17 | NE | 0.35 | 24.48 | 0 | 1028.18 | 58.98 | 1325 | 15.94 | 4.07 |
2026-08-30 21:14:23 | 0 | NE | 0 | 24.5 | 0 | 1028.12 | 58.62 | 1334 | 15.86 | 4.07 |
2026-08-30 21:13:25 | 0.23 | NE | 0.31 | 24.52 | 0 | 1028.16 | 58.4 | 1340 | 15.82 | 4.07 |
2026-08-30 21:12:26 | 0.46 | NE | 0.66 | 24.51 | 0 | 1028.17 | 58.27 | 1343 | 15.77 | 4.07 |
2026-08-30 21:11:27 | 0.7 | NE | 0.79 | 24.52 | 0 | 1028.19 | 58.24 | 1344 | 15.78 | 4.07 |
2026-08-30 21:10:29 | 0.58 | NE | 0.79 | 24.5 | 0 | 1028.12 | 58.06 | 1348 | 15.71 | 4.07 |
2026-08-30 21:09:30 | 0.51 | NE | 0.57 | 24.48 | 0 | 1028.14 | 57.86 | 1353 | 15.64 | 4.07 |
2026-08-30 21:08:32 | 0.78 | NE | 0.97 | 24.47 | 0 | 1028.17 | 57.6 | 1360 | 15.56 | 4.07 |
2026-08-30 21:07:33 | 0.89 | NE | 0.97 | 24.51 | 0 | 1028.14 | 57.95 | 1351 | 15.69 | 4.07 |
2026-08-30 21:06:35 | 0.65 | NE | 0.88 | 24.48 | 0 | 1028.11 | 57.87 | 1353 | 15.64 | 4.08 |
2026-08-30 21:05:36 | 0.7 | NE | 0.79 | 24.48 | 0 | 1028.17 | 57.66 | 1358 | 15.58 | 4.08 |
2026-08-30 21:04:37 | 0.79 | NE | 0.92 | 24.48 | 0 | 1028.11 | 57.39 | 1365 | 15.51 | 4.07 |
2026-08-30 21:03:38 | 0.88 | NE | 1.01 | 24.56 | 0 | 1028.12 | 57.86 | 1353 | 15.71 | 4.08 |
2026-08-30 21:02:40 | 0.76 | NE | 0.79 | 24.61 | 0 | 1028.12 | 57.17 | 1371 | 15.57 | 4.08 |
2026-08-30 21:01:41 | 0.84 | NE | 0.92 | 24.68 | 0 | 1028.14 | 57.11 | 1372 | 15.62 | 4.08 |
2026-08-30 21:00:43 | 0.87 | NE | 0.92 | 24.72 | 0 | 1028.14 | 56.67 | 1383 | 15.54 | 4.08 |
2026-08-30 20:59:44 | 0.86 | NE | 0.97 | 24.83 | 0 | 1028.1 | 57.01 | 1375 | 15.73 | 4.07 |
2026-08-30 20:58:45 | 1.02 | NE | 1.06 | 24.89 | 0 | 1028.17 | 57.33 | 1367 | 15.88 | 4.08 |
2026-08-30 20:57:47 | 1.13 | NE | 1.19 | 24.89 | 0 | 1028.13 | 55.19 | 1420 | 15.28 | 4.08 |
2026-08-30 20:56:48 | 1.17 | NE | 1.23 | 24.89 | 0 | 1028.13 | 54.98 | 1425 | 15.22 | 4.08 |
2026-08-30 20:55:49 | 1.05 | ENE | 1.19 | 24.93 | 0 | 1028.09 | 55.1 | 1422 | 15.29 | 4.08 |
2026-08-30 20:54:51 | 0.77 | ENE | 0.92 | 24.89 | 0 | 1028.11 | 55.16 | 1421 | 15.27 | 4.08 |
2026-08-30 20:53:52 | 0.62 | E | 0.7 | 24.89 | 0 | 1028.13 | 55.38 | 1415 | 15.33 | 4.08 |
2026-08-30 20:52:53 | 0.43 | E | 0.53 | 24.9 | 0 | 1028.08 | 55.78 | 1405 | 15.46 | 4.08 |
2026-08-30 20:51:55 | 0.44 | E | 0.57 | 24.92 | 0 | 1028.09 | 55.44 | 1414 | 15.38 | 4.08 |
2026-08-30 20:50:56 | 0.19 | E | 0.35 | 24.94 | 0 | 1028.08 | 55.62 | 1409 | 15.45 | 4.08 |
2026-08-30 20:49:58 | 0.29 | E | 0.35 | 24.97 | 0 | 1028.09 | 56.02 | 1399 | 15.59 | 4.08 |
2026-08-30 20:48:59 | 0.4 | E | 0.53 | 24.99 | 0 | 1028.1 | 56.31 | 1392 | 15.69 | 4.08 |
2026-08-30 20:48:00 | 0.49 | E | 0.53 | 25.02 | 0 | 1028.07 | 55.75 | 1406 | 15.56 | 4.08 |
2026-08-30 20:47:02 | 0.57 | E | 0.79 | 25.02 | 0 | 1028.09 | 55.86 | 1403 | 15.59 | 4.08 |
2026-08-30 20:46:03 | 0.44 | E | 0.53 | 25.06 | 0 | 1028.1 | 55.17 | 1421 | 15.43 | 4.08 |
2026-08-30 20:45:05 | 0 | E | 0 | 25.1 | 0 | 1028.07 | 55.17 | 1421 | 15.47 | 4.08 |
2026-08-30 20:44:06 | 0 | E | 0 | 25.14 | 0 | 1028.1 | 54.81 | 1430 | 15.41 | 4.08 |
2026-08-30 20:43:07 | 0.39 | E | 0.48 | 25.17 | 0 | 1028.12 | 54.72 | 1432 | 15.41 | 4.08 |
2026-08-30 20:42:09 | 0.6 | E | 0.7 | 25.2 | 0 | 1028.07 | 54.73 | 1432 | 15.44 | 4.08 |
2026-08-30 20:41:10 | 0.73 | E | 0.79 | 25.19 | 0 | 1028.07 | 54.49 | 1438 | 15.36 | 4.08 |
2026-08-30 20:40:11 | 0.85 | E | 0.92 | 25.17 | 0 | 1028.05 | 54.74 | 1431 | 15.41 | 4.08 |
2026-08-30 20:39:13 | 0.79 | E | 0.92 | 25.14 | 0 | 1028.05 | 54.91 | 1427 | 15.43 | 4.08 |
2026-08-30 20:38:14 | 0.67 | E | 0.75 | 25.1 | 0 | 1028.04 | 55.11 | 1422 | 15.45 | 4.08 |
2026-08-30 20:37:16 | 0.6 | E | 0.66 | 25.05 | 0 | 1027.99 | 55.31 | 1417 | 15.46 | 4.08 |
2026-08-30 20:36:17 | 0.6 | E | 0.7 | 25 | 0 | 1027.99 | 55.91 | 1402 | 15.59 | 4.08 |
2026-08-30 20:35:18 | 0.6 | E | 0.7 | 24.96 | 0 | 1027.97 | 55.58 | 1410 | 15.46 | 4.08 |
2026-08-30 20:34:20 | 0.29 | E | 0.53 | 24.99 | 0 | 1027.98 | 55.75 | 1406 | 15.53 | 4.08 |
2026-08-30 20:33:21 | 0 | E | 0 | 25.03 | 0 | 1027.95 | 55.75 | 1406 | 15.57 | 4.08 |
2026-08-30 20:32:22 | 0 | E | 0 | 25.1 | 0 | 1027.98 | 55.62 | 1409 | 15.6 | 4.08 |
2026-08-30 20:31:23 | 0 | E | 0 | 25.2 | 0 | 1027.96 | 55.21 | 1420 | 15.57 | 4.08 |
2026-08-30 20:30:25 | 0.12 | E | 0.44 | 25.26 | 0 | 1027.96 | 55.22 | 1419 | 15.63 | 4.08 |
2026-08-30 20:29:26 | 0.35 | E | 0.4 | 25.36 | 0 | 1027.91 | 55.48 | 1413 | 15.8 | 4.08 |
2026-08-30 20:28:28 | 0.48 | E | 0.53 | 25.4 | 0 | 1027.85 | 55.5 | 1412 | 15.84 | 4.08 |
2026-08-30 20:27:29 | 0.54 | E | 0.66 | 25.41 | 0 | 1027.86 | 55.43 | 1414 | 15.83 | 4.08 |
2026-08-30 20:26:31 | 0.31 | E | 0.4 | 25.42 | 0 | 1027.88 | 55.04 | 1424 | 15.73 | 4.08 |
2026-08-30 20:25:32 | 0.08 | E | 0.26 | 25.4 | 0 | 1027.85 | 54.98 | 1425 | 15.7 | 4.08 |
2026-08-30 20:24:33 | 0 | E | 0 | 25.41 | 0 | 1027.88 | 54.98 | 1425 | 15.7 | 4.08 |
2026-08-30 20:23:35 | 0.22 | E | 0.35 | 25.45 | 0 | 1027.82 | 54.99 | 1425 | 15.74 | 4.08 |
2026-08-30 20:22:36 | 0.11 | E | 0.35 | 25.47 | 0 | 1027.83 | 54.77 | 1431 | 15.7 | 4.08 |
2026-08-30 20:21:37 | 0 | E | 0 | 25.54 | 0 | 1027.81 | 54.31 | 1442 | 15.63 | 4.08 |
2026-08-30 20:20:39 | 0 | E | 0 | 25.65 | 0 | 1027.78 | 54.18 | 1445 | 15.7 | 4.08 |
2026-08-30 20:19:40 | 0 | E | 0 | 25.68 | 0 | 1027.77 | 54.13 | 1447 | 15.71 | 4.08 |
2026-08-30 20:18:41 | 0.06 | E | 0.26 | 25.72 | 0 | 1027.79 | 54.04 | 1449 | 15.72 | 4.08 |
2026-08-30 20:14:56 | 0.87 | E | 0.92 | 25.58 | 0 | 1027.7 | 54.4 | 1440 | 15.7 | 4.08 |
2026-08-30 20:13:58 | 0.89 | E | 0.97 | 25.57 | 0 | 1027.7 | 54.3 | 1442 | 15.66 | 4.08 |
2026-08-30 20:12:59 | 1.01 | E | 1.1 | 25.57 | 0 | 1027.69 | 54.24 | 1444 | 15.64 | 4.08 |
2026-08-30 20:12:01 | 1.18 | E | 1.32 | 25.55 | 0 | 1027.7 | 54.52 | 1437 | 15.7 | 4.08 |
2026-08-30 20:11:02 | 1.15 | E | 1.32 | 25.51 | 0 | 1027.65 | 54.39 | 1440 | 15.63 | 4.08 |
2026-08-30 20:10:03 | 0.72 | E | 1.01 | 25.51 | 0 | 1027.64 | 53.87 | 1453 | 15.48 | 4.08 |
2026-08-30 20:09:05 | 0.62 | E | 0.75 | 25.6 | 0 | 1027.65 | 53.27 | 1468 | 15.39 | 4.08 |
2026-08-30 20:08:06 | 0.95 | E | 1.06 | 25.76 | 0 | 1027.63 | 53.66 | 1458 | 15.65 | 4.08 |
2026-08-30 20:07:07 | 0.88 | E | 0.92 | 25.93 | 0 | 1027.56 | 52.56 | 1486 | 15.48 | 4.08 |
2026-08-30 20:06:08 | 0.79 | E | 0.88 | 26.04 | 0 | 1027.57 | 51.72 | 1507 | 15.33 | 4.08 |
2026-08-30 20:05:10 | 0.77 | E | 0.79 | 26.15 | 0 | 1027.55 | 51.17 | 1521 | 15.27 | 4.08 |
2026-08-30 20:04:11 | 0.85 | E | 0.92 | 26.28 | 0 | 1027.56 | 51.14 | 1521 | 15.38 | 4.08 |
2026-08-30 20:03:12 | 0.73 | E | 0.88 | 26.36 | 0 | 1027.54 | 51.65 | 1509 | 15.61 | 4.08 |
2026-08-30 20:01:15 | 0.36 | E | 0.4 | 26.43 | 0 | 1027.47 | 51.35 | 1516 | 15.58 | 4.08 |
2026-08-30 20:00:16 | 0.54 | E | 0.62 | 26.44 | 0 | 1027.43 | 51.17 | 1521 | 15.53 | 4.08 |
2026-08-30 19:59:18 | 0.58 | E | 0.75 | 26.45 | 0 | 1027.38 | 50.91 | 1527 | 15.46 | 4.08 |
2026-08-30 19:58:19 | 0.78 | E | 0.97 | 26.5 | 0 | 1027.36 | 51.09 | 1523 | 15.57 | 4.08 |
2026-08-30 19:57:20 | 1.1 | E | 1.19 | 26.56 | 0 | 1027.38 | 51.73 | 1507 | 15.82 | 4.08 |
2026-08-30 19:56:22 | 1.39 | E | 1.54 | 26.64 | 0 | 1027.36 | 51.74 | 1506 | 15.89 | 4.08 |
2026-08-30 19:55:23 | 1.32 | NE | 1.58 | 26.71 | 0 | 1027.31 | 49.44 | 1564 | 15.25 | 4.08 |
2026-08-30 19:54:24 | 0.66 | NNE | 1.36 | 26.72 | 0 | 1027.33 | 48.85 | 1579 | 15.07 | 4.08 |
2026-08-30 19:53:25 | 0 | NNW | 0 | 26.75 | 0 | 1027.32 | 49.16 | 1571 | 15.19 | 4.08 |
2026-08-30 19:52:26 | 0 | NNW | 0 | 26.77 | 0 | 1027.33 | 48.69 | 1583 | 15.06 | 4.08 |
2026-08-30 19:51:28 | 0.18 | NNW | 0.31 | 26.81 | 0 | 1027.29 | 48.63 | 1584 | 15.08 | 4.08 |
2026-08-30 19:50:29 | 0.34 | NNW | 0.4 | 26.86 | 0 | 1027.26 | 48.28 | 1593 | 15.01 | 4.08 |
2026-08-30 19:49:30 | 0.3 | NNW | 0.44 | 26.86 | 0 | 1027.25 | 48.35 | 1591 | 15.04 | 4.08 |
2026-08-30 19:48:32 | 0.19 | NNW | 0.26 | 26.89 | 0 | 1027.26 | 48.38 | 1590 | 15.07 | 4.08 |
2026-08-30 19:47:33 | 0.26 | NNW | 0.35 | 26.96 | 0 | 1027.21 | 48.06 | 1598 | 15.03 | 4.08 |
2026-08-30 19:46:34 | 0.41 | NNW | 0.53 | 26.99 | 0 | 1027.24 | 48 | 1600 | 15.04 | 4.08 |
2026-08-30 19:45:35 | 0.55 | NNW | 0.66 | 27.05 | 0 | 1027.18 | 47.65 | 1609 | 14.98 | 4.08 |
2026-08-30 19:44:37 | 0.77 | NNW | 0.84 | 27.13 | 0 | 1027.22 | 47.23 | 1619 | 14.92 | 4.08 |
2026-08-30 19:43:38 | 0.78 | NNW | 0.84 | 27.22 | 0 | 1027.17 | 46.92 | 1627 | 14.9 | 4.08 |
2026-08-30 19:42:39 | 0.82 | NNW | 0.92 | 27.34 | 0 | 1027.16 | 46.85 | 1629 | 14.98 | 4.08 |
2026-08-30 19:41:41 | 0.55 | NNW | 0.7 | 27.47 | 0 | 1027.16 | 46.65 | 1634 | 15.04 | 4.08 |
2026-08-30 19:40:42 | 0.39 | NNW | 0.48 | 27.57 | 0 | 1027.14 | 46.34 | 1641 | 15.02 | 4.08 |
2026-08-30 19:39:43 | 0.45 | NNW | 0.57 | 27.65 | 0 | 1027.1 | 46.09 | 1648 | 15.01 | 4.08 |
2026-08-30 19:38:44 | 0.77 | NNW | 0.84 | 27.72 | 0 | 1027.07 | 45.75 | 1656 | 14.96 | 4.08 |
2026-08-30 19:37:46 | 1.13 | NNW | 1.28 | 27.75 | 0 | 1027.08 | 45.25 | 1669 | 14.82 | 4.08 |
2026-08-30 19:36:47 | 1.18 | NNW | 1.28 | 27.75 | 0 | 1027.1 | 44.8 | 1680 | 14.66 | 4.08 |
2026-08-30 19:35:48 | 1.15 | NNW | 1.32 | 27.75 | 0 | 1027.07 | 44.66 | 1683 | 14.61 | 4.08 |
2026-08-30 19:34:49 | 0.96 | NNW | 1.1 | 27.77 | 0 | 1027.09 | 44.44 | 1689 | 14.55 | 4.08 |
2026-08-30 19:33:51 | 0.85 | NNW | 1.01 | 27.82 | 0 | 1027.1 | 44.45 | 1689 | 14.6 | 4.08 |
2026-08-30 19:32:52 | 0.86 | NNW | 1.1 | 27.87 | 0 | 1027.07 | 44.6 | 1685 | 14.7 | 4.08 |
2026-08-30 19:31:53 | 0.89 | NNW | 1.1 | 27.93 | 0 | 1027.08 | 44.26 | 1693 | 14.64 | 4.08 |
2026-08-30 19:30:54 | 0.93 | NNW | 1.01 | 27.98 | 0 | 1027.02 | 44.62 | 1684 | 14.81 | 4.08 |
2026-08-30 19:29:56 | 0.89 | NNW | 0.97 | 28.08 | 0 | 1026.99 | 44.15 | 1696 | 14.73 | 4.08 |
2026-08-30 19:28:57 | 0.94 | NNW | 1.1 | 28.13 | 0 | 1027.02 | 43.87 | 1703 | 14.68 | 4.08 |
2026-08-30 19:27:58 | 0.63 | NNW | 0.79 | 28.22 | 0 | 1027.01 | 43.44 | 1714 | 14.61 | 4.08 |
2026-08-30 19:26:59 | 0.54 | NNW | 0.88 | 28.27 | 0 | 1027.04 | 43.07 | 1723 | 14.52 | 4.08 |
2026-08-30 19:26:01 | 0.36 | NNW | 0.57 | 28.36 | 0 | 1027.01 | 43.84 | 1704 | 14.88 | 4.08 |
2026-08-30 19:25:02 | 0.35 | NNW | 0.44 | 28.46 | 0 | 1027.01 | 43.77 | 1706 | 14.94 | 4.08 |
2026-08-30 19:24:03 | 0.44 | NNW | 0.53 | 28.57 | 0 | 1027.03 | 44.09 | 1698 | 15.16 | 4.08 |
2026-08-30 19:23:04 | 0.64 | NNW | 0.7 | 28.68 | 0 | 1026.98 | 43.9 | 1702 | 15.19 | 4.08 |
2026-08-30 19:22:06 | 0.71 | NNW | 0.79 | 28.81 | 0 | 1026.97 | 43.67 | 1708 | 15.22 | 4.08 |
2026-08-30 19:21:07 | 0.72 | NNW | 0.84 | 28.95 | 0 | 1026.96 | 43.46 | 1713 | 15.27 | 4.08 |
2026-08-30 19:20:07 | 0.69 | NNW | 0.75 | 29.05 | 0 | 1026.96 | 42.72 | 1732 | 15.1 | 4.08 |
2026-08-30 19:19:08 | 0.72 | NNW | 0.79 | 29.15 | 0 | 1026.95 | 42.45 | 1739 | 15.09 | 4.08 |
2026-08-30 19:18:10 | 0.75 | NNW | 0.84 | 29.22 | 0 | 1027.01 | 42.15 | 1746 | 15.04 | 4.08 |
2026-08-30 19:17:11 | 0.84 | NNW | 0.88 | 29.3 | 0 | 1026.96 | 41.79 | 1755 | 14.98 | 4.08 |
2026-08-30 19:16:12 | 0.85 | NNW | 0.92 | 29.37 | 0 | 1026.97 | 41.88 | 1753 | 15.08 | 4.08 |
2026-08-30 19:15:13 | 0.87 | NNW | 0.92 | 29.44 | 0 | 1026.91 | 41.61 | 1760 | 15.04 | 4.08 |
2026-08-30 19:14:14 | 0.83 | NNW | 0.88 | 29.51 | 0 | 1026.91 | 41.39 | 1765 | 15.02 | 4.08 |
2026-08-30 19:13:15 | 0.76 | NNW | 0.84 | 29.57 | 0 | 1026.93 | 41.1 | 1772 | 14.96 | 4.08 |
2026-08-30 19:12:17 | 0.78 | NNW | 0.88 | 29.65 | 0 | 1026.94 | 40.98 | 1775 | 14.99 | 4.08 |
2026-08-30 19:11:18 | 0.68 | NNW | 0.75 | 29.71 | 0 | 1026.85 | 40.97 | 1776 | 15.04 | 4.08 |
2026-08-30 19:10:19 | 0.7 | NNW | 0.75 | 29.75 | 0 | 1026.88 | 40.95 | 1776 | 15.07 | 4.08 |
2026-08-30 19:09:20 | 0.7 | NNW | 0.75 | 29.78 | 0 | 1026.86 | 40.84 | 1779 | 15.05 | 4.08 |
2026-08-30 19:08:21 | 0.73 | NNW | 0.84 | 29.85 | 0 | 1026.87 | 41.12 | 1772 | 15.22 | 4.08 |
2026-08-30 19:07:22 | 0.78 | NNW | 0.84 | 29.91 | 0 | 1026.88 | 40.77 | 1781 | 15.14 | 4.08 |
2026-08-30 19:06:24 | 0.72 | NNW | 0.84 | 29.99 | 0 | 1026.86 | 41.14 | 1771 | 15.35 | 4.08 |
2026-08-30 19:05:25 | 0.73 | NNW | 0.79 | 30.02 | 0 | 1026.85 | 40.89 | 1778 | 15.29 | 4.08 |
2026-08-30 19:04:26 | 0.8 | NNW | 0.92 | 30.15 | 0 | 1026.86 | 40.64 | 1784 | 15.31 | 4.08 |
2026-08-30 19:03:27 | 0.82 | NNW | 0.92 | 30.27 | 0 | 1026.87 | 40.93 | 1777 | 15.52 | 4.08 |
2026-08-30 19:02:28 | 0.82 | NNW | 0.92 | 30.39 | 0 | 1026.86 | 40.39 | 1790 | 15.42 | 4.08 |
2026-08-30 19:01:29 | 0.8 | NNW | 0.88 | 30.5 | 0 | 1026.85 | 39.64 | 1809 | 15.23 | 4.08 |
2026-08-30 19:00:30 | 0.77 | NNW | 0.84 | 30.71 | 0 | 1026.88 | 39.64 | 1809 | 15.42 | 4.08 |
2026-08-30 18:59:32 | 0.6 | NNW | 0.7 | 30.85 | 0 | 1026.86 | 39.14 | 1821 | 15.34 | 4.08 |
2026-08-30 18:58:33 | 0.6 | NNW | 0.66 | 30.98 | 0 | 1026.88 | 38.8 | 1830 | 15.32 | 4.08 |
2026-08-30 18:57:34 | 0.61 | NNW | 0.79 | 31.11 | 0 | 1026.86 | 38.38 | 1840 | 15.27 | 4.08 |
2026-08-30 18:56:35 | 0.72 | NNW | 0.84 | 31.23 | 0 | 1026.85 | 38.04 | 1849 | 15.24 | 4.08 |
2026-08-30 18:55:36 | 0.67 | NNW | 0.7 | 31.33 | 0 | 1026.87 | 37.88 | 1853 | 15.26 | 4.08 |
2026-08-30 18:54:37 | 0.88 | NNW | 1.06 | 31.37 | 0 | 1026.84 | 37.02 | 1874 | 14.94 | 4.08 |
2026-08-30 18:53:39 | 0.85 | NNW | 0.88 | 31.42 | 0 | 1026.88 | 36.63 | 1884 | 14.82 | 4.08 |
2026-08-30 18:52:40 | 0.87 | NNW | 1.06 | 31.5 | 0 | 1026.87 | 36.75 | 1881 | 14.94 | 4.08 |
2026-08-30 18:51:41 | 0.91 | NNW | 1.06 | 31.61 | 0 | 1026.89 | 37.16 | 1871 | 15.21 | 4.08 |
2026-08-30 18:50:42 | 0.82 | NNW | 0.88 | 31.7 | 0 | 1026.92 | 37.19 | 1870 | 15.3 | 4.08 |
2026-08-30 18:49:43 | 1.19 | NNW | 1.36 | 31.8 | 0 | 1026.88 | 36.22 | 1894 | 14.98 | 4.08 |
2026-08-30 18:48:44 | 0.84 | NNW | 0.92 | 31.99 | 0 | 1026.92 | 36.23 | 1894 | 15.15 | 4.08 |
2026-08-30 18:47:45 | 0.81 | NNW | 1.1 | 32.21 | 0 | 1026.88 | 36.37 | 1891 | 15.4 | 4.08 |
2026-08-30 18:46:46 | 1.09 | NNW | 1.36 | 32.44 | 0 | 1026.87 | 35.47 | 1913 | 15.22 | 4.08 |
2026-08-30 18:45:48 | 0.85 | NNW | 0.97 | 32.76 | 0 | 1026.86 | 35.06 | 1923 | 15.32 | 4.08 |
2026-08-30 18:44:49 | 0.82 | NNW | 1.06 | 32.93 | 0 | 1026.85 | 34.76 | 1931 | 15.33 | 4.08 |
2026-08-30 18:43:50 | 0.58 | NNW | 1.06 | 33.15 | 0 | 1026.88 | 34.55 | 1936 | 15.43 | 4.08 |
2026-08-30 18:42:51 | 0.57 | NNW | 0.97 | 33.26 | 0 | 1026.9 | 34.44 | 1939 | 15.48 | 4.08 |
2026-08-30 18:41:52 | 0.47 | NNW | 0.7 | 33.41 | 0 | 1026.87 | 34.56 | 1936 | 15.66 | 4.08 |
2026-08-30 18:40:53 | 0.52 | NNW | 0.79 | 33.52 | 0 | 1026.87 | 34.16 | 1946 | 15.58 | 4.08 |
2026-08-30 18:39:54 | 0.41 | NNW | 0.53 | 33.6 | 0 | 1026.86 | 33.82 | 1954 | 15.49 | 4.08 |
2026-08-30 18:38:55 | 0.29 | NNW | 0.62 | 33.69 | 0 | 1026.89 | 33.75 | 1956 | 15.54 | 4.08 |
2026-08-30 18:37:56 | 0.13 | NNW | 0.48 | 33.77 | 0 | 1026.87 | 33.89 | 1953 | 15.67 | 4.08 |
2026-08-30 18:36:57 | 0 | NNW | 0 | 33.75 | 0 | 1026.89 | 33.78 | 1955 | 15.6 | 4.08 |
2026-08-30 18:35:58 | 0.2 | NNW | 0.7 | 33.67 | 0 | 1026.85 | 33.9 | 1952 | 15.59 | 4.08 |
2026-08-30 18:35:00 | 0 | NNW | 0 | 33.7 | 0 | 1026.89 | 34.54 | 1936 | 15.91 | 4.08 |
2026-08-30 18:34:01 | 0.31 | NNW | 0.57 | 33.65 | 0 | 1026.84 | 34.21 | 1945 | 15.71 | 4.08 |
2026-08-30 18:33:02 | 0.2 | NNW | 0.62 | 33.62 | 0 | 1026.85 | 34.03 | 1949 | 15.6 | 4.08 |
2026-08-30 18:32:03 | 0 | NNW | 0 | 33.57 | 0 | 1026.92 | 34.49 | 1938 | 15.77 | 4.08 |
2026-08-30 18:31:04 | 0.71 | NNW | 0.97 | 33.53 | 0 | 1026.9 | 34.02 | 1949 | 15.52 | 4.08 |
2026-08-30 18:30:05 | 0.56 | NNW | 0.75 | 33.56 | 0 | 1026.91 | 34.67 | 1933 | 15.84 | 4.08 |
2026-08-30 18:29:04 | 0.19 | NNW | 0.84 | 33.5 | 0 | 1026.87 | 34.07 | 1948 | 15.52 | 4.08 |
2026-08-30 18:28:05 | 0.18 | NNW | 0.62 | 33.41 | 0 | 1026.88 | 33.92 | 1952 | 15.37 | 4.08 |
2026-08-30 18:27:07 | 0.38 | NNW | 1.14 | 33.39 | 0 | 1026.87 | 33.33 | 1967 | 15.08 | 4.08 |
2026-08-30 18:26:08 | 0.41 | NNW | 1.06 | 33.38 | 0 | 1026.89 | 34.87 | 1928 | 15.77 | 4.08 |
2026-08-30 18:25:09 | 0.77 | NNW | 1.01 | 33.39 | 0 | 1026.88 | 34.04 | 1949 | 15.41 | 4.08 |
2026-08-30 18:24:10 | 0.64 | NNW | 1.54 | 33.49 | 0 | 1026.89 | 34.44 | 1939 | 15.68 | 4.08 |
2026-08-30 18:23:11 | 0.12 | NNW | 0.22 | 33.48 | 0 | 1026.89 | 34.38 | 1940 | 15.64 | 4.08 |
2026-08-30 18:22:12 | 0.63 | NNW | 0.79 | 33.53 | 0 | 1026.87 | 34.61 | 1935 | 15.79 | 4.08 |
2026-08-30 18:21:13 | 0.9 | NNW | 1.28 | 33.75 | 0 | 1026.88 | 33.67 | 1958 | 15.55 | 4.08 |
2026-08-30 18:20:14 | 0.76 | N | 1.28 | 33.84 | 0 | 1026.87 | 34.05 | 1949 | 15.8 | 4.08 |
2026-08-30 18:19:15 | 0.08 | NW | 0.26 | 33.96 | 0 | 1026.89 | 33.94 | 1951 | 15.86 | 4.08 |
2026-08-30 18:18:16 | 0.21 | NW | 0.57 | 34.03 | 0 | 1026.85 | 33.88 | 1953 | 15.89 | 4.08 |
2026-08-30 18:17:18 | 0.41 | NW | 0.75 | 34.1 | 0 | 1026.9 | 33.47 | 1963 | 15.76 | 4.08 |
2026-08-30 18:16:19 | 0 | NW | 0 | 34.12 | 0 | 1026.86 | 33.08 | 1973 | 15.6 | 4.08 |
2026-08-30 18:15:20 | 0.61 | NW | 1.01 | 34.22 | 0 | 1026.83 | 32.75 | 1981 | 15.53 | 4.08 |
2026-08-30 18:14:21 | 0.67 | NW | 1.32 | 34.29 | 0 | 1026.88 | 32.97 | 1976 | 15.69 | 4.08 |
2026-08-30 18:13:22 | 0.2 | NW | 0.88 | 34.32 | 0 | 1026.83 | 32.44 | 1989 | 15.47 | 4.08 |
2026-08-30 18:12:22 | 0.16 | NW | 0.79 | 34.22 | 0 | 1026.83 | 34.04 | 1949 | 16.13 | 4.08 |
2026-08-30 18:11:23 | 0.15 | NW | 0.62 | 34.24 | 0 | 1026.87 | 32.92 | 1977 | 15.63 | 4.08 |
2026-08-30 18:10:24 | 0.2 | NW | 0.84 | 34.18 | 0 | 1026.83 | 33.37 | 1966 | 15.79 | 4.08 |
2026-08-30 18:09:25 | 0 | NW | 0 | 34.17 | 0 | 1026.85 | 34.33 | 1942 | 16.22 | 4.08 |
2026-08-30 18:08:26 | 0.12 | NW | 0.22 | 34.22 | 0 | 1026.8 | 34.79 | 1930 | 16.47 | 4.08 |
2026-08-30 18:07:27 | 0.82 | NW | 1.23 | 34.32 | 0 | 1026.84 | 33.74 | 1956 | 16.08 | 4.08 |
2026-08-30 18:06:28 | 0.4 | NW | 1.23 | 34.48 | 0 | 1026.86 | 33 | 1975 | 15.87 | 4.08 |
2026-08-30 18:05:29 | 0.41 | WNW | 0.79 | 34.54 | 0 | 1026.85 | 33.6 | 1960 | 16.21 | 4.08 |
2026-08-30 18:04:30 | 0.62 | WNW | 0.75 | 34.55 | 0 | 1026.89 | 32.3 | 1992 | 15.6 | 4.08 |
2026-08-30 18:03:31 | 0.48 | WNW | 0.75 | 34.69 | 0 | 1026.82 | 32.25 | 1994 | 15.7 | 4.08 |
2026-08-30 18:02:32 | 0.18 | WNW | 0.53 | 34.7 | 0 | 1026.87 | 33.22 | 1969 | 16.17 | 4.09 |
2026-08-30 18:01:34 | 0 | WNW | 0 | 34.62 | 0 | 1026.82 | 33.1 | 1972 | 16.04 | 4.08 |
2026-08-30 18:00:35 | 0 | WNW | 0 | 34.51 | 0 | 1026.8 | 33.03 | 1974 | 15.91 | 4.09 |
2026-08-30 17:59:36 | 0.16 | WNW | 0.4 | 34.49 | 0 | 1026.86 | 33.78 | 1955 | 16.25 | 4.08 |
2026-08-30 17:58:36 | 0.43 | WNW | 0.79 | 34.37 | 0 | 1026.91 | 33.66 | 1958 | 16.09 | 4.09 |
2026-08-30 17:57:38 | 0.4 | WNW | 0.57 | 34.22 | 0 | 1026.85 | 34.51 | 1937 | 16.35 | 4.09 |
2026-08-30 17:56:38 | 0.65 | WNW | 0.97 | 34.24 | 0 | 1026.88 | 33.6 | 1960 | 15.95 | 4.09 |
2026-08-30 17:54:41 | 0.7 | WNW | 1.58 | 34.21 | 0 | 1026.82 | 34.55 | 1936 | 16.36 | 4.09 |
2026-08-30 17:53:42 | 0.82 | WNW | 1.14 | 34.29 | 0 | 1026.84 | 33.23 | 1969 | 15.82 | 4.09 |
2026-08-30 17:52:43 | 0.73 | WNW | 0.97 | 34.32 | 0 | 1026.84 | 33.02 | 1974 | 15.74 | 4.09 |
2026-08-30 17:51:44 | 0.46 | W | 0.84 | 34.28 | 0 | 1026.84 | 33.11 | 1972 | 15.75 | 4.09 |
2026-08-30 17:50:44 | 0.49 | W | 0.57 | 34.03 | 0 | 1026.81 | 34.17 | 1946 | 16.03 | 4.09 |
2026-08-30 17:49:45 | 0.66 | WSW | 1.06 | 33.86 | 0 | 1026.84 | 34.36 | 1941 | 15.96 | 4.09 |
2026-08-30 17:48:46 | 0.32 | SSW | 0.53 | 33.81 | 0 | 1026.88 | 34.58 | 1935 | 16.02 | 4.09 |
2026-08-30 17:47:47 | 0.57 | SSW | 0.75 | 33.99 | 0 | 1026.87 | 33.34 | 1966 | 15.61 | 4.09 |
2026-08-30 17:46:49 | 0.09 | SSW | 0.48 | 34.15 | 0 | 1026.85 | 33.11 | 1972 | 15.64 | 4.09 |
2026-08-30 17:45:49 | 0 | SSW | 0 | 34.14 | 0 | 1026.84 | 34.17 | 1946 | 16.12 | 4.09 |
2026-08-30 17:44:50 | 0 | SSW | 0 | 33.99 | 0 | 1026.89 | 33.58 | 1960 | 15.72 | 4.09 |
2026-08-30 17:43:51 | 0 | SSW | 0 | 33.8 | 0 | 1026.89 | 34.2 | 1945 | 15.84 | 4.09 |
2026-08-30 17:42:52 | 0 | SSW | 0 | 33.53 | 0 | 1026.88 | 35.13 | 1922 | 16.02 | 4.09 |
2026-08-30 17:41:54 | 0 | SSW | 0 | 33.38 | 0 | 1026.88 | 34.5 | 1937 | 15.61 | 4.09 |
2026-08-30 17:40:54 | 0 | SSW | 0 | 33.29 | 0 | 1026.86 | 35.39 | 1915 | 15.93 | 4.09 |
2026-08-30 17:39:56 | 0.12 | SSW | 0.31 | 33.14 | 0 | 1026.87 | 35.5 | 1912 | 15.84 | 4.09 |
2026-08-30 17:38:57 | 0.49 | SSW | 0.66 | 33.08 | 0 | 1026.89 | 35.51 | 1912 | 15.8 | 4.09 |
2026-08-30 17:37:58 | 0.53 | SSW | 0.75 | 33.03 | 0 | 1026.89 | 36.54 | 1886 | 16.2 | 4.09 |
2026-08-30 17:36:59 | 0.34 | SSW | 0.48 | 32.9 | 0 | 1026.87 | 35.72 | 1907 | 15.73 | 4.09 |
2026-08-30 17:36:00 | 0.49 | SSW | 0.57 | 32.74 | 0 | 1026.91 | 35.34 | 1916 | 15.42 | 4.09 |
2026-08-30 17:35:01 | 0.67 | SSW | 0.7 | 32.62 | 0 | 1026.91 | 35.86 | 1903 | 15.54 | 4.09 |
2026-08-30 17:34:02 | 0.9 | SSW | 1.01 | 32.63 | 0 | 1026.89 | 35.9 | 1902 | 15.57 | 4.09 |
2026-08-30 17:33:03 | 0.83 | SSW | 1.1 | 32.71 | 0 | 1026.97 | 36.85 | 1879 | 16.05 | 4.09 |
2026-08-30 17:32:04 | 0.93 | S | 1.32 | 32.8 | 0 | 1026.95 | 36.4 | 1890 | 15.94 | 4.09 |
2026-08-30 17:31:05 | 0.8 | S | 1.19 | 32.9 | 0 | 1026.97 | 35.92 | 1902 | 15.82 | 4.09 |
2026-08-30 17:30:05 | 0 | ENE | 0 | 32.83 | 0 | 1026.95 | 36.22 | 1894 | 15.89 | 4.09 |
2026-08-30 17:29:06 | 0.44 | ENE | 0.92 | 32.53 | 0 | 1026.99 | 36.32 | 1892 | 15.66 | 4.09 |
2026-08-30 17:28:07 | 0 | ENE | 0 | 32.26 | 0 | 1027 | 38.5 | 1837 | 16.34 | 4.09 |
2026-08-30 17:27:08 | 0 | ENE | 0 | 31.98 | 0 | 1027.02 | 38.31 | 1842 | 16.01 | 4.09 |
2026-08-30 17:26:09 | 0 | ENE | 0 | 31.74 | 0 | 1026.96 | 37.77 | 1856 | 15.58 | 4.09 |
2026-08-30 17:25:10 | 0 | ENE | 0 | 31.54 | 0 | 1027 | 37.99 | 1850 | 15.49 | 4.09 |
2026-08-30 17:24:11 | 0 | ENE | 0 | 31.42 | 0 | 1027 | 38.15 | 1846 | 15.45 | 4.09 |
2026-08-30 17:23:13 | 0.53 | ENE | 0.79 | 31.32 | 0 | 1027.01 | 38.1 | 1847 | 15.34 | 4.09 |
2026-08-30 17:22:13 | 0.54 | ENE | 0.79 | 31.25 | 0 | 1027.01 | 38.17 | 1846 | 15.31 | 4.09 |
2026-08-30 17:21:14 | 0.67 | ENE | 0.75 | 31.11 | 0 | 1026.95 | 38.34 | 1841 | 15.25 | 4.09 |
2026-08-30 17:20:15 | 0.72 | ENE | 0.92 | 30.95 | 0 | 1027 | 39.48 | 1813 | 15.57 | 4.09 |
2026-08-30 17:19:16 | 0.71 | ENE | 0.97 | 30.67 | 0 | 1027.03 | 40.88 | 1778 | 15.86 | 4.09 |
2026-08-30 17:18:18 | 0.65 | ENE | 0.75 | 30.4 | 0 | 1027.03 | 40.27 | 1793 | 15.39 | 4.09 |
2026-08-30 17:17:19 | 1.36 | ENE | 1.45 | 30.2 | 0 | 1027.02 | 40.45 | 1789 | 15.28 | 4.09 |
2026-08-30 17:16:20 | 1.91 | ENE | 2.64 | 30.18 | 0 | 1027 | 40.39 | 1790 | 15.24 | 4.09 |
2026-08-30 17:14:21 | 2.06 | ENE | 2.38 | 30.26 | 0 | 1027.04 | 40.28 | 1793 | 15.27 | 4.09 |
2026-08-30 17:13:21 | 1.86 | ENE | 2.11 | 30.32 | 0 | 1026.97 | 41.28 | 1768 | 15.7 | 4.09 |
2026-08-30 17:12:22 | 2.04 | ENE | 2.46 | 30.39 | 0 | 1027.01 | 40.29 | 1793 | 15.39 | 4.09 |
2026-08-30 17:11:22 | 2.31 | ENE | 2.95 | 30.51 | 0 | 1026.98 | 40.29 | 1793 | 15.49 | 4.09 |
2026-08-30 17:10:23 | 1.8 | ENE | 2.64 | 30.64 | 0 | 1027.03 | 39.98 | 1800 | 15.49 | 4.09 |
2026-08-30 17:09:24 | 1.46 | ENE | 1.76 | 30.71 | 0 | 1027.02 | 39.95 | 1801 | 15.54 | 4.09 |
2026-08-30 17:08:25 | 1.53 | ENE | 1.76 | 30.75 | 0 | 1027.04 | 39.26 | 1818 | 15.3 | 4.09 |
2026-08-30 17:07:26 | 1.46 | NE | 1.76 | 30.81 | 0 | 1027.03 | 39.37 | 1816 | 15.4 | 4.09 |
2026-08-30 17:06:27 | 1.03 | ENE | 1.14 | 30.82 | 0 | 1027.03 | 39.74 | 1806 | 15.56 | 4.09 |
2026-08-30 17:05:29 | 1.13 | ENE | 1.32 | 30.77 | 0 | 1027.05 | 39.27 | 1818 | 15.32 | 4.09 |
2026-08-30 17:04:30 | 1.14 | ENE | 1.41 | 30.78 | 0 | 1027.07 | 39.41 | 1815 | 15.39 | 4.09 |
2026-08-30 17:03:31 | 1.64 | ENE | 1.98 | 30.8 | 0 | 1027.07 | 39.31 | 1817 | 15.37 | 4.09 |
2026-08-30 17:02:32 | 1.7 | ENE | 1.94 | 30.91 | 0 | 1027.06 | 39.71 | 1807 | 15.62 | 4.09 |
2026-08-30 17:01:33 | 2 | ENE | 2.29 | 31.09 | 0 | 1027.12 | 38.62 | 1834 | 15.35 | 4.09 |
2026-08-30 17:00:34 | 1.21 | ENE | 1.89 | 31.26 | 0 | 1027.07 | 38.99 | 1825 | 15.65 | 4.09 |
2026-08-30 16:59:35 | 0.21 | ENE | 0.48 | 31.21 | 0 | 1027.08 | 39.17 | 1821 | 15.68 | 4.09 |
2026-08-30 16:58:36 | 0.39 | ENE | 0.53 | 31.08 | 0 | 1027.09 | 38.84 | 1829 | 15.43 | 4.09 |
2026-08-30 16:57:37 | 0.96 | ENE | 1.1 | 31.15 | 0 | 1027.13 | 38.58 | 1835 | 15.39 | 4.09 |
2026-08-30 16:56:35 | 1.53 | NE | 2.07 | 31.25 | 0 | 1027.13 | 38.52 | 1837 | 15.45 | 4.09 |
2026-08-30 16:55:36 | 0.69 | NE | 1.89 | 31.4 | 0 | 1027.12 | 38.68 | 1833 | 15.65 | 4.09 |
2026-08-30 16:54:38 | 1.65 | NE | 2.29 | 31.43 | 0 | 1027.15 | 38.3 | 1842 | 15.52 | 4.09 |
2026-08-30 16:53:39 | 1.21 | NNE | 1.54 | 31.54 | 0 | 1027.16 | 38.84 | 1829 | 15.84 | 4.09 |
2026-08-30 16:52:40 | 0.83 | NNE | 1.32 | 31.47 | 0 | 1027.13 | 39.54 | 1811 | 16.06 | 4.09 |
2026-08-30 16:51:41 | 0.99 | NNE | 1.45 | 31.36 | 0 | 1027.13 | 39.8 | 1805 | 16.06 | 4.09 |
2026-08-30 16:50:42 | 0.83 | NNE | 1.23 | 31.22 | 0 | 1027.16 | 39.71 | 1807 | 15.9 | 4.09 |
2026-08-30 16:49:43 | 1.05 | NNE | 1.72 | 31.03 | 0 | 1027.17 | 40.1 | 1797 | 15.88 | 4.09 |
2026-08-30 16:48:44 | 1.12 | NNE | 1.36 | 30.91 | 0 | 1027.09 | 40.66 | 1783 | 15.99 | 4.09 |
2026-08-30 16:47:45 | 1.49 | ENE | 2.11 | 30.81 | 0 | 1027.14 | 40.85 | 1779 | 15.98 | 4.09 |
2026-08-30 16:46:46 | 1.09 | N | 1.72 | 30.71 | 0 | 1027.12 | 41.43 | 1764 | 16.11 | 4.09 |
2026-08-30 16:45:46 | 1.19 | NE | 1.67 | 30.56 | 0 | 1027.12 | 41.5 | 1762 | 16 | 4.09 |
2026-08-30 16:44:47 | 1.31 | NNE | 1.72 | 30.51 | 0 | 1027.16 | 40.72 | 1782 | 15.66 | 4.09 |
2026-08-30 16:43:48 | 2.23 | NE | 2.68 | 30.51 | 0 | 1027.16 | 41.77 | 1756 | 16.06 | 4.09 |
2026-08-30 16:42:49 | 2.24 | NE | 2.6 | 30.6 | 0 | 1027.11 | 40.23 | 1794 | 15.55 | 4.09 |
2026-08-30 16:41:50 | 2.1 | NE | 2.86 | 30.68 | 0 | 1027.13 | 40.22 | 1794 | 15.62 | 4.09 |
2026-08-30 16:40:51 | 1.94 | E | 2.77 | 30.67 | 0 | 1027.16 | 41.78 | 1755 | 16.2 | 4.09 |
2026-08-30 16:39:52 | 1.53 | ENE | 2.11 | 30.66 | 0 | 1027.13 | 41.36 | 1766 | 16.04 | 4.09 |
2026-08-30 16:38:53 | 1.65 | ENE | 2.16 | 30.73 | 0 | 1027.19 | 41.31 | 1767 | 16.08 | 4.09 |
2026-08-30 16:37:54 | 1.15 | NE | 1.8 | 30.74 | 0 | 1027.17 | 41.03 | 1774 | 15.98 | 4.09 |
2026-08-30 16:36:56 | 1.2 | NNE | 1.5 | 30.61 | 0 | 1027.19 | 41.84 | 1754 | 16.17 | 4.09 |
2026-08-30 16:35:56 | 1.45 | NNE | 1.76 | 30.42 | 0 | 1027.19 | 41.5 | 1762 | 15.88 | 4.09 |
2026-08-30 16:34:57 | 1.6 | NE | 2.11 | 30.26 | 0 | 1027.22 | 42.92 | 1727 | 16.26 | 4.09 |
2026-08-30 16:33:58 | 1.79 | NE | 2.46 | 30.2 | 0 | 1027.21 | 43.07 | 1723 | 16.26 | 4.09 |
2026-08-30 16:32:59 | 1.98 | ENE | 2.29 | 30.2 | 0 | 1027.2 | 41.16 | 1771 | 15.55 | 4.09 |
2026-08-30 16:32:00 | 1.96 | NE | 2.77 | 30.26 | 0 | 1027.2 | 42.53 | 1737 | 16.12 | 4.09 |
2026-08-30 16:31:01 | 2.04 | NE | 2.86 | 30.3 | 0 | 1027.24 | 41.23 | 1769 | 15.67 | 4.09 |
2026-08-30 16:30:02 | 1.79 | NNE | 2.33 | 30.36 | 0 | 1027.23 | 43.14 | 1721 | 16.43 | 4.09 |
2026-08-30 16:29:03 | 2.41 | NE | 2.95 | 30.34 | 0 | 1027.26 | 41.37 | 1766 | 15.75 | 4.09 |
2026-08-30 16:28:04 | 1.86 | ENE | 3.21 | 30.43 | 0 | 1027.25 | 43.29 | 1718 | 16.55 | 4.09 |
2026-08-30 16:27:05 | 2.57 | NE | 3.17 | 30.4 | 0 | 1027.28 | 40.81 | 1780 | 15.59 | 4.09 |
2026-08-30 16:26:06 | 2.17 | ENE | 3.12 | 30.51 | 0 | 1027.31 | 41.24 | 1769 | 15.86 | 4.09 |
2026-08-30 16:25:07 | 1.27 | NNE | 1.63 | 30.57 | 0 | 1027.33 | 41.21 | 1770 | 15.9 | 4.09 |
2026-08-30 16:24:08 | 1.59 | NNE | 1.72 | 30.54 | 0 | 1027.33 | 42.27 | 1743 | 16.27 | 4.09 |
2026-08-30 16:23:09 | 2.2 | NNE | 3.39 | 30.56 | 0 | 1027.34 | 41.74 | 1756 | 16.09 | 4.09 |
2026-08-30 16:22:10 | 2.59 | ENE | 3.7 | 30.71 | 0 | 1027.32 | 41.11 | 1772 | 15.99 | 4.09 |
2026-08-30 16:21:11 | 2.47 | ENE | 3.92 | 30.97 | 0 | 1027.32 | 42.51 | 1737 | 16.75 | 4.09 |
2026-08-30 16:20:12 | 2.7 | ENE | 4.05 | 31.12 | 0 | 1027.33 | 42.66 | 1733 | 16.94 | 4.09 |
2026-08-30 16:19:13 | 1.26 | NNE | 1.45 | 31.21 | 0 | 1027.34 | 41.44 | 1764 | 16.56 | 4.09 |
2026-08-30 16:18:14 | 1.42 | NNE | 1.94 | 31.14 | 0 | 1027.34 | 42.18 | 1745 | 16.78 | 4.09 |
2026-08-30 16:17:15 | 1.52 | ENE | 2.16 | 31.06 | 0 | 1027.32 | 41.02 | 1774 | 16.27 | 4.09 |
2026-08-30 16:16:16 | 1.2 | NNW | 1.54 | 30.98 | 0 | 1027.43 | 41.66 | 1758 | 16.44 | 4.09 |
2026-08-30 16:15:17 | 1.43 | NW | 1.85 | 30.87 | 0 | 1027.35 | 39.87 | 1803 | 15.65 | 4.09 |
2026-08-30 16:14:18 | 1.26 | N | 1.63 | 30.78 | 0 | 1027.38 | 40.14 | 1796 | 15.68 | 4.09 |
2026-08-30 16:13:19 | 1.1 | NE | 1.32 | 30.66 | 0 | 1027.4 | 40.68 | 1783 | 15.78 | 4.09 |
2026-08-30 16:12:20 | 2.36 | NE | 2.82 | 30.63 | 0 | 1027.39 | 40.45 | 1789 | 15.66 | 4.09 |
2026-08-30 16:11:21 | 1.52 | NE | 2.68 | 30.68 | 0 | 1027.42 | 41.05 | 1774 | 15.94 | 4.09 |
2026-08-30 16:10:22 | 0.77 | SSE | 1.06 | 30.53 | 0 | 1027.43 | 41.55 | 1761 | 15.99 | 4.09 |
2026-08-30 16:09:23 | 0.83 | SSE | 1.23 | 30.39 | 0 | 1027.43 | 41.86 | 1753 | 15.98 | 4.09 |
2026-08-30 16:08:24 | 0.83 | ESE | 0.97 | 30.33 | 0 | 1027.5 | 41.02 | 1774 | 15.61 | 4.09 |
2026-08-30 16:07:25 | 1.77 | NE | 3.48 | 30.39 | 0 | 1027.51 | 41 | 1775 | 15.66 | 4.09 |
2026-08-30 16:06:26 | 1.98 | ENE | 2.73 | 30.47 | 0 | 1027.51 | 40.89 | 1778 | 15.69 | 4.09 |
2026-08-30 16:05:27 | 1.32 | ENE | 1.63 | 30.5 | 0 | 1027.45 | 41.67 | 1758 | 16.01 | 4.09 |
2026-08-30 16:04:28 | 1.72 | NE | 2.07 | 30.39 | 0 | 1027.52 | 41.06 | 1773 | 15.68 | 4.09 |
2026-08-30 16:03:29 | 1.24 | NE | 1.45 | 30.29 | 0 | 1027.54 | 43.67 | 1708 | 16.56 | 4.09 |
2026-08-30 16:02:30 | 1.38 | NE | 1.85 | 30.11 | 0 | 1027.55 | 44.15 | 1696 | 16.57 | 4.09 |
2026-08-30 16:01:31 | 1.53 | NE | 1.72 | 30.05 | 0 | 1027.55 | 42.37 | 1741 | 15.87 | 4.09 |
2026-08-30 16:00:32 | 1.86 | NE | 2.16 | 29.99 | 0 | 1027.54 | 42.49 | 1738 | 15.86 | 4.09 |
2026-08-30 15:59:33 | 1.49 | NE | 2.24 | 29.87 | 0 | 1027.55 | 42.74 | 1731 | 15.84 | 4.09 |
2026-08-30 15:58:34 | 0.95 | ESE | 1.1 | 29.72 | 0 | 1027.56 | 43.48 | 1713 | 15.98 | 4.09 |
2026-08-30 15:57:35 | 1.69 | ESE | 1.89 | 29.63 | 0 | 1027.59 | 42.48 | 1738 | 15.53 | 4.09 |
2026-08-30 15:56:36 | 2.19 | SE | 2.64 | 29.6 | 0 | 1027.6 | 42.39 | 1740 | 15.47 | 4.09 |
2026-08-30 15:55:37 | 2.43 | SE | 2.86 | 29.58 | 0 | 1027.54 | 42.72 | 1732 | 15.57 | 4.09 |
2026-08-30 15:54:38 | 2.81 | ESE | 3.61 | 29.6 | 0 | 1027.56 | 42.84 | 1729 | 15.64 | 4.09 |
2026-08-30 15:53:39 | 2.58 | E | 2.82 | 29.68 | 0 | 1027.49 | 42.62 | 1734 | 15.63 | 4.09 |
2026-08-30 15:52:39 | 2.73 | E | 3.04 | 29.79 | 0 | 1027.54 | 42.24 | 1744 | 15.59 | 4.09 |
2026-08-30 15:51:41 | 3.02 | ENE | 3.48 | 29.98 | 0 | 1027.53 | 41.7 | 1757 | 15.56 | 4.09 |
2026-08-30 15:50:41 | 3.1 | ENE | 3.65 | 30.14 | 0 | 1027.54 | 41.99 | 1750 | 15.81 | 4.09 |
2026-08-30 15:49:42 | 2.17 | E | 2.82 | 30.37 | 0 | 1027.53 | 41.52 | 1762 | 15.84 | 4.09 |
2026-08-30 15:48:43 | 1.89 | ENE | 2.02 | 30.54 | 0 | 1027.55 | 40.96 | 1776 | 15.78 | 4.09 |
2026-08-30 15:47:44 | 2.2 | E | 3.12 | 30.71 | 0 | 1027.57 | 40.79 | 1780 | 15.86 | 4.09 |
2026-08-30 15:46:45 | 1.24 | E | 2.24 | 30.77 | 0 | 1027.5 | 40.8 | 1780 | 15.92 | 4.09 |
2026-08-30 15:45:45 | 0.77 | NE | 0.97 | 30.64 | 0 | 1027.57 | 41.69 | 1758 | 16.14 | 4.09 |
2026-08-30 15:44:47 | 1.02 | NE | 1.32 | 30.59 | 0 | 1027.62 | 42.43 | 1739 | 16.38 | 4.09 |
2026-08-30 15:43:48 | 1.53 | NE | 1.72 | 30.51 | 0 | 1027.63 | 43.32 | 1717 | 16.63 | 4.09 |
2026-08-30 15:42:49 | 1.75 | NE | 2.16 | 30.48 | 0 | 1027.59 | 42.61 | 1735 | 16.34 | 4.09 |
2026-08-30 15:41:49 | 1.25 | NE | 1.58 | 30.4 | 0 | 1027.6 | 44.26 | 1693 | 16.87 | 4.09 |
2026-08-30 15:40:50 | 1.7 | NNE | 2.33 | 30.2 | 0 | 1027.57 | 43.74 | 1706 | 16.5 | 4.09 |
2026-08-30 15:39:51 | 2.5 | ENE | 3.52 | 30.06 | 0 | 1027.64 | 44.9 | 1677 | 16.79 | 4.09 |
2026-08-30 15:38:52 | 3.07 | ENE | 4.53 | 30.04 | 0 | 1027.61 | 41.88 | 1753 | 15.68 | 4.09 |
2026-08-30 15:37:53 | 2.45 | ENE | 3.34 | 29.99 | 0 | 1027.68 | 45.89 | 1653 | 17.07 | 4.09 |
2026-08-30 15:36:54 | 2.57 | E | 2.95 | 29.89 | 0 | 1027.62 | 43.01 | 1725 | 15.96 | 4.09 |
2026-08-30 15:35:55 | 1.92 | ENE | 2.77 | 29.84 | 0 | 1027.68 | 42.07 | 1748 | 15.57 | 4.09 |
2026-08-30 15:34:56 | 2.33 | NE | 2.68 | 29.82 | 0 | 1027.66 | 42.55 | 1736 | 15.73 | 4.09 |
2026-08-30 15:33:57 | 2.23 | ENE | 2.51 | 29.82 | 0 | 1027.65 | 43 | 1725 | 15.89 | 4.09 |
2026-08-30 15:32:58 | 2.97 | ENE | 3.61 | 29.82 | 0 | 1027.63 | 41.93 | 1752 | 15.5 | 4.09 |
2026-08-30 15:31:59 | 2.38 | ENE | 3.04 | 29.85 | 0 | 1027.66 | 42.3 | 1742 | 15.66 | 4.09 |
2026-08-30 15:31:00 | 2.83 | NE | 3.3 | 29.87 | 0 | 1027.64 | 44.03 | 1699 | 16.31 | 4.09 |
2026-08-30 15:30:01 | 3.31 | ENE | 3.78 | 29.93 | 0 | 1027.64 | 43.02 | 1724 | 16 | 4.09 |
2026-08-30 15:29:02 | 3.27 | NE | 3.87 | 30.02 | 0 | 1027.67 | 43.37 | 1716 | 16.21 | 4.09 |
2026-08-30 15:28:03 | 3.43 | ENE | 5.15 | 30.08 | 0 | 1027.66 | 42.81 | 1730 | 16.06 | 4.09 |
2026-08-30 15:27:04 | 2.74 | NE | 3.04 | 30.09 | 0 | 1027.7 | 43.12 | 1722 | 16.18 | 4.09 |
2026-08-30 15:26:05 | 2.66 | ENE | 3.48 | 30.02 | 0 | 1027.71 | 43.78 | 1705 | 16.35 | 4.09 |
2026-08-30 15:25:06 | 1.16 | ESE | 2.51 | 29.84 | 0 | 1027.76 | 42.93 | 1727 | 15.88 | 4.09 |
2026-08-30 15:24:07 | 1.29 | NNE | 1.8 | 29.6 | 0 | 1027.75 | 43.62 | 1709 | 15.92 | 4.09 |
2026-08-30 15:23:08 | 2.13 | NNE | 2.77 | 29.44 | 0 | 1027.74 | 44.37 | 1691 | 16.04 | 4.09 |
2026-08-30 15:22:09 | 2.49 | ENE | 2.82 | 29.26 | 0 | 1027.79 | 45.48 | 1663 | 16.27 | 4.09 |
2026-08-30 15:21:10 | 2.89 | ENE | 3.17 | 29.15 | 0 | 1027.77 | 44.21 | 1695 | 15.72 | 4.09 |
2026-08-30 15:20:11 | 3.57 | ENE | 3.87 | 29.15 | 0 | 1027.73 | 44.34 | 1691 | 15.77 | 4.09 |
2026-08-30 15:19:12 | 3.82 | E | 4.14 | 29.19 | 0 | 1027.75 | 44.35 | 1691 | 15.81 | 4.09 |
2026-08-30 15:18:13 | 4.99 | ENE | 5.81 | 29.36 | 0 | 1027.7 | 43.72 | 1707 | 15.74 | 4.09 |
2026-08-30 15:17:14 | 4.69 | E | 5.46 | 29.57 | 0 | 1027.72 | 43.49 | 1713 | 15.84 | 4.09 |
2026-08-30 15:15:16 | 2.55 | E | 4.05 | 29.61 | 0 | 1027.78 | 42.86 | 1728 | 15.65 | 4.09 |
2026-08-30 15:14:17 | 1.47 | SE | 2.11 | 29.38 | 0 | 1027.8 | 44.4 | 1690 | 16 | 4.09 |
2026-08-30 15:13:18 | 2.81 | SE | 3.78 | 29.3 | 0 | 1027.81 | 42.75 | 1731 | 15.33 | 4.09 |
2026-08-30 15:12:19 | 3.36 | ESE | 4.09 | 29.37 | 0 | 1027.76 | 43.28 | 1718 | 15.59 | 4.09 |
2026-08-30 15:11:20 | 3.77 | SE | 4.36 | 29.42 | 0 | 1027.79 | 43.45 | 1714 | 15.69 | 4.09 |
2026-08-30 15:09:21 | 3.52 | ESE | 4 | 29.47 | 0 | 1027.8 | 44.34 | 1691 | 16.06 | 4.09 |
2026-08-30 15:08:22 | 4.11 | E | 5.02 | 29.57 | 0 | 1027.81 | 43.03 | 1724 | 15.68 | 4.09 |
2026-08-30 15:07:23 | 3.29 | E | 4.27 | 29.64 | 0 | 1027.8 | 43 | 1725 | 15.73 | 4.09 |
2026-08-30 15:06:24 | 3.65 | ESE | 4.31 | 29.89 | 0 | 1027.85 | 42.38 | 1740 | 15.73 | 4.09 |
2026-08-30 15:05:25 | 2.79 | E | 3.87 | 30.05 | 0 | 1027.79 | 43.27 | 1718 | 16.2 | 4.09 |
2026-08-30 15:04:26 | 1.88 | E | 2.29 | 30.15 | 0 | 1027.86 | 43.89 | 1703 | 16.51 | 4.09 |
2026-08-30 15:03:27 | 2.25 | ENE | 2.77 | 30.32 | 0 | 1027.9 | 42.81 | 1730 | 16.27 | 4.09 |
2026-08-30 15:02:27 | 1.64 | E | 2.42 | 30.46 | 0 | 1027.92 | 43.71 | 1707 | 16.73 | 4.09 |
2026-08-30 15:01:28 | 1.29 | S | 1.98 | 30.43 | 0 | 1027.98 | 44.63 | 1684 | 17.03 | 4.09 |
2026-08-30 15:00:29 | 1.12 | SSE | 1.41 | 30.36 | 0 | 1027.98 | 43.97 | 1701 | 16.73 | 4.09 |
2026-08-30 14:59:30 | 1.47 | SSW | 1.8 | 30.26 | 0 | 1028.04 | 43.75 | 1706 | 16.56 | 4.09 |
2026-08-30 14:58:31 | 1.28 | SW | 1.98 | 30.06 | 0 | 1028.03 | 44.03 | 1699 | 16.48 | 4.09 |
2026-08-30 14:57:32 | 1.29 | ESE | 1.67 | 29.92 | 0 | 1028.07 | 44.37 | 1691 | 16.47 | 4.09 |
2026-08-30 14:56:33 | 1.11 | E | 1.36 | 29.75 | 0 | 1028 | 44.58 | 1685 | 16.4 | 4.09 |
2026-08-30 14:55:34 | 0.9 | E | 1.45 | 29.57 | 0 | 1028.03 | 46.86 | 1628 | 17.02 | 4.09 |
2026-08-30 14:54:35 | 0.93 | NNE | 1.28 | 29.26 | 0 | 1028.03 | 45.46 | 1663 | 16.26 | 4.09 |
2026-08-30 14:53:36 | 1.39 | SE | 1.85 | 29.09 | 0 | 1028.06 | 46.43 | 1639 | 16.44 | 4.09 |
2026-08-30 14:52:38 | 1.68 | ESE | 2.29 | 28.98 | 0 | 1028.04 | 45.73 | 1657 | 16.1 | 4.09 |
2026-08-30 14:51:38 | 2.52 | ESE | 3.52 | 28.95 | 0 | 1028.03 | 45.9 | 1652 | 16.13 | 4.09 |
2026-08-30 14:50:39 | 3.14 | E | 3.56 | 28.92 | 0 | 1028.07 | 46.03 | 1649 | 16.15 | 4.09 |
2026-08-30 14:49:40 | 3.06 | ESE | 3.61 | 28.89 | 0 | 1028.02 | 46.3 | 1642 | 16.21 | 4.09 |
2026-08-30 14:48:42 | 3.08 | ESE | 3.65 | 28.79 | 0 | 1028.04 | 47.1 | 1622 | 16.39 | 4.09 |
2026-08-30 14:47:42 | 2.88 | SE | 3.39 | 28.75 | 0 | 1028.08 | 47.23 | 1619 | 16.4 | 4.09 |
2026-08-30 14:46:43 | 4.4 | ESE | 5.37 | 28.81 | 0 | 1028.07 | 46.33 | 1642 | 16.15 | 4.09 |
2026-08-30 14:45:44 | 4.7 | ESE | 5.85 | 28.94 | 0 | 1028.04 | 46.28 | 1643 | 16.25 | 4.09 |
2026-08-30 14:44:45 | 4.43 | ESE | 5.63 | 28.97 | 0 | 1028.02 | 46.14 | 1646 | 16.23 | 4.09 |
2026-08-30 14:43:46 | 3.18 | E | 4.97 | 28.99 | 0 | 1028.02 | 47.02 | 1624 | 16.54 | 4.09 |
2026-08-30 14:41:48 | 2.71 | E | 3.48 | 29.03 | 0 | 1028.11 | 45.63 | 1659 | 16.11 | 4.09 |
2026-08-30 14:40:49 | 3 | ESE | 4.66 | 29.23 | 0 | 1028.14 | 45.24 | 1669 | 16.16 | 4.09 |
2026-08-30 14:39:50 | 3.5 | ESE | 4.44 | 29.3 | 0 | 1028.15 | 45.32 | 1667 | 16.25 | 4.09 |
2026-08-30 14:38:51 | 2.93 | ESE | 4.27 | 29.37 | 0 | 1028.17 | 45.55 | 1661 | 16.39 | 4.09 |
2026-08-30 14:37:52 | 2.02 | N | 2.2 | 29.16 | 0 | 1028.2 | 45.82 | 1654 | 16.29 | 4.09 |
2026-08-30 14:36:53 | 2.76 | ENE | 3.48 | 29.12 | 0 | 1028.22 | 44.98 | 1675 | 15.97 | 4.09 |
2026-08-30 14:35:54 | 2.11 | ESE | 2.6 | 29.19 | 0 | 1028.26 | 45.28 | 1668 | 16.13 | 4.09 |
2026-08-30 14:34:55 | 2.22 | SE | 2.99 | 29.25 | 0 | 1028.24 | 44.88 | 1678 | 16.05 | 4.09 |
2026-08-30 14:33:55 | 2.17 | SE | 2.46 | 29.29 | 0 | 1028.24 | 44.68 | 1683 | 16.01 | 4.09 |
2026-08-30 14:32:57 | 2.66 | E | 3.96 | 29.37 | 0 | 1028.29 | 45.71 | 1657 | 16.44 | 4.09 |
2026-08-30 14:31:57 | 2.59 | SSE | 3.3 | 29.54 | 0 | 1028.21 | 45.12 | 1672 | 16.39 | 4.10 |
2026-08-30 14:30:58 | 2.49 | SE | 4.14 | 29.61 | 0 | 1028.27 | 45.47 | 1663 | 16.58 | 4.10 |
2026-08-30 14:29:59 | 1.44 | ESE | 2.55 | 29.56 | 0 | 1028.24 | 47.29 | 1618 | 17.15 | 4.10 |
2026-08-30 14:29:00 | 1.75 | SE | 2.73 | 29.47 | 0 | 1028.25 | 47.08 | 1623 | 17 | 4.10 |
2026-08-30 14:28:01 | 2.11 | E | 2.95 | 29.56 | 0 | 1028.23 | 45.99 | 1650 | 16.71 | 4.10 |
2026-08-30 14:27:02 | 2.3 | SE | 2.77 | 29.56 | 0 | 1028.2 | 46.7 | 1632 | 16.95 | 4.10 |
2026-08-30 14:26:03 | 1.67 | NE | 2.02 | 29.38 | 0 | 1028.26 | 47.76 | 1606 | 17.15 | 4.10 |
2026-08-30 14:25:04 | 2.4 | NNE | 2.99 | 29.23 | 0 | 1028.26 | 46.15 | 1646 | 16.47 | 4.10 |
2026-08-30 14:24:05 | 2.55 | ENE | 3.21 | 29.16 | 0 | 1028.3 | 48.14 | 1596 | 17.07 | 4.10 |
2026-08-30 14:23:06 | 2.12 | NE | 2.6 | 29.06 | 0 | 1028.28 | 47.91 | 1602 | 16.9 | 4.10 |
2026-08-30 14:22:07 | 3.29 | E | 5.1 | 29.03 | 0 | 1028.32 | 47.3 | 1617 | 16.67 | 4.10 |
2026-08-30 14:21:08 | 3.04 | SE | 4.49 | 29.1 | 0 | 1028.3 | 46.61 | 1635 | 16.51 | 4.10 |
2026-08-30 14:20:09 | 1.92 | SSE | 2.86 | 29.09 | 0 | 1028.34 | 46.66 | 1633 | 16.51 | 4.10 |
2026-08-30 14:19:10 | 2.25 | SSE | 3.17 | 29.17 | 0 | 1028.35 | 46.16 | 1646 | 16.42 | 4.09 |
2026-08-30 14:18:11 | 2.73 | SSW | 3.17 | 29.26 | 0 | 1028.41 | 46.33 | 1642 | 16.56 | 4.10 |
2026-08-30 14:17:12 | 2.97 | SSE | 4.36 | 29.38 | 0 | 1028.33 | 46.35 | 1641 | 16.67 | 4.10 |
2026-08-30 14:16:13 | 3.04 | E | 4.71 | 29.51 | 0 | 1028.34 | 46.53 | 1637 | 16.85 | 4.10 |
2026-08-30 14:15:14 | 2.19 | SE | 2.99 | 29.4 | 0 | 1028.4 | 48.3 | 1592 | 17.34 | 4.10 |
2026-08-30 14:14:15 | 2 | SW | 3.08 | 29.16 | 0 | 1028.41 | 49.32 | 1567 | 17.45 | 4.10 |
2026-08-30 14:13:16 | 3.24 | SSW | 4.31 | 29.13 | 0 | 1028.32 | 47.55 | 1611 | 16.85 | 4.10 |
2026-08-30 14:12:17 | 1.68 | ENE | 2.42 | 29.17 | 0 | 1028.39 | 47.8 | 1605 | 16.97 | 4.10 |
2026-08-30 14:11:18 | 2.07 | NNE | 2.95 | 29.17 | 0 | 1028.36 | 47.6 | 1610 | 16.9 | 4.10 |
2026-08-30 14:10:19 | 2.83 | ENE | 3.43 | 29.22 | 0 | 1028.39 | 47.35 | 1616 | 16.86 | 4.10 |
2026-08-30 14:09:20 | 2.77 | ENE | 3.3 | 29.46 | 0 | 1028.41 | 46.14 | 1646 | 16.67 | 4.10 |
2026-08-30 14:08:21 | 1.55 | SE | 2.02 | 29.57 | 0 | 1028.42 | 47.13 | 1622 | 17.11 | 4.10 |
2026-08-30 14:07:22 | 1.54 | NE | 1.8 | 29.5 | 0 | 1028.4 | 47.06 | 1623 | 17.02 | 4.10 |
2026-08-30 14:06:23 | 1.63 | SSE | 2.16 | 29.51 | 0 | 1028.45 | 46.18 | 1645 | 16.73 | 4.10 |
2026-08-30 14:05:24 | 1.57 | SE | 2.9 | 29.5 | 0 | 1028.44 | 47.2 | 1620 | 17.07 | 4.10 |
2026-08-30 14:04:25 | 1.31 | W | 1.8 | 29.37 | 0 | 1028.5 | 48.98 | 1575 | 17.54 | 4.10 |
2026-08-30 14:03:26 | 2.26 | SW | 3.43 | 29.44 | 0 | 1028.46 | 45.97 | 1651 | 16.6 | 4.10 |
2026-08-30 14:02:27 | 2.62 | SW | 2.99 | 29.63 | 0 | 1028.48 | 45.89 | 1653 | 16.74 | 4.10 |
2026-08-30 14:01:28 | 2.62 | SSW | 4.22 | 29.81 | 0 | 1028.47 | 46.51 | 1637 | 17.12 | 4.10 |
2026-08-30 14:00:29 | 0.65 | SSW | 1.28 | 29.64 | 0 | 1028.43 | 50.52 | 1537 | 18.28 | 4.10 |
2026-08-30 13:59:30 | 0.94 | NW | 1.19 | 29.33 | 0 | 1028.52 | 49.48 | 1563 | 17.66 | 4.10 |
2026-08-30 13:58:31 | 1.53 | WNW | 2.33 | 29.08 | 0 | 1028.51 | 48.62 | 1584 | 17.15 | 4.10 |
2026-08-30 13:57:32 | 1.44 | S | 2.6 | 28.95 | 0 | 1028.51 | 49.8 | 1555 | 17.41 | 4.10 |
2026-08-30 13:56:33 | 1.46 | ESE | 1.89 | 28.74 | 0 | 1028.54 | 49.5 | 1562 | 17.13 | 4.10 |
2026-08-30 13:55:34 | 1.62 | SE | 2.07 | 28.6 | 0 | 1028.58 | 51.09 | 1523 | 17.5 | 4.10 |
2026-08-30 13:54:35 | 1.85 | ESE | 2.38 | 28.4 | 0 | 1028.55 | 48.95 | 1576 | 16.64 | 4.10 |
2026-08-30 13:53:36 | 3.25 | ENE | 4.44 | 28.46 | 0 | 1028.55 | 48.8 | 1580 | 16.64 | 4.10 |
2026-08-30 13:52:37 | 3.08 | E | 3.39 | 28.5 | 0 | 1028.51 | 49.1 | 1572 | 16.78 | 4.10 |
2026-08-30 13:51:38 | 2.78 | E | 4.09 | 28.55 | 0 | 1028.58 | 49.2 | 1570 | 16.86 | 4.10 |
2026-08-30 13:50:39 | 2.02 | NE | 2.82 | 28.47 | 0 | 1028.56 | 50.28 | 1543 | 17.13 | 4.10 |
2026-08-30 13:49:40 | 2.85 | E | 3.87 | 28.42 | 0 | 1028.57 | 49.17 | 1571 | 16.73 | 4.10 |
2026-08-30 13:48:41 | 2.16 | E | 3.83 | 28.44 | 0 | 1028.56 | 51.35 | 1516 | 17.43 | 4.10 |
2026-08-30 13:47:42 | 2.96 | SE | 3.48 | 28.33 | 0 | 1028.62 | 49.55 | 1561 | 16.77 | 4.10 |
2026-08-30 13:46:43 | 4.16 | E | 5.28 | 28.22 | 0 | 1028.58 | 50.49 | 1538 | 16.96 | 4.10 |
2026-08-30 13:45:44 | 3.21 | ENE | 4.14 | 28.23 | 0 | 1028.57 | 49.64 | 1559 | 16.7 | 4.10 |
2026-08-30 13:44:45 | 1.31 | ENE | 2.2 | 28.22 | 0 | 1028.6 | 50.76 | 1531 | 17.05 | 4.10 |
2026-08-30 13:43:46 | 2.24 | ENE | 2.68 | 28.17 | 0 | 1028.59 | 49.93 | 1552 | 16.74 | 4.10 |
2026-08-30 13:42:47 | 2.84 | ESE | 3.61 | 28.17 | 0 | 1028.59 | 49.74 | 1556 | 16.68 | 4.10 |
2026-08-30 13:41:48 | 2.24 | E | 2.86 | 28.15 | 0 | 1028.62 | 49.62 | 1559 | 16.62 | 4.10 |
2026-08-30 13:40:49 | 2.35 | E | 2.86 | 28.03 | 0 | 1028.67 | 50.48 | 1538 | 16.78 | 4.10 |
2026-08-30 13:39:49 | 1.99 | SE | 3.34 | 28.08 | 0 | 1028.64 | 49.65 | 1559 | 16.57 | 4.10 |
2026-08-30 13:38:50 | 3.21 | SE | 3.7 | 28.09 | 0 | 1028.66 | 49.23 | 1569 | 16.44 | 4.10 |
2026-08-30 13:37:51 | 3.98 | SE | 5.02 | 28.32 | 0 | 1028.64 | 48.74 | 1581 | 16.5 | 4.10 |
2026-08-30 13:36:52 | 3.98 | SSE | 6.2 | 28.74 | 0 | 1028.65 | 48.6 | 1585 | 16.84 | 4.10 |
2026-08-30 13:35:54 | 1.9 | SE | 3.04 | 28.88 | 0 | 1028.7 | 48 | 1600 | 16.77 | 4.10 |
2026-08-30 13:34:55 | 3.8 | SE | 5.41 | 29.09 | 0 | 1028.66 | 47.71 | 1607 | 16.86 | 4.10 |
2026-08-30 13:33:55 | 2.76 | ENE | 3.74 | 29.22 | 0 | 1028.64 | 50.29 | 1543 | 17.82 | 4.10 |
2026-08-30 13:32:57 | 1.85 | N | 3.17 | 28.98 | 0 | 1028.74 | 50.74 | 1531 | 17.74 | 4.10 |
2026-08-30 13:31:57 | 1.19 | ESE | 1.58 | 28.74 | 0 | 1028.79 | 52.7 | 1482 | 18.12 | 4.10 |
2026-08-30 13:30:58 | 1.36 | SSE | 2.33 | 28.44 | 0 | 1028.78 | 51.19 | 1520 | 17.38 | 4.10 |
2026-08-30 13:30:00 | 1.64 | ESE | 1.89 | 28.28 | 0 | 1028.78 | 50.73 | 1532 | 17.09 | 4.10 |
2026-08-30 13:29:01 | 2.49 | E | 2.99 | 28.22 | 0 | 1028.81 | 50.52 | 1537 | 16.97 | 4.10 |
2026-08-30 13:28:02 | 2.99 | ENE | 3.87 | 28.26 | 0 | 1028.81 | 49.53 | 1562 | 16.7 | 4.10 |
2026-08-30 13:27:03 | 1.45 | E | 2.07 | 28.2 | 0 | 1028.83 | 50.9 | 1527 | 17.07 | 4.10 |
2026-08-30 13:26:04 | 0.8 | ESE | 1.14 | 28 | 0 | 1028.85 | 50.48 | 1538 | 16.76 | 4.10 |
2026-08-30 13:25:05 | 1.92 | SSE | 2.77 | 27.99 | 0 | 1028.9 | 50.33 | 1542 | 16.7 | 4.10 |
2026-08-30 13:24:06 | 2.11 | SSE | 2.42 | 27.99 | 0 | 1028.88 | 51.46 | 1513 | 17.05 | 4.10 |
2026-08-30 13:23:07 | 3.26 | E | 3.92 | 27.99 | 0 | 1028.88 | 50.74 | 1531 | 16.83 | 4.10 |
2026-08-30 13:22:08 | 4.02 | ESE | 4.53 | 27.87 | 0 | 1028.86 | 51.81 | 1505 | 17.05 | 4.10 |
2026-08-30 13:21:09 | 3.59 | ENE | 4.44 | 27.66 | 0 | 1028.84 | 51.71 | 1507 | 16.82 | 4.10 |
2026-08-30 13:20:10 | 4.19 | E | 4.8 | 27.72 | 0 | 1028.83 | 50.64 | 1534 | 16.55 | 4.10 |
2026-08-30 13:19:11 | 2.29 | SE | 4.09 | 27.6 | 0 | 1028.86 | 52.79 | 1480 | 17.09 | 4.10 |
2026-08-30 13:18:12 | 2.88 | ENE | 3.52 | 27.54 | 0 | 1028.88 | 51.13 | 1522 | 16.54 | 4.10 |
2026-08-30 13:17:13 | 4.43 | ENE | 5.98 | 27.68 | 0 | 1028.84 | 50.53 | 1537 | 16.48 | 4.10 |
2026-08-30 13:16:14 | 4.04 | E | 5.1 | 27.75 | 0 | 1028.85 | 50.72 | 1532 | 16.6 | 4.10 |
2026-08-30 13:15:15 | 3.01 | ESE | 4.93 | 27.66 | 0 | 1028.84 | 51.51 | 1512 | 16.76 | 4.10 |
2026-08-30 13:14:16 | 2.24 | ENE | 3.96 | 27.45 | 0 | 1028.86 | 52.77 | 1481 | 16.95 | 4.10 |
2026-08-30 13:13:17 | 3.34 | E | 4.53 | 27.45 | 0 | 1028.93 | 51.12 | 1522 | 16.45 | 4.10 |
2026-08-30 13:12:18 | 3.5 | ESE | 4.75 | 27.44 | 0 | 1028.95 | 51.28 | 1518 | 16.49 | 4.10 |
2026-08-30 13:11:19 | 2.86 | E | 3.61 | 27.47 | 0 | 1028.91 | 51.37 | 1516 | 16.54 | 4.10 |
2026-08-30 13:10:20 | 2.8 | ESE | 3.65 | 27.61 | 0 | 1028.97 | 50.74 | 1531 | 16.48 | 4.10 |
2026-08-30 13:09:21 | 4.06 | SE | 5.32 | 27.91 | 0 | 1028.97 | 49.71 | 1557 | 16.43 | 4.10 |
2026-08-30 13:08:22 | 3.54 | SE | 5.81 | 28.1 | 0 | 1028.94 | 52.25 | 1494 | 17.39 | 4.10 |
2026-08-30 13:07:23 | 3.74 | ESE | 5.32 | 28.09 | 0 | 1028.95 | 50.71 | 1532 | 16.91 | 4.10 |
2026-08-30 13:06:24 | 2.28 | E | 3.74 | 28.15 | 0 | 1028.94 | 50.8 | 1530 | 16.99 | 4.10 |
2026-08-30 13:05:25 | 1.16 | NNE | 1.32 | 28.13 | 0 | 1028.97 | 50.45 | 1539 | 16.87 | 4.10 |
2026-08-30 13:04:26 | 1.92 | E | 2.16 | 28.19 | 0 | 1029.01 | 49.17 | 1571 | 16.52 | 4.10 |
2026-08-30 13:03:27 | 2.92 | SE | 4.14 | 28.24 | 0 | 1028.98 | 49.76 | 1556 | 16.75 | 4.10 |
2026-08-30 13:02:28 | 2.09 | NE | 3.48 | 28.24 | 0 | 1028.99 | 50.4 | 1540 | 16.95 | 4.10 |
2026-08-30 13:01:29 | 2.86 | ENE | 3.43 | 28.13 | 0 | 1029.03 | 49.93 | 1552 | 16.7 | 4.10 |
2026-08-30 13:00:30 | 2.51 | E | 3.12 | 28.12 | 0 | 1029.04 | 51.98 | 1500 | 17.33 | 4.10 |
2026-08-30 12:59:31 | 2.06 | ENE | 3.17 | 27.98 | 0 | 1029.04 | 51.87 | 1503 | 17.17 | 4.10 |
2026-08-30 12:58:31 | 2.06 | ENE | 2.77 | 27.91 | 0 | 1029.03 | 50.52 | 1537 | 16.69 | 4.10 |
2026-08-30 12:57:32 | 1.33 | NE | 2.33 | 27.81 | 0 | 1029.08 | 52.01 | 1500 | 17.05 | 4.10 |
2026-08-30 12:56:33 | 1.25 | NNE | 1.76 | 27.57 | 0 | 1029.11 | 50.71 | 1532 | 16.43 | 4.10 |
2026-08-30 12:55:34 | 0.95 | ENE | 1.01 | 27.44 | 0 | 1029.14 | 51.14 | 1521 | 16.45 | 4.10 |
2026-08-30 12:54:35 | 1.49 | ESE | 2.55 | 27.36 | 0 | 1029.16 | 51.13 | 1522 | 16.37 | 4.10 |
2026-08-30 12:53:36 | 2.26 | ESE | 3.43 | 27.37 | 0 | 1029.14 | 51.73 | 1507 | 16.56 | 4.10 |
2026-08-30 12:52:37 | 2.09 | SE | 2.6 | 27.32 | 0 | 1029.19 | 52.34 | 1491 | 16.7 | 4.10 |
2026-08-30 12:51:38 | 1.57 | E | 1.98 | 27.25 | 0 | 1029.17 | 52.05 | 1499 | 16.55 | 4.10 |
2026-08-30 12:50:39 | 2.2 | E | 2.77 | 27.17 | 0 | 1029.23 | 51.28 | 1518 | 16.24 | 4.10 |
2026-08-30 12:49:40 | 2.56 | ESE | 3.08 | 27.3 | 0 | 1029.22 | 51 | 1525 | 16.27 | 4.10 |
2026-08-30 12:48:41 | 2.98 | ESE | 3.56 | 27.6 | 0 | 1029.19 | 49.95 | 1551 | 16.22 | 4.10 |
2026-08-30 12:47:42 | 2.84 | ENE | 3.34 | 27.91 | 0 | 1029.19 | 50.7 | 1532 | 16.74 | 4.10 |
2026-08-30 12:46:43 | 2.77 | ENE | 4.09 | 28.12 | 0 | 1029.24 | 49.78 | 1555 | 16.65 | 4.10 |
2026-08-30 12:45:44 | 1.3 | N | 2.16 | 27.88 | 0 | 1029.24 | 51.79 | 1505 | 17.05 | 4.10 |
2026-08-30 12:44:45 | 1.85 | NNW | 2.07 | 27.72 | 0 | 1029.24 | 49.97 | 1551 | 16.34 | 4.10 |
2026-08-30 12:43:46 | 1.43 | NNW | 2.07 | 27.64 | 0 | 1029.31 | 50.11 | 1547 | 16.31 | 4.10 |
2026-08-30 12:42:47 | 1.02 | S | 1.5 | 27.6 | 0 | 1029.33 | 50.33 | 1542 | 16.34 | 4.10 |
2026-08-30 12:41:48 | 1.65 | SE | 3.12 | 27.61 | 0 | 1029.32 | 50.07 | 1548 | 16.27 | 4.10 |
2026-08-30 12:40:49 | 2.2 | E | 2.99 | 27.71 | 0 | 1029.3 | 49.68 | 1558 | 16.24 | 4.10 |
2026-08-30 12:39:50 | 2.98 | E | 3.7 | 27.89 | 0 | 1029.28 | 50.55 | 1536 | 16.68 | 4.10 |
2026-08-30 12:38:51 | 3.08 | ESE | 3.83 | 28.03 | 0 | 1029.32 | 52.4 | 1490 | 17.37 | 4.10 |
2026-08-30 12:37:52 | 3.07 | ENE | 3.7 | 28.19 | 0 | 1029.28 | 49.14 | 1571 | 16.51 | 4.10 |
2026-08-30 12:36:53 | 2.42 | ENE | 3.83 | 28.32 | 0 | 1029.32 | 48.97 | 1576 | 16.57 | 4.10 |
2026-08-30 12:35:54 | 2.88 | E | 4.05 | 28.22 | 0 | 1029.28 | 51.03 | 1524 | 17.13 | 4.10 |
2026-08-30 12:34:55 | 1 | ESE | 1.8 | 28.09 | 0 | 1029.3 | 49.63 | 1559 | 16.57 | 4.10 |
2026-08-30 12:33:56 | 1.26 | SE | 1.63 | 28.02 | 0 | 1029.32 | 49.52 | 1562 | 16.47 | 4.10 |
2026-08-30 12:32:56 | 0.62 | E | 1.8 | 27.98 | 0 | 1029.3 | 50.42 | 1539 | 16.72 | 4.10 |
2026-08-30 12:31:57 | 0.48 | S | 1.14 | 27.85 | 0 | 1029.32 | 51.66 | 1508 | 16.98 | 4.10 |
2026-08-30 12:30:58 | 0.43 | SE | 0.57 | 27.69 | 0 | 1029.35 | 49.62 | 1559 | 16.2 | 4.10 |
2026-08-30 12:29:59 | 1.37 | SE | 1.98 | 27.75 | 0 | 1029.39 | 49.88 | 1553 | 16.34 | 4.10 |
2026-08-30 12:29:00 | 1.82 | E | 2.11 | 28.03 | 0 | 1029.37 | 48.4 | 1590 | 16.12 | 4.10 |
2026-08-30 12:28:01 | 1.95 | S | 2.6 | 28.23 | 0 | 1029.38 | 48.76 | 1581 | 16.42 | 4.10 |
2026-08-30 12:27:02 | 1.38 | ESE | 1.76 | 28.3 | 0 | 1029.33 | 49.58 | 1560 | 16.75 | 4.10 |
2026-08-30 12:26:03 | 1.01 | ENE | 1.58 | 28.17 | 0 | 1029.37 | 51.13 | 1522 | 17.11 | 4.10 |
2026-08-30 12:25:04 | 1.36 | NNE | 1.67 | 27.98 | 0 | 1029.36 | 52.24 | 1494 | 17.28 | 4.10 |
2026-08-30 12:24:05 | 1.91 | NE | 2.82 | 27.88 | 0 | 1029.43 | 49.34 | 1566 | 16.29 | 4.10 |
2026-08-30 12:23:06 | 2.2 | NE | 2.77 | 27.98 | 0 | 1029.38 | 48.85 | 1579 | 16.22 | 4.10 |
2026-08-30 12:22:07 | 2.32 | ENE | 3.08 | 28.22 | 0 | 1029.4 | 49.24 | 1569 | 16.57 | 4.10 |
2026-08-30 12:21:08 | 1.66 | ESE | 2.77 | 28.51 | 0 | 1029.42 | 47.99 | 1600 | 16.43 | 4.10 |
2026-08-30 12:20:09 | 1.04 | ENE | 1.41 | 28.64 | 0 | 1029.44 | 47.69 | 1608 | 16.45 | 4.10 |
2026-08-30 12:19:10 | 1.5 | ENE | 3.04 | 28.79 | 0 | 1029.47 | 46.91 | 1627 | 16.32 | 4.10 |
2026-08-30 12:18:11 | 0.22 | NNW | 0.62 | 28.71 | 0 | 1029.5 | 49.19 | 1570 | 17 | 4.10 |
2026-08-30 12:17:12 | 0.46 | NNW | 0.66 | 28.5 | 0 | 1029.53 | 48.82 | 1579 | 16.69 | 4.10 |
2026-08-30 12:16:12 | 1.34 | N | 1.76 | 28.42 | 0 | 1029.56 | 49.21 | 1570 | 16.74 | 4.10 |
2026-08-30 12:15:13 | 1.01 | NNW | 1.72 | 28.34 | 0 | 1029.52 | 48.76 | 1581 | 16.52 | 4.10 |
2026-08-30 12:14:15 | 0.91 | NNE | 0.97 | 28.26 | 0 | 1029.6 | 48.74 | 1581 | 16.44 | 4.10 |
2026-08-30 12:13:15 | 1.72 | NNE | 2.29 | 28.15 | 0 | 1029.56 | 47.94 | 1601 | 16.08 | 4.10 |
2026-08-30 12:12:17 | 1.39 | NE | 2.33 | 28.16 | 0 | 1029.63 | 51.33 | 1517 | 17.17 | 4.10 |
2026-08-30 12:11:18 | 1.96 | NNE | 3.17 | 28.08 | 0 | 1029.6 | 48.37 | 1591 | 16.16 | 4.10 |
2026-08-30 12:10:19 | 1.99 | NNE | 2.33 | 28.06 | 0 | 1029.6 | 48.75 | 1581 | 16.26 | 4.10 |
2026-08-30 12:09:20 | 2.17 | NE | 3.08 | 28.05 | 0 | 1029.61 | 48.64 | 1584 | 16.22 | 4.10 |
2026-08-30 12:08:21 | 1.53 | ESE | 2.6 | 27.92 | 0 | 1029.61 | 50.49 | 1538 | 16.69 | 4.10 |
2026-08-30 12:07:22 | 1.35 | SE | 2.29 | 27.87 | 0 | 1029.64 | 49.88 | 1553 | 16.45 | 4.10 |
2026-08-30 12:06:23 | 1.4 | E | 2.51 | 27.75 | 0 | 1029.6 | 52.3 | 1492 | 17.09 | 4.10 |
2026-08-30 12:05:24 | 1.98 | NE | 2.9 | 27.57 | 0 | 1029.63 | 50.1 | 1547 | 16.24 | 4.10 |
2026-08-30 12:04:25 | 0.94 | ENE | 1.28 | 27.53 | 0 | 1029.65 | 51.15 | 1521 | 16.53 | 4.10 |
2026-08-30 12:03:26 | 1.14 | ENE | 1.58 | 27.5 | 0 | 1029.66 | 49.72 | 1557 | 16.06 | 4.10 |
2026-08-30 12:02:26 | 1.26 | SE | 1.98 | 27.54 | 0 | 1029.64 | 49.57 | 1561 | 16.05 | 4.10 |
2026-08-30 12:01:28 | 1.1 | NNE | 1.41 | 27.53 | 0 | 1029.69 | 51.23 | 1519 | 16.56 | 4.10 |
2026-08-30 12:00:29 | 1.82 | E | 2.2 | 27.55 | 0 | 1029.66 | 49.2 | 1570 | 15.94 | 4.10 |
2026-08-30 11:59:30 | 1.75 | ENE | 2.55 | 27.75 | 0 | 1029.67 | 49.94 | 1551 | 16.36 | 4.10 |
2026-08-30 11:58:31 | 1.53 | NE | 2.29 | 27.71 | 0 | 1029.7 | 51.1 | 1522 | 16.68 | 4.10 |
2026-08-30 11:57:32 | 0.76 | NNE | 1.1 | 27.5 | 0 | 1029.73 | 52.68 | 1483 | 16.97 | 4.10 |
2026-08-30 11:56:33 | 0.53 | NNE | 1.06 | 27.32 | 0 | 1029.76 | 52.64 | 1484 | 16.79 | 4.10 |
2026-08-30 11:55:34 | 1.16 | ENE | 2.02 | 27.23 | 0 | 1029.77 | 50.86 | 1528 | 16.17 | 4.10 |
2026-08-30 11:54:35 | 1.57 | NE | 1.94 | 27.38 | 0 | 1029.76 | 50.86 | 1528 | 16.3 | 4.10 |
2026-08-30 11:53:36 | 2.25 | NE | 3.34 | 27.58 | 0 | 1029.76 | 50.35 | 1541 | 16.33 | 4.10 |
2026-08-30 11:52:37 | 1.45 | E | 2.46 | 27.65 | 0 | 1029.74 | 52.85 | 1479 | 17.16 | 4.10 |
2026-08-30 11:51:38 | 1.81 | NNE | 2.33 | 27.48 | 0 | 1029.82 | 50.75 | 1531 | 16.36 | 4.10 |
2026-08-30 11:50:39 | 1.62 | NNE | 2.73 | 27.32 | 0 | 1029.78 | 53.35 | 1466 | 17 | 4.10 |
2026-08-30 11:49:40 | 1.31 | NNE | 1.58 | 27 | 0 | 1029.84 | 54.14 | 1446 | 16.94 | 4.10 |
2026-08-30 11:48:41 | 2.37 | ENE | 4 | 26.7 | 0 | 1029.82 | 53.63 | 1459 | 16.51 | 4.10 |
2026-08-30 11:47:42 | 2.55 | ENE | 3.52 | 26.52 | 0 | 1029.82 | 56.44 | 1389 | 17.15 | 4.10 |
2026-08-30 11:46:43 | 2.18 | ENE | 3.74 | 26.19 | 0 | 1029.8 | 54.45 | 1439 | 16.28 | 4.10 |
2026-08-30 11:45:44 | 1.77 | NE | 3.3 | 26.04 | 0 | 1029.79 | 54.04 | 1449 | 16.02 | 4.10 |
2026-08-30 11:44:45 | 1.09 | E | 2.33 | 25.95 | 0 | 1029.8 | 53.99 | 1450 | 15.92 | 4.10 |
2026-08-30 11:43:46 | 1.69 | E | 1.76 | 25.85 | 0 | 1029.8 | 54.18 | 1445 | 15.88 | 4.10 |
2026-08-30 11:42:47 | 2.29 | ENE | 2.64 | 25.88 | 0 | 1029.81 | 54.92 | 1427 | 16.12 | 4.10 |
2026-08-30 11:41:48 | 2.91 | E | 3.56 | 25.97 | 0 | 1029.76 | 55.72 | 1407 | 16.43 | 4.10 |
2026-08-30 11:40:49 | 1.33 | SE | 2.16 | 25.85 | 0 | 1029.76 | 56.55 | 1386 | 16.56 | 4.10 |
2026-08-30 11:39:50 | 1.68 | E | 2.02 | 25.73 | 0 | 1029.81 | 55.74 | 1406 | 16.22 | 4.10 |
2026-08-30 11:38:51 | 2.63 | ENE | 3.61 | 25.86 | 0 | 1029.8 | 55.02 | 1424 | 16.13 | 4.10 |
2026-08-30 11:37:52 | 2.91 | ENE | 3.83 | 26.16 | 0 | 1029.79 | 54.37 | 1441 | 16.23 | 4.10 |
2026-08-30 11:36:53 | 3.05 | ENE | 3.65 | 26.33 | 0 | 1029.8 | 54.76 | 1431 | 16.5 | 4.10 |
2026-08-30 11:35:54 | 2.03 | ENE | 2.82 | 26.43 | 0 | 1029.8 | 54.68 | 1433 | 16.57 | 4.11 |
2026-08-30 11:34:55 | 0.98 | ESE | 1.45 | 26.3 | 0 | 1029.81 | 54.83 | 1429 | 16.49 | 4.11 |
2026-08-30 11:33:56 | 0.67 | ESE | 0.79 | 26.15 | 0 | 1029.84 | 54.21 | 1445 | 16.17 | 4.11 |
2026-08-30 11:32:57 | 0.92 | ESE | 1.45 | 26.06 | 0 | 1029.81 | 55.38 | 1415 | 16.42 | 4.11 |
2026-08-30 11:30:59 | 1.8 | ESE | 2.02 | 25.99 | 0 | 1029.8 | 55.14 | 1421 | 16.29 | 4.11 |
2026-08-30 11:30:00 | 2.43 | ESE | 3.26 | 25.97 | 0 | 1029.78 | 55.38 | 1415 | 16.34 | 4.11 |
2026-08-30 11:29:01 | 2.38 | ENE | 2.55 | 25.93 | 0 | 1029.81 | 55.7 | 1407 | 16.39 | 4.12 |
2026-08-30 11:28:02 | 3.05 | ENE | 3.52 | 26.02 | 0 | 1029.8 | 54.59 | 1435 | 16.16 | 4.12 |
2026-08-30 11:27:03 | 3.12 | E | 3.65 | 26.1 | 0 | 1029.75 | 56.55 | 1386 | 16.79 | 4.12 |
2026-08-30 11:26:05 | 2.76 | ENE | 4 | 26.07 | 0 | 1029.79 | 54.42 | 1439 | 16.16 | 4.12 |
2026-08-30 11:25:05 | 1.98 | ENE | 3.08 | 26.3 | 0 | 1029.8 | 54.48 | 1438 | 16.39 | 4.12 |
2026-08-30 11:24:06 | 2.15 | E | 2.82 | 26.56 | 0 | 1029.8 | 52.75 | 1481 | 16.12 | 4.12 |
2026-08-30 11:23:07 | 2.45 | ENE | 3.61 | 26.92 | 0 | 1029.78 | 53.44 | 1464 | 16.66 | 4.12 |
2026-08-30 11:22:08 | 2.09 | E | 2.77 | 27.16 | 0 | 1029.77 | 51.39 | 1515 | 16.26 | 4.11 |
2026-08-30 11:21:09 | 2.75 | NE | 3.61 | 27.3 | 0 | 1029.74 | 53.3 | 1467 | 16.97 | 4.11 |
2026-08-30 11:20:10 | 0.9 | ESE | 1.32 | 27.43 | 0 | 1029.81 | 51.27 | 1518 | 16.48 | 4.11 |
2026-08-30 11:19:11 | 0.2 | NE | 0.44 | 27.44 | 0 | 1029.8 | 52.6 | 1485 | 16.89 | 4.11 |
2026-08-30 11:18:12 | 0.35 | E | 0.79 | 27.43 | 0 | 1029.83 | 51.62 | 1509 | 16.58 | 4.11 |
2026-08-30 11:17:13 | 0.66 | NNE | 0.97 | 27.62 | 0 | 1029.84 | 48.41 | 1590 | 15.75 | 4.10 |
2026-08-30 11:16:14 | 0.67 | NNE | 1.1 | 27.69 | 0 | 1029.86 | 49.74 | 1556 | 16.24 | 4.10 |
2026-08-30 11:15:15 | 1.11 | NNE | 1.58 | 27.64 | 0 | 1029.85 | 49.68 | 1558 | 16.17 | 4.10 |
2026-08-30 11:14:16 | 0.97 | N | 1.63 | 27.57 | 0 | 1029.86 | 51.7 | 1507 | 16.74 | 4.10 |
2026-08-30 11:13:17 | 0.91 | NNW | 2.29 | 27.54 | 0 | 1029.86 | 51.39 | 1515 | 16.61 | 4.10 |
2026-08-30 11:12:18 | 1.11 | N | 1.89 | 27.48 | 0 | 1029.86 | 51.89 | 1503 | 16.71 | 4.10 |
2026-08-30 11:11:19 | 1.75 | N | 2.51 | 27.5 | 0 | 1029.83 | 51.33 | 1517 | 16.56 | 4.10 |
2026-08-30 11:10:21 | 1.02 | ENE | 1.67 | 27.48 | 0 | 1029.87 | 53.87 | 1453 | 17.3 | 4.10 |
2026-08-30 11:09:21 | 0.61 | NW | 0.92 | 27.4 | 0 | 1029.91 | 53.12 | 1472 | 17.01 | 4.10 |
2026-08-30 11:08:23 | 0.94 | WNW | 1.67 | 27.32 | 0 | 1029.9 | 55.66 | 1408 | 17.67 | 4.10 |
2026-08-30 11:07:23 | 0.96 | NW | 1.36 | 27.19 | 0 | 1029.9 | 54.07 | 1448 | 17.09 | 4.10 |
2026-08-30 11:06:24 | 0.9 | NW | 1.5 | 27.03 | 0 | 1029.88 | 54.04 | 1449 | 16.94 | 4.10 |
2026-08-30 11:05:26 | 1.32 | N | 1.67 | 26.92 | 0 | 1029.92 | 52.49 | 1488 | 16.38 | 4.10 |
2026-08-30 11:04:27 | 1.02 | NNE | 1.54 | 26.93 | 0 | 1029.91 | 54.8 | 1430 | 17.06 | 4.09 |
2026-08-30 11:03:28 | 0.36 | NW | 0.88 | 26.89 | 0 | 1029.94 | 53.23 | 1469 | 16.57 | 4.09 |
2026-08-30 11:02:29 | 1.07 | NNW | 1.45 | 26.89 | 0 | 1029.97 | 53.33 | 1467 | 16.6 | 4.09 |
2026-08-30 11:01:30 | 1.33 | NNW | 2.2 | 26.98 | 0 | 1029.98 | 54.1 | 1447 | 16.91 | 4.09 |
2026-08-30 11:00:31 | 0.8 | NW | 1.06 | 26.99 | 0 | 1029.99 | 52.43 | 1489 | 16.42 | 4.09 |
2026-08-30 10:59:32 | 0.87 | NNW | 1.06 | 26.92 | 0 | 1030 | 52.92 | 1477 | 16.5 | 4.09 |
2026-08-30 10:58:33 | 1.41 | NNW | 1.85 | 26.81 | 0 | 1029.96 | 52.56 | 1486 | 16.3 | 4.09 |
2026-08-30 10:57:34 | 1.03 | N | 1.36 | 26.74 | 0 | 1029.99 | 53.76 | 1456 | 16.59 | 4.09 |
2026-08-30 10:56:35 | 1.04 | NNE | 1.32 | 26.55 | 0 | 1030 | 54.78 | 1430 | 16.71 | 4.09 |
2026-08-30 10:55:36 | 1.19 | N | 1.72 | 26.34 | 0 | 1030 | 55.21 | 1420 | 16.63 | 4.09 |
2026-08-30 10:54:37 | 1.02 | N | 1.41 | 26.2 | 0 | 1030.01 | 54.65 | 1434 | 16.34 | 4.09 |
2026-08-30 10:53:38 | 1.48 | NNW | 2.16 | 26.1 | 0 | 1030.03 | 54.94 | 1426 | 16.33 | 4.09 |
2026-08-30 10:52:39 | 1.8 | NNW | 2.16 | 26.09 | 0 | 1029.99 | 54.68 | 1433 | 16.25 | 4.09 |
2026-08-30 10:51:40 | 1.68 | NW | 2.11 | 26.21 | 0 | 1030.03 | 56.16 | 1396 | 16.78 | 4.08 |
2026-08-30 10:50:42 | 1.26 | N | 1.98 | 26.13 | 0 | 1029.99 | 55.26 | 1418 | 16.45 | 4.08 |
2026-08-30 10:49:42 | 1.58 | N | 1.8 | 26.07 | 0 | 1030.01 | 58 | 1350 | 17.16 | 4.08 |
2026-08-30 10:48:43 | 1.67 | NE | 1.85 | 26.02 | 0 | 1030.03 | 56.54 | 1386 | 16.71 | 4.08 |
2026-08-30 10:47:44 | 1.52 | NNE | 2.68 | 26.04 | 0 | 1030.05 | 54.52 | 1437 | 16.16 | 4.08 |
2026-08-30 10:46:46 | 1.6 | NNE | 1.8 | 26.09 | 0 | 1030.02 | 55.63 | 1409 | 16.52 | 4.08 |
2026-08-30 10:45:47 | 2.35 | NE | 3.48 | 26.13 | 0 | 1030.01 | 56.13 | 1397 | 16.7 | 4.08 |
2026-08-30 10:44:48 | 1.89 | E | 2.9 | 26.19 | 0 | 1030.03 | 58.46 | 1338 | 17.4 | 4.08 |
2026-08-30 10:43:49 | 1.69 | E | 2.11 | 26.07 | 0 | 1030.04 | 57.46 | 1363 | 17.01 | 4.08 |
2026-08-30 10:42:50 | 1.5 | ESE | 1.94 | 26.03 | 0 | 1030.01 | 58.14 | 1346 | 17.16 | 4.08 |
2026-08-30 10:41:51 | 0.85 | N | 1.14 | 25.89 | 0 | 1030.14 | 57.87 | 1353 | 16.96 | 4.08 |
2026-08-30 10:40:52 | 1.63 | NE | 2.11 | 25.72 | 0 | 1030.07 | 59.03 | 1324 | 17.11 | 4.08 |
2026-08-30 10:39:53 | 1.76 | NNE | 2.02 | 25.66 | 0 | 1030.02 | 59.11 | 1322 | 17.08 | 4.08 |
2026-08-30 10:38:54 | 1.92 | NE | 3.12 | 25.55 | 0 | 1030.02 | 59.38 | 1315 | 17.05 | 4.08 |
2026-08-30 10:36:56 | 1.93 | E | 3.08 | 25.36 | 0 | 1030.04 | 59.18 | 1320 | 16.81 | 4.07 |
2026-08-30 10:35:57 | 1.9 | E | 2.33 | 25.3 | 0 | 1030.03 | 61.86 | 1253 | 17.46 | 4.07 |
2026-08-30 10:34:58 | 2.4 | E | 3.52 | 25.4 | 0 | 1030.04 | 59.95 | 1301 | 17.06 | 4.07 |
2026-08-30 10:33:59 | 1.79 | E | 2.07 | 25.61 | 0 | 1030.04 | 59.25 | 1319 | 17.07 | 4.07 |
2026-08-30 10:33:00 | 1.92 | E | 2.16 | 25.78 | 0 | 1030.03 | 59.67 | 1308 | 17.34 | 4.07 |
2026-08-30 10:32:01 | 2.23 | NE | 3.04 | 26.15 | 0 | 1030.03 | 56.59 | 1385 | 16.85 | 4.06 |
2026-08-30 10:31:02 | 1.43 | NNE | 1.94 | 26.31 | 0 | 1030 | 56.77 | 1381 | 17.05 | 4.06 |
2026-08-30 10:30:03 | 1.69 | ESE | 2.38 | 26.43 | 0 | 1030.04 | 58.33 | 1342 | 17.59 | 4.06 |
2026-08-30 10:29:05 | 1.43 | WNW | 1.98 | 26.52 | 0 | 1030.01 | 58.05 | 1349 | 17.59 | 4.06 |
2026-08-30 10:28:06 | 0.78 | NNE | 1.01 | 26.38 | 0 | 1030.03 | 57.47 | 1363 | 17.3 | 4.06 |
2026-08-30 10:27:07 | 0.71 | NNE | 0.92 | 26.2 | 0 | 1030 | 56.97 | 1376 | 17 | 4.06 |
2026-08-30 10:26:08 | 1.31 | N | 2.02 | 26.07 | 0 | 1030.02 | 57.19 | 1370 | 16.94 | 4.06 |
2026-08-30 10:25:09 | 1.63 | NNE | 2.42 | 25.99 | 0 | 1029.98 | 58.05 | 1349 | 17.1 | 4.06 |
2026-08-30 10:24:10 | 1.37 | NNE | 1.89 | 25.89 | 0 | 1029.99 | 59.25 | 1319 | 17.33 | 4.06 |
2026-08-30 10:23:11 | 1.27 | NNE | 1.41 | 25.76 | 0 | 1029.97 | 57.57 | 1361 | 16.75 | 4.06 |
2026-08-30 10:22:12 | 1.79 | NNE | 2.29 | 25.72 | 0 | 1029.97 | 57.3 | 1367 | 16.64 | 4.06 |
2026-08-30 10:21:13 | 0.72 | W | 1.14 | 25.61 | 0 | 1030 | 59.91 | 1302 | 17.24 | 4.06 |
2026-08-30 10:20:14 | 0.59 | NW | 0.88 | 25.41 | 0 | 1029.99 | 60.68 | 1283 | 17.26 | 4.06 |
2026-08-30 10:19:15 | 0.79 | NW | 1.32 | 25.21 | 0 | 1030.01 | 59.6 | 1310 | 16.78 | 4.06 |
2026-08-30 10:18:16 | 0.69 | NW | 0.88 | 25.14 | 0 | 1030.01 | 59.2 | 1320 | 16.61 | 4.06 |
2026-08-30 10:17:17 | 1 | WNW | 1.41 | 25.14 | 0 | 1030.03 | 60 | 1300 | 16.82 | 4.06 |
2026-08-30 10:16:19 | 1.06 | NNW | 1.63 | 25 | 0 | 1030.02 | 59.11 | 1322 | 16.46 | 4.05 |
2026-08-30 10:15:20 | 1.05 | NW | 1.45 | 24.85 | 0 | 1030.01 | 59.72 | 1307 | 16.48 | 4.05 |
2026-08-30 10:14:21 | 1.02 | NW | 1.23 | 24.82 | 0 | 1030 | 60.57 | 1286 | 16.67 | 4.05 |
2026-08-30 10:13:22 | 1.44 | WNW | 1.98 | 24.85 | 0 | 1029.99 | 59.49 | 1313 | 16.42 | 4.05 |
2026-08-30 10:12:23 | 1.38 | NNW | 1.72 | 24.89 | 0 | 1030.04 | 59.65 | 1309 | 16.5 | 4.05 |
2026-08-30 10:11:24 | 1.77 | NW | 2.68 | 24.92 | 0 | 1030.01 | 58.85 | 1329 | 16.31 | 4.05 |
2026-08-30 10:10:25 | 1.9 | NNW | 2.6 | 24.99 | 0 | 1030.04 | 60.4 | 1290 | 16.79 | 4.05 |
2026-08-30 10:09:27 | 1.15 | NNW | 1.36 | 25.02 | 0 | 1030.01 | 60.81 | 1280 | 16.92 | 4.05 |
2026-08-30 10:08:28 | 1.62 | NW | 1.98 | 25.11 | 0 | 1029.99 | 59.49 | 1313 | 16.66 | 4.05 |
2026-08-30 10:07:29 | 1.05 | NW | 2.42 | 25.28 | 0 | 1029.99 | 60.04 | 1299 | 16.97 | 4.05 |
2026-08-30 10:06:30 | 0.57 | NNW | 1.23 | 25.21 | 0 | 1030.01 | 59.95 | 1301 | 16.88 | 4.05 |
2026-08-30 10:05:31 | 0.67 | WNW | 0.97 | 25.11 | 0 | 1029.98 | 59.97 | 1301 | 16.79 | 4.05 |
2026-08-30 10:04:32 | 0.79 | WNW | 0.97 | 25.21 | 0 | 1030.02 | 59.93 | 1302 | 16.87 | 4.05 |
2026-08-30 10:03:33 | 1.15 | NW | 1.72 | 25.37 | 0 | 1030 | 58.92 | 1327 | 16.75 | 4.05 |
2026-08-30 10:02:34 | 1.34 | WNW | 1.8 | 25.65 | 0 | 1030.01 | 59.21 | 1320 | 17.09 | 4.05 |
2026-08-30 10:01:35 | 0.72 | N | 1.54 | 25.61 | 0 | 1030.01 | 60.71 | 1282 | 17.45 | 4.05 |
2026-08-30 10:00:36 | 1.09 | NNW | 1.5 | 25.42 | 0 | 1030.03 | 59.72 | 1307 | 17.01 | 4.05 |
2026-08-30 09:59:37 | 0.62 | N | 1.14 | 25.14 | 0 | 1030.03 | 61.43 | 1264 | 17.2 | 4.05 |
2026-08-30 09:58:38 | 0.89 | N | 1.23 | 24.83 | 0 | 1030.04 | 61.6 | 1260 | 16.95 | 4.04 |
2026-08-30 09:57:39 | 0.93 | N | 1.06 | 24.52 | 0 | 1030.01 | 61.74 | 1256 | 16.69 | 4.04 |
2026-08-30 09:56:40 | 0.92 | NNW | 1.1 | 24.34 | 0 | 1030.06 | 62.56 | 1236 | 16.73 | 4.04 |
2026-08-30 09:55:42 | 1.14 | NNW | 1.41 | 24.24 | 0 | 1030.03 | 63.5 | 1212 | 16.87 | 4.04 |
2026-08-30 09:54:43 | 1.38 | NW | 1.5 | 24.17 | 0 | 1030 | 62.44 | 1239 | 16.54 | 4.04 |
2026-08-30 09:53:44 | 1.93 | NW | 2.55 | 24.19 | 0 | 1030.08 | 62.88 | 1228 | 16.67 | 4.04 |
2026-08-30 09:52:45 | 1.1 | NNE | 1.94 | 24.06 | 0 | 1030.08 | 63 | 1225 | 16.58 | 4.04 |
2026-08-30 09:51:46 | 0.87 | NNW | 1.45 | 23.97 | 0 | 1030.07 | 64 | 1200 | 16.74 | 4.04 |
2026-08-30 09:50:48 | 1.84 | NW | 2.38 | 24.01 | 0 | 1030.06 | 62.42 | 1239 | 16.38 | 4.04 |
2026-08-30 09:49:48 | 2.15 | NW | 2.64 | 24.28 | 0 | 1030.08 | 61.77 | 1256 | 16.47 | 4.04 |
2026-08-30 09:48:50 | 1.2 | WNW | 1.8 | 24.54 | 0 | 1030.09 | 61.82 | 1254 | 16.73 | 4.03 |
2026-08-30 09:47:51 | 1.12 | NNW | 1.54 | 24.58 | 0 | 1030.1 | 62.31 | 1242 | 16.89 | 4.03 |
2026-08-30 09:46:52 | 1.57 | NW | 2.2 | 24.72 | 0 | 1030.12 | 61.12 | 1272 | 16.72 | 4.03 |
2026-08-30 09:45:53 | 0.46 | NW | 0.7 | 24.79 | 0 | 1030.13 | 62.07 | 1248 | 17.03 | 4.03 |
2026-08-30 09:44:54 | 0.87 | NNW | 1.41 | 24.68 | 0 | 1030.06 | 63.09 | 1223 | 17.18 | 4.03 |
2026-08-30 09:43:56 | 1.19 | NNW | 1.67 | 24.54 | 0 | 1030.11 | 62.91 | 1227 | 17.01 | 4.03 |
2026-08-30 09:42:57 | 1.38 | N | 1.54 | 24.48 | 0 | 1030.08 | 62.74 | 1231 | 16.91 | 4.03 |
2026-08-30 09:41:58 | 1.18 | N | 1.54 | 24.34 | 0 | 1030.12 | 64.08 | 1198 | 17.11 | 4.03 |
2026-08-30 09:41:01 | 1.34 | NNW | 1.85 | 24.31 | 0 | 1030.07 | 64.86 | 1178 | 17.27 | 4.03 |
2026-08-30 09:40:00 | 1.19 | NW | 1.54 | 24.34 | 0 | 1030.1 | 63.93 | 1202 | 17.07 | 4.03 |
2026-08-30 09:39:02 | 1.29 | NW | 1.94 | 24.41 | 0 | 1030.09 | 64.39 | 1190 | 17.25 | 4.03 |
2026-08-30 09:38:03 | 0.98 | NW | 2.02 | 24.3 | 0 | 1030.07 | 64.51 | 1187 | 17.18 | 4.03 |
2026-08-30 09:37:04 | 0.65 | NNW | 0.79 | 24.1 | 0 | 1030.11 | 64.93 | 1177 | 17.09 | 4.03 |
2026-08-30 09:36:05 | 1.08 | NW | 1.36 | 23.84 | 0 | 1030.12 | 64.86 | 1178 | 16.83 | 4.03 |
2026-08-30 09:35:06 | 0.31 | WNW | 0.75 | 23.65 | 0 | 1030.15 | 66.54 | 1136 | 17.05 | 4.03 |
2026-08-30 09:34:08 | 0.76 | W | 1.14 | 23.38 | 0 | 1030.17 | 66.28 | 1143 | 16.73 | 4.03 |
2026-08-30 09:33:09 | 0.88 | WSW | 1.23 | 23.27 | 0 | 1030.14 | 67.24 | 1119 | 16.85 | 4.03 |
2026-08-30 09:32:10 | 1.12 | W | 1.32 | 23.18 | 0 | 1030.1 | 66.91 | 1127 | 16.69 | 4.03 |
2026-08-30 09:31:11 | 1.12 | W | 1.19 | 23.3 | 0 | 1030.14 | 65.48 | 1163 | 16.46 | 4.03 |
2026-08-30 09:30:13 | 1.32 | W | 1.58 | 23.47 | 0 | 1030.18 | 65.28 | 1168 | 16.58 | 4.03 |
2026-08-30 09:29:14 | 1.03 | W | 1.54 | 23.64 | 0 | 1030.08 | 65.75 | 1156 | 16.85 | 4.03 |
2026-08-30 09:28:15 | 0.91 | WNW | 1.28 | 23.7 | 0 | 1030.08 | 64.93 | 1177 | 16.71 | 4.02 |
2026-08-30 09:27:16 | 0.62 | WNW | 1.41 | 23.68 | 0 | 1030.09 | 66.04 | 1149 | 16.96 | 4.02 |
2026-08-30 09:26:18 | 0.85 | WNW | 1.32 | 23.61 | 0 | 1030.13 | 65.83 | 1154 | 16.84 | 4.02 |
2026-08-30 09:25:19 | 1.15 | WNW | 1.67 | 23.73 | 0 | 1030.11 | 64.31 | 1192 | 16.59 | 4.02 |
2026-08-30 09:24:20 | 1.17 | NW | 1.67 | 23.89 | 0 | 1030.13 | 64.4 | 1190 | 16.76 | 4.02 |
2026-08-30 09:23:21 | 1.08 | NW | 1.72 | 23.93 | 0 | 1030.11 | 64.97 | 1176 | 16.94 | 4.02 |
2026-08-30 09:22:23 | 0.74 | NW | 0.84 | 23.83 | 0 | 1030.12 | 65.65 | 1159 | 17.01 | 4.02 |
2026-08-30 09:21:24 | 0.83 | WNW | 1.36 | 23.7 | 0 | 1030.14 | 65.23 | 1169 | 16.78 | 4.02 |
2026-08-30 09:20:25 | 1.31 | NW | 1.8 | 23.75 | 0 | 1030.14 | 65.24 | 1169 | 16.83 | 4.02 |
2026-08-30 09:19:26 | 0.9 | NW | 1.41 | 23.7 | 0 | 1030.13 | 66.74 | 1131 | 17.14 | 4.02 |
2026-08-30 09:18:28 | 0.75 | WNW | 1.32 | 23.55 | 0 | 1030.1 | 66.46 | 1138 | 16.94 | 4.02 |
2026-08-30 09:17:29 | 0.33 | W | 0.57 | 23.22 | 0 | 1030.15 | 67.72 | 1107 | 16.92 | 4.02 |
2026-08-30 09:16:30 | 0.78 | W | 1.1 | 23.03 | 0 | 1030.15 | 67.28 | 1118 | 16.63 | 4.02 |
2026-08-30 09:15:31 | 1.06 | W | 1.14 | 23.06 | 0 | 1030.12 | 66.16 | 1146 | 16.4 | 4.02 |
2026-08-30 09:14:33 | 0.98 | W | 1.28 | 23.15 | 0 | 1030.14 | 66.57 | 1136 | 16.58 | 4.02 |
2026-08-30 09:13:34 | 0.93 | W | 1.14 | 23.18 | 0 | 1030.15 | 66.59 | 1135 | 16.61 | 4.02 |
2026-08-30 09:12:35 | 0.93 | W | 1.5 | 23.14 | 0 | 1030.11 | 67.09 | 1123 | 16.69 | 4.02 |
2026-08-30 09:11:37 | 0.71 | WSW | 0.88 | 23.09 | 0 | 1030.11 | 67.06 | 1123 | 16.64 | 4.02 |
2026-08-30 09:10:38 | 0.93 | WSW | 1.23 | 22.97 | 0 | 1030.11 | 67.14 | 1121 | 16.54 | 4.02 |
2026-08-30 09:09:39 | 0.87 | W | 1.01 | 22.96 | 0 | 1030.1 | 67.51 | 1112 | 16.62 | 4.02 |
2026-08-30 09:08:40 | 1.18 | WSW | 1.72 | 22.99 | 0 | 1030.09 | 67.06 | 1123 | 16.54 | 4.02 |
2026-08-30 09:07:42 | 0.72 | WNW | 1.1 | 22.97 | 0 | 1030.08 | 67.99 | 1100 | 16.74 | 4.02 |
2026-08-30 09:06:43 | 0.55 | W | 0.75 | 22.77 | 0 | 1030.15 | 69.7 | 1057 | 16.94 | 4.02 |
2026-08-30 09:05:44 | 0.63 | W | 1.32 | 22.49 | 0 | 1030.13 | 70.82 | 1029 | 16.93 | 4.02 |
2026-08-30 09:04:46 | 0.97 | W | 1.1 | 22.3 | 0 | 1030.15 | 69.96 | 1051 | 16.55 | 4.02 |
2026-08-30 09:03:47 | 1.15 | W | 1.32 | 22.37 | 0 | 1030.17 | 69.25 | 1069 | 16.46 | 4.02 |
2026-08-30 09:02:48 | 1.41 | WNW | 1.94 | 22.56 | 0 | 1030.13 | 68.72 | 1082 | 16.52 | 4.02 |
2026-08-30 09:01:50 | 1.02 | NW | 1.54 | 22.79 | 0 | 1030.19 | 68.82 | 1079 | 16.76 | 4.02 |
2026-08-30 09:00:51 | 0.84 | NW | 1.14 | 22.89 | 0 | 1030.19 | 68.95 | 1076 | 16.89 | 4.02 |
2026-08-30 08:59:52 | 1.02 | NW | 1.5 | 22.96 | 0 | 1030.17 | 68.22 | 1094 | 16.79 | 4.02 |
2026-08-30 08:58:54 | 1.15 | NW | 1.63 | 23.1 | 0 | 1030.19 | 66.81 | 1130 | 16.59 | 4.02 |
2026-08-30 08:57:55 | 0.94 | NW | 1.19 | 23.22 | 0 | 1030.17 | 67.57 | 1111 | 16.88 | 4.01 |
2026-08-30 08:56:56 | 1.4 | NW | 1.98 | 23.31 | 0 | 1030.17 | 66.44 | 1139 | 16.7 | 4.01 |
2026-08-30 08:55:57 | 1.64 | NNW | 2.16 | 23.42 | 0 | 1030.18 | 65.4 | 1165 | 16.56 | 4.01 |
2026-08-30 08:54:59 | 0.94 | NNW | 1.06 | 23.52 | 0 | 1030.19 | 66.68 | 1133 | 16.96 | 4.01 |
2026-08-30 08:54:00 | 0.86 | NNW | 1.1 | 23.48 | 0 | 1030.22 | 66.21 | 1145 | 16.81 | 4.01 |
2026-08-30 08:53:01 | 0.56 | N | 0.88 | 23.48 | 0 | 1030.26 | 66.99 | 1125 | 16.99 | 4.01 |
2026-08-30 08:52:03 | 0.83 | N | 1.14 | 23.37 | 0 | 1030.2 | 67.19 | 1120 | 16.94 | 4.01 |
2026-08-30 08:51:04 | 0.73 | NNE | 1.19 | 23.32 | 0 | 1030.2 | 68.13 | 1097 | 17.11 | 4.01 |
2026-08-30 08:50:05 | 0.78 | N | 0.97 | 23.24 | 0 | 1030.26 | 67.84 | 1104 | 16.97 | 4.01 |
2026-08-30 08:49:06 | 0.86 | NNE | 1.14 | 23.1 | 0 | 1030.23 | 69.27 | 1068 | 17.16 | 4.01 |
2026-08-30 08:48:07 | 0.7 | NNE | 0.92 | 22.87 | 0 | 1030.18 | 70.75 | 1031 | 17.28 | 4.01 |
2026-08-30 08:47:09 | 0.71 | NNE | 1.01 | 22.56 | 0 | 1030.19 | 72.3 | 992 | 17.32 | 4.01 |
2026-08-30 08:46:10 | 0.41 | NNW | 1.32 | 22.18 | 0 | 1030.24 | 75.46 | 913 | 17.63 | 4.01 |
2026-08-30 08:45:12 | 0.54 | NNE | 1.23 | 21.69 | 0 | 1030.27 | 76.38 | 890 | 17.35 | 4.01 |
2026-08-30 08:44:13 | 0.36 | NNE | 0.66 | 21.2 | 0 | 1030.25 | 78.13 | 847 | 17.24 | 4.01 |
2026-08-30 08:43:14 | 0.63 | NNE | 1.1 | 20.72 | 0 | 1030.29 | 78.83 | 829 | 16.91 | 4.01 |
2026-08-30 08:42:16 | 0.79 | NNE | 1.28 | 20.29 | 0 | 1030.28 | 79.25 | 819 | 16.58 | 4.01 |
2026-08-30 08:41:17 | 0.85 | NE | 1.19 | 20 | 0 | 1030.27 | 79.01 | 825 | 16.25 | 4.01 |
2026-08-30 08:40:18 | 1.6 | ENE | 1.85 | 19.9 | 0 | 1030.3 | 78.54 | 836 | 16.06 | 4.01 |
2026-08-30 08:39:20 | 0.97 | ENE | 1.23 | 19.95 | 0 | 1030.29 | 78.9 | 827 | 16.18 | 4.00 |
2026-08-30 08:38:21 | 1.72 | ENE | 2.02 | 19.94 | 0 | 1030.37 | 79.54 | 811 | 16.29 | 4.00 |
2026-08-30 08:37:22 | 1.79 | ENE | 2.38 | 19.9 | 0 | 1030.3 | 79.87 | 803 | 16.32 | 4.00 |
2026-08-30 08:36:24 | 1.34 | NE | 1.85 | 19.78 | 0 | 1030.32 | 79.73 | 807 | 16.18 | 4.00 |
2026-08-30 08:35:25 | 0.6 | NE | 1.28 | 19.69 | 0 | 1030.35 | 81.25 | 769 | 16.38 | 4.00 |
2026-08-30 08:34:27 | 1.34 | NE | 1.58 | 19.45 | 0 | 1030.36 | 81.44 | 764 | 16.19 | 4.00 |
2026-08-30 08:33:28 | 1.46 | ENE | 1.72 | 19.28 | 0 | 1030.37 | 82.16 | 746 | 16.16 | 4.00 |
2026-08-30 08:32:29 | 1.24 | ENE | 2.07 | 19.21 | 0 | 1030.35 | 83.04 | 724 | 16.26 | 4.00 |
2026-08-30 08:31:31 | 1.06 | ENE | 1.67 | 18.95 | 0 | 1030.37 | 83.42 | 714 | 16.08 | 4.00 |
2026-08-30 08:30:32 | 1.44 | ENE | 1.8 | 18.74 | 0 | 1030.41 | 83.78 | 705 | 15.94 | 4.00 |
2026-08-30 08:29:34 | 0.82 | ENE | 2.38 | 18.62 | 0 | 1030.37 | 84.61 | 685 | 15.97 | 4.00 |
2026-08-30 08:28:35 | 1.14 | ESE | 1.36 | 18.35 | 0 | 1030.46 | 84.2 | 695 | 15.63 | 4.00 |
2026-08-30 08:27:37 | 1.82 | ESE | 2.24 | 18.32 | 0 | 1030.48 | 84.09 | 698 | 15.58 | 4.00 |
2026-08-30 08:26:38 | 1.85 | E | 2.2 | 18.35 | 0 | 1030.46 | 84.47 | 688 | 15.68 | 4.00 |
2026-08-30 08:25:39 | 1.54 | ENE | 1.8 | 18.29 | 0 | 1030.44 | 84.51 | 687 | 15.63 | 4.00 |
2026-08-30 08:24:41 | 1.58 | ENE | 1.8 | 18.25 | 0 | 1030.46 | 84.93 | 677 | 15.67 | 4.00 |
2026-08-30 08:23:42 | 1.56 | ENE | 2.24 | 18.15 | 0 | 1030.47 | 84.79 | 680 | 15.55 | 4.00 |
2026-08-30 08:22:44 | 1.52 | E | 1.85 | 18.11 | 0 | 1030.46 | 85.15 | 671 | 15.57 | 4.00 |
2026-08-30 08:21:45 | 1.58 | E | 1.94 | 18.09 | 0 | 1030.48 | 85.69 | 658 | 15.65 | 4.00 |
2026-08-30 08:20:46 | 1.82 | ESE | 2.38 | 17.98 | 0 | 1030.49 | 85.62 | 659 | 15.53 | 4.00 |
2026-08-30 08:19:48 | 0.88 | E | 1.41 | 17.9 | 0 | 1030.51 | 86.23 | 644 | 15.56 | 4.00 |
2026-08-30 08:18:49 | 1.1 | ENE | 1.63 | 17.8 | 0 | 1030.48 | 86.33 | 642 | 15.48 | 4.00 |
2026-08-30 08:17:51 | 1.54 | E | 2.07 | 17.66 | 0 | 1030.54 | 85.9 | 652 | 15.27 | 4.00 |
2026-08-30 08:16:52 | 1.95 | E | 2.64 | 17.67 | 0 | 1030.49 | 85.68 | 658 | 15.24 | 4.00 |
2026-08-30 08:15:54 | 1.54 | ENE | 1.94 | 17.78 | 0 | 1030.51 | 86.34 | 641 | 15.47 | 4.00 |
2026-08-30 08:14:55 | 1.74 | E | 2.46 | 17.7 | 0 | 1030.47 | 86.3 | 642 | 15.38 | 4.00 |
2026-08-30 08:13:57 | 1.74 | ENE | 2.6 | 17.66 | 0 | 1030.5 | 85.8 | 655 | 15.25 | 4.00 |
2026-08-30 08:12:58 | 1.57 | E | 2.11 | 17.76 | 0 | 1030.48 | 85.81 | 655 | 15.35 | 4.00 |
2026-08-30 08:11:59 | 1.59 | E | 1.89 | 17.8 | 0 | 1030.49 | 85.07 | 673 | 15.26 | 4.00 |
2026-08-30 08:11:01 | 1.63 | E | 1.94 | 17.9 | 0 | 1030.5 | 85.1 | 672 | 15.36 | 4.00 |
2026-08-30 08:10:02 | 1.72 | ENE | 1.98 | 17.94 | 0 | 1030.45 | 84.59 | 685 | 15.3 | 4.00 |
2026-08-30 08:09:03 | 1.16 | ENE | 1.5 | 17.98 | 0 | 1030.48 | 84.5 | 687 | 15.33 | 4.00 |
2026-08-30 08:08:04 | 1.52 | ENE | 2.07 | 17.97 | 0 | 1030.44 | 83.92 | 702 | 15.21 | 4.00 |
2026-08-30 08:07:06 | 1.66 | E | 2.16 | 18.16 | 0 | 1030.43 | 84.16 | 696 | 15.44 | 4.00 |
2026-08-30 08:06:08 | 0.95 | E | 1.1 | 18.12 | 0 | 1030.46 | 83.77 | 706 | 15.33 | 4.00 |
2026-08-30 08:05:09 | 0.99 | E | 1.36 | 18.09 | 0 | 1030.46 | 83.47 | 713 | 15.24 | 4.00 |
2026-08-30 08:04:10 | 1 | E | 1.45 | 18.14 | 0 | 1030.44 | 83.61 | 710 | 15.32 | 4.00 |
2026-08-30 08:03:12 | 1.07 | E | 1.41 | 18.14 | 0 | 1030.46 | 83.8 | 705 | 15.35 | 4.00 |
2026-08-30 08:02:13 | 0.71 | E | 0.97 | 18.16 | 0 | 1030.49 | 84.25 | 694 | 15.46 | 4.00 |
2026-08-30 08:01:15 | 0.86 | E | 1.14 | 18.05 | 0 | 1030.45 | 83.91 | 702 | 15.29 | 4.00 |
2026-08-30 08:00:16 | 1.06 | E | 1.36 | 18.05 | 0 | 1030.42 | 83.39 | 715 | 15.19 | 4.00 |
2026-08-30 07:59:18 | 1.18 | E | 1.63 | 18.16 | 0 | 1030.48 | 83.41 | 715 | 15.3 | 4.00 |
2026-08-30 07:58:19 | 1.01 | E | 1.8 | 18.19 | 0 | 1030.45 | 82.67 | 733 | 15.19 | 4.00 |
2026-08-30 07:57:21 | 1.1 | E | 1.41 | 18.32 | 0 | 1030.47 | 82.12 | 747 | 15.21 | 4.00 |
2026-08-30 07:56:22 | 1.53 | ENE | 2.24 | 18.5 | 0 | 1030.45 | 82.38 | 740 | 15.44 | 4.00 |
2026-08-30 07:55:23 | 1.11 | ENE | 1.32 | 18.59 | 0 | 1030.48 | 81.01 | 775 | 15.27 | 4.00 |
2026-08-30 07:54:25 | 1.48 | ENE | 1.94 | 18.76 | 0 | 1030.43 | 80.02 | 799 | 15.24 | 4.00 |
2026-08-30 07:53:26 | 1.18 | NE | 1.54 | 19.11 | 0 | 1030.46 | 78.27 | 843 | 15.24 | 4.00 |
2026-08-30 07:52:28 | 1.18 | NE | 1.63 | 19.49 | 0 | 1030.4 | 76.63 | 884 | 15.27 | 4.00 |
2026-08-30 07:51:29 | 0.78 | NE | 1.06 | 19.93 | 0 | 1030.4 | 75.36 | 916 | 15.44 | 4.00 |
2026-08-30 07:50:31 | 0.87 | NE | 1.5 | 20.35 | 0 | 1030.43 | 74.67 | 933 | 15.7 | 4.00 |
2026-08-30 07:49:32 | 0.76 | NE | 1.01 | 20.7 | 0 | 1030.39 | 73.63 | 959 | 15.82 | 4.00 |
2026-08-30 07:48:34 | 0.58 | NE | 0.88 | 21.03 | 0 | 1030.39 | 72.91 | 977 | 15.98 | 4.00 |
2026-08-30 07:47:34 | 0.18 | NE | 0.66 | 21.25 | 0 | 1030.39 | 73.08 | 973 | 16.23 | 4.00 |
2026-08-30 07:46:36 | 0.27 | NE | 0.4 | 21.28 | 0 | 1030.39 | 72.63 | 984 | 16.16 | 4.00 |
2026-08-30 07:45:37 | 0.38 | NE | 0.62 | 21.39 | 0 | 1030.42 | 72.59 | 985 | 16.26 | 4.00 |
2026-08-30 07:44:39 | 0.2 | NE | 0.88 | 21.5 | 0 | 1030.43 | 73.02 | 974 | 16.46 | 4.00 |
2026-08-30 07:43:40 | 0 | NE | 0 | 21.53 | 0 | 1030.41 | 74.71 | 932 | 16.85 | 4.00 |
2026-08-30 07:42:42 | 0.11 | NE | 0.26 | 21.32 | 0 | 1030.43 | 75.06 | 923 | 16.72 | 4.00 |
2026-08-30 07:41:43 | 0.19 | NE | 0.44 | 21.14 | 0 | 1030.43 | 76.03 | 899 | 16.75 | 4.00 |
2026-08-30 07:40:45 | 0.09 | NE | 0.26 | 20.84 | 0 | 1030.47 | 76.68 | 883 | 16.59 | 4.00 |
2026-08-30 07:39:46 | 0.37 | NE | 0.57 | 20.56 | 0 | 1030.45 | 76.85 | 879 | 16.35 | 4.00 |
2026-08-30 07:38:48 | 0.47 | NE | 0.57 | 20.33 | 0 | 1030.49 | 76.76 | 881 | 16.11 | 4.00 |
2026-08-30 07:37:49 | 0.48 | NE | 0.7 | 20.24 | 0 | 1030.46 | 76.7 | 882 | 16.01 | 4.00 |
2026-08-30 07:36:50 | 0.62 | NE | 0.79 | 20.14 | 0 | 1030.49 | 76.74 | 881 | 15.93 | 4.00 |
2026-08-30 07:35:52 | 0.61 | ENE | 0.84 | 20.07 | 0 | 1030.43 | 77.85 | 854 | 16.08 | 4.00 |
2026-08-30 07:34:53 | 0.54 | ENE | 0.7 | 20.04 | 0 | 1030.42 | 79.35 | 816 | 16.35 | 4.00 |
2026-08-30 07:33:55 | 0.27 | ENE | 0.57 | 19.98 | 0 | 1030.42 | 81.74 | 756 | 16.76 | 4.00 |
2026-08-30 07:32:56 | 0.26 | ENE | 0.48 | 19.77 | 0 | 1030.42 | 82.78 | 730 | 16.76 | 4.00 |
2026-08-30 07:31:58 | 0.22 | ENE | 0.35 | 19.59 | 0 | 1030.44 | 84.6 | 685 | 16.92 | 4.00 |
2026-08-30 07:30:59 | 0 | ENE | 0 | 19.29 | 0 | 1030.38 | 85.96 | 651 | 16.88 | 4.00 |
2026-08-30 07:30:01 | 0 | ENE | 0 | 18.82 | 0 | 1030.39 | 86.48 | 638 | 16.51 | 4.00 |
2026-08-30 07:29:02 | 0 | ENE | 0 | 18.33 | 0 | 1030.46 | 86.26 | 643 | 15.99 | 4.00 |
2026-08-30 07:28:03 | 0 | ENE | 0 | 17.97 | 0 | 1030.44 | 85.82 | 654 | 15.56 | 4.00 |
2026-08-30 07:27:05 | 0.13 | ENE | 0.35 | 17.74 | 0 | 1030.45 | 85.06 | 673 | 15.19 | 4.00 |
2026-08-30 07:26:06 | 0.45 | ENE | 0.57 | 17.73 | 0 | 1030.42 | 84.55 | 686 | 15.09 | 4.00 |
2026-08-30 07:25:08 | 0.55 | ENE | 0.62 | 17.8 | 0 | 1030.43 | 84.44 | 689 | 15.14 | 4.00 |
2026-08-30 07:24:10 | 0.69 | ENE | 1.14 | 17.86 | 0 | 1030.43 | 84.37 | 691 | 15.19 | 4.00 |
2026-08-30 07:23:11 | 0.65 | ENE | 0.88 | 17.91 | 0 | 1030.42 | 83.78 | 705 | 15.13 | 4.00 |
2026-08-30 07:22:13 | 0.61 | ENE | 0.84 | 18.03 | 0 | 1030.39 | 83.34 | 716 | 15.16 | 4.00 |
2026-08-30 07:21:14 | 0.71 | ENE | 0.88 | 18.19 | 0 | 1030.42 | 83.09 | 723 | 15.27 | 4.00 |
2026-08-30 07:20:15 | 0.76 | ENE | 1.06 | 18.42 | 0 | 1030.4 | 82.54 | 736 | 15.39 | 4.00 |
2026-08-30 07:19:17 | 0.97 | ENE | 1.32 | 18.69 | 0 | 1030.38 | 82.77 | 731 | 15.7 | 4.00 |
2026-08-30 07:18:18 | 0.74 | NE | 0.97 | 19.08 | 0 | 1030.4 | 83.92 | 702 | 16.3 | 4.00 |
2026-08-30 07:17:20 | 0.37 | NE | 0.7 | 19.38 | 0 | 1030.36 | 86.47 | 638 | 17.06 | 4.00 |
2026-08-30 07:16:22 | 0.07 | NNW | 0.31 | 19.42 | 0 | 1030.37 | 88.09 | 598 | 17.4 | 4.00 |
2026-08-30 07:15:23 | 0.09 | NNW | 0.31 | 19.28 | 0 | 1030.32 | 89.16 | 571 | 17.45 | 4.00 |
2026-08-30 07:14:25 | 0 | NNW | 0 | 19.17 | 0 | 1030.31 | 90.49 | 538 | 17.57 | 4.00 |
2026-08-30 07:13:26 | 0 | NNW | 0 | 18.84 | 0 | 1030.4 | 91.21 | 520 | 17.37 | 4.00 |
2026-08-30 07:12:28 | 0 | NNW | 0 | 18.4 | 0 | 1030.38 | 91.52 | 512 | 16.99 | 4.00 |
2026-08-30 07:11:29 | 0 | NNW | 0 | 18.08 | 0 | 1030.33 | 91.7 | 507 | 16.71 | 4.00 |
2026-08-30 07:10:31 | 0 | NNW | 0 | 17.86 | 0 | 1030.38 | 92.18 | 495 | 16.57 | 4.00 |
2026-08-30 07:09:32 | 0 | NNW | 0 | 17.59 | 0 | 1030.36 | 92.51 | 487 | 16.36 | 4.00 |
2026-08-30 07:08:34 | 0 | NNW | 0 | 17.31 | 0 | 1030.36 | 92.64 | 484 | 16.11 | 4.00 |
2026-08-30 07:07:35 | 0.11 | NNW | 0.35 | 17.03 | 0 | 1030.33 | 92.69 | 483 | 15.84 | 4.00 |
2026-08-30 07:06:37 | 0.43 | NNW | 0.7 | 16.78 | 0 | 1030.32 | 92.83 | 479 | 15.61 | 4.00 |
2026-08-30 07:05:38 | 0.73 | NNW | 0.88 | 16.59 | 0 | 1030.3 | 92.9 | 477 | 15.44 | 4.00 |
2026-08-30 07:04:40 | 0.77 | NNW | 0.84 | 16.53 | 0 | 1030.3 | 93.2 | 470 | 15.43 | 4.00 |
2026-08-30 07:03:41 | 0.73 | NNW | 0.88 | 16.52 | 0 | 1030.31 | 93.61 | 460 | 15.48 | 4.00 |
2026-08-30 07:02:43 | 0.69 | NNW | 1.06 | 16.48 | 0 | 1030.28 | 94.1 | 447 | 15.53 | 4.00 |
2026-08-30 07:01:44 | 0.64 | NNW | 0.84 | 16.4 | 0 | 1030.29 | 94.33 | 442 | 15.49 | 4.00 |
2026-08-30 07:00:46 | 0.65 | NNW | 0.92 | 16.38 | 0 | 1030.29 | 94.61 | 435 | 15.51 | 4.00 |
2026-08-30 06:59:47 | 0.5 | N | 0.7 | 16.42 | 0 | 1030.26 | 94.9 | 427 | 15.6 | 4.00 |
2026-08-30 06:58:49 | 0.29 | N | 0.79 | 16.5 | 0 | 1030.29 | 95.21 | 420 | 15.73 | 4.00 |
2026-08-30 06:57:51 | 0 | N | 0 | 16.74 | 0 | 1030.26 | 95.75 | 406 | 16.06 | 4.00 |
2026-08-30 06:56:52 | 0 | N | 0 | 16.92 | 0 | 1030.29 | 96.06 | 398 | 16.29 | 4.00 |
2026-08-30 06:55:54 | 0 | N | 0 | 16.98 | 0 | 1030.29 | 96.28 | 393 | 16.38 | 4.00 |
2026-08-30 06:54:55 | 0 | N | 0 | 17.05 | 0 | 1030.28 | 96.43 | 389 | 16.48 | 4.00 |
2026-08-30 06:53:57 | 0 | N | 0 | 16.88 | 0 | 1030.24 | 96.53 | 387 | 16.32 | 4.00 |
2026-08-30 06:52:58 | 0 | N | 0 | 16.63 | 0 | 1030.24 | 96.5 | 387 | 16.07 | 4.00 |
2026-08-30 06:52:00 | 0 | N | 0 | 16.43 | 0 | 1030.29 | 96.48 | 388 | 15.87 | 4.00 |
2026-08-30 06:51:02 | 0 | N | 0 | 16.31 | 0 | 1030.22 | 96.48 | 388 | 15.75 | 4.00 |
2026-08-30 06:50:03 | 0 | N | 0 | 16.18 | 0 | 1030.24 | 96.49 | 388 | 15.62 | 4.00 |
2026-08-30 06:49:05 | 0 | N | 0 | 16.05 | 0 | 1030.22 | 96.52 | 387 | 15.5 | 4.00 |
2026-08-30 06:48:06 | 0 | N | 0 | 15.94 | 0 | 1030.22 | 96.51 | 387 | 15.38 | 4.00 |
2026-08-30 06:47:08 | 0 | N | 0 | 15.8 | 0 | 1030.21 | 96.51 | 387 | 15.25 | 4.00 |
2026-08-30 06:46:09 | 0 | N | 0 | 15.69 | 0 | 1030.23 | 96.48 | 388 | 15.13 | 4.00 |
2026-08-30 06:45:11 | 0 | N | 0 | 15.54 | 0 | 1030.23 | 96.46 | 388 | 14.98 | 4.00 |
2026-08-30 06:44:13 | 0 | N | 0 | 15.43 | 0 | 1030.26 | 96.46 | 388 | 14.87 | 4.00 |
2026-08-30 06:43:14 | 0 | N | 0 | 15.32 | 0 | 1030.22 | 96.43 | 389 | 14.75 | 4.00 |
2026-08-30 06:42:16 | 0 | N | 0 | 15.31 | 0 | 1030.25 | 96.46 | 388 | 14.75 | 4.00 |
2026-08-30 06:41:17 | 0 | N | 0 | 15.28 | 0 | 1030.24 | 96.48 | 388 | 14.72 | 4.00 |
2026-08-30 06:40:19 | 0 | N | 0 | 15.21 | 0 | 1030.26 | 96.46 | 388 | 14.65 | 4.00 |
2026-08-30 06:39:21 | 0 | N | 0 | 15.19 | 0 | 1030.19 | 96.46 | 388 | 14.63 | 4.00 |
2026-08-30 06:38:22 | 0 | N | 0 | 15.15 | 0 | 1030.18 | 96.48 | 388 | 14.59 | 4.00 |
2026-08-30 06:37:24 | 0 | N | 0 | 15.12 | 0 | 1030.22 | 96.51 | 387 | 14.57 | 4.00 |
2026-08-30 06:36:25 | 0 | N | 0 | 15.06 | 0 | 1030.21 | 96.5 | 387 | 14.51 | 4.00 |
2026-08-30 06:35:26 | 0 | N | 0 | 15.02 | 0 | 1030.22 | 96.48 | 388 | 14.46 | 4.00 |
2026-08-30 06:34:28 | 0 | N | 0 | 14.98 | 0 | 1030.24 | 96.46 | 388 | 14.42 | 4.00 |
2026-08-30 06:33:30 | 0 | N | 0 | 14.9 | 0 | 1030.2 | 96.43 | 389 | 14.34 | 4.00 |
2026-08-30 06:32:31 | 0 | N | 0 | 14.81 | 0 | 1030.24 | 96.4 | 390 | 14.24 | 4.00 |
2026-08-30 06:31:33 | 0 | N | 0 | 14.76 | 0 | 1030.23 | 96.41 | 390 | 14.19 | 4.00 |
2026-08-30 06:30:34 | 0 | N | 0 | 14.76 | 0 | 1030.25 | 96.4 | 390 | 14.19 | 4.00 |
2026-08-30 06:29:36 | 0 | N | 0 | 14.7 | 0 | 1030.26 | 96.35 | 391 | 14.12 | 4.00 |
2026-08-30 06:28:38 | 0 | N | 0 | 14.66 | 0 | 1030.27 | 96.34 | 391 | 14.08 | 4.00 |
2026-08-30 06:27:39 | 0 | N | 0 | 14.63 | 0 | 1030.21 | 96.31 | 392 | 14.05 | 4.00 |
2026-08-30 06:26:41 | 0 | N | 0 | 14.59 | 0 | 1030.24 | 96.29 | 393 | 14.01 | 4.00 |
2026-08-30 06:25:42 | 0 | N | 0 | 14.56 | 0 | 1030.22 | 96.23 | 394 | 13.97 | 4.00 |
2026-08-30 06:24:44 | 0 | N | 0 | 14.55 | 0 | 1030.26 | 96.25 | 394 | 13.96 | 4.00 |
2026-08-30 06:23:46 | 0 | N | 0 | 14.51 | 0 | 1030.2 | 96.22 | 394 | 13.91 | 4.00 |
2026-08-30 06:22:47 | 0 | N | 0 | 14.49 | 0 | 1030.19 | 96.23 | 394 | 13.9 | 4.00 |
2026-08-30 06:21:49 | 0 | N | 0 | 14.43 | 0 | 1030.18 | 96.17 | 396 | 13.83 | 4.00 |
2026-08-30 06:20:50 | 0 | N | 0 | 14.42 | 0 | 1030.26 | 96.16 | 396 | 13.82 | 4.00 |
2026-08-30 06:19:52 | 0 | N | 0 | 14.39 | 0 | 1030.22 | 96.15 | 396 | 13.78 | 4.00 |
2026-08-30 06:18:54 | 0 | N | 0 | 14.37 | 0 | 1030.21 | 96.11 | 397 | 13.76 | 4.00 |
2026-08-30 06:17:55 | 0 | N | 0 | 14.39 | 0 | 1030.24 | 96.09 | 398 | 13.77 | 4.00 |
2026-08-30 06:16:57 | 0 | N | 0 | 14.4 | 0 | 1030.21 | 96.06 | 398 | 13.78 | 4.00 |
2026-08-30 06:15:58 | 0 | N | 0 | 14.39 | 0 | 1030.22 | 96.04 | 399 | 13.77 | 4.00 |
2026-08-30 06:15:00 | 0 | N | 0 | 14.37 | 0 | 1030.24 | 96.05 | 399 | 13.75 | 4.00 |
2026-08-30 06:14:01 | 0 | N | 0 | 14.32 | 0 | 1030.29 | 96.05 | 399 | 13.7 | 4.00 |
2026-08-30 06:13:03 | 0 | N | 0 | 14.32 | 0 | 1030.31 | 96.01 | 400 | 13.69 | 4.00 |
2026-08-30 06:12:05 | 0 | N | 0 | 14.29 | 0 | 1030.24 | 96 | 400 | 13.66 | 4.00 |
2026-08-30 06:11:06 | 0 | N | 0 | 14.29 | 0 | 1030.26 | 96.02 | 399 | 13.66 | 4.00 |
2026-08-30 06:10:08 | 0 | N | 0 | 14.26 | 0 | 1030.25 | 95.98 | 400 | 13.63 | 4.00 |
2026-08-30 06:09:09 | 0 | N | 0 | 14.26 | 0 | 1030.26 | 95.97 | 401 | 13.63 | 4.00 |
2026-08-30 06:08:11 | 0 | N | 0 | 14.28 | 0 | 1030.26 | 95.98 | 400 | 13.65 | 4.00 |
2026-08-30 06:07:13 | 0 | N | 0 | 14.26 | 0 | 1030.31 | 95.91 | 402 | 13.62 | 4.00 |
2026-08-30 06:06:14 | 0 | N | 0 | 14.26 | 0 | 1030.21 | 95.93 | 402 | 13.62 | 4.00 |
2026-08-30 06:05:16 | 0 | N | 0 | 14.23 | 0 | 1030.25 | 95.95 | 401 | 13.59 | 4.00 |
2026-08-30 06:04:17 | 0 | N | 0 | 14.21 | 0 | 1030.22 | 95.94 | 401 | 13.57 | 4.00 |
2026-08-30 06:03:19 | 0 | N | 0 | 14.18 | 0 | 1030.2 | 95.89 | 403 | 13.53 | 4.00 |
2026-08-30 06:02:21 | 0 | N | 0 | 14.16 | 0 | 1030.23 | 95.81 | 405 | 13.5 | 4.00 |
2026-08-30 06:01:21 | 0 | N | 0 | 14.19 | 0 | 1030.26 | 95.8 | 405 | 13.53 | 4.00 |
2026-08-30 06:00:23 | 0 | N | 0 | 14.22 | 0 | 1030.26 | 95.8 | 405 | 13.56 | 4.00 |
2026-08-30 05:59:25 | 0 | N | 0 | 14.19 | 0 | 1030.24 | 95.79 | 405 | 13.53 | 4.00 |
2026-08-30 05:58:26 | 0 | N | 0 | 14.19 | 0 | 1030.2 | 95.8 | 405 | 13.53 | 4.00 |
2026-08-30 05:57:28 | 0 | N | 0 | 14.23 | 0 | 1030.2 | 95.75 | 406 | 13.56 | 4.00 |
2026-08-30 05:56:29 | 0 | N | 0 | 14.16 | 0 | 1030.21 | 95.75 | 406 | 13.49 | 4.00 |
2026-08-30 05:55:31 | 0 | N | 0 | 14.18 | 0 | 1030.19 | 95.74 | 406 | 13.51 | 4.00 |
2026-08-30 05:54:33 | 0 | N | 0 | 14.16 | 0 | 1030.24 | 95.7 | 407 | 13.48 | 4.00 |
2026-08-30 05:53:34 | 0 | N | 0 | 14.18 | 0 | 1030.22 | 95.7 | 407 | 13.5 | 4.00 |
2026-08-30 05:52:36 | 0 | N | 0 | 14.16 | 0 | 1030.2 | 95.67 | 408 | 13.48 | 4.00 |
2026-08-30 05:51:38 | 0 | N | 0 | 14.14 | 0 | 1030.2 | 95.66 | 408 | 13.46 | 4.00 |
2026-08-30 05:50:39 | 0 | N | 0 | 14.11 | 0 | 1030.16 | 95.6 | 410 | 13.42 | 4.00 |
2026-08-30 05:49:41 | 0 | N | 0 | 14.09 | 0 | 1030.18 | 95.57 | 411 | 13.39 | 4.00 |
2026-08-30 05:48:42 | 0 | N | 0 | 14.11 | 0 | 1030.2 | 95.54 | 411 | 13.41 | 4.00 |
2026-08-30 05:47:44 | 0 | N | 0 | 14.12 | 0 | 1030.22 | 95.52 | 412 | 13.41 | 4.00 |
2026-08-30 05:46:45 | 0.1 | N | 0.31 | 14.14 | 0 | 1030.21 | 95.49 | 413 | 13.43 | 4.00 |
2026-08-30 05:45:21 | 0.06 | N | 0.22 | 14.16 | 0 | 1030.24 | 95.44 | 414 | 13.44 | 4.00 |
2026-08-30 05:45:21 | 0.28 | N | 0.31 | 14.19 | 0 | 1030.22 | 95.42 | 414 | 13.47 | 4.00 |
2026-08-30 05:46:20 | 0.25 | N | 0.35 | 14.14 | 0 | 1030.21 | 95.45 | 414 | 13.42 | 4.00 |
2026-08-30 05:12:40 | 1.05 | NNW | 1.1 | 15.08 | 0 | 1030.25 | 94.37 | 441 | 14.18 | 4.01 |
2026-08-30 05:11:42 | 1.03 | NNW | 1.14 | 15.08 | 0 | 1030.27 | 94.3 | 442 | 14.17 | 4.01 |
2026-08-30 05:10:43 | 0.92 | NNW | 0.97 | 15.09 | 0 | 1030.29 | 94.18 | 445 | 14.16 | 4.01 |
2026-08-30 05:09:45 | 0.88 | NNW | 1.01 | 15.11 | 0 | 1030.3 | 94.13 | 447 | 14.17 | 4.01 |
2026-08-30 05:08:46 | 0.99 | NNW | 1.06 | 15.18 | 0 | 1030.27 | 94.17 | 446 | 14.25 | 4.01 |
2026-08-30 05:07:48 | 1.01 | NNW | 1.1 | 15.25 | 0 | 1030.24 | 94.14 | 446 | 14.31 | 4.01 |
2026-08-30 05:06:49 | 0.99 | NNW | 1.06 | 15.35 | 0 | 1030.26 | 94.16 | 446 | 14.41 | 4.01 |
2026-08-30 05:05:51 | 0.8 | NW | 1.1 | 15.45 | 0 | 1030.27 | 94.24 | 444 | 14.53 | 4.01 |
2026-08-30 05:04:53 | 0 | NW | 0 | 15.54 | 0 | 1030.3 | 94.34 | 441 | 14.63 | 4.01 |
2026-08-30 05:03:54 | 0 | NW | 0 | 15.61 | 0 | 1030.25 | 94.35 | 441 | 14.7 | 4.01 |
2026-08-30 05:02:56 | 0 | NW | 0 | 15.63 | 0 | 1030.24 | 94.35 | 441 | 14.72 | 4.01 |
2026-08-30 05:01:57 | 0.24 | NW | 0.48 | 15.66 | 0 | 1030.27 | 94.38 | 440 | 14.76 | 4.01 |
2026-08-30 05:00:59 | 0.49 | NW | 0.66 | 15.66 | 0 | 1030.26 | 94.39 | 440 | 14.76 | 4.01 |
2026-08-30 05:00:00 | 0.62 | NW | 0.66 | 15.7 | 0 | 1030.26 | 94.36 | 441 | 14.8 | 4.01 |
2026-08-30 04:59:01 | 0.71 | NW | 0.75 | 15.67 | 0 | 1030.26 | 94.42 | 439 | 14.78 | 4.01 |
2026-08-30 04:58:03 | 0.97 | NW | 1.06 | 15.61 | 0 | 1030.25 | 94.42 | 439 | 14.72 | 4.01 |
2026-08-30 04:57:04 | 1.05 | NW | 1.14 | 15.6 | 0 | 1030.3 | 94.37 | 441 | 14.7 | 4.01 |
2026-08-30 04:56:06 | 1 | NW | 1.1 | 15.57 | 0 | 1030.24 | 94.37 | 441 | 14.67 | 4.01 |
2026-08-30 04:55:07 | 0.96 | NW | 1.01 | 15.56 | 0 | 1030.31 | 94.31 | 442 | 14.65 | 4.01 |
2026-08-30 04:54:09 | 1.09 | NW | 1.14 | 15.51 | 0 | 1030.29 | 94.3 | 442 | 14.6 | 4.01 |
2026-08-30 04:53:10 | 1.06 | NW | 1.14 | 15.46 | 0 | 1030.29 | 94.25 | 444 | 14.54 | 4.01 |
2026-08-30 04:52:12 | 1.1 | NW | 1.19 | 15.38 | 0 | 1030.31 | 94.17 | 446 | 14.45 | 4.01 |
2026-08-30 04:51:13 | 0.96 | NW | 1.06 | 15.28 | 0 | 1030.27 | 93.98 | 450 | 14.32 | 4.01 |
2026-08-30 04:50:15 | 0.76 | NW | 0.84 | 15.23 | 0 | 1030.28 | 93.9 | 452 | 14.25 | 4.01 |
2026-08-30 04:49:16 | 0.87 | NW | 1.01 | 15.25 | 0 | 1030.28 | 93.83 | 454 | 14.26 | 4.01 |
2026-08-30 04:48:18 | 0.92 | NW | 0.97 | 15.28 | 0 | 1030.32 | 93.77 | 456 | 14.28 | 4.01 |
2026-08-30 04:47:20 | 1.1 | NW | 1.19 | 15.32 | 0 | 1030.28 | 93.73 | 457 | 14.31 | 4.01 |
2026-08-30 04:46:21 | 1.29 | NW | 1.45 | 15.29 | 0 | 1030.31 | 93.66 | 458 | 14.27 | 4.01 |
2026-08-30 04:45:23 | 1.43 | NW | 1.58 | 15.31 | 0 | 1030.29 | 93.56 | 461 | 14.28 | 4.01 |
2026-08-30 04:44:24 | 1.2 | NW | 1.32 | 15.32 | 0 | 1030.28 | 93.46 | 463 | 14.27 | 4.01 |
2026-08-30 04:43:26 | 0.99 | NW | 1.19 | 15.35 | 0 | 1030.29 | 93.42 | 464 | 14.29 | 4.01 |
2026-08-30 04:42:28 | 0.72 | NW | 0.79 | 15.39 | 0 | 1030.25 | 93.35 | 466 | 14.32 | 4.01 |
2026-08-30 04:41:29 | 0.65 | NW | 0.7 | 15.43 | 0 | 1030.28 | 93.29 | 468 | 14.35 | 4.01 |
2026-08-30 04:40:31 | 0.67 | NW | 0.75 | 15.45 | 0 | 1030.3 | 93.25 | 469 | 14.36 | 4.01 |
2026-08-30 04:39:32 | 0.79 | NW | 0.92 | 15.49 | 0 | 1030.31 | 93.24 | 469 | 14.4 | 4.01 |
2026-08-30 04:38:34 | 0.73 | NW | 0.88 | 15.49 | 0 | 1030.26 | 93.15 | 471 | 14.39 | 4.01 |
2026-08-30 04:37:35 | 0.76 | NW | 0.84 | 15.51 | 0 | 1030.23 | 93.1 | 472 | 14.4 | 4.01 |
2026-08-30 04:36:37 | 0.71 | NW | 0.92 | 15.54 | 0 | 1030.26 | 93.08 | 473 | 14.42 | 4.01 |
2026-08-30 04:35:38 | 0.47 | NW | 0.53 | 15.57 | 0 | 1030.28 | 92.98 | 475 | 14.44 | 4.01 |
2026-08-30 04:34:40 | 0.46 | NW | 0.53 | 15.59 | 0 | 1030.28 | 92.98 | 475 | 14.46 | 4.01 |
2026-08-30 04:33:41 | 0.56 | NW | 0.62 | 15.67 | 0 | 1030.28 | 93.03 | 474 | 14.55 | 4.01 |
2026-08-30 04:32:43 | 0.56 | NW | 0.7 | 15.67 | 0 | 1030.31 | 93.02 | 474 | 14.54 | 4.01 |
2026-08-30 04:31:44 | 0.46 | NW | 0.62 | 15.71 | 0 | 1030.26 | 93.04 | 474 | 14.59 | 4.01 |
2026-08-30 04:30:46 | 0.3 | NW | 0.48 | 15.71 | 0 | 1030.26 | 93.06 | 473 | 14.59 | 4.01 |
2026-08-30 04:29:48 | 0 | NW | 0 | 15.74 | 0 | 1030.26 | 93.04 | 474 | 14.62 | 4.01 |
2026-08-30 04:28:49 | 0.18 | NW | 0.31 | 15.78 | 0 | 1030.32 | 93.09 | 473 | 14.66 | 4.01 |
2026-08-30 04:27:51 | 0.28 | NW | 0.4 | 15.83 | 0 | 1030.29 | 93.12 | 472 | 14.72 | 4.01 |
2026-08-30 04:26:52 | 0.52 | NW | 0.66 | 15.88 | 0 | 1030.3 | 93.28 | 468 | 14.8 | 4.01 |
2026-08-30 04:25:54 | 0.57 | NW | 0.62 | 15.91 | 0 | 1030.24 | 93.4 | 465 | 14.84 | 4.01 |
2026-08-30 04:24:55 | 0.56 | NW | 0.62 | 15.91 | 0 | 1030.34 | 93.51 | 462 | 14.86 | 4.01 |
2026-08-30 04:23:57 | 0.62 | NW | 0.7 | 15.91 | 0 | 1030.28 | 93.51 | 462 | 14.86 | 4.01 |
2026-08-30 04:22:58 | 0.57 | NW | 0.7 | 15.81 | 0 | 1030.32 | 93.54 | 461 | 14.77 | 4.01 |
2026-08-30 04:22:00 | 0.43 | NW | 0.48 | 15.71 | 0 | 1030.33 | 93.41 | 465 | 14.65 | 4.01 |
2026-08-30 04:21:02 | 0.48 | NW | 0.53 | 15.69 | 0 | 1030.28 | 93.37 | 466 | 14.62 | 4.01 |
2026-08-30 04:20:03 | 0.67 | NW | 0.75 | 15.64 | 0 | 1030.31 | 93.32 | 467 | 14.56 | 4.01 |
2026-08-30 04:19:05 | 0.69 | NNW | 0.75 | 15.61 | 0 | 1030.3 | 93.26 | 468 | 14.52 | 4.01 |
2026-08-30 04:18:06 | 0.63 | NNW | 0.7 | 15.59 | 0 | 1030.35 | 93.28 | 468 | 14.51 | 4.01 |
2026-08-30 04:17:08 | 0.5 | NNW | 0.62 | 15.56 | 0 | 1030.29 | 93.19 | 470 | 14.46 | 4.01 |
2026-08-30 04:16:09 | 0.51 | NNW | 0.57 | 15.51 | 0 | 1030.3 | 93.14 | 471 | 14.41 | 4.01 |
2026-08-30 04:15:11 | 0.56 | NNW | 0.62 | 15.47 | 0 | 1030.33 | 93.07 | 473 | 14.35 | 4.01 |
2026-08-30 04:14:12 | 0.4 | NNW | 0.44 | 15.43 | 0 | 1030.31 | 92.97 | 476 | 14.3 | 4.01 |
2026-08-30 04:13:14 | 0.43 | NNW | 0.48 | 15.39 | 0 | 1030.35 | 92.86 | 478 | 14.24 | 4.01 |
2026-08-30 04:12:16 | 0.66 | NNW | 0.7 | 15.38 | 0 | 1030.35 | 92.8 | 480 | 14.22 | 4.01 |
2026-08-30 04:11:17 | 0.76 | NNW | 0.84 | 15.31 | 0 | 1030.34 | 92.68 | 483 | 14.13 | 4.01 |
2026-08-30 04:10:19 | 0.68 | NNW | 0.79 | 15.29 | 0 | 1030.29 | 92.55 | 486 | 14.09 | 4.01 |
2026-08-30 04:09:20 | 0.34 | NNW | 0.7 | 15.31 | 0 | 1030.32 | 92.4 | 490 | 14.08 | 4.01 |
2026-08-30 04:08:22 | 0 | NNW | 0 | 15.35 | 0 | 1030.3 | 92.41 | 490 | 14.12 | 4.01 |
2026-08-30 04:07:24 | 0 | NNW | 0 | 15.33 | 0 | 1030.34 | 92.28 | 493 | 14.08 | 4.01 |
2026-08-30 04:06:25 | 0 | NNW | 0 | 15.32 | 0 | 1030.38 | 92.08 | 498 | 14.04 | 4.01 |
2026-08-30 04:04:28 | 0 | NNW | 0 | 15.29 | 0 | 1030.34 | 91.79 | 505 | 13.96 | 4.01 |
2026-08-30 04:03:30 | 0 | NNW | 0 | 15.32 | 0 | 1030.39 | 91.74 | 506 | 13.98 | 4.01 |
2026-08-30 04:02:31 | 0 | NNW | 0 | 15.38 | 0 | 1030.36 | 91.65 | 509 | 14.03 | 4.01 |
2026-08-30 04:01:33 | 0 | NNW | 0 | 15.39 | 0 | 1030.35 | 91.6 | 510 | 14.03 | 4.01 |
2026-08-30 04:00:34 | 0 | NNW | 0 | 15.43 | 0 | 1030.4 | 91.51 | 512 | 14.05 | 4.01 |
2026-08-30 03:59:36 | 0 | NNW | 0 | 15.45 | 0 | 1030.36 | 91.48 | 513 | 14.07 | 4.01 |
2026-08-30 03:58:37 | 0 | NNW | 0 | 15.45 | 0 | 1030.36 | 91.38 | 515 | 14.05 | 4.01 |
2026-08-30 03:57:39 | 0 | NNW | 0 | 15.53 | 0 | 1030.33 | 91.34 | 516 | 14.12 | 4.01 |
2026-08-30 03:56:40 | 0 | NNW | 0 | 15.56 | 0 | 1030.38 | 91.32 | 517 | 14.15 | 4.01 |
2026-08-30 03:55:42 | 0 | NNW | 0 | 15.6 | 0 | 1030.36 | 91.27 | 518 | 14.18 | 4.01 |
2026-08-30 03:54:44 | 0 | NNW | 0 | 15.63 | 0 | 1030.33 | 91.22 | 519 | 14.2 | 4.01 |
2026-08-30 03:53:45 | 0 | NNW | 0 | 15.63 | 0 | 1030.29 | 91.11 | 522 | 14.18 | 4.01 |
2026-08-30 03:52:47 | 0 | NNW | 0 | 15.67 | 0 | 1030.35 | 91.05 | 524 | 14.21 | 4.01 |
2026-08-30 03:51:48 | 0.16 | NNW | 0.31 | 15.74 | 0 | 1030.32 | 91.04 | 524 | 14.28 | 4.01 |
2026-08-30 03:50:50 | 0.47 | NNW | 0.53 | 15.77 | 0 | 1030.3 | 91.07 | 523 | 14.31 | 4.01 |
2026-08-30 03:49:51 | 0.48 | NNW | 0.57 | 15.8 | 0 | 1030.31 | 90.98 | 525 | 14.33 | 4.01 |
2026-08-30 03:48:53 | 0.32 | NNW | 0.35 | 15.83 | 0 | 1030.31 | 90.93 | 527 | 14.35 | 4.01 |
2026-08-30 03:47:55 | 0.39 | NNW | 0.48 | 15.88 | 0 | 1030.32 | 90.91 | 527 | 14.4 | 4.01 |
2026-08-30 03:46:56 | 0.48 | NNW | 0.53 | 15.91 | 0 | 1030.31 | 90.91 | 527 | 14.43 | 4.01 |
2026-08-30 03:45:58 | 0.6 | NNW | 0.66 | 15.93 | 0 | 1030.31 | 90.89 | 528 | 14.44 | 4.01 |
2026-08-30 03:44:59 | 0.52 | NNW | 0.7 | 16 | 0 | 1030.32 | 90.92 | 527 | 14.52 | 4.01 |
2026-08-30 03:44:01 | 0.61 | NNW | 0.7 | 16.04 | 0 | 1030.31 | 91.02 | 524 | 14.57 | 4.02 |
2026-08-30 03:43:02 | 0.77 | NNW | 0.92 | 16.04 | 0 | 1030.32 | 91.03 | 524 | 14.57 | 4.02 |
2026-08-30 03:42:04 | 0.85 | NNW | 0.88 | 16.05 | 0 | 1030.31 | 90.96 | 526 | 14.57 | 4.02 |
2026-08-30 03:41:06 | 0.83 | NNW | 0.92 | 16.07 | 0 | 1030.31 | 90.98 | 525 | 14.6 | 4.02 |
2026-08-30 03:40:07 | 0.79 | NNW | 0.84 | 16.08 | 0 | 1030.3 | 90.94 | 526 | 14.6 | 4.02 |
2026-08-30 03:39:09 | 0.74 | NNW | 0.79 | 16.09 | 0 | 1030.29 | 90.89 | 528 | 14.6 | 4.02 |
2026-08-30 03:38:09 | 0.86 | NNW | 0.88 | 16.09 | 0 | 1030.35 | 90.92 | 527 | 14.61 | 4.02 |
2026-08-30 03:37:11 | 0.91 | NNW | 1.01 | 16.09 | 0 | 1030.3 | 90.91 | 527 | 14.6 | 4.02 |
2026-08-30 03:36:12 | 1.04 | NNW | 1.1 | 16.11 | 0 | 1030.26 | 90.89 | 528 | 14.62 | 4.02 |
2026-08-30 03:35:14 | 0.99 | NNW | 1.06 | 16.12 | 0 | 1030.28 | 90.92 | 527 | 14.64 | 4.02 |
2026-08-30 03:34:15 | 0.99 | NNW | 1.01 | 16.12 | 0 | 1030.27 | 90.95 | 526 | 14.64 | 4.02 |
2026-08-30 03:33:16 | 1.12 | NNW | 1.32 | 16.15 | 0 | 1030.22 | 90.94 | 526 | 14.67 | 4.02 |
2026-08-30 03:32:18 | 0.87 | NW | 1.14 | 16.16 | 0 | 1030.22 | 91.05 | 524 | 14.7 | 4.02 |
2026-08-30 03:31:19 | 0.85 | NW | 0.92 | 16.16 | 0 | 1030.28 | 91.11 | 522 | 14.71 | 4.02 |
2026-08-30 03:30:21 | 0.79 | NW | 0.88 | 16.15 | 0 | 1030.26 | 91.15 | 521 | 14.7 | 4.02 |
2026-08-30 03:29:22 | 0.81 | NW | 0.92 | 16.12 | 0 | 1030.27 | 91.16 | 521 | 14.68 | 4.02 |
2026-08-30 03:28:24 | 0.75 | NW | 0.92 | 16.12 | 0 | 1030.27 | 91.19 | 520 | 14.68 | 4.02 |
2026-08-30 03:27:26 | 0.71 | NW | 0.84 | 16.11 | 0 | 1030.25 | 91.19 | 520 | 14.67 | 4.02 |
2026-08-30 03:26:27 | 0.8 | NW | 0.84 | 16.14 | 0 | 1030.26 | 91.22 | 519 | 14.71 | 4.02 |
2026-08-30 03:25:29 | 0.74 | NW | 0.92 | 16.12 | 0 | 1030.25 | 91.28 | 518 | 14.7 | 4.02 |
2026-08-30 03:24:30 | 0.73 | NW | 0.79 | 16.14 | 0 | 1030.25 | 91.32 | 517 | 14.72 | 4.02 |
2026-08-30 03:23:32 | 0.83 | NW | 0.92 | 16.09 | 0 | 1030.17 | 91.34 | 516 | 14.68 | 4.02 |
2026-08-30 03:22:33 | 0.86 | NW | 1.01 | 16.05 | 0 | 1030.16 | 91.33 | 517 | 14.64 | 4.02 |
2026-08-30 03:21:35 | 1.01 | NW | 1.1 | 16.01 | 0 | 1030.17 | 91.23 | 519 | 14.58 | 4.02 |
2026-08-30 03:20:36 | 1.07 | NW | 1.19 | 15.94 | 0 | 1030.14 | 91.14 | 521 | 14.49 | 4.02 |
2026-08-30 03:19:38 | 1.11 | NW | 1.19 | 15.93 | 0 | 1030.15 | 91 | 525 | 14.46 | 4.02 |
2026-08-30 03:18:40 | 1.06 | NW | 1.14 | 15.93 | 0 | 1030.14 | 90.86 | 528 | 14.44 | 4.02 |
2026-08-30 03:17:41 | 1.03 | NW | 1.19 | 15.9 | 0 | 1030.18 | 90.6 | 535 | 14.36 | 4.02 |
2026-08-30 03:16:43 | 1 | NW | 1.14 | 15.9 | 0 | 1030.17 | 90.29 | 543 | 14.31 | 4.02 |
2026-08-30 03:15:44 | 0.94 | NW | 1.23 | 15.9 | 0 | 1030.16 | 90.02 | 549 | 14.26 | 4.02 |
2026-08-30 03:14:46 | 0.85 | NW | 1.01 | 15.9 | 0 | 1030.17 | 89.55 | 561 | 14.18 | 4.02 |
2026-08-30 03:13:47 | 0.64 | NW | 0.79 | 15.95 | 0 | 1030.12 | 89.29 | 568 | 14.19 | 4.02 |
2026-08-30 03:12:49 | 0.61 | NW | 0.75 | 16 | 0 | 1030.13 | 89.02 | 574 | 14.19 | 4.02 |
2026-08-30 03:11:50 | 0.46 | NW | 0.66 | 16.05 | 0 | 1030.12 | 88.8 | 580 | 14.2 | 4.02 |
2026-08-30 03:10:52 | 0 | NW | 0 | 16.11 | 0 | 1030.13 | 88.63 | 584 | 14.23 | 4.02 |
2026-08-30 03:09:54 | 0 | NW | 0 | 16.16 | 0 | 1030.16 | 88.49 | 588 | 14.26 | 4.02 |
2026-08-30 03:08:55 | 0 | NW | 0 | 16.19 | 0 | 1030.09 | 88.24 | 594 | 14.24 | 4.02 |
2026-08-30 03:07:57 | 0 | NW | 0 | 16.23 | 0 | 1030.09 | 88.02 | 599 | 14.24 | 4.02 |
2026-08-30 03:06:58 | 0.08 | NW | 0.26 | 16.26 | 0 | 1030.1 | 87.66 | 608 | 14.21 | 4.02 |
2026-08-30 03:06:00 | 0.41 | NW | 0.57 | 16.36 | 0 | 1030.14 | 87.42 | 614 | 14.26 | 4.02 |
2026-08-30 03:05:01 | 0.51 | NW | 0.57 | 16.43 | 0 | 1030.1 | 87.06 | 623 | 14.27 | 4.02 |
2026-08-30 03:04:03 | 0.54 | NW | 0.7 | 16.5 | 0 | 1030.12 | 86.78 | 630 | 14.29 | 4.02 |
2026-08-30 03:03:04 | 0.45 | NW | 0.57 | 16.62 | 0 | 1030.15 | 86.39 | 640 | 14.34 | 4.02 |
2026-08-30 03:02:06 | 0.09 | NW | 0.4 | 16.67 | 0 | 1030.15 | 86.28 | 643 | 14.37 | 4.02 |
2026-08-30 03:01:07 | 0.23 | NW | 0.4 | 16.73 | 0 | 1030.14 | 86.14 | 646 | 14.4 | 4.02 |
2026-08-30 03:00:09 | 0.34 | NW | 0.57 | 16.78 | 0 | 1030.15 | 86.12 | 647 | 14.44 | 4.02 |
2026-08-30 02:59:11 | 0.2 | NW | 0.35 | 16.84 | 0 | 1030.12 | 85.99 | 650 | 14.48 | 4.02 |
2026-08-30 02:58:12 | 0.04 | NW | 0.26 | 16.92 | 0 | 1030.12 | 86.07 | 648 | 14.57 | 4.02 |
2026-08-30 02:57:14 | 0.08 | NW | 0.26 | 16.95 | 0 | 1030.12 | 86.01 | 650 | 14.59 | 4.02 |
2026-08-30 02:56:15 | 0.44 | NW | 0.79 | 17.01 | 0 | 1030.09 | 85.9 | 652 | 14.63 | 4.02 |
2026-08-30 02:55:17 | 0.14 | NW | 1.01 | 16.97 | 0 | 1030.09 | 85.43 | 664 | 14.51 | 4.02 |
2026-08-30 02:54:18 | 0 | NW | 0 | 16.98 | 0 | 1030.11 | 84.8 | 680 | 14.4 | 4.02 |
2026-08-30 02:53:20 | 0 | NW | 0 | 17.07 | 0 | 1030.1 | 84.55 | 686 | 14.44 | 4.02 |
2026-08-30 02:52:22 | 0.43 | NW | 0.48 | 17.15 | 0 | 1030.1 | 84.21 | 695 | 14.46 | 4.02 |
2026-08-30 02:51:23 | 0.5 | NW | 0.62 | 17.26 | 0 | 1030.08 | 83.87 | 703 | 14.51 | 4.02 |
2026-08-30 02:50:25 | 0.22 | NW | 0.31 | 17.43 | 0 | 1030.06 | 83.86 | 703 | 14.67 | 4.02 |
2026-08-30 02:49:26 | 0.4 | NW | 0.44 | 17.49 | 0 | 1030.03 | 84.2 | 695 | 14.79 | 4.02 |
2026-08-30 02:48:28 | 0.5 | NW | 0.62 | 17.48 | 0 | 1030.01 | 84.21 | 695 | 14.78 | 4.02 |
2026-08-30 02:47:29 | 0.39 | NW | 0.48 | 17.48 | 0 | 1030.01 | 84.18 | 695 | 14.78 | 4.02 |
2026-08-30 02:46:31 | 0.48 | NW | 0.53 | 17.48 | 0 | 1029.98 | 84.1 | 697 | 14.76 | 4.02 |
2026-08-30 02:45:32 | 0.42 | NW | 0.48 | 17.49 | 0 | 1030.01 | 83.96 | 701 | 14.75 | 4.02 |
2026-08-30 02:44:34 | 0.34 | NW | 0.4 | 17.48 | 0 | 1030.02 | 83.83 | 704 | 14.71 | 4.02 |
2026-08-30 02:43:35 | 0.37 | NW | 0.57 | 17.53 | 0 | 1030.03 | 83.71 | 707 | 14.74 | 4.02 |
2026-08-30 02:42:37 | 0.17 | NW | 0.48 | 17.57 | 0 | 1030.06 | 83.61 | 710 | 14.76 | 4.02 |
2026-08-30 02:41:38 | 0.4 | NW | 0.66 | 17.6 | 0 | 1030.07 | 83.58 | 710 | 14.78 | 4.02 |
2026-08-30 02:40:40 | 0.65 | NW | 0.75 | 17.6 | 0 | 1030.06 | 83.66 | 708 | 14.8 | 4.02 |
2026-08-30 02:39:42 | 0.78 | NW | 0.84 | 17.65 | 0 | 1030.12 | 83.72 | 707 | 14.86 | 4.02 |
2026-08-30 02:38:43 | 0.99 | NW | 1.19 | 17.6 | 0 | 1030.08 | 83.89 | 703 | 14.84 | 4.02 |
2026-08-30 02:37:45 | 1.13 | NW | 1.19 | 17.59 | 0 | 1030.07 | 84.15 | 696 | 14.88 | 4.02 |
2026-08-30 02:36:46 | 1.18 | NW | 1.23 | 17.49 | 0 | 1030.12 | 84.43 | 689 | 14.83 | 4.02 |
2026-08-30 02:35:48 | 1.13 | NW | 1.23 | 17.42 | 0 | 1030.12 | 84.7 | 682 | 14.81 | 4.02 |
2026-08-30 02:34:49 | 1.12 | NW | 1.19 | 17.35 | 0 | 1030.09 | 84.9 | 677 | 14.78 | 4.02 |
2026-08-30 02:33:50 | 0.91 | NW | 1.06 | 17.28 | 0 | 1030.12 | 84.89 | 678 | 14.71 | 4.02 |
2026-08-30 02:32:52 | 0.81 | NW | 0.88 | 17.26 | 0 | 1030.13 | 84.96 | 676 | 14.71 | 4.02 |
2026-08-30 02:31:54 | 0.74 | NW | 0.79 | 17.23 | 0 | 1030.17 | 85.08 | 673 | 14.7 | 4.02 |
2026-08-30 02:30:55 | 0.92 | NW | 1.1 | 17.22 | 0 | 1030.14 | 85.22 | 669 | 14.71 | 4.02 |
2026-08-30 02:29:56 | 0.98 | NW | 1.28 | 17.18 | 0 | 1030.15 | 85.23 | 669 | 14.68 | 4.02 |
2026-08-30 02:28:58 | 1.11 | NW | 1.23 | 17.21 | 0 | 1030.12 | 85.08 | 673 | 14.68 | 4.02 |
2026-08-30 02:27:59 | 1.17 | NW | 1.32 | 17.29 | 0 | 1030.15 | 84.78 | 680 | 14.7 | 4.02 |
2026-08-30 02:27:01 | 1.04 | NW | 1.14 | 17.38 | 0 | 1030.11 | 84.38 | 690 | 14.72 | 4.02 |
2026-08-30 02:25:03 | 1.04 | NNW | 1.19 | 17.53 | 0 | 1030.15 | 83.72 | 707 | 14.74 | 4.02 |
2026-08-30 02:24:05 | 0.8 | NNW | 0.88 | 17.54 | 0 | 1030.13 | 83.53 | 712 | 14.72 | 4.02 |
2026-08-30 02:23:06 | 0.64 | NNW | 0.97 | 17.53 | 0 | 1030.13 | 83.69 | 708 | 14.74 | 4.02 |
2026-08-30 02:22:08 | 0 | NNW | 0 | 17.49 | 0 | 1030.12 | 84 | 700 | 14.75 | 4.02 |
2026-08-30 02:21:09 | 0 | NNW | 0 | 17.42 | 0 | 1030.13 | 84.38 | 690 | 14.76 | 4.02 |
2026-08-30 02:20:11 | 0 | NNW | 0 | 17.35 | 0 | 1030.14 | 84.62 | 684 | 14.73 | 4.02 |
2026-08-30 02:19:12 | 0 | NNW | 0 | 17.31 | 0 | 1030.19 | 84.84 | 679 | 14.73 | 4.02 |
2026-08-30 02:18:14 | 0 | NNW | 0 | 17.23 | 0 | 1030.13 | 85.05 | 674 | 14.69 | 4.02 |
2026-08-30 02:17:15 | 0 | NNW | 0 | 17.18 | 0 | 1030.16 | 85.29 | 668 | 14.69 | 4.02 |
2026-08-30 02:16:16 | 0 | NNW | 0 | 17.11 | 0 | 1030.13 | 85.35 | 666 | 14.63 | 4.02 |
2026-08-30 02:15:17 | 0 | NNW | 0 | 17.05 | 0 | 1030.17 | 85.28 | 668 | 14.56 | 4.02 |
2026-08-30 02:14:19 | 0 | NNW | 0 | 17.01 | 0 | 1030.15 | 85.14 | 671 | 14.49 | 4.02 |
2026-08-30 02:13:20 | 0 | NNW | 0 | 17.03 | 0 | 1030.17 | 85.06 | 673 | 14.5 | 4.02 |
2026-08-30 02:12:22 | 0 | NNW | 0 | 17.04 | 0 | 1030.15 | 85.12 | 672 | 14.52 | 4.02 |
2026-08-30 02:11:23 | 0 | NNW | 0 | 17.08 | 0 | 1030.2 | 85.21 | 670 | 14.57 | 4.02 |
2026-08-30 02:10:25 | 0 | NNW | 0 | 17.11 | 0 | 1030.24 | 85.28 | 668 | 14.62 | 4.02 |
2026-08-30 02:09:26 | 0 | NNW | 0 | 17.14 | 0 | 1030.23 | 85.35 | 666 | 14.66 | 4.02 |
2026-08-30 02:08:28 | 0.02 | NNW | 0.22 | 17.12 | 0 | 1030.22 | 85.38 | 665 | 14.64 | 4.02 |
2026-08-30 02:07:30 | 0 | NNW | 0 | 17.12 | 0 | 1030.25 | 85.46 | 663 | 14.66 | 4.02 |
2026-08-30 02:06:31 | 0.17 | NNW | 0.35 | 17.12 | 0 | 1030.21 | 85.54 | 661 | 14.67 | 4.02 |
2026-08-30 02:05:33 | 0.71 | NNW | 0.97 | 17.12 | 0 | 1030.22 | 85.52 | 662 | 14.67 | 4.02 |
2026-08-30 02:04:34 | 0.8 | NNW | 0.92 | 17.1 | 0 | 1030.2 | 85.48 | 663 | 14.64 | 4.02 |
2026-08-30 02:03:35 | 0.67 | NNW | 0.75 | 17.08 | 0 | 1030.21 | 85.49 | 663 | 14.63 | 4.02 |
2026-08-30 02:02:37 | 0.66 | NNW | 0.75 | 17.07 | 0 | 1030.19 | 85.37 | 666 | 14.59 | 4.02 |
2026-08-30 02:01:39 | 0.61 | NNW | 0.66 | 17.08 | 0 | 1030.18 | 85.24 | 669 | 14.58 | 4.02 |
2026-08-30 02:00:40 | 0.58 | NNW | 0.66 | 17.1 | 0 | 1030.17 | 84.98 | 675 | 14.55 | 4.02 |
2026-08-30 01:59:42 | 0.55 | NNW | 0.66 | 17.17 | 0 | 1030.2 | 84.72 | 682 | 14.57 | 4.02 |
2026-08-30 01:58:43 | 0.44 | NNW | 0.48 | 17.21 | 0 | 1030.18 | 84.39 | 690 | 14.55 | 4.02 |
2026-08-30 01:57:45 | 0.35 | NNW | 0.48 | 17.25 | 0 | 1030.16 | 84.22 | 694 | 14.56 | 4.02 |
2026-08-30 01:56:46 | 0.25 | NNW | 0.35 | 17.28 | 0 | 1030.2 | 84.21 | 695 | 14.59 | 4.02 |
2026-08-30 01:55:48 | 0.27 | NNW | 0.31 | 17.32 | 0 | 1030.14 | 84.22 | 694 | 14.63 | 4.02 |
2026-08-30 01:54:49 | 0.15 | NNW | 0.31 | 17.33 | 0 | 1030.11 | 84.2 | 695 | 14.63 | 4.02 |
2026-08-30 01:53:51 | 0.33 | NNW | 0.4 | 17.4 | 0 | 1030.16 | 84.27 | 693 | 14.72 | 4.02 |
2026-08-30 01:52:51 | 0.55 | NNW | 0.62 | 17.39 | 0 | 1030.11 | 84.42 | 689 | 14.73 | 4.02 |
2026-08-30 01:51:53 | 0.67 | NNW | 0.79 | 17.38 | 0 | 1030.08 | 84.71 | 682 | 14.78 | 4.02 |
2026-08-30 01:50:55 | 0.14 | NNW | 0.4 | 17.33 | 0 | 1030.1 | 84.98 | 675 | 14.78 | 4.02 |
2026-08-30 01:49:56 | 0 | NNW | 0 | 17.31 | 0 | 1030.1 | 85.09 | 673 | 14.78 | 4.02 |
2026-08-30 01:48:58 | 0.27 | NNW | 0.4 | 17.29 | 0 | 1030.09 | 85.18 | 670 | 14.78 | 4.02 |
2026-08-30 01:47:59 | 0.47 | NNW | 0.48 | 17.23 | 0 | 1030.09 | 85.34 | 666 | 14.75 | 4.02 |
2026-08-30 01:47:01 | 0.8 | NNW | 1.1 | 17.22 | 0 | 1030.1 | 85.51 | 662 | 14.77 | 4.02 |
2026-08-30 01:46:03 | 1 | NNW | 1.23 | 17.22 | 0 | 1030.17 | 85.69 | 658 | 14.8 | 4.02 |
2026-08-30 01:45:04 | 0.12 | N | 0.7 | 17.19 | 0 | 1030.15 | 86.15 | 646 | 14.85 | 4.02 |
2026-08-30 01:44:06 | 0.1 | NNE | 0.26 | 17.14 | 0 | 1030.13 | 86.71 | 632 | 14.9 | 4.02 |
2026-08-30 01:43:07 | 0.2 | NNE | 0.26 | 17.05 | 0 | 1030.16 | 87.04 | 624 | 14.88 | 4.02 |
2026-08-30 01:42:08 | 0.27 | NNE | 0.48 | 16.98 | 0 | 1030.2 | 87.33 | 617 | 14.86 | 4.02 |
2026-08-30 01:41:10 | 0 | NNE | 0 | 16.97 | 0 | 1030.19 | 87.94 | 601 | 14.96 | 4.02 |
2026-08-30 01:40:12 | 0 | NNE | 0 | 16.97 | 0 | 1030.17 | 88.46 | 588 | 15.05 | 4.02 |
2026-08-30 01:39:13 | 0 | NNE | 0 | 17 | 0 | 1030.16 | 88.86 | 578 | 15.15 | 4.02 |
2026-08-30 01:38:15 | 0.07 | NNE | 0.26 | 16.97 | 0 | 1030.22 | 89.16 | 571 | 15.17 | 4.02 |
2026-08-30 01:37:16 | 0.13 | NNE | 0.31 | 16.88 | 0 | 1030.18 | 89.34 | 566 | 15.11 | 4.02 |
2026-08-30 01:36:18 | 0.4 | NNE | 0.53 | 16.78 | 0 | 1030.2 | 89.52 | 562 | 15.05 | 4.02 |
2026-08-30 01:35:19 | 0.11 | NNE | 0.48 | 16.7 | 0 | 1030.2 | 89.69 | 558 | 15 | 4.02 |
2026-08-30 01:34:20 | 0 | NNE | 0 | 16.67 | 0 | 1030.21 | 89.88 | 553 | 15 | 4.02 |
2026-08-30 01:33:21 | 0.06 | NNE | 0.26 | 16.6 | 0 | 1030.18 | 89.89 | 553 | 14.93 | 4.02 |
2026-08-30 01:32:23 | 0.06 | NNE | 0.31 | 16.5 | 0 | 1030.15 | 89.81 | 555 | 14.82 | 4.02 |
2026-08-30 01:31:24 | 0 | NNE | 0 | 16.48 | 0 | 1030.16 | 89.74 | 556 | 14.79 | 4.02 |
2026-08-30 01:30:26 | 0 | NNE | 0 | 16.46 | 0 | 1030.16 | 89.78 | 555 | 14.78 | 4.02 |
2026-08-30 01:29:27 | 0.19 | NNE | 0.44 | 16.48 | 0 | 1030.19 | 89.78 | 555 | 14.79 | 4.02 |
2026-08-30 01:28:29 | 0.14 | NNE | 0.35 | 16.48 | 0 | 1030.19 | 89.86 | 553 | 14.81 | 4.02 |
2026-08-30 01:27:30 | 0.09 | NNE | 0.31 | 16.46 | 0 | 1030.19 | 89.93 | 552 | 14.8 | 4.02 |
2026-08-30 01:26:32 | 0.21 | NNE | 0.4 | 16.48 | 0 | 1030.19 | 89.91 | 552 | 14.82 | 4.02 |
2026-08-30 01:25:33 | 0.09 | NNE | 0.4 | 16.49 | 0 | 1030.2 | 89.92 | 552 | 14.83 | 4.02 |
2026-08-30 01:24:34 | 0 | NNE | 0 | 16.48 | 0 | 1030.21 | 89.96 | 551 | 14.83 | 4.02 |
2026-08-30 01:23:35 | 0.07 | NNE | 0.22 | 16.45 | 0 | 1030.19 | 89.98 | 550 | 14.8 | 4.02 |
2026-08-30 01:22:37 | 0.37 | NNE | 0.62 | 16.45 | 0 | 1030.21 | 89.96 | 551 | 14.8 | 4.02 |
2026-08-30 01:21:39 | 0.07 | NNE | 0.31 | 16.46 | 0 | 1030.22 | 89.93 | 552 | 14.8 | 4.02 |
2026-08-30 01:20:40 | 0.32 | NNE | 0.53 | 16.46 | 0 | 1030.17 | 89.99 | 550 | 14.81 | 4.02 |
2026-08-30 01:19:42 | 0.37 | NE | 0.53 | 16.46 | 0 | 1030.16 | 90.01 | 550 | 14.81 | 4.02 |
2026-08-30 01:18:43 | 0.55 | NE | 0.7 | 16.5 | 0 | 1030.15 | 90.06 | 548 | 14.86 | 4.02 |
2026-08-30 01:17:45 | 1.01 | NE | 1.32 | 16.48 | 0 | 1030.11 | 90.14 | 546 | 14.86 | 4.02 |
2026-08-30 01:16:46 | 1.56 | NE | 1.72 | 16.49 | 0 | 1030.12 | 90.24 | 544 | 14.88 | 4.02 |
2026-08-30 01:15:48 | 1.5 | NE | 1.67 | 16.45 | 0 | 1030.11 | 90.36 | 541 | 14.87 | 4.02 |
2026-08-30 01:14:49 | 1.33 | NE | 1.58 | 16.45 | 0 | 1030.09 | 90.32 | 542 | 14.86 | 4.02 |
2026-08-30 01:13:51 | 1.06 | NNE | 1.32 | 16.43 | 0 | 1030.09 | 90.2 | 545 | 14.82 | 4.02 |
2026-08-30 01:12:52 | 0.98 | NNE | 1.1 | 16.48 | 0 | 1030.08 | 90.08 | 548 | 14.85 | 4.02 |
2026-08-30 01:11:54 | 1.02 | NNE | 1.32 | 16.49 | 0 | 1030.13 | 89.88 | 553 | 14.82 | 4.02 |
2026-08-30 01:10:56 | 0.83 | NE | 0.97 | 16.5 | 0 | 1030.13 | 89.81 | 555 | 14.82 | 4.02 |
2026-08-30 01:09:57 | 0.62 | NE | 0.92 | 16.52 | 0 | 1030.13 | 89.59 | 560 | 14.8 | 4.02 |
2026-08-30 01:08:59 | 0.46 | NE | 0.57 | 16.59 | 0 | 1030.11 | 89.54 | 561 | 14.86 | 4.02 |
2026-08-30 01:08:00 | 0.76 | NE | 1.01 | 16.62 | 0 | 1030.09 | 89.48 | 563 | 14.88 | 4.02 |
2026-08-30 01:07:02 | 0.94 | NE | 1.06 | 16.63 | 0 | 1030.11 | 89.4 | 565 | 14.88 | 4.02 |
2026-08-30 01:06:03 | 0.88 | NE | 1.19 | 16.7 | 0 | 1030.08 | 89.33 | 567 | 14.93 | 4.02 |
2026-08-30 01:05:05 | 1.14 | ENE | 1.54 | 16.73 | 0 | 1030.07 | 89.27 | 568 | 14.95 | 4.02 |
2026-08-30 01:04:06 | 1.1 | ENE | 1.28 | 16.73 | 0 | 1030.05 | 89.16 | 571 | 14.93 | 4.02 |
2026-08-30 01:03:08 | 1.27 | ENE | 1.32 | 16.77 | 0 | 1030.07 | 89.22 | 569 | 14.98 | 4.02 |
2026-08-30 01:02:10 | 1.46 | ENE | 1.58 | 16.78 | 0 | 1030.05 | 89.33 | 567 | 15.01 | 4.02 |
2026-08-30 01:01:11 | 1.61 | ENE | 1.67 | 16.81 | 0 | 1030.04 | 89.49 | 563 | 15.07 | 4.02 |
2026-08-30 01:00:13 | 1.65 | ENE | 1.76 | 16.76 | 0 | 1030.04 | 89.47 | 563 | 15.02 | 4.02 |
2026-08-30 00:59:14 | 1.48 | ENE | 1.67 | 16.69 | 0 | 1030.05 | 89.3 | 567 | 14.92 | 4.02 |
2026-08-30 00:58:16 | 1.14 | NE | 1.41 | 16.6 | 0 | 1030.09 | 89.1 | 572 | 14.8 | 4.02 |
2026-08-30 00:57:17 | 0.77 | NE | 0.84 | 16.6 | 0 | 1030.07 | 89 | 575 | 14.78 | 4.02 |
2026-08-30 00:56:19 | 0.79 | NE | 0.97 | 16.6 | 0 | 1030.1 | 89.11 | 572 | 14.8 | 4.02 |
2026-08-30 00:55:19 | 0.75 | NE | 0.79 | 16.58 | 0 | 1030.1 | 89.24 | 569 | 14.8 | 4.02 |
2026-08-30 00:54:21 | 0.76 | NE | 0.84 | 16.59 | 0 | 1030.12 | 89.45 | 564 | 14.85 | 4.02 |
2026-08-30 00:53:22 | 0.78 | NE | 0.84 | 16.53 | 0 | 1030.09 | 89.56 | 561 | 14.81 | 4.02 |
2026-08-30 00:52:24 | 0.63 | NE | 0.84 | 16.48 | 0 | 1030.06 | 89.54 | 561 | 14.75 | 4.02 |
2026-08-30 00:51:26 | 0.26 | NE | 0.53 | 16.43 | 0 | 1030.11 | 89.4 | 565 | 14.68 | 4.02 |
2026-08-30 00:50:27 | 0.15 | NE | 0.57 | 16.42 | 0 | 1030.02 | 89.25 | 569 | 14.64 | 4.02 |
2026-08-30 00:49:29 | 0 | NE | 0 | 16.42 | 0 | 1030.06 | 89.14 | 571 | 14.62 | 4.02 |
2026-08-30 00:48:30 | 0 | NE | 0 | 16.39 | 0 | 1030.05 | 89.06 | 573 | 14.58 | 4.02 |
2026-08-30 00:47:32 | 0.47 | NE | 0.62 | 16.43 | 0 | 1030 | 88.93 | 577 | 14.6 | 4.02 |
2026-08-30 00:46:33 | 0.13 | NE | 0.4 | 16.42 | 0 | 1030.1 | 88.73 | 582 | 14.55 | 4.02 |
2026-08-30 00:45:35 | 0.46 | NE | 0.57 | 16.49 | 0 | 1030.05 | 88.64 | 584 | 14.61 | 4.02 |
2026-08-30 00:44:36 | 0.5 | NE | 0.57 | 16.49 | 0 | 1030.04 | 88.35 | 591 | 14.56 | 4.02 |
2026-08-30 00:43:38 | 0.69 | NE | 0.79 | 16.55 | 0 | 1030.01 | 88.18 | 595 | 14.58 | 4.02 |
2026-08-30 00:42:39 | 1.04 | NE | 1.19 | 16.58 | 0 | 1030.01 | 87.89 | 603 | 14.56 | 4.02 |
2026-08-30 00:41:41 | 1.12 | NE | 1.23 | 16.67 | 0 | 1030 | 87.68 | 608 | 14.61 | 4.02 |
2026-08-30 00:40:42 | 1.43 | NE | 1.63 | 16.74 | 0 | 1030 | 87.45 | 614 | 14.64 | 4.02 |
2026-08-30 00:39:44 | 1.41 | NNE | 1.8 | 16.78 | 0 | 1029.97 | 87.12 | 622 | 14.62 | 4.02 |
2026-08-30 00:38:45 | 1.18 | NNE | 1.36 | 16.87 | 0 | 1029.96 | 86.87 | 628 | 14.67 | 4.02 |
2026-08-30 00:37:47 | 1.08 | N | 1.36 | 16.91 | 0 | 1030.01 | 86.51 | 637 | 14.64 | 4.02 |
2026-08-30 00:36:48 | 0.82 | NNW | 1.01 | 16.94 | 0 | 1029.99 | 86.17 | 646 | 14.61 | 4.02 |
2026-08-30 00:35:50 | 0.66 | NNW | 0.79 | 17 | 0 | 1029.99 | 85.87 | 653 | 14.62 | 4.02 |
2026-08-30 00:34:51 | 0.75 | NNW | 0.97 | 17.04 | 0 | 1030.01 | 85.66 | 658 | 14.62 | 4.02 |
2026-08-30 00:33:53 | 0.85 | NNW | 0.97 | 17.08 | 0 | 1030 | 85.12 | 672 | 14.56 | 4.02 |
2026-08-30 00:32:54 | 0.82 | NNW | 0.88 | 17.21 | 0 | 1029.97 | 84.59 | 685 | 14.59 | 4.02 |
2026-08-30 00:31:56 | 1.03 | NNW | 1.14 | 17.29 | 0 | 1029.95 | 84.06 | 698 | 14.57 | 4.02 |
2026-08-30 00:30:57 | 1.2 | NNW | 1.28 | 17.43 | 0 | 1029.97 | 83.48 | 713 | 14.6 | 4.02 |
2026-08-30 00:29:59 | 1.15 | NNW | 1.28 | 17.6 | 0 | 1029.93 | 82.7 | 732 | 14.62 | 4.02 |
2026-08-30 00:29:00 | 1.06 | NNW | 1.14 | 17.78 | 0 | 1029.94 | 81.82 | 754 | 14.63 | 4.02 |
2026-08-30 00:28:02 | 1.07 | NW | 1.19 | 17.9 | 0 | 1029.92 | 81.18 | 770 | 14.63 | 4.02 |
2026-08-30 00:27:03 | 0.91 | NW | 1.01 | 17.98 | 0 | 1029.92 | 80.69 | 783 | 14.61 | 4.02 |
2026-08-30 00:26:05 | 0.89 | NW | 1.01 | 18.09 | 0 | 1029.92 | 80.18 | 795 | 14.62 | 4.02 |
2026-08-30 00:25:06 | 0.91 | NW | 0.97 | 18.18 | 0 | 1029.91 | 79.38 | 815 | 14.55 | 4.02 |
2026-08-30 00:24:08 | 1.03 | NW | 1.14 | 18.29 | 0 | 1029.91 | 78.56 | 836 | 14.5 | 4.02 |
2026-08-30 00:23:09 | 0.92 | NW | 1.01 | 18.36 | 0 | 1029.92 | 77.83 | 854 | 14.42 | 4.02 |
2026-08-30 00:22:11 | 0.84 | NW | 1.01 | 18.48 | 0 | 1029.93 | 77.52 | 862 | 14.47 | 4.02 |
2026-08-30 00:21:12 | 0.6 | W | 0.75 | 18.52 | 0 | 1029.94 | 77.09 | 873 | 14.43 | 4.02 |
2026-08-30 00:20:14 | 0.32 | W | 0.53 | 18.58 | 0 | 1029.92 | 76.97 | 876 | 14.46 | 4.02 |
2026-08-30 00:19:15 | 0.47 | W | 0.66 | 18.6 | 0 | 1029.92 | 77.02 | 874 | 14.49 | 4.02 |
2026-08-30 00:18:17 | 0.86 | W | 1.1 | 18.63 | 0 | 1029.92 | 77.07 | 873 | 14.53 | 4.02 |
2026-08-30 00:17:18 | 0.67 | W | 0.75 | 18.63 | 0 | 1029.9 | 76.97 | 876 | 14.51 | 4.02 |
2026-08-30 00:16:20 | 0.84 | W | 1.23 | 18.64 | 0 | 1029.93 | 76.94 | 876 | 14.51 | 4.02 |
2026-08-30 00:15:21 | 0.94 | W | 1.23 | 18.63 | 0 | 1029.89 | 76.69 | 883 | 14.45 | 4.02 |
2026-08-30 00:14:23 | 1.06 | W | 1.67 | 18.66 | 0 | 1029.93 | 76.54 | 886 | 14.45 | 4.02 |
2026-08-30 00:13:24 | 0.95 | NW | 1.28 | 18.66 | 0 | 1029.92 | 76.4 | 890 | 14.42 | 4.02 |
2026-08-30 00:12:26 | 1 | NW | 1.45 | 18.64 | 0 | 1029.92 | 76.23 | 894 | 14.37 | 4.02 |
2026-08-30 00:11:27 | 0.66 | NW | 1.32 | 18.66 | 0 | 1029.93 | 76.06 | 898 | 14.35 | 4.02 |
2026-08-30 00:10:29 | 0.58 | NW | 1.1 | 18.63 | 0 | 1029.91 | 76.03 | 899 | 14.32 | 4.02 |
2026-08-30 00:09:30 | 0.37 | NNW | 0.53 | 18.63 | 0 | 1029.9 | 75.54 | 911 | 14.22 | 4.02 |
2026-08-30 00:08:32 | 0.25 | NNW | 0.48 | 18.66 | 0 | 1029.89 | 75.41 | 915 | 14.22 | 4.02 |
2026-08-30 00:07:33 | 0 | NNW | 0 | 18.71 | 0 | 1029.91 | 75.5 | 912 | 14.29 | 4.02 |
2026-08-30 00:06:35 | 0 | NNW | 0 | 18.67 | 0 | 1029.88 | 75.66 | 908 | 14.28 | 4.02 |
2026-08-30 00:05:36 | 0.1 | NNW | 0.26 | 18.67 | 0 | 1029.89 | 75.83 | 904 | 14.32 | 4.02 |
2026-08-30 00:04:38 | 0.37 | NNW | 0.44 | 18.6 | 0 | 1029.89 | 76.12 | 897 | 14.31 | 4.02 |
2026-08-30 00:03:38 | 0.66 | NNW | 0.75 | 18.56 | 0 | 1029.91 | 76.46 | 888 | 14.34 | 4.02 |
2026-08-30 00:02:40 | 1.01 | NNW | 1.14 | 18.5 | 0 | 1029.85 | 76.76 | 881 | 14.34 | 4.02 |
2026-08-30 00:01:41 | 1.17 | NNW | 1.41 | 18.49 | 0 | 1029.86 | 77 | 875 | 14.38 | 4.02 |
2026-08-30 00:00:43 | 0.78 | NNE | 0.84 | 18.55 | 0 | 1029.8 | 77.27 | 868 | 14.49 | 4.03 |
2026-08-29 23:59:44 | 1.06 | NNE | 1.28 | 18.6 | 0 | 1029.77 | 77.15 | 871 | 14.52 | 4.02 |
2026-08-29 23:58:46 | 1.01 | NNE | 1.06 | 18.6 | 0 | 1029.79 | 76.83 | 879 | 14.45 | 4.03 |
2026-08-29 23:57:47 | 0.94 | ENE | 1.06 | 18.58 | 0 | 1029.76 | 76.94 | 876 | 14.46 | 4.02 |
2026-08-29 23:56:49 | 0.86 | ENE | 1.01 | 18.53 | 0 | 1029.78 | 76.64 | 884 | 14.35 | 4.03 |
2026-08-29 23:55:50 | 0.58 | ENE | 0.7 | 18.55 | 0 | 1029.8 | 76.64 | 884 | 14.37 | 4.03 |
2026-08-29 23:54:52 | 0.57 | ENE | 0.7 | 18.59 | 0 | 1029.77 | 76.79 | 880 | 14.43 | 4.03 |
2026-08-29 23:53:53 | 0.39 | ENE | 0.48 | 18.59 | 0 | 1029.82 | 76.23 | 894 | 14.32 | 4.03 |
2026-08-29 23:52:55 | 0.26 | ENE | 0.35 | 18.63 | 0 | 1029.78 | 75.4 | 915 | 14.19 | 4.03 |
2026-08-29 23:51:56 | 0.39 | ENE | 0.48 | 18.71 | 0 | 1029.82 | 75.02 | 924 | 14.19 | 4.03 |
2026-08-29 23:50:58 | 0.43 | ENE | 0.62 | 18.77 | 0 | 1029.79 | 74.85 | 929 | 14.21 | 4.03 |
2026-08-29 23:49:59 | 0.35 | ENE | 0.7 | 18.86 | 0 | 1029.81 | 74.91 | 927 | 14.31 | 4.03 |
2026-08-29 23:49:01 | 0.19 | ESE | 0.35 | 18.84 | 0 | 1029.8 | 74.79 | 930 | 14.27 | 4.03 |
2026-08-29 23:48:02 | 0.34 | ESE | 0.35 | 18.91 | 0 | 1029.79 | 74.78 | 930 | 14.33 | 4.03 |
2026-08-29 23:47:04 | 0.59 | ESE | 0.66 | 18.94 | 0 | 1029.78 | 74.63 | 934 | 14.33 | 4.03 |
2026-08-29 23:46:05 | 0.67 | ESE | 0.75 | 19 | 0 | 1029.75 | 74.45 | 939 | 14.35 | 4.03 |
2026-08-29 23:45:06 | 0.78 | E | 0.88 | 19.1 | 0 | 1029.77 | 74 | 950 | 14.35 | 4.03 |
2026-08-29 23:44:08 | 0.61 | E | 0.7 | 19.18 | 0 | 1029.74 | 74.18 | 945 | 14.47 | 4.03 |
2026-08-29 23:43:09 | 0.39 | E | 0.57 | 19.32 | 0 | 1029.72 | 74.25 | 944 | 14.62 | 4.03 |
2026-08-29 23:42:11 | 0 | E | 0 | 19.39 | 0 | 1029.7 | 73.71 | 957 | 14.57 | 4.03 |
2026-08-29 23:41:12 | 0 | E | 0 | 19.39 | 0 | 1029.73 | 73.28 | 968 | 14.48 | 4.03 |
2026-08-29 23:40:14 | 0 | E | 0 | 19.39 | 0 | 1029.73 | 73.01 | 975 | 14.43 | 4.03 |
2026-08-29 23:39:15 | 0 | E | 0 | 19.38 | 0 | 1029.67 | 72.63 | 984 | 14.33 | 4.03 |
2026-08-29 23:38:17 | 0.2 | E | 0.35 | 19.32 | 0 | 1029.67 | 72.73 | 982 | 14.3 | 4.03 |
2026-08-29 23:37:18 | 0.37 | E | 0.53 | 19.26 | 0 | 1029.69 | 73.21 | 970 | 14.34 | 4.03 |
2026-08-29 23:36:20 | 0.43 | E | 0.57 | 19.17 | 0 | 1029.7 | 73.8 | 955 | 14.38 | 4.03 |
2026-08-29 23:35:21 | 0.51 | E | 0.62 | 19.07 | 0 | 1029.66 | 74.39 | 940 | 14.41 | 4.03 |
2026-08-29 23:34:23 | 0.59 | E | 0.62 | 19 | 0 | 1029.7 | 75.78 | 905 | 14.63 | 4.03 |
2026-08-29 23:33:24 | 0.61 | E | 0.66 | 18.9 | 0 | 1029.7 | 76.35 | 891 | 14.65 | 4.03 |
2026-08-29 23:32:25 | 0.66 | E | 0.7 | 18.83 | 0 | 1029.71 | 76.57 | 886 | 14.62 | 4.03 |
2026-08-29 23:31:27 | 0.77 | E | 0.84 | 18.78 | 0 | 1029.68 | 76.86 | 878 | 14.63 | 4.03 |
2026-08-29 23:30:28 | 0.83 | E | 0.88 | 18.78 | 0 | 1029.74 | 76.85 | 879 | 14.63 | 4.03 |
2026-08-29 23:29:30 | 0.73 | E | 0.79 | 18.8 | 0 | 1029.74 | 76.73 | 882 | 14.63 | 4.03 |
2026-08-29 23:28:31 | 0.65 | E | 0.84 | 18.87 | 0 | 1029.72 | 77.02 | 874 | 14.75 | 4.03 |
2026-08-29 23:27:33 | 0 | E | 0 | 18.87 | 0 | 1029.74 | 77.04 | 874 | 14.76 | 4.03 |
2026-08-29 23:26:35 | 0 | E | 0 | 18.98 | 0 | 1029.75 | 76.87 | 878 | 14.83 | 4.03 |
2026-08-29 23:25:36 | 0 | E | 0 | 19 | 0 | 1029.68 | 76.71 | 882 | 14.82 | 4.03 |
2026-08-29 23:24:38 | 0.12 | E | 0.35 | 19.03 | 0 | 1029.76 | 76.74 | 881 | 14.85 | 4.03 |
2026-08-29 23:23:39 | 0 | E | 0 | 19.07 | 0 | 1029.75 | 76.73 | 882 | 14.89 | 4.03 |
2026-08-29 23:22:41 | 0 | E | 0 | 19.03 | 0 | 1029.73 | 76.74 | 881 | 14.85 | 4.03 |
2026-08-29 23:21:42 | 0 | E | 0 | 19.03 | 0 | 1029.69 | 76.71 | 882 | 14.84 | 4.03 |
2026-08-29 23:20:44 | 0 | E | 0 | 19.01 | 0 | 1029.74 | 76.53 | 887 | 14.79 | 4.03 |
2026-08-29 23:19:45 | 0 | E | 0 | 18.97 | 0 | 1029.72 | 76.08 | 898 | 14.66 | 4.03 |
2026-08-29 23:18:47 | 0 | E | 0 | 19 | 0 | 1029.75 | 75.93 | 902 | 14.66 | 4.03 |
2026-08-29 23:17:48 | 0 | E | 0 | 19.05 | 0 | 1029.67 | 75.93 | 902 | 14.71 | 4.03 |
2026-08-29 23:16:50 | 0 | E | 0 | 19.11 | 0 | 1029.67 | 76.08 | 898 | 14.79 | 4.03 |
2026-08-29 23:15:51 | 0 | E | 0 | 19.12 | 0 | 1029.71 | 76.29 | 893 | 14.85 | 4.03 |
2026-08-29 23:14:53 | 0 | E | 0 | 19.08 | 0 | 1029.68 | 76.52 | 887 | 14.85 | 4.03 |
2026-08-29 23:13:54 | 0 | E | 0 | 19.04 | 0 | 1029.73 | 76.79 | 880 | 14.87 | 4.03 |
2026-08-29 23:12:56 | 0 | E | 0 | 18.95 | 0 | 1029.74 | 76.99 | 875 | 14.82 | 4.03 |
2026-08-29 23:11:57 | 0 | E | 0 | 18.87 | 0 | 1029.76 | 77.45 | 864 | 14.84 | 4.03 |
2026-08-29 23:10:58 | 0.09 | E | 0.22 | 18.82 | 0 | 1029.77 | 77.83 | 854 | 14.87 | 4.03 |
2026-08-29 23:09:59 | 0.39 | E | 0.44 | 18.76 | 0 | 1029.78 | 78.2 | 845 | 14.88 | 4.03 |
2026-08-29 23:09:01 | 0.34 | E | 0.44 | 18.7 | 0 | 1029.76 | 78.17 | 846 | 14.82 | 4.03 |
2026-08-29 23:08:02 | 0.28 | E | 0.31 | 18.69 | 0 | 1029.83 | 77.95 | 851 | 14.76 | 4.03 |
2026-08-29 23:07:04 | 0.28 | E | 0.35 | 18.64 | 0 | 1029.79 | 77.71 | 857 | 14.67 | 4.03 |
2026-08-29 23:06:05 | 0.29 | E | 0.35 | 18.67 | 0 | 1029.85 | 77.6 | 860 | 14.67 | 4.03 |
2026-08-29 23:05:07 | 0.24 | E | 0.35 | 18.69 | 0 | 1029.8 | 77.6 | 860 | 14.69 | 4.03 |
2026-08-29 23:04:08 | 0.31 | E | 0.44 | 18.69 | 0 | 1029.83 | 77.41 | 865 | 14.66 | 4.03 |
2026-08-29 23:03:10 | 0 | E | 0 | 18.7 | 0 | 1029.8 | 77.39 | 865 | 14.66 | 4.03 |
2026-08-29 23:02:11 | 0 | E | 0 | 18.71 | 0 | 1029.78 | 77.4 | 865 | 14.67 | 4.03 |
2026-08-29 23:01:13 | 0 | E | 0 | 18.76 | 0 | 1029.81 | 77.29 | 868 | 14.7 | 4.03 |
2026-08-29 23:00:14 | 0 | E | 0 | 18.82 | 0 | 1029.81 | 77.12 | 872 | 14.72 | 4.03 |
2026-08-29 22:59:16 | 0 | E | 0 | 18.84 | 0 | 1029.82 | 77.25 | 869 | 14.77 | 4.03 |
2026-08-29 22:58:17 | 0 | E | 0 | 18.86 | 0 | 1029.84 | 77.43 | 864 | 14.82 | 4.03 |
2026-08-29 22:57:19 | 0 | E | 0 | 18.86 | 0 | 1029.83 | 77.61 | 860 | 14.86 | 4.03 |
2026-08-29 22:56:20 | 0 | E | 0 | 18.84 | 0 | 1029.82 | 77.76 | 856 | 14.87 | 4.03 |
2026-08-29 22:55:22 | 0 | E | 0 | 18.82 | 0 | 1029.79 | 77.86 | 853 | 14.87 | 4.03 |
2026-08-29 22:54:23 | 0 | E | 0 | 18.78 | 0 | 1029.77 | 77.89 | 853 | 14.84 | 4.03 |
2026-08-29 22:53:25 | 0 | E | 0 | 18.8 | 0 | 1029.8 | 77.89 | 853 | 14.86 | 4.03 |
2026-08-29 22:52:26 | 0 | E | 0 | 18.8 | 0 | 1029.8 | 77.85 | 854 | 14.85 | 4.03 |
2026-08-29 22:51:28 | 0.09 | E | 0.35 | 18.82 | 0 | 1029.82 | 77.85 | 854 | 14.87 | 4.03 |
2026-08-29 22:50:29 | 0 | E | 0 | 18.84 | 0 | 1029.79 | 77.71 | 857 | 14.86 | 4.03 |
2026-08-29 22:49:31 | 0.1 | E | 0.26 | 18.84 | 0 | 1029.79 | 77.56 | 861 | 14.83 | 4.03 |
2026-08-29 22:48:32 | 0.11 | E | 0.48 | 18.9 | 0 | 1029.8 | 77.44 | 864 | 14.87 | 4.03 |
2026-08-29 22:47:34 | 0 | E | 0 | 18.94 | 0 | 1029.73 | 77.15 | 871 | 14.85 | 4.03 |
2026-08-29 22:46:35 | 0 | E | 0 | 18.98 | 0 | 1029.78 | 76.95 | 876 | 14.84 | 4.03 |
2026-08-29 22:45:37 | 0 | E | 0 | 19.03 | 0 | 1029.78 | 76.83 | 879 | 14.87 | 4.03 |
2026-08-29 22:44:38 | 0 | E | 0 | 19.1 | 0 | 1029.77 | 76.84 | 879 | 14.94 | 4.03 |
2026-08-29 22:43:40 | 0 | E | 0 | 19.12 | 0 | 1029.77 | 76.84 | 879 | 14.96 | 4.03 |
2026-08-29 22:42:41 | 0 | E | 0 | 19.19 | 0 | 1029.77 | 76.85 | 879 | 15.03 | 4.03 |
2026-08-29 22:41:43 | 0 | E | 0 | 19.23 | 0 | 1029.78 | 76.81 | 880 | 15.06 | 4.03 |
2026-08-29 22:40:44 | 0.24 | E | 0.4 | 19.29 | 0 | 1029.77 | 76.83 | 879 | 15.12 | 4.03 |
2026-08-29 22:39:46 | 0.45 | E | 0.57 | 19.33 | 0 | 1029.73 | 76.79 | 880 | 15.15 | 4.03 |
2026-08-29 22:38:47 | 0.66 | E | 0.79 | 19.33 | 0 | 1029.77 | 76.69 | 883 | 15.13 | 4.03 |
2026-08-29 22:37:49 | 0.83 | E | 0.92 | 19.36 | 0 | 1029.75 | 76.64 | 884 | 15.15 | 4.03 |
2026-08-29 22:36:50 | 0.98 | E | 1.06 | 19.42 | 0 | 1029.72 | 76.57 | 886 | 15.19 | 4.03 |
2026-08-29 22:35:52 | 1.25 | E | 1.54 | 19.44 | 0 | 1029.73 | 76.46 | 888 | 15.19 | 4.03 |
2026-08-29 22:34:53 | 1.17 | ENE | 1.32 | 19.49 | 0 | 1029.76 | 76.26 | 893 | 15.2 | 4.03 |
2026-08-29 22:33:55 | 1.08 | ENE | 1.19 | 19.49 | 0 | 1029.74 | 76.02 | 899 | 15.15 | 4.03 |
2026-08-29 22:32:56 | 1 | ENE | 1.1 | 19.55 | 0 | 1029.73 | 75.79 | 905 | 15.16 | 4.03 |
2026-08-29 22:31:57 | 0.95 | ENE | 1.06 | 19.59 | 0 | 1029.74 | 75.38 | 915 | 15.11 | 4.03 |
2026-08-29 22:30:59 | 1.24 | E | 1.32 | 19.62 | 0 | 1029.74 | 75.26 | 918 | 15.12 | 4.03 |
2026-08-29 22:30:00 | 1.26 | E | 1.45 | 19.67 | 0 | 1029.71 | 75.04 | 924 | 15.12 | 4.03 |
2026-08-29 22:29:02 | 1.35 | E | 1.5 | 19.73 | 0 | 1029.76 | 74.56 | 936 | 15.08 | 4.03 |
2026-08-29 22:28:03 | 1.46 | E | 1.67 | 19.76 | 0 | 1029.77 | 73.99 | 950 | 14.99 | 4.03 |
2026-08-29 22:27:05 | 1.58 | E | 1.76 | 19.78 | 0 | 1029.76 | 73.08 | 973 | 14.82 | 4.03 |
2026-08-29 22:26:06 | 1.74 | E | 1.8 | 19.87 | 0 | 1029.71 | 72.46 | 988 | 14.77 | 4.03 |
2026-08-29 22:25:08 | 1.62 | E | 1.89 | 19.94 | 0 | 1029.71 | 72.1 | 997 | 14.76 | 4.03 |
2026-08-29 22:24:08 | 1.31 | E | 1.54 | 20.01 | 0 | 1029.73 | 71.51 | 1012 | 14.7 | 4.03 |
2026-08-29 22:23:10 | 1 | NE | 1.14 | 20.12 | 0 | 1029.69 | 71.07 | 1023 | 14.71 | 4.03 |
2026-08-29 22:22:11 | 0.64 | NW | 0.84 | 20.17 | 0 | 1029.69 | 69.67 | 1058 | 14.45 | 4.03 |
2026-08-29 22:21:13 | 0 | NW | 0 | 20.18 | 0 | 1029.71 | 68.56 | 1086 | 14.21 | 4.03 |
2026-08-29 22:20:14 | 0 | NW | 0 | 20.2 | 0 | 1029.72 | 68.32 | 1092 | 14.17 | 4.03 |
2026-08-29 22:19:16 | 0 | NW | 0 | 20.24 | 0 | 1029.72 | 68.05 | 1099 | 14.15 | 4.03 |
2026-08-29 22:18:17 | 0 | NW | 0 | 20.25 | 0 | 1029.76 | 67.85 | 1104 | 14.12 | 4.03 |
2026-08-29 22:17:18 | 0 | NW | 0 | 20.28 | 0 | 1029.67 | 67.49 | 1113 | 14.06 | 4.03 |
2026-08-29 22:16:20 | 0 | NW | 0 | 20.33 | 0 | 1029.68 | 67.03 | 1124 | 14 | 4.03 |
2026-08-29 22:15:21 | 0 | NW | 0 | 20.42 | 0 | 1029.7 | 66.7 | 1132 | 14.01 | 4.03 |
2026-08-29 22:14:23 | 0 | NW | 0 | 20.5 | 0 | 1029.65 | 66.66 | 1133 | 14.08 | 4.03 |
2026-08-29 22:13:24 | 0 | NW | 0 | 20.58 | 0 | 1029.64 | 66.51 | 1137 | 14.12 | 4.03 |
2026-08-29 22:12:26 | 0 | NW | 0 | 20.69 | 0 | 1029.67 | 66.07 | 1148 | 14.12 | 4.03 |
2026-08-29 22:11:28 | 0 | NW | 0 | 20.77 | 0 | 1029.65 | 65.85 | 1154 | 14.15 | 4.03 |
2026-08-29 22:10:29 | 0 | NW | 0 | 20.86 | 0 | 1029.64 | 65.28 | 1168 | 14.1 | 4.03 |
2026-08-29 22:09:30 | 0.36 | NW | 0.57 | 20.94 | 0 | 1029.68 | 65.31 | 1167 | 14.18 | 4.03 |
2026-08-29 22:08:32 | 0.7 | NW | 0.75 | 20.98 | 0 | 1029.64 | 65.2 | 1170 | 14.19 | 4.03 |
2026-08-29 22:07:33 | 0.89 | NW | 1.01 | 20.97 | 0 | 1029.65 | 65.11 | 1172 | 14.16 | 4.03 |
2026-08-29 22:06:35 | 0.97 | NW | 1.06 | 21 | 0 | 1029.65 | 64.92 | 1177 | 14.15 | 4.03 |
2026-08-29 22:05:36 | 0.92 | NW | 1.01 | 21 | 0 | 1029.66 | 64.88 | 1178 | 14.14 | 4.03 |
2026-08-29 22:04:37 | 0.86 | NW | 0.92 | 21.1 | 0 | 1029.65 | 64.76 | 1181 | 14.2 | 4.03 |
2026-08-29 22:03:39 | 0.87 | NW | 1.01 | 21.12 | 0 | 1029.66 | 64.58 | 1185 | 14.18 | 4.03 |
2026-08-29 22:02:40 | 1.07 | NW | 1.14 | 21.18 | 0 | 1029.63 | 64.41 | 1190 | 14.2 | 4.03 |
2026-08-29 22:01:42 | 1.09 | NW | 1.14 | 21.18 | 0 | 1029.62 | 64.14 | 1196 | 14.13 | 4.03 |
2026-08-29 22:00:43 | 1.14 | NW | 1.19 | 21.15 | 0 | 1029.64 | 64.21 | 1195 | 14.12 | 4.03 |
2026-08-29 21:59:45 | 1.06 | NW | 1.19 | 21.15 | 0 | 1029.65 | 64.53 | 1187 | 14.2 | 4.03 |
2026-08-29 21:58:46 | 0.98 | NW | 1.01 | 21.15 | 0 | 1029.62 | 64.51 | 1187 | 14.19 | 4.03 |
2026-08-29 21:57:48 | 1.06 | NW | 1.19 | 21.2 | 0 | 1029.67 | 64.44 | 1189 | 14.22 | 4.03 |
2026-08-29 21:56:49 | 0.87 | NW | 1.06 | 21.21 | 0 | 1029.64 | 64.4 | 1190 | 14.22 | 4.03 |
2026-08-29 21:55:50 | 1.14 | NW | 1.23 | 21.28 | 0 | 1029.68 | 64.24 | 1194 | 14.25 | 4.03 |
2026-08-29 21:54:52 | 1.48 | NW | 1.58 | 21.37 | 0 | 1029.69 | 63.99 | 1200 | 14.28 | 4.03 |
2026-08-29 21:53:53 | 1.49 | NW | 1.67 | 21.45 | 0 | 1029.69 | 63.74 | 1206 | 14.29 | 4.03 |
2026-08-29 21:52:55 | 1.62 | NW | 1.76 | 21.49 | 0 | 1029.64 | 63.55 | 1211 | 14.28 | 4.03 |
2026-08-29 21:51:56 | 1.71 | NW | 1.8 | 21.5 | 0 | 1029.63 | 63.29 | 1218 | 14.23 | 4.03 |
2026-08-29 21:50:58 | 1.65 | NW | 1.8 | 21.56 | 0 | 1029.57 | 63.12 | 1222 | 14.24 | 4.03 |
2026-08-29 21:49:59 | 1.7 | NW | 1.76 | 21.53 | 0 | 1029.64 | 63.04 | 1224 | 14.2 | 4.03 |
2026-08-29 21:49:01 | 1.65 | NW | 1.76 | 21.53 | 0 | 1029.63 | 63.13 | 1222 | 14.22 | 4.03 |
2026-08-29 21:48:02 | 1.57 | NW | 1.67 | 21.49 | 0 | 1029.62 | 63.23 | 1219 | 14.2 | 4.03 |
2026-08-29 21:47:03 | 1.75 | WNW | 1.89 | 21.44 | 0 | 1029.64 | 63.43 | 1214 | 14.21 | 4.03 |
2026-08-29 21:46:04 | 1.83 | WNW | 1.94 | 21.42 | 0 | 1029.6 | 63.68 | 1208 | 14.25 | 4.03 |
2026-08-29 21:45:05 | 1.84 | WNW | 2.02 | 21.39 | 0 | 1029.65 | 63.81 | 1205 | 14.25 | 4.03 |
2026-08-29 21:44:07 | 1.76 | WNW | 1.85 | 21.39 | 0 | 1029.63 | 63.97 | 1201 | 14.29 | 4.03 |
2026-08-29 21:43:08 | 1.88 | WNW | 2.07 | 21.39 | 0 | 1029.6 | 63.87 | 1203 | 14.26 | 4.03 |
2026-08-29 21:42:10 | 1.55 | WNW | 1.94 | 21.41 | 0 | 1029.63 | 63.82 | 1204 | 14.27 | 4.03 |
2026-08-29 21:41:11 | 1.46 | WNW | 1.8 | 21.41 | 0 | 1029.61 | 63.77 | 1206 | 14.26 | 4.03 |
2026-08-29 21:40:13 | 1.51 | WNW | 1.8 | 21.42 | 0 | 1029.65 | 63.78 | 1205 | 14.27 | 4.03 |
2026-08-29 21:39:14 | 1.41 | WNW | 1.58 | 21.42 | 0 | 1029.58 | 63.77 | 1206 | 14.27 | 4.03 |
2026-08-29 21:38:14 | 1.3 | WNW | 1.5 | 21.41 | 0 | 1029.58 | 63.75 | 1206 | 14.25 | 4.03 |
2026-08-29 21:37:16 | 1.06 | WNW | 1.19 | 21.44 | 0 | 1029.59 | 63.75 | 1206 | 14.28 | 4.03 |
2026-08-29 21:36:17 | 1.17 | WNW | 1.32 | 21.45 | 0 | 1029.59 | 63.71 | 1207 | 14.28 | 4.03 |
2026-08-29 21:35:19 | 1.22 | WNW | 1.32 | 21.46 | 0 | 1029.52 | 63.65 | 1209 | 14.28 | 4.03 |
2026-08-29 21:34:20 | 1.2 | NW | 1.32 | 21.49 | 0 | 1029.55 | 63.51 | 1212 | 14.27 | 4.03 |
2026-08-29 21:33:22 | 1.37 | NW | 1.63 | 21.55 | 0 | 1029.52 | 63.3 | 1217 | 14.28 | 4.03 |
2026-08-29 21:32:23 | 1.48 | NW | 1.63 | 21.56 | 0 | 1029.55 | 63.19 | 1220 | 14.26 | 4.03 |
2026-08-29 21:31:24 | 1.62 | NW | 1.8 | 21.56 | 0 | 1029.49 | 63.05 | 1224 | 14.23 | 4.03 |
2026-08-29 21:30:26 | 1.47 | NW | 1.8 | 21.58 | 0 | 1029.46 | 63.09 | 1223 | 14.25 | 4.03 |
2026-08-29 21:29:27 | 1.54 | WNW | 1.76 | 21.62 | 0 | 1029.46 | 62.99 | 1225 | 14.27 | 4.03 |
2026-08-29 21:28:28 | 1.46 | WNW | 1.67 | 21.6 | 0 | 1029.48 | 63 | 1225 | 14.25 | 4.03 |
2026-08-29 21:27:30 | 1.46 | WNW | 1.67 | 21.6 | 0 | 1029.47 | 63.01 | 1225 | 14.25 | 4.03 |
2026-08-29 21:26:31 | 1.62 | WNW | 1.76 | 21.6 | 0 | 1029.49 | 63 | 1225 | 14.25 | 4.03 |
2026-08-29 21:25:33 | 1.67 | WNW | 1.76 | 21.59 | 0 | 1029.47 | 63.26 | 1218 | 14.31 | 4.03 |
2026-08-29 21:24:34 | 1.73 | WNW | 1.94 | 21.56 | 0 | 1029.51 | 63.28 | 1218 | 14.28 | 4.03 |
2026-08-29 21:23:36 | 1.39 | WNW | 1.76 | 21.52 | 0 | 1029.49 | 63.5 | 1212 | 14.3 | 4.03 |
2026-08-29 21:22:37 | 1.56 | WNW | 1.8 | 21.49 | 0 | 1029.55 | 63.53 | 1212 | 14.28 | 4.03 |
2026-08-29 21:21:39 | 1.19 | WNW | 1.41 | 21.49 | 0 | 1029.55 | 63.61 | 1210 | 14.3 | 4.03 |
2026-08-29 21:20:40 | 1.32 | WNW | 1.63 | 21.48 | 0 | 1029.54 | 63.58 | 1210 | 14.28 | 4.03 |
2026-08-29 21:19:42 | 1.43 | WNW | 1.76 | 21.46 | 0 | 1029.58 | 63.59 | 1210 | 14.26 | 4.03 |
2026-08-29 21:18:43 | 1.37 | WNW | 1.63 | 21.46 | 0 | 1029.6 | 63.56 | 1211 | 14.26 | 4.03 |
2026-08-29 21:17:44 | 1.15 | WNW | 1.5 | 21.48 | 0 | 1029.55 | 63.62 | 1209 | 14.29 | 4.03 |
2026-08-29 21:16:46 | 1.32 | WNW | 1.5 | 21.46 | 0 | 1029.54 | 63.55 | 1211 | 14.25 | 4.03 |
2026-08-29 21:15:47 | 1.34 | NW | 1.58 | 21.5 | 0 | 1029.57 | 63.64 | 1209 | 14.31 | 4.03 |
2026-08-29 21:14:49 | 1.26 | NW | 1.36 | 21.52 | 0 | 1029.52 | 63.56 | 1211 | 14.31 | 4.03 |
2026-08-29 21:13:50 | 1.21 | NW | 1.32 | 21.55 | 0 | 1029.53 | 63.49 | 1213 | 14.32 | 4.03 |
2026-08-29 21:12:51 | 0.98 | NW | 1.06 | 21.6 | 0 | 1029.47 | 63.3 | 1217 | 14.33 | 4.03 |
2026-08-29 21:11:53 | 0.97 | NW | 1.1 | 21.66 | 0 | 1029.42 | 63.14 | 1221 | 14.34 | 4.03 |
2026-08-29 21:10:54 | 0.91 | NNW | 1.23 | 21.67 | 0 | 1029.4 | 63.05 | 1224 | 14.33 | 4.03 |
2026-08-29 21:09:56 | 0.72 | NW | 0.97 | 21.67 | 0 | 1029.36 | 63.24 | 1219 | 14.38 | 4.03 |
2026-08-29 21:08:57 | 0.65 | N | 1.06 | 21.72 | 0 | 1029.32 | 63.09 | 1223 | 14.39 | 4.03 |
2026-08-29 21:07:58 | 0.35 | N | 0.62 | 21.73 | 0 | 1029.3 | 63.03 | 1224 | 14.38 | 4.03 |
2026-08-29 21:06:59 | 0.68 | N | 1.06 | 21.76 | 0 | 1029.31 | 63.09 | 1223 | 14.42 | 4.03 |
2026-08-29 21:06:01 | 0.83 | N | 1.14 | 21.7 | 0 | 1029.28 | 63.02 | 1224 | 14.35 | 4.03 |
2026-08-29 21:05:02 | 0.62 | NW | 1.14 | 21.7 | 0 | 1029.3 | 62.82 | 1229 | 14.3 | 4.03 |
2026-08-29 21:04:04 | 0.24 | NW | 0.53 | 21.75 | 0 | 1029.31 | 62.68 | 1233 | 14.31 | 4.03 |
2026-08-29 21:03:05 | 0.08 | NW | 0.4 | 21.73 | 0 | 1029.32 | 62.57 | 1236 | 14.27 | 4.03 |
2026-08-29 21:02:07 | 0.32 | NW | 0.44 | 21.77 | 0 | 1029.3 | 62.56 | 1236 | 14.3 | 4.03 |
2026-08-29 21:01:08 | 0.51 | NW | 0.75 | 21.77 | 0 | 1029.3 | 62.61 | 1235 | 14.32 | 4.03 |
2026-08-29 21:00:09 | 0.36 | NW | 0.66 | 21.82 | 0 | 1029.28 | 62.54 | 1236 | 14.35 | 4.03 |
2026-08-29 20:59:11 | 0.54 | NNE | 0.66 | 21.82 | 0 | 1029.26 | 62.45 | 1239 | 14.32 | 4.03 |
2026-08-29 20:58:12 | 0.81 | NNE | 1.19 | 21.83 | 0 | 1029.29 | 62.33 | 1242 | 14.3 | 4.03 |
2026-08-29 20:57:14 | 0.48 | N | 0.75 | 21.86 | 0 | 1029.27 | 62.34 | 1241 | 14.33 | 4.03 |
2026-08-29 20:56:15 | 0.35 | N | 1.32 | 21.89 | 0 | 1029.3 | 62.09 | 1248 | 14.3 | 4.03 |
2026-08-29 20:55:16 | 0.43 | NNE | 0.62 | 21.9 | 0 | 1029.26 | 62.12 | 1247 | 14.32 | 4.03 |
2026-08-29 20:54:18 | 0.54 | NNE | 1.06 | 21.92 | 0 | 1029.27 | 61.93 | 1252 | 14.29 | 4.03 |
2026-08-29 20:53:19 | 0.7 | N | 1.01 | 21.93 | 0 | 1029.28 | 62.03 | 1249 | 14.32 | 4.03 |
2026-08-29 20:52:21 | 0.87 | N | 1.14 | 21.97 | 0 | 1029.29 | 61.88 | 1253 | 14.32 | 4.03 |
2026-08-29 20:51:22 | 1.19 | NNW | 2.6 | 21.97 | 0 | 1029.28 | 61.72 | 1257 | 14.28 | 4.03 |
2026-08-29 20:50:24 | 0.29 | N | 0.48 | 22 | 0 | 1029.26 | 61.67 | 1258 | 14.3 | 4.03 |
2026-08-29 20:49:25 | 0.54 | N | 1.19 | 22.04 | 0 | 1029.24 | 61.51 | 1262 | 14.3 | 4.03 |
2026-08-29 20:48:27 | 0.74 | N | 1.28 | 22.07 | 0 | 1029.26 | 61.46 | 1263 | 14.31 | 4.03 |
2026-08-29 20:47:28 | 0.43 | N | 0.88 | 22.07 | 0 | 1029.27 | 61.41 | 1265 | 14.3 | 4.03 |
2026-08-29 20:46:29 | 0.79 | N | 1.41 | 22.08 | 0 | 1029.25 | 61.27 | 1268 | 14.27 | 4.03 |
2026-08-29 20:45:31 | 0.33 | N | 0.7 | 22.14 | 0 | 1029.28 | 61.3 | 1267 | 14.34 | 4.03 |
2026-08-29 20:44:33 | 0.14 | N | 0.31 | 22.14 | 0 | 1029.3 | 61.34 | 1266 | 14.35 | 4.03 |
2026-08-29 20:43:34 | 0.49 | N | 1.06 | 22.17 | 0 | 1029.28 | 61.08 | 1273 | 14.31 | 4.03 |
2026-08-29 20:42:35 | 1.12 | N | 1.63 | 22.15 | 0 | 1029.28 | 61.03 | 1274 | 14.28 | 4.03 |
2026-08-29 20:41:37 | 0.82 | NNE | 1.41 | 22.17 | 0 | 1029.24 | 61.2 | 1270 | 14.34 | 4.03 |
2026-08-29 20:40:38 | 0.67 | N | 0.79 | 22.18 | 0 | 1029.24 | 61.17 | 1271 | 14.34 | 4.03 |
2026-08-29 20:39:39 | 1.1 | NNE | 1.98 | 22.21 | 0 | 1029.25 | 61.16 | 1271 | 14.37 | 4.03 |
2026-08-29 20:38:41 | 1.05 | N | 1.28 | 22.18 | 0 | 1029.21 | 61.24 | 1269 | 14.36 | 4.03 |
2026-08-29 20:37:42 | 1.19 | NNE | 1.89 | 22.18 | 0 | 1029.19 | 61.45 | 1264 | 14.41 | 4.03 |
2026-08-29 20:36:44 | 1.2 | NNE | 1.8 | 22.14 | 0 | 1029.25 | 61.36 | 1266 | 14.35 | 4.03 |
2026-08-29 20:35:45 | 0.66 | NNE | 1.01 | 22.14 | 0 | 1029.24 | 61.26 | 1268 | 14.33 | 4.03 |
2026-08-29 20:34:46 | 1.11 | NNE | 1.67 | 22.08 | 0 | 1029.28 | 61.15 | 1271 | 14.24 | 4.03 |
2026-08-29 20:33:48 | 0.61 | N | 1.32 | 22.07 | 0 | 1029.28 | 61.43 | 1264 | 14.3 | 4.03 |
2026-08-29 20:32:49 | 1.07 | N | 1.67 | 22.01 | 0 | 1029.29 | 61.38 | 1265 | 14.24 | 4.03 |
2026-08-29 20:31:50 | 0.94 | NNW | 1.8 | 22 | 0 | 1029.28 | 61.64 | 1259 | 14.29 | 4.03 |
2026-08-29 20:30:52 | 0.86 | NNE | 1.14 | 21.97 | 0 | 1029.22 | 61.66 | 1258 | 14.27 | 4.03 |
2026-08-29 20:29:54 | 0.9 | NNE | 1.23 | 21.99 | 0 | 1029.24 | 61.95 | 1251 | 14.36 | 4.03 |
2026-08-29 20:28:55 | 0.61 | NNE | 1.41 | 21.97 | 0 | 1029.2 | 61.79 | 1255 | 14.3 | 4.03 |
2026-08-29 20:27:56 | 0.44 | NNE | 0.79 | 21.97 | 0 | 1029.2 | 61.56 | 1261 | 14.24 | 4.03 |
2026-08-29 20:26:58 | 0.48 | NNE | 1.06 | 22 | 0 | 1029.2 | 61.54 | 1261 | 14.27 | 4.03 |
2026-08-29 20:25:59 | 0.36 | NNE | 0.66 | 22.01 | 0 | 1029.16 | 61.7 | 1257 | 14.32 | 4.03 |
2026-08-29 20:25:01 | 1.03 | NNE | 2.11 | 22.01 | 0 | 1029.14 | 61.52 | 1262 | 14.27 | 4.03 |
2026-08-29 20:24:02 | 0.67 | NNE | 0.97 | 22.01 | 0 | 1029.14 | 61.4 | 1265 | 14.24 | 4.03 |
2026-08-29 20:23:03 | 0.98 | NNE | 1.67 | 22.04 | 0 | 1029.1 | 61.37 | 1266 | 14.26 | 4.03 |
2026-08-29 20:22:05 | 1.07 | NNE | 2.11 | 22.01 | 0 | 1029.1 | 61.33 | 1267 | 14.22 | 4.03 |
2026-08-29 20:21:06 | 0.54 | N | 1.06 | 21.99 | 0 | 1029.09 | 61.34 | 1266 | 14.21 | 4.04 |
2026-08-29 20:20:08 | 0.52 | N | 1.19 | 22 | 0 | 1029.08 | 61.37 | 1266 | 14.22 | 4.04 |
2026-08-29 20:19:09 | 0.94 | N | 1.36 | 22.01 | 0 | 1029.05 | 61.42 | 1264 | 14.25 | 4.04 |
2026-08-29 20:18:10 | 1.67 | NNE | 2.24 | 21.99 | 0 | 1029.04 | 61.29 | 1268 | 14.19 | 4.04 |
2026-08-29 20:17:12 | 0.97 | NNE | 1.63 | 21.93 | 0 | 1029.01 | 61.59 | 1260 | 14.21 | 4.04 |
2026-08-29 20:16:13 | 1.32 | N | 1.85 | 21.92 | 0 | 1029 | 61.41 | 1265 | 14.16 | 4.04 |
2026-08-29 20:15:15 | 1.26 | NNE | 1.58 | 21.89 | 0 | 1029.01 | 61.43 | 1264 | 14.14 | 4.04 |
2026-08-29 20:14:15 | 1.03 | NNE | 1.54 | 21.9 | 0 | 1028.98 | 61.31 | 1267 | 14.11 | 4.03 |
2026-08-29 20:13:17 | 0.68 | N | 1.63 | 21.92 | 0 | 1028.99 | 61.27 | 1268 | 14.12 | 4.04 |
2026-08-29 20:12:18 | 0.61 | NNE | 0.66 | 21.92 | 0 | 1028.99 | 61.15 | 1271 | 14.09 | 4.04 |
2026-08-29 20:11:19 | 1.25 | N | 1.89 | 21.96 | 0 | 1028.94 | 60.95 | 1276 | 14.08 | 4.04 |
2026-08-29 20:10:21 | 0.56 | NNE | 1.1 | 21.97 | 0 | 1028.93 | 60.8 | 1280 | 14.05 | 4.04 |
2026-08-29 20:09:22 | 0.72 | NNE | 0.92 | 21.99 | 0 | 1028.88 | 60.93 | 1277 | 14.1 | 4.04 |
2026-08-29 20:08:24 | 1.08 | NNE | 1.8 | 21.99 | 0 | 1028.92 | 60.72 | 1282 | 14.05 | 4.04 |
2026-08-29 20:07:25 | 1.03 | NNE | 1.45 | 21.97 | 0 | 1028.88 | 60.88 | 1278 | 14.07 | 4.04 |
2026-08-29 20:06:27 | 1.03 | NNE | 1.36 | 21.96 | 0 | 1028.86 | 60.93 | 1277 | 14.07 | 4.04 |
2026-08-29 20:05:28 | 0.93 | NNE | 2.29 | 21.96 | 0 | 1028.86 | 60.79 | 1280 | 14.04 | 4.04 |
2026-08-29 20:03:31 | 0.51 | NNE | 1.01 | 22.01 | 0 | 1028.75 | 60.38 | 1290 | 13.98 | 4.04 |
2026-08-29 20:02:32 | 0.48 | N | 0.57 | 22.04 | 0 | 1028.78 | 60.17 | 1296 | 13.96 | 4.04 |
2026-08-29 20:01:34 | 0.92 | NNE | 1.19 | 22.08 | 0 | 1028.81 | 60.06 | 1298 | 13.97 | 4.04 |
2026-08-29 20:00:35 | 0.99 | NE | 1.76 | 22.08 | 0 | 1028.75 | 60.06 | 1298 | 13.97 | 4.04 |
2026-08-29 19:59:36 | 0.86 | NE | 1.19 | 22.08 | 0 | 1028.76 | 60.04 | 1299 | 13.96 | 4.04 |
2026-08-29 19:58:38 | 1.28 | NE | 1.85 | 22.15 | 0 | 1028.74 | 59.85 | 1304 | 13.98 | 4.04 |
2026-08-29 19:57:39 | 1.27 | NNE | 2.16 | 22.14 | 0 | 1028.75 | 59.8 | 1305 | 13.96 | 4.04 |
2026-08-29 19:56:41 | 0.98 | NNE | 1.45 | 22.15 | 0 | 1028.79 | 59.37 | 1316 | 13.85 | 4.04 |
2026-08-29 19:55:42 | 0.77 | NNE | 1.06 | 22.18 | 0 | 1028.78 | 59.01 | 1325 | 13.79 | 4.04 |
2026-08-29 19:54:44 | 0.83 | NNE | 1.5 | 22.2 | 0 | 1028.84 | 58.88 | 1328 | 13.77 | 4.04 |
2026-08-29 19:53:45 | 1.08 | NNE | 1.5 | 22.2 | 0 | 1028.77 | 58.74 | 1331 | 13.74 | 4.04 |
2026-08-29 19:52:46 | 0.66 | NE | 1.19 | 22.24 | 0 | 1028.72 | 58.72 | 1332 | 13.77 | 4.04 |
2026-08-29 19:51:48 | 0.87 | NE | 1.5 | 22.27 | 0 | 1028.68 | 58.67 | 1333 | 13.78 | 4.04 |
2026-08-29 19:50:49 | 0.66 | N | 0.84 | 22.3 | 0 | 1028.7 | 58.39 | 1340 | 13.74 | 4.04 |
2026-08-29 19:49:51 | 1.07 | NNE | 1.85 | 22.37 | 0 | 1028.72 | 58.03 | 1349 | 13.71 | 4.04 |
2026-08-29 19:48:52 | 0.67 | NNE | 1.1 | 22.37 | 0 | 1028.69 | 57.83 | 1354 | 13.65 | 4.04 |
2026-08-29 19:47:53 | 1 | NE | 1.72 | 22.39 | 0 | 1028.68 | 57.62 | 1359 | 13.62 | 4.04 |
2026-08-29 19:46:55 | 0.77 | NNE | 1.41 | 22.42 | 0 | 1028.66 | 57.42 | 1364 | 13.59 | 4.04 |
2026-08-29 19:45:56 | 0.38 | NNE | 0.7 | 22.47 | 0 | 1028.64 | 57.18 | 1370 | 13.57 | 4.04 |
2026-08-29 19:44:58 | 0.56 | NNE | 0.84 | 22.54 | 0 | 1028.65 | 57.09 | 1373 | 13.62 | 4.04 |
2026-08-29 19:43:59 | 1 | NNE | 1.41 | 22.59 | 0 | 1028.62 | 56.76 | 1381 | 13.57 | 4.04 |
2026-08-29 19:43:01 | 0.92 | NNE | 1.63 | 22.66 | 0 | 1028.54 | 56.56 | 1386 | 13.58 | 4.04 |
2026-08-29 19:42:02 | 0.58 | NNE | 0.66 | 22.7 | 0 | 1028.51 | 56.34 | 1391 | 13.56 | 4.04 |
2026-08-29 19:41:03 | 0.85 | NNE | 1.1 | 22.77 | 0 | 1028.52 | 56.14 | 1396 | 13.57 | 4.04 |
2026-08-29 19:40:05 | 1.02 | NNE | 1.45 | 22.86 | 0 | 1028.5 | 55.65 | 1409 | 13.52 | 4.04 |
2026-08-29 19:39:06 | 1.28 | NE | 1.76 | 22.9 | 0 | 1028.53 | 55.58 | 1410 | 13.54 | 4.04 |
2026-08-29 19:38:07 | 1.14 | NNE | 1.45 | 22.96 | 0 | 1028.54 | 55.28 | 1418 | 13.51 | 4.04 |
2026-08-29 19:37:09 | 1.4 | NE | 1.72 | 23.01 | 0 | 1028.55 | 55.26 | 1418 | 13.55 | 4.04 |
2026-08-29 19:36:10 | 1.45 | NE | 1.63 | 23.01 | 0 | 1028.57 | 54.83 | 1429 | 13.43 | 4.04 |
2026-08-29 19:35:12 | 1.56 | NE | 1.76 | 23.03 | 0 | 1028.5 | 54.67 | 1433 | 13.41 | 4.04 |
2026-08-29 19:34:13 | 1.59 | NE | 2.11 | 23.06 | 0 | 1028.51 | 54.67 | 1433 | 13.43 | 4.04 |
2026-08-29 19:33:15 | 1.35 | NE | 2.02 | 23.04 | 0 | 1028.51 | 54.5 | 1437 | 13.37 | 4.04 |
2026-08-29 19:32:16 | 1.08 | NNE | 1.58 | 23.09 | 0 | 1028.55 | 54.31 | 1442 | 13.36 | 4.04 |
2026-08-29 19:31:17 | 0.97 | NNE | 1.41 | 23.11 | 0 | 1028.55 | 54.16 | 1446 | 13.34 | 4.04 |
2026-08-29 19:30:18 | 0.9 | N | 1.32 | 23.15 | 0 | 1028.54 | 54.04 | 1449 | 13.34 | 4.04 |
2026-08-29 19:29:20 | 1.31 | N | 2.02 | 23.21 | 0 | 1028.6 | 54.06 | 1448 | 13.4 | 4.04 |
2026-08-29 19:28:21 | 0.88 | N | 1.45 | 23.28 | 0 | 1028.59 | 53.83 | 1454 | 13.4 | 4.04 |
2026-08-29 19:27:23 | 0.87 | N | 1.23 | 23.32 | 0 | 1028.54 | 53.43 | 1464 | 13.32 | 4.04 |
2026-08-29 19:26:24 | 0.67 | N | 0.75 | 23.42 | 0 | 1028.57 | 53.48 | 1463 | 13.43 | 4.04 |
2026-08-29 19:25:25 | 0.95 | N | 1.36 | 23.49 | 0 | 1028.63 | 53.32 | 1467 | 13.45 | 4.04 |
2026-08-29 19:24:26 | 0.59 | N | 0.7 | 23.54 | 0 | 1028.61 | 52.87 | 1478 | 13.36 | 4.04 |
2026-08-29 19:23:27 | 0.65 | N | 1.1 | 23.56 | 0 | 1028.61 | 52.74 | 1481 | 13.35 | 4.04 |
2026-08-29 19:22:29 | 0.85 | N | 1.58 | 23.58 | 0 | 1028.57 | 52.68 | 1483 | 13.35 | 4.04 |
2026-08-29 19:21:30 | 0.74 | N | 0.84 | 23.59 | 0 | 1028.62 | 52.72 | 1482 | 13.37 | 4.04 |
2026-08-29 19:20:31 | 0.77 | N | 1.06 | 23.59 | 0 | 1028.59 | 52.66 | 1483 | 13.35 | 4.04 |
2026-08-29 19:19:32 | 0.46 | N | 0.84 | 23.56 | 0 | 1028.57 | 52.84 | 1479 | 13.37 | 4.04 |
2026-08-29 19:18:33 | 0.69 | N | 1.41 | 23.52 | 0 | 1028.59 | 52.88 | 1478 | 13.35 | 4.04 |
2026-08-29 19:17:35 | 0.57 | N | 1.14 | 23.49 | 0 | 1028.56 | 52.97 | 1476 | 13.35 | 4.04 |
2026-08-29 19:16:36 | 0.45 | N | 0.62 | 23.48 | 0 | 1028.57 | 53.28 | 1468 | 13.43 | 4.04 |
2026-08-29 19:15:37 | 0.72 | N | 1.23 | 23.48 | 0 | 1028.57 | 53.18 | 1470 | 13.4 | 4.04 |
2026-08-29 19:14:39 | 0.67 | N | 1.1 | 23.47 | 0 | 1028.57 | 52.89 | 1478 | 13.31 | 4.04 |
2026-08-29 19:13:40 | 0.63 | N | 0.97 | 23.49 | 0 | 1028.58 | 52.72 | 1482 | 13.27 | 4.04 |
2026-08-29 19:12:41 | 0.58 | N | 1.23 | 23.55 | 0 | 1028.56 | 52.55 | 1486 | 13.28 | 4.04 |
2026-08-29 19:11:43 | 0.91 | NNE | 1.5 | 23.58 | 0 | 1028.56 | 52.39 | 1490 | 13.26 | 4.04 |
2026-08-29 19:10:44 | 0.91 | NNE | 1.14 | 23.61 | 0 | 1028.54 | 52.25 | 1494 | 13.25 | 4.04 |
2026-08-29 19:09:46 | 0.9 | NNE | 1.28 | 23.64 | 0 | 1028.61 | 51.83 | 1504 | 13.15 | 4.04 |
2026-08-29 19:08:47 | 1.06 | N | 1.63 | 23.66 | 0 | 1028.61 | 51.92 | 1502 | 13.2 | 4.04 |
2026-08-29 19:07:48 | 0.67 | NNW | 1.23 | 23.68 | 0 | 1028.62 | 51.78 | 1505 | 13.17 | 4.04 |
2026-08-29 19:06:49 | 0.64 | NNW | 0.84 | 23.68 | 0 | 1028.61 | 52.24 | 1494 | 13.31 | 4.04 |
2026-08-29 19:05:51 | 0.72 | NNW | 0.84 | 23.76 | 0 | 1028.65 | 52.7 | 1482 | 13.52 | 4.04 |
2026-08-29 19:04:52 | 0.92 | NNW | 1.14 | 23.82 | 0 | 1028.68 | 52.36 | 1491 | 13.47 | 4.04 |
2026-08-29 19:03:54 | 0.98 | NNW | 1.19 | 23.92 | 0 | 1028.6 | 52.64 | 1484 | 13.65 | 4.04 |
2026-08-29 19:02:55 | 1.03 | NNW | 1.19 | 23.99 | 0 | 1028.64 | 52.1 | 1497 | 13.55 | 4.04 |
2026-08-29 19:01:56 | 0.71 | N | 0.92 | 24.03 | 0 | 1028.55 | 51.08 | 1523 | 13.29 | 4.04 |
2026-08-29 19:00:57 | 0.86 | N | 1.36 | 24.09 | 0 | 1028.56 | 50.57 | 1536 | 13.19 | 4.04 |
2026-08-29 18:59:58 | 1.14 | NNW | 1.41 | 24.14 | 0 | 1028.53 | 50.76 | 1531 | 13.29 | 4.04 |
2026-08-29 18:59:00 | 0.79 | NNW | 0.92 | 24.19 | 0 | 1028.57 | 51.03 | 1524 | 13.42 | 4.04 |
2026-08-29 18:58:01 | 1.14 | NNW | 1.41 | 24.17 | 0 | 1028.56 | 50.8 | 1530 | 13.33 | 4.04 |
2026-08-29 18:57:02 | 0.92 | NNW | 1.19 | 24.16 | 0 | 1028.56 | 50.75 | 1531 | 13.31 | 4.04 |
2026-08-29 18:56:03 | 1.02 | NNW | 1.89 | 24.13 | 0 | 1028.55 | 52.33 | 1492 | 13.75 | 4.04 |
2026-08-29 18:55:05 | 1.26 | NNW | 1.5 | 24.14 | 0 | 1028.52 | 52.16 | 1496 | 13.71 | 4.04 |
2026-08-29 18:54:06 | 1.39 | NNW | 1.58 | 24.1 | 0 | 1028.55 | 51.63 | 1509 | 13.52 | 4.04 |
2026-08-29 18:53:07 | 1.29 | NNW | 1.45 | 24.11 | 0 | 1028.54 | 51.34 | 1516 | 13.44 | 4.04 |
2026-08-29 18:52:09 | 1.18 | NNW | 1.41 | 24.14 | 0 | 1028.53 | 51.15 | 1521 | 13.41 | 4.04 |
2026-08-29 18:51:10 | 1.11 | N | 1.45 | 24.13 | 0 | 1028.52 | 50.82 | 1529 | 13.3 | 4.04 |
2026-08-29 18:50:11 | 1.15 | NNE | 1.72 | 24.13 | 0 | 1028.58 | 51.06 | 1523 | 13.37 | 4.04 |
2026-08-29 18:49:12 | 1.35 | NNW | 1.63 | 24.14 | 0 | 1028.57 | 51.12 | 1522 | 13.4 | 4.04 |
2026-08-29 18:48:13 | 1.39 | NNW | 1.76 | 24.1 | 0 | 1028.53 | 50.97 | 1526 | 13.32 | 4.04 |
2026-08-29 18:47:15 | 0.95 | N | 1.41 | 24.1 | 0 | 1028.56 | 51.09 | 1523 | 13.36 | 4.04 |
2026-08-29 18:46:16 | 0.54 | N | 0.88 | 24.11 | 0 | 1028.53 | 50.99 | 1525 | 13.33 | 4.04 |
2026-08-29 18:45:17 | 0.53 | NE | 1.06 | 24.11 | 0 | 1028.55 | 51.02 | 1524 | 13.34 | 4.04 |
2026-08-29 18:44:18 | 0.47 | NE | 0.53 | 24.09 | 0 | 1028.54 | 51.14 | 1521 | 13.36 | 4.04 |
2026-08-29 18:43:20 | 0.78 | NE | 1.28 | 24.09 | 0 | 1028.55 | 51.18 | 1520 | 13.37 | 4.04 |
2026-08-29 18:42:21 | 0.58 | NNE | 0.75 | 24.07 | 0 | 1028.55 | 51.24 | 1519 | 13.37 | 4.04 |
2026-08-29 18:41:22 | 0.39 | NNE | 1.14 | 24.07 | 0 | 1028.54 | 51.54 | 1511 | 13.46 | 4.04 |
2026-08-29 18:40:24 | 0.16 | NNE | 0.31 | 24.1 | 0 | 1028.53 | 51.73 | 1507 | 13.55 | 4.04 |
2026-08-29 18:39:25 | 1.09 | NNE | 1.36 | 24.14 | 0 | 1028.52 | 51.8 | 1505 | 13.6 | 4.05 |
2026-08-29 18:38:26 | 1.26 | NE | 1.45 | 24.2 | 0 | 1028.45 | 51.2 | 1520 | 13.48 | 4.04 |
2026-08-29 18:37:28 | 1.14 | NE | 2.16 | 24.3 | 0 | 1028.4 | 51.3 | 1517 | 13.6 | 4.05 |
2026-08-29 18:36:29 | 1.18 | NNE | 2.29 | 24.42 | 0 | 1028.43 | 50.29 | 1543 | 13.41 | 4.05 |
2026-08-29 18:35:30 | 1.64 | NE | 2.55 | 24.61 | 0 | 1028.39 | 50.43 | 1539 | 13.63 | 4.05 |
2026-08-29 18:34:32 | 1.6 | NE | 2.38 | 24.81 | 0 | 1028.34 | 49.39 | 1565 | 13.49 | 4.05 |
2026-08-29 18:33:33 | 1.63 | NNE | 2.24 | 24.96 | 0 | 1028.37 | 48.86 | 1578 | 13.46 | 4.05 |
2026-08-29 18:32:34 | 1.55 | NE | 2.2 | 25 | 0 | 1028.38 | 48.93 | 1577 | 13.52 | 4.05 |
2026-08-29 18:31:36 | 1.55 | NNE | 1.94 | 24.94 | 0 | 1028.37 | 49.28 | 1568 | 13.57 | 4.05 |
2026-08-29 18:30:37 | 1.2 | NE | 1.72 | 24.79 | 0 | 1028.41 | 49.78 | 1555 | 13.59 | 4.05 |
2026-08-29 18:29:38 | 0.68 | NE | 1.1 | 24.59 | 0 | 1028.39 | 50.86 | 1528 | 13.74 | 4.05 |
2026-08-29 18:28:40 | 0.78 | NE | 1.45 | 24.38 | 0 | 1028.38 | 51.84 | 1504 | 13.84 | 4.05 |
2026-08-29 18:27:41 | 0.98 | NE | 1.8 | 24.25 | 0 | 1028.43 | 51 | 1525 | 13.47 | 4.05 |
2026-08-29 18:26:42 | 1.1 | NE | 1.58 | 24.23 | 0 | 1028.46 | 51.08 | 1523 | 13.47 | 4.05 |
2026-08-29 18:25:43 | 1.23 | NNE | 1.94 | 24.27 | 0 | 1028.44 | 50.67 | 1533 | 13.39 | 4.05 |
2026-08-29 18:24:45 | 1.06 | ENE | 1.67 | 24.37 | 0 | 1028.47 | 51.62 | 1509 | 13.76 | 4.05 |
2026-08-29 18:23:46 | 1.26 | NNE | 2.07 | 24.42 | 0 | 1028.46 | 50.05 | 1549 | 13.33 | 4.05 |
2026-08-29 18:22:47 | 1.02 | NE | 1.32 | 24.47 | 0 | 1028.5 | 50.18 | 1545 | 13.42 | 4.05 |
2026-08-29 18:21:48 | 1.01 | NE | 1.5 | 24.55 | 0 | 1028.52 | 49.87 | 1553 | 13.4 | 4.05 |
2026-08-29 18:20:50 | 0.9 | NNE | 1.23 | 24.65 | 0 | 1028.58 | 51.3 | 1517 | 13.93 | 4.05 |
2026-08-29 18:19:51 | 1.32 | NNE | 2.07 | 24.69 | 0 | 1028.55 | 49.12 | 1572 | 13.29 | 4.05 |
2026-08-29 18:18:52 | 1.13 | NNE | 2.2 | 24.75 | 0 | 1028.59 | 49.24 | 1569 | 13.39 | 4.05 |
2026-08-29 18:17:54 | 0.55 | NE | 0.79 | 24.82 | 0 | 1028.6 | 49.91 | 1552 | 13.66 | 4.05 |
2026-08-29 18:16:55 | 1.6 | ENE | 2.46 | 24.93 | 0 | 1028.59 | 49.01 | 1575 | 13.48 | 4.05 |
2026-08-29 18:15:56 | 1.4 | NE | 1.89 | 25.07 | 0 | 1028.58 | 49.25 | 1569 | 13.68 | 4.05 |
2026-08-29 18:14:57 | 1.25 | ENE | 2.82 | 25.23 | 0 | 1028.57 | 47.94 | 1601 | 13.41 | 4.05 |
2026-08-29 18:13:58 | 1.01 | NNE | 1.19 | 25.36 | 0 | 1028.62 | 48.31 | 1592 | 13.65 | 4.05 |
2026-08-29 18:13:00 | 1.8 | ENE | 2.82 | 25.45 | 0 | 1028.58 | 48.33 | 1592 | 13.74 | 4.05 |
2026-08-29 18:12:01 | 1.77 | ENE | 2.64 | 25.61 | 0 | 1028.57 | 46.92 | 1627 | 13.43 | 4.05 |
2026-08-29 18:11:02 | 1.65 | NNE | 2.38 | 25.75 | 0 | 1028.56 | 47.06 | 1623 | 13.6 | 4.05 |
2026-08-29 18:10:02 | 1.9 | NE | 3.43 | 25.81 | 0 | 1028.57 | 46.37 | 1641 | 13.43 | 4.05 |
2026-08-29 18:09:03 | 1.62 | NNE | 2.51 | 25.82 | 0 | 1028.59 | 46.32 | 1642 | 13.42 | 4.05 |
2026-08-29 18:08:05 | 1.35 | NE | 2.16 | 25.78 | 0 | 1028.6 | 46.56 | 1636 | 13.47 | 4.05 |
2026-08-29 18:07:06 | 0.91 | NE | 1.32 | 25.69 | 0 | 1028.59 | 47.85 | 1604 | 13.81 | 4.05 |
2026-08-29 18:06:07 | 1.28 | NE | 1.58 | 25.64 | 0 | 1028.65 | 46.61 | 1635 | 13.36 | 4.05 |
2026-08-29 18:05:08 | 1.09 | ENE | 1.67 | 25.72 | 0 | 1028.58 | 46.73 | 1632 | 13.47 | 4.05 |
2026-08-29 18:04:10 | 1.68 | N | 2.73 | 25.73 | 0 | 1028.52 | 45.87 | 1653 | 13.19 | 4.05 |
2026-08-29 18:03:11 | 2.21 | ENE | 3.08 | 25.79 | 0 | 1028.49 | 46.41 | 1640 | 13.43 | 4.05 |
2026-08-29 18:02:12 | 1.7 | ENE | 3.21 | 25.97 | 0 | 1028.45 | 47.13 | 1622 | 13.83 | 4.05 |
2026-08-29 18:01:13 | 1.08 | NE | 1.28 | 26.12 | 0 | 1028.48 | 46.25 | 1644 | 13.67 | 4.05 |
2026-08-29 18:00:15 | 1.5 | NE | 2.38 | 26.33 | 0 | 1028.43 | 44.93 | 1677 | 13.42 | 4.05 |
2026-08-29 17:59:16 | 1.38 | N | 1.85 | 26.59 | 0 | 1028.47 | 43.42 | 1714 | 13.13 | 4.05 |
2026-08-29 17:58:17 | 1.56 | NNW | 2.55 | 26.82 | 0 | 1028.47 | 42.91 | 1727 | 13.16 | 4.05 |
2026-08-29 17:57:18 | 1.08 | N | 1.67 | 26.86 | 0 | 1028.45 | 43.43 | 1714 | 13.38 | 4.05 |
2026-08-29 17:56:20 | 0.89 | NNE | 1.58 | 26.78 | 0 | 1028.44 | 45.94 | 1651 | 14.17 | 4.05 |
2026-08-29 17:55:21 | 1.55 | N | 2.55 | 26.68 | 0 | 1028.45 | 44.86 | 1678 | 13.71 | 4.05 |
2026-08-29 17:54:22 | 1.27 | NNW | 1.94 | 26.68 | 0 | 1028.43 | 46.22 | 1644 | 14.17 | 4.05 |
2026-08-29 17:53:23 | 1.41 | N | 2.02 | 26.64 | 0 | 1028.4 | 45.87 | 1653 | 14.02 | 4.05 |
2026-08-29 17:52:24 | 1.37 | NNE | 1.94 | 26.52 | 0 | 1028.4 | 44.77 | 1681 | 13.54 | 4.05 |
2026-08-29 17:51:26 | 1.31 | ENE | 2.02 | 26.43 | 0 | 1028.38 | 45.92 | 1652 | 13.85 | 4.05 |
2026-08-29 17:50:27 | 0.88 | ENE | 1.36 | 26.24 | 0 | 1028.43 | 45.91 | 1652 | 13.67 | 4.05 |
2026-08-29 17:49:28 | 1.29 | N | 2.64 | 26.06 | 0 | 1028.47 | 46.49 | 1638 | 13.7 | 4.05 |
2026-08-29 17:48:29 | 1.4 | NNW | 1.85 | 25.92 | 0 | 1028.47 | 46.64 | 1634 | 13.62 | 4.05 |
2026-08-29 17:47:30 | 0.69 | NW | 1.67 | 25.89 | 0 | 1028.57 | 48.24 | 1594 | 14.11 | 4.05 |
2026-08-29 17:46:32 | 0.62 | N | 0.97 | 25.79 | 0 | 1028.55 | 49.68 | 1558 | 14.48 | 4.05 |
2026-08-29 17:45:33 | 1.14 | NE | 1.85 | 25.62 | 0 | 1028.52 | 49.26 | 1568 | 14.19 | 4.05 |
2026-08-29 17:44:34 | 2.4 | NE | 2.82 | 25.55 | 0 | 1028.51 | 46.52 | 1637 | 13.25 | 4.05 |
2026-08-29 17:43:35 | 2.48 | NE | 3.26 | 25.61 | 0 | 1028.47 | 47.46 | 1613 | 13.61 | 4.05 |
2026-08-29 17:42:36 | 1.87 | NE | 2.46 | 25.71 | 0 | 1028.5 | 46.64 | 1634 | 13.43 | 4.05 |
2026-08-29 17:41:37 | 1.72 | NE | 2.46 | 25.79 | 0 | 1028.49 | 47.33 | 1617 | 13.73 | 4.05 |
2026-08-29 17:40:38 | 2.54 | NE | 2.86 | 25.92 | 0 | 1028.45 | 46.37 | 1641 | 13.53 | 4.05 |
2026-08-29 17:39:40 | 2.68 | NE | 3.39 | 26.04 | 0 | 1028.43 | 46.25 | 1644 | 13.6 | 4.05 |
2026-08-29 17:38:41 | 2.64 | NE | 3.7 | 26.26 | 0 | 1028.36 | 45.65 | 1659 | 13.6 | 4.05 |
2026-08-29 17:37:42 | 2.78 | NE | 4.36 | 26.54 | 0 | 1028.39 | 45.42 | 1664 | 13.78 | 4.05 |
2026-08-29 17:36:43 | 1.73 | NE | 3.43 | 26.79 | 0 | 1028.39 | 45.02 | 1674 | 13.87 | 4.05 |
2026-08-29 17:35:44 | 1.04 | NNE | 1.32 | 26.83 | 0 | 1028.42 | 45.28 | 1668 | 13.99 | 4.05 |
2026-08-29 17:34:46 | 1.38 | NNE | 1.98 | 26.89 | 0 | 1028.4 | 45.26 | 1668 | 14.04 | 4.05 |
2026-08-29 17:33:47 | 1.37 | NE | 1.89 | 26.93 | 0 | 1028.44 | 45.23 | 1669 | 14.07 | 4.05 |
2026-08-29 17:32:48 | 1.58 | NE | 2.6 | 26.9 | 0 | 1028.41 | 45.26 | 1668 | 14.05 | 4.05 |
2026-08-29 17:31:49 | 1.49 | NE | 3.26 | 26.88 | 0 | 1028.46 | 44.85 | 1679 | 13.89 | 4.05 |
2026-08-29 17:30:50 | 1.6 | NE | 2.24 | 26.96 | 0 | 1028.48 | 43.72 | 1707 | 13.57 | 4.05 |
2026-08-29 17:29:51 | 2.22 | NE | 3.39 | 27.11 | 0 | 1028.43 | 42.93 | 1727 | 13.43 | 4.05 |
2026-08-29 17:28:52 | 1.18 | NE | 2.38 | 27.29 | 0 | 1028.4 | 42.47 | 1738 | 13.42 | 4.05 |
2026-08-29 17:27:54 | 0.69 | NE | 0.97 | 27.23 | 0 | 1028.45 | 43.97 | 1701 | 13.9 | 4.05 |
2026-08-29 17:26:55 | 1.03 | NNE | 1.72 | 27.1 | 0 | 1028.41 | 42.42 | 1739 | 13.23 | 4.05 |
2026-08-29 17:25:56 | 1.37 | NE | 2.29 | 26.99 | 0 | 1028.5 | 44.78 | 1680 | 13.97 | 4.05 |
2026-08-29 17:24:57 | 1.02 | NNE | 1.28 | 26.89 | 0 | 1028.47 | 43.87 | 1703 | 13.56 | 4.05 |
2026-08-29 17:23:58 | 1.21 | NNE | 1.72 | 26.74 | 0 | 1028.47 | 46.65 | 1634 | 14.37 | 4.05 |
2026-08-29 17:22:59 | 1.63 | N | 2.68 | 26.54 | 0 | 1028.51 | 44.73 | 1682 | 13.54 | 4.05 |
2026-08-29 17:22:00 | 1.27 | NE | 2.07 | 26.43 | 0 | 1028.46 | 45.64 | 1659 | 13.75 | 4.05 |
2026-08-29 17:21:02 | 1.62 | NE | 2.77 | 26.28 | 0 | 1028.46 | 44.81 | 1680 | 13.33 | 4.05 |
2026-08-29 17:20:03 | 1.34 | ENE | 1.76 | 26.17 | 0 | 1028.47 | 45.19 | 1670 | 13.36 | 4.05 |
2026-08-29 17:19:04 | 1.54 | ENE | 2.51 | 26.1 | 0 | 1028.41 | 47.98 | 1600 | 14.22 | 4.05 |
2026-08-29 17:18:05 | 1.72 | ENE | 2.46 | 26.1 | 0 | 1028.39 | 45.98 | 1650 | 13.57 | 4.05 |
2026-08-29 17:17:06 | 2.29 | ENE | 3.43 | 26.06 | 0 | 1028.43 | 45.86 | 1653 | 13.49 | 4.05 |
2026-08-29 17:16:07 | 1.55 | ENE | 2.38 | 26.1 | 0 | 1028.4 | 46.02 | 1649 | 13.58 | 4.05 |
2026-08-29 17:15:09 | 1.39 | NE | 1.85 | 26.09 | 0 | 1028.35 | 45.49 | 1663 | 13.39 | 4.05 |
2026-08-29 17:14:10 | 0.84 | ENE | 1.36 | 25.99 | 0 | 1028.34 | 47 | 1625 | 13.8 | 4.05 |
2026-08-29 17:13:11 | 0.9 | E | 1.54 | 25.83 | 0 | 1028.37 | 47.9 | 1602 | 13.95 | 4.05 |
2026-08-29 17:12:12 | 0.79 | NE | 1.28 | 25.64 | 0 | 1028.38 | 47.46 | 1613 | 13.63 | 4.05 |
2026-08-29 17:11:13 | 0.68 | E | 1.14 | 25.6 | 0 | 1028.42 | 48.01 | 1600 | 13.78 | 4.05 |
2026-08-29 17:09:16 | 1.33 | NNW | 2.29 | 25.66 | 0 | 1028.51 | 46.77 | 1631 | 13.43 | 4.05 |
2026-08-29 17:08:17 | 0.75 | NW | 1.63 | 25.73 | 0 | 1028.59 | 47.3 | 1617 | 13.66 | 4.05 |
2026-08-29 17:07:18 | 0.97 | NNW | 1.36 | 25.93 | 0 | 1028.55 | 47.42 | 1614 | 13.89 | 4.05 |
2026-08-29 17:06:19 | 1.32 | N | 2.11 | 26.03 | 0 | 1028.52 | 44.57 | 1686 | 13.02 | 4.05 |
2026-08-29 17:05:20 | 1.17 | ESE | 1.94 | 26.2 | 0 | 1028.52 | 44.17 | 1696 | 13.04 | 4.05 |
2026-08-29 17:04:21 | 1.27 | NW | 2.64 | 26.23 | 0 | 1028.53 | 45.11 | 1672 | 13.39 | 4.05 |
2026-08-29 17:03:23 | 1.41 | NW | 2.16 | 26.21 | 0 | 1028.48 | 44.34 | 1691 | 13.11 | 4.05 |
2026-08-29 17:02:24 | 1.6 | NNE | 2.86 | 26.21 | 0 | 1028.5 | 43.89 | 1703 | 12.95 | 4.05 |
2026-08-29 17:01:25 | 1.43 | NNE | 2.07 | 26.17 | 0 | 1028.5 | 45.37 | 1666 | 13.42 | 4.05 |
2026-08-29 17:00:26 | 2.71 | NE | 3.7 | 26.24 | 0 | 1028.5 | 44.35 | 1691 | 13.14 | 4.05 |
2026-08-29 16:59:27 | 2.66 | NE | 4.14 | 26.52 | 0 | 1028.5 | 44.82 | 1679 | 13.55 | 4.05 |
2026-08-29 16:58:28 | 1.11 | ENE | 2.02 | 26.68 | 0 | 1028.52 | 44.35 | 1691 | 13.54 | 4.05 |
2026-08-29 16:57:30 | 0.92 | NNW | 1.41 | 26.56 | 0 | 1028.52 | 43.74 | 1706 | 13.22 | 4.05 |
2026-08-29 16:56:31 | 1.57 | WNW | 2.33 | 26.36 | 0 | 1028.5 | 43.83 | 1704 | 13.07 | 4.05 |
2026-08-29 16:55:32 | 1.11 | NNE | 1.45 | 26.15 | 0 | 1028.52 | 46.59 | 1635 | 13.81 | 4.05 |
2026-08-29 16:54:33 | 1.87 | NNE | 2.6 | 25.97 | 0 | 1028.46 | 46.16 | 1646 | 13.51 | 4.05 |
2026-08-29 16:53:34 | 2.95 | ENE | 4.27 | 25.96 | 0 | 1028.46 | 44.49 | 1688 | 12.93 | 4.05 |
2026-08-29 16:52:35 | 2.28 | NE | 3.48 | 26.06 | 0 | 1028.47 | 45.87 | 1653 | 13.49 | 4.05 |
2026-08-29 16:51:36 | 2.41 | ENE | 3.43 | 26.12 | 0 | 1028.47 | 44.05 | 1699 | 12.93 | 4.05 |
2026-08-29 16:50:37 | 1.72 | NE | 2.42 | 26.15 | 0 | 1028.46 | 45.1 | 1672 | 13.31 | 4.05 |
2026-08-29 16:49:38 | 1.49 | NW | 2.33 | 26.1 | 0 | 1028.45 | 45.96 | 1651 | 13.56 | 4.05 |
2026-08-29 16:48:40 | 1.87 | N | 2.77 | 26.06 | 0 | 1028.47 | 45.29 | 1668 | 13.3 | 4.05 |
2026-08-29 16:47:41 | 2.03 | NE | 2.64 | 26.03 | 0 | 1028.51 | 47.79 | 1605 | 14.1 | 4.05 |
2026-08-29 16:46:42 | 2.65 | NE | 4.05 | 25.97 | 0 | 1028.47 | 45.38 | 1665 | 13.25 | 4.05 |
2026-08-29 16:45:42 | 2.73 | NE | 3.26 | 26.04 | 0 | 1028.53 | 44.29 | 1693 | 12.94 | 4.05 |
2026-08-29 16:44:43 | 3 | ENE | 4.93 | 26.21 | 0 | 1028.43 | 43.68 | 1708 | 12.88 | 4.05 |
2026-08-29 16:43:44 | 2.51 | NE | 4.14 | 26.34 | 0 | 1028.48 | 44.15 | 1696 | 13.16 | 4.05 |
2026-08-29 16:42:45 | 1.71 | NE | 2.68 | 26.44 | 0 | 1028.5 | 44.69 | 1683 | 13.44 | 4.05 |
2026-08-29 16:41:46 | 1.27 | NNE | 1.85 | 26.34 | 0 | 1028.53 | 44.72 | 1682 | 13.36 | 4.05 |
2026-08-29 16:40:48 | 1.3 | NNE | 1.76 | 26.26 | 0 | 1028.5 | 45.48 | 1663 | 13.54 | 4.05 |
2026-08-29 16:39:49 | 0.59 | WNW | 0.79 | 26.04 | 0 | 1028.48 | 47.43 | 1614 | 13.99 | 4.05 |
2026-08-29 16:38:50 | 2.2 | N | 2.82 | 25.82 | 0 | 1028.52 | 45.58 | 1660 | 13.18 | 4.05 |
2026-08-29 16:37:51 | 3.15 | ENE | 4.22 | 25.76 | 0 | 1028.51 | 44.63 | 1684 | 12.8 | 4.05 |
2026-08-29 16:36:52 | 2.85 | NE | 4.49 | 25.76 | 0 | 1028.54 | 45.06 | 1673 | 12.95 | 4.05 |
2026-08-29 16:35:53 | 2.95 | NE | 5.02 | 25.76 | 0 | 1028.49 | 45.79 | 1655 | 13.19 | 4.05 |
2026-08-29 16:34:54 | 2.97 | E | 5.06 | 25.81 | 0 | 1028.48 | 46.79 | 1630 | 13.57 | 4.05 |
2026-08-29 16:33:55 | 3.24 | NE | 5.15 | 25.92 | 0 | 1028.42 | 44.23 | 1694 | 12.81 | 4.05 |
2026-08-29 16:32:56 | 2.45 | NE | 3.3 | 26.03 | 0 | 1028.42 | 46.03 | 1649 | 13.52 | 4.05 |
2026-08-29 16:31:57 | 2.8 | NE | 4.62 | 26.09 | 0 | 1028.46 | 46.34 | 1641 | 13.68 | 4.05 |
2026-08-29 16:30:58 | 2.18 | NE | 3.39 | 26.2 | 0 | 1028.36 | 46.39 | 1640 | 13.79 | 4.05 |
2026-08-29 16:30:00 | 2.52 | ENE | 3.7 | 26.3 | 0 | 1028.38 | 46.32 | 1642 | 13.86 | 4.05 |
2026-08-29 16:29:01 | 1.73 | NE | 2.73 | 26.43 | 0 | 1028.4 | 45.83 | 1654 | 13.82 | 4.05 |
2026-08-29 16:28:02 | 1.96 | ENE | 2.82 | 26.47 | 0 | 1028.48 | 46.36 | 1641 | 14.03 | 4.05 |
2026-08-29 16:27:03 | 1.8 | NE | 2.82 | 26.45 | 0 | 1028.53 | 45.38 | 1665 | 13.68 | 4.05 |
2026-08-29 16:26:04 | 2.29 | NE | 3.83 | 26.51 | 0 | 1028.53 | 44.91 | 1677 | 13.58 | 4.05 |
2026-08-29 16:25:05 | 1.03 | NNW | 1.28 | 26.51 | 0 | 1028.55 | 44.16 | 1696 | 13.32 | 4.05 |
2026-08-29 16:24:06 | 1.09 | NNW | 2.02 | 26.4 | 0 | 1028.55 | 44.17 | 1696 | 13.22 | 4.05 |
2026-08-29 16:23:07 | 1.01 | NE | 1.32 | 26.27 | 0 | 1028.53 | 46.62 | 1634 | 13.93 | 4.05 |
2026-08-29 16:22:08 | 1.87 | NNE | 3.17 | 26.23 | 0 | 1028.57 | 44.99 | 1675 | 13.35 | 4.05 |
2026-08-29 16:21:09 | 3.06 | ENE | 5.06 | 26.27 | 0 | 1028.59 | 45.4 | 1665 | 13.53 | 4.05 |
2026-08-29 16:20:10 | 2.78 | NE | 3.74 | 26.45 | 0 | 1028.54 | 45.8 | 1655 | 13.82 | 4.05 |
2026-08-29 16:19:11 | 2.46 | ENE | 3.61 | 26.59 | 0 | 1028.54 | 45.23 | 1669 | 13.76 | 4.05 |
2026-08-29 16:18:12 | 1.54 | ENE | 2.86 | 26.7 | 0 | 1028.57 | 47.08 | 1623 | 14.48 | 4.05 |
2026-08-29 16:17:13 | 1.1 | NE | 1.41 | 26.59 | 0 | 1028.61 | 45.38 | 1665 | 13.81 | 4.05 |
2026-08-29 16:16:14 | 1.81 | E | 2.6 | 26.55 | 0 | 1028.61 | 43.99 | 1700 | 13.29 | 4.05 |
2026-08-29 16:15:15 | 1.92 | ENE | 3.65 | 26.51 | 0 | 1028.63 | 44.52 | 1687 | 13.44 | 4.05 |
2026-08-29 16:14:16 | 2.18 | NNE | 3.39 | 26.5 | 0 | 1028.67 | 43.99 | 1700 | 13.25 | 4.05 |
2026-08-29 16:13:17 | 1.65 | NNE | 2.55 | 26.44 | 0 | 1028.71 | 45.92 | 1652 | 13.86 | 4.05 |
2026-08-29 16:12:18 | 1.6 | NE | 2.55 | 26.33 | 0 | 1028.69 | 47.33 | 1617 | 14.22 | 4.05 |
2026-08-29 16:11:19 | 1.69 | NE | 2.11 | 26.16 | 0 | 1028.68 | 45.79 | 1655 | 13.56 | 4.05 |
2026-08-29 16:10:20 | 2.54 | NE | 3.12 | 26.19 | 0 | 1028.66 | 44.91 | 1677 | 13.29 | 4.05 |
2026-08-29 16:09:21 | 2.59 | NE | 3.92 | 26.33 | 0 | 1028.68 | 46.04 | 1649 | 13.8 | 4.05 |
2026-08-29 16:08:22 | 2.12 | ENE | 3.65 | 26.51 | 0 | 1028.62 | 45.97 | 1651 | 13.94 | 4.05 |
2026-08-29 16:07:23 | 1.73 | N | 2.38 | 26.56 | 0 | 1028.66 | 46.03 | 1649 | 14 | 4.05 |
2026-08-29 16:06:24 | 1.6 | N | 2.64 | 26.64 | 0 | 1028.67 | 43.8 | 1705 | 13.31 | 4.05 |
2026-08-29 16:05:25 | 2.7 | NNW | 4.97 | 26.7 | 0 | 1028.67 | 43.81 | 1705 | 13.37 | 4.05 |
2026-08-29 16:04:26 | 1.3 | WNW | 2.55 | 26.74 | 0 | 1028.69 | 45.84 | 1654 | 14.1 | 4.05 |
2026-08-29 16:03:27 | 1.33 | SSE | 1.63 | 26.67 | 0 | 1028.69 | 47.87 | 1603 | 14.71 | 4.05 |
2026-08-29 16:02:28 | 2.03 | N | 3.04 | 26.5 | 0 | 1028.76 | 47.15 | 1621 | 14.32 | 4.05 |
2026-08-29 16:01:30 | 1.25 | ENE | 1.8 | 26.41 | 0 | 1028.75 | 46.73 | 1632 | 14.1 | 4.05 |
2026-08-29 16:00:31 | 1.57 | NE | 2.9 | 26.24 | 0 | 1028.76 | 47.3 | 1617 | 14.13 | 4.05 |
2026-08-29 15:59:32 | 1.96 | NNE | 3.34 | 26.13 | 0 | 1028.78 | 47.32 | 1617 | 14.04 | 4.05 |
2026-08-29 15:58:33 | 1.89 | NNE | 2.6 | 25.97 | 0 | 1028.83 | 46.7 | 1632 | 13.69 | 4.05 |
2026-08-29 15:57:34 | 2.83 | N | 3.61 | 25.88 | 0 | 1028.87 | 46.79 | 1630 | 13.63 | 4.05 |
2026-08-29 15:56:35 | 2.62 | NNW | 2.95 | 25.73 | 0 | 1028.92 | 47.29 | 1618 | 13.66 | 4.05 |
2026-08-29 15:55:36 | 4.15 | ENE | 5.76 | 25.65 | 0 | 1028.89 | 48.49 | 1588 | 13.97 | 4.05 |
2026-08-29 15:54:37 | 3.59 | NE | 4.49 | 25.89 | 0 | 1028.84 | 47.14 | 1621 | 13.76 | 4.05 |
2026-08-29 15:53:38 | 3.29 | ENE | 4.53 | 26.19 | 0 | 1028.88 | 45.37 | 1666 | 13.44 | 4.05 |
2026-08-29 15:52:40 | 3.03 | ENE | 4.27 | 26.51 | 0 | 1028.93 | 48.03 | 1599 | 14.61 | 4.05 |
2026-08-29 15:51:41 | 2.53 | ENE | 3.17 | 26.65 | 0 | 1028.94 | 47.47 | 1613 | 14.56 | 4.05 |
2026-08-29 15:50:42 | 1.38 | ENE | 2.07 | 26.78 | 0 | 1028.99 | 46.53 | 1637 | 14.37 | 4.05 |
2026-08-29 15:49:43 | 1.56 | NW | 2.33 | 26.71 | 0 | 1029.03 | 47.22 | 1619 | 14.53 | 4.05 |
2026-08-29 15:48:44 | 0.87 | N | 1.54 | 26.56 | 0 | 1029 | 48.47 | 1588 | 14.8 | 4.05 |
2026-08-29 15:47:45 | 1.45 | NNE | 2.11 | 26.33 | 0 | 1029.02 | 50.42 | 1539 | 15.2 | 4.05 |
2026-08-29 15:46:46 | 1.32 | N | 2.38 | 26.13 | 0 | 1029.02 | 49.97 | 1551 | 14.88 | 4.05 |
2026-08-29 15:45:48 | 2.02 | N | 3.74 | 25.97 | 0 | 1029.01 | 49.92 | 1552 | 14.72 | 4.05 |
2026-08-29 15:44:49 | 1.53 | NW | 2.29 | 25.86 | 0 | 1029.01 | 51.26 | 1518 | 15.03 | 4.05 |
2026-08-29 15:43:50 | 2.14 | E | 3.04 | 25.81 | 0 | 1029.08 | 49.59 | 1560 | 14.47 | 4.05 |
2026-08-29 15:42:51 | 2.01 | N | 3.08 | 25.81 | 0 | 1029.07 | 48.05 | 1599 | 13.98 | 4.05 |
2026-08-29 15:41:52 | 1.8 | NNE | 3.48 | 25.85 | 0 | 1029.09 | 51.32 | 1517 | 15.04 | 4.05 |
2026-08-29 15:40:02 | 2.32 | NNE | 3.04 | 26.06 | 0 | 1029.11 | 46.33 | 1642 | 13.65 | 4.05 |
2026-08-29 15:39:03 | 2.15 | NNE | 3.26 | 26.23 | 0 | 1029.12 | 46.4 | 1640 | 13.82 | 4.05 |
2026-08-29 15:38:04 | 1.88 | N | 2.55 | 26.21 | 0 | 1029.03 | 48.31 | 1592 | 14.43 | 4.05 |
2026-08-29 15:37:05 | 1.63 | NNW | 2.46 | 26.15 | 0 | 1029.12 | 47.81 | 1605 | 14.21 | 4.05 |
2026-08-29 15:36:06 | 1.03 | ENE | 1.76 | 25.95 | 0 | 1029.13 | 48.84 | 1579 | 14.36 | 4.05 |
2026-08-29 15:35:07 | 1.26 | NNE | 2.46 | 25.73 | 0 | 1029.15 | 48.47 | 1588 | 14.04 | 4.05 |
2026-08-29 15:34:09 | 1.81 | NE | 2.77 | 25.6 | 0 | 1029.19 | 49.6 | 1560 | 14.28 | 4.05 |
2026-08-29 15:33:10 | 1.81 | ESE | 3.34 | 25.45 | 0 | 1029.21 | 49.79 | 1555 | 14.2 | 4.05 |
2026-08-29 15:32:11 | 1.9 | NNE | 3.08 | 25.2 | 0 | 1029.17 | 50.78 | 1530 | 14.27 | 4.05 |
2026-08-29 15:31:12 | 1.57 | WNW | 2.77 | 24.9 | 0 | 1029.2 | 50.56 | 1536 | 13.93 | 4.05 |
2026-08-29 15:30:14 | 1.31 | E | 3.34 | 24.65 | 0 | 1029.27 | 52.95 | 1476 | 14.41 | 4.05 |
2026-08-29 15:29:15 | 1.92 | ENE | 3.52 | 24.38 | 0 | 1029.28 | 52.21 | 1495 | 13.95 | 4.05 |
2026-08-29 15:28:16 | 1.17 | SE | 2.16 | 24.27 | 0 | 1029.26 | 53.33 | 1467 | 14.17 | 4.05 |
2026-08-29 15:27:17 | 0.8 | W | 1.58 | 24.21 | 0 | 1029.24 | 55.87 | 1403 | 14.84 | 4.05 |
2026-08-29 15:26:19 | 1.09 | NNE | 2.07 | 24.13 | 0 | 1029.24 | 54.09 | 1448 | 14.26 | 4.05 |
2026-08-29 15:25:20 | 1.13 | N | 1.41 | 24.09 | 0 | 1029.17 | 54.92 | 1427 | 14.46 | 4.05 |
2026-08-29 15:24:21 | 2.36 | ENE | 3.74 | 24.01 | 0 | 1029.17 | 52.56 | 1486 | 13.71 | 4.05 |
2026-08-29 15:23:22 | 2.08 | NE | 2.86 | 24.04 | 0 | 1029.17 | 53.1 | 1472 | 13.89 | 4.05 |
2026-08-29 15:22:24 | 2.17 | ENE | 2.86 | 24.04 | 0 | 1029.2 | 53.65 | 1459 | 14.05 | 4.05 |
2026-08-29 15:21:25 | 3.21 | E | 4.58 | 24.06 | 0 | 1029.21 | 53.21 | 1470 | 13.94 | 4.05 |
2026-08-29 15:20:26 | 2.27 | N | 3.87 | 24.16 | 0 | 1029.27 | 52.83 | 1479 | 13.93 | 4.05 |
2026-08-29 15:19:27 | 2.11 | ENE | 2.99 | 24.2 | 0 | 1029.25 | 53.72 | 1457 | 14.22 | 4.05 |
2026-08-29 15:18:29 | 2.69 | NE | 3.17 | 24.28 | 0 | 1029.29 | 52.54 | 1486 | 13.95 | 4.05 |
2026-08-29 15:17:29 | 2.72 | NNE | 4.09 | 24.39 | 0 | 1029.27 | 52 | 1500 | 13.89 | 4.05 |
2026-08-29 15:16:30 | 3.56 | ENE | 4.84 | 24.59 | 0 | 1029.31 | 50.81 | 1530 | 13.72 | 4.05 |
2026-08-29 15:15:31 | 2.21 | NNE | 3.21 | 24.82 | 0 | 1029.3 | 51.86 | 1503 | 14.25 | 4.05 |
2026-08-29 15:14:33 | 1.9 | NE | 2.9 | 24.97 | 0 | 1029.31 | 50.76 | 1531 | 14.06 | 4.05 |
2026-08-29 15:13:34 | 1.89 | NNW | 2.24 | 25.14 | 0 | 1029.34 | 51.12 | 1522 | 14.32 | 4.05 |
2026-08-29 15:12:35 | 2.45 | ENE | 3.3 | 25.3 | 0 | 1029.36 | 51.51 | 1512 | 14.59 | 4.05 |
2026-08-29 15:11:36 | 1.67 | ENE | 3.34 | 25.51 | 0 | 1029.4 | 52.88 | 1478 | 15.19 | 4.05 |
2026-08-29 15:10:37 | 0.95 | NNW | 1.89 | 25.45 | 0 | 1029.4 | 50.32 | 1542 | 14.36 | 4.05 |
2026-08-29 15:09:38 | 1.4 | NNE | 2.55 | 25.42 | 0 | 1029.39 | 50.82 | 1529 | 14.49 | 4.05 |
2026-08-29 15:08:39 | 1.05 | E | 1.98 | 25.38 | 0 | 1029.39 | 52.08 | 1498 | 14.83 | 4.05 |
2026-08-29 15:07:40 | 2.13 | NNE | 3.26 | 25.31 | 0 | 1029.41 | 51.76 | 1506 | 14.67 | 4.05 |
2026-08-29 15:06:42 | 2.36 | NE | 3.52 | 25.37 | 0 | 1029.43 | 50.2 | 1545 | 14.25 | 4.05 |
2026-08-29 15:05:43 | 1.37 | N | 1.85 | 25.44 | 0 | 1029.41 | 51.69 | 1508 | 14.77 | 4.05 |
2026-08-29 15:04:44 | 1.17 | SSE | 1.54 | 25.38 | 0 | 1029.44 | 50.53 | 1537 | 14.36 | 4.05 |
2026-08-29 15:03:45 | 1.78 | N | 2.95 | 25.33 | 0 | 1029.46 | 50.32 | 1542 | 14.25 | 4.05 |
2026-08-29 15:02:46 | 2.2 | ENE | 3.3 | 25.37 | 0 | 1029.51 | 50.99 | 1525 | 14.49 | 4.05 |
2026-08-29 15:01:48 | 1.88 | E | 2.29 | 25.44 | 0 | 1029.49 | 50.82 | 1529 | 14.51 | 4.05 |
2026-08-29 15:00:49 | 1.92 | NNE | 4.58 | 25.42 | 0 | 1029.51 | 50.09 | 1548 | 14.27 | 4.05 |
2026-08-29 14:59:50 | 1.72 | ENE | 2.9 | 25.36 | 0 | 1029.52 | 52.28 | 1493 | 14.87 | 4.06 |
2026-08-29 14:58:51 | 3.14 | NNE | 4.09 | 25.27 | 0 | 1029.57 | 52.4 | 1490 | 14.83 | 4.06 |
2026-08-29 14:57:52 | 2.29 | ENE | 3.08 | 25.07 | 0 | 1029.59 | 53.71 | 1457 | 15.02 | 4.06 |
2026-08-29 14:56:54 | 1.16 | NNW | 1.41 | 24.85 | 0 | 1029.67 | 53.24 | 1469 | 14.68 | 4.05 |
2026-08-29 14:55:55 | 3.13 | NNE | 4.36 | 24.75 | 0 | 1029.6 | 51.76 | 1506 | 14.16 | 4.06 |
2026-08-29 14:54:56 | 4.39 | NNE | 6.64 | 24.87 | 0 | 1029.57 | 49.59 | 1560 | 13.61 | 4.06 |
2026-08-29 14:53:57 | 2.01 | E | 2.82 | 25.05 | 0 | 1029.57 | 52.61 | 1485 | 14.68 | 4.06 |
2026-08-29 14:52:58 | 2.72 | E | 4.75 | 25.02 | 0 | 1029.51 | 51.24 | 1519 | 14.25 | 4.05 |
2026-08-29 14:51:01 | 3.94 | ENE | 5.46 | 24.96 | 0 | 1029.42 | 52.12 | 1497 | 14.46 | 4.06 |
2026-08-29 14:50:02 | 4.05 | NE | 5.68 | 24.75 | 0 | 1029.46 | 52.87 | 1478 | 14.48 | 4.06 |
2026-08-29 14:49:03 | 2.91 | ENE | 5.06 | 24.59 | 0 | 1029.54 | 53.38 | 1465 | 14.48 | 4.06 |
2026-08-29 14:48:04 | 2.77 | NE | 3.43 | 24.35 | 0 | 1029.63 | 53 | 1475 | 14.15 | 4.06 |
2026-08-29 14:47:05 | 2.98 | NE | 5.19 | 24.23 | 0 | 1029.6 | 52.68 | 1483 | 13.95 | 4.06 |
2026-08-29 14:46:06 | 1.26 | N | 1.5 | 24.17 | 0 | 1029.64 | 56.71 | 1382 | 15.03 | 4.06 |
2026-08-29 14:45:08 | 2.13 | NNW | 3.17 | 24.04 | 0 | 1029.6 | 53.83 | 1454 | 14.1 | 4.06 |
2026-08-29 14:44:09 | 2.55 | NE | 3.3 | 24 | 0 | 1029.59 | 55.28 | 1418 | 14.48 | 4.06 |
2026-08-29 14:43:10 | 4.58 | ENE | 5.54 | 24.04 | 0 | 1029.48 | 52.9 | 1477 | 13.84 | 4.06 |
2026-08-29 14:42:11 | 4.67 | ENE | 6.16 | 24.17 | 0 | 1029.5 | 53.91 | 1452 | 14.25 | 4.06 |
2026-08-29 14:41:12 | 4.67 | ENE | 5.98 | 24.27 | 0 | 1029.49 | 53.62 | 1459 | 14.26 | 4.06 |
2026-08-29 14:40:14 | 4.6 | ENE | 5.1 | 24.24 | 0 | 1029.53 | 53.77 | 1456 | 14.27 | 4.06 |
2026-08-29 14:39:15 | 5.37 | NE | 6.29 | 24.37 | 0 | 1029.55 | 52.35 | 1491 | 13.98 | 4.06 |
2026-08-29 14:38:16 | 3.3 | ENE | 4.05 | 24.47 | 0 | 1029.67 | 55.93 | 1402 | 15.1 | 4.06 |
2026-08-29 14:37:17 | 3.45 | NE | 5.15 | 24.39 | 0 | 1029.67 | 54.24 | 1444 | 14.55 | 4.06 |
2026-08-29 14:36:18 | 4.13 | ENE | 5.37 | 24.39 | 0 | 1029.75 | 56.48 | 1388 | 15.18 | 4.06 |
2026-08-29 14:35:20 | 3.18 | NE | 4.4 | 24.48 | 0 | 1029.68 | 55.55 | 1411 | 15 | 4.06 |
2026-08-29 14:34:21 | 2.29 | ENE | 3.56 | 24.55 | 0 | 1029.76 | 55.47 | 1413 | 15.04 | 4.06 |
2026-08-29 14:33:22 | 3.35 | ENE | 3.83 | 24.62 | 0 | 1029.74 | 53.38 | 1465 | 14.51 | 4.06 |
2026-08-29 14:32:23 | 3.65 | NE | 4.75 | 24.78 | 0 | 1029.76 | 54.44 | 1439 | 14.97 | 4.06 |
2026-08-29 14:31:24 | 3.43 | ENE | 5.5 | 24.82 | 0 | 1029.74 | 52.57 | 1486 | 14.46 | 4.06 |
2026-08-29 14:30:25 | 3.33 | ENE | 4.05 | 24.82 | 0 | 1029.89 | 52.46 | 1488 | 14.43 | 4.06 |
2026-08-29 14:29:27 | 2.47 | NE | 3.7 | 24.83 | 0 | 1029.88 | 51.69 | 1508 | 14.21 | 4.06 |
2026-08-29 14:28:28 | 3.41 | NE | 4.75 | 24.76 | 0 | 1029.93 | 52.5 | 1487 | 14.38 | 4.06 |
2026-08-29 14:27:29 | 3.46 | NE | 5.06 | 24.79 | 0 | 1029.89 | 52.39 | 1490 | 14.38 | 4.06 |
2026-08-29 14:26:30 | 4.61 | ENE | 6.47 | 24.61 | 0 | 1029.88 | 54.14 | 1446 | 14.72 | 4.06 |
2026-08-29 14:25:31 | 3.9 | ENE | 5.81 | 24.48 | 0 | 1029.84 | 51.38 | 1515 | 13.79 | 4.06 |
2026-08-29 14:23:33 | 2.81 | ENE | 3.83 | 24.01 | 0 | 1029.86 | 55.48 | 1413 | 14.54 | 4.06 |
2026-08-29 14:22:35 | 3.91 | ENE | 6.56 | 23.79 | 0 | 1029.88 | 54.39 | 1440 | 14.03 | 4.06 |
2026-08-29 14:21:36 | 3.75 | NE | 5.72 | 23.83 | 0 | 1029.91 | 54.66 | 1433 | 14.15 | 4.06 |
2026-08-29 14:20:37 | 4.24 | NE | 5.02 | 23.87 | 0 | 1029.9 | 53.56 | 1461 | 13.87 | 4.06 |
2026-08-29 14:19:38 | 3.63 | NE | 5.1 | 24.03 | 0 | 1029.95 | 53.91 | 1452 | 14.12 | 4.06 |
2026-08-29 14:18:39 | 2.44 | ENE | 2.9 | 24.14 | 0 | 1029.95 | 54.75 | 1431 | 14.46 | 4.06 |
2026-08-29 14:17:40 | 3.27 | NE | 4.84 | 24.27 | 0 | 1029.9 | 52.89 | 1478 | 14.05 | 4.06 |
2026-08-29 14:16:42 | 2.74 | NNE | 3.78 | 24.32 | 0 | 1030.04 | 53.38 | 1465 | 14.23 | 4.06 |
2026-08-29 14:15:43 | 2.7 | ENE | 3.96 | 24.45 | 0 | 1030.02 | 54.22 | 1444 | 14.6 | 4.06 |
2026-08-29 14:14:44 | 1.89 | NE | 3.12 | 24.55 | 0 | 1029.96 | 54.47 | 1438 | 14.76 | 4.06 |
2026-08-29 14:13:45 | 2.13 | ENE | 3.56 | 24.48 | 0 | 1029.92 | 53.73 | 1457 | 14.48 | 4.06 |
2026-08-29 14:12:46 | 2.72 | NE | 5.28 | 24.48 | 0 | 1029.89 | 53.04 | 1474 | 14.28 | 4.06 |
2026-08-29 14:11:48 | 1.96 | NE | 3.12 | 24.48 | 0 | 1029.96 | 54.44 | 1439 | 14.69 | 4.06 |
2026-08-29 14:10:48 | 2.63 | NE | 3.87 | 24.56 | 0 | 1029.92 | 54.24 | 1444 | 14.7 | 4.06 |
2026-08-29 14:09:50 | 2.42 | ENE | 3.26 | 24.65 | 0 | 1029.99 | 55.85 | 1404 | 15.24 | 4.06 |
2026-08-29 14:08:51 | 3.97 | NE | 4.84 | 24.61 | 0 | 1029.96 | 52.02 | 1499 | 14.1 | 4.06 |
2026-08-29 14:07:52 | 4.56 | ENE | 6.69 | 24.71 | 0 | 1029.85 | 52.25 | 1494 | 14.26 | 4.06 |
2026-08-29 14:06:53 | 3.85 | NE | 4.53 | 24.61 | 0 | 1029.85 | 53.57 | 1461 | 14.56 | 4.06 |
2026-08-29 14:05:54 | 4.54 | NE | 6.29 | 24.38 | 0 | 1029.83 | 52.86 | 1478 | 14.14 | 4.06 |
2026-08-29 14:04:55 | 5.7 | ENE | 7.66 | 24.37 | 0 | 1029.91 | 52.79 | 1480 | 14.11 | 4.06 |
2026-08-29 14:03:57 | 4 | NE | 6.42 | 24.24 | 0 | 1029.99 | 55.99 | 1400 | 14.9 | 4.06 |
2026-08-29 14:02:58 | 5.49 | NE | 6.86 | 24.19 | 0 | 1029.85 | 51.89 | 1503 | 13.68 | 4.06 |
2026-08-29 14:01:59 | 4.56 | NE | 5.68 | 24.25 | 0 | 1029.84 | 52.07 | 1498 | 13.79 | 4.06 |
2026-08-29 14:01:00 | 5.65 | NE | 7.04 | 24.23 | 0 | 1029.88 | 53.9 | 1452 | 14.3 | 4.06 |
2026-08-29 14:00:02 | 5.56 | NE | 7.48 | 24.31 | 0 | 1029.86 | 52.13 | 1497 | 13.86 | 4.06 |
2026-08-29 13:59:03 | 5.32 | ENE | 7.04 | 24.45 | 0 | 1029.84 | 52.49 | 1488 | 14.09 | 4.06 |
2026-08-29 13:58:04 | 4.97 | NE | 7.26 | 24.51 | 0 | 1029.84 | 52.56 | 1486 | 14.17 | 4.06 |
2026-08-29 13:57:05 | 3.84 | ENE | 4.62 | 24.14 | 0 | 1029.88 | 58.01 | 1350 | 15.36 | 4.06 |
2026-08-29 13:56:06 | 4.76 | E | 6.56 | 23.79 | 0 | 1029.89 | 56.83 | 1379 | 14.71 | 4.06 |
2026-08-29 13:55:07 | 6.18 | E | 7.79 | 23.61 | 0 | 1029.8 | 53.69 | 1458 | 13.67 | 4.06 |
2026-08-29 13:54:08 | 4.12 | ENE | 4.84 | 23.68 | 0 | 1029.87 | 56.56 | 1386 | 14.54 | 4.06 |
2026-08-29 13:53:10 | 2.86 | N | 3.52 | 23.49 | 0 | 1029.97 | 58.27 | 1343 | 14.82 | 4.06 |
2026-08-29 13:52:11 | 5.11 | NE | 6.25 | 23.34 | 0 | 1029.95 | 55.15 | 1421 | 13.83 | 4.06 |
2026-08-29 13:51:12 | 3.28 | ENE | 5.81 | 23.52 | 0 | 1029.99 | 56.89 | 1378 | 14.48 | 4.06 |
2026-08-29 13:50:13 | 2.83 | ENE | 4.05 | 23.51 | 0 | 1030.04 | 57.37 | 1366 | 14.6 | 4.06 |
2026-08-29 13:49:15 | 2.31 | ENE | 4.31 | 23.49 | 0 | 1030.03 | 58.93 | 1327 | 14.99 | 4.06 |
2026-08-29 13:48:16 | 3.39 | E | 4.58 | 23.47 | 0 | 1030.05 | 58.23 | 1344 | 14.79 | 4.06 |
2026-08-29 13:47:17 | 3.87 | ENE | 5.24 | 23.47 | 0 | 1030.05 | 56.41 | 1390 | 14.3 | 4.06 |
2026-08-29 13:46:18 | 4.57 | NE | 6.47 | 23.41 | 0 | 1030.07 | 55.41 | 1415 | 13.97 | 4.06 |
2026-08-29 13:45:19 | 4.2 | ENE | 5.41 | 23.48 | 0 | 1030.09 | 56.35 | 1391 | 14.29 | 4.06 |
2026-08-29 13:44:20 | 4.57 | NE | 6.12 | 23.54 | 0 | 1030.05 | 54.93 | 1427 | 13.95 | 4.06 |
2026-08-29 13:43:22 | 4.19 | ENE | 5.72 | 23.69 | 0 | 1030.18 | 54.3 | 1442 | 13.91 | 4.06 |
2026-08-29 13:42:23 | 4.3 | NE | 7.04 | 23.86 | 0 | 1030.18 | 54.71 | 1432 | 14.19 | 4.06 |
2026-08-29 13:41:21 | 2.61 | NNE | 4.49 | 24.06 | 0 | 1030.16 | 54.85 | 1429 | 14.41 | 4.06 |
2026-08-29 13:40:21 | 4.03 | E | 5.37 | 24.13 | 0 | 1030.19 | 53.42 | 1464 | 14.07 | 4.06 |
2026-08-29 13:39:22 | 3.53 | ENE | 5.37 | 24.14 | 0 | 1030.16 | 55.89 | 1403 | 14.78 | 4.06 |
2026-08-29 13:38:23 | 3.13 | NNE | 4.18 | 23.95 | 0 | 1030.08 | 55.53 | 1412 | 14.5 | 4.06 |
2026-08-29 13:37:25 | 4.75 | ENE | 6.82 | 23.79 | 0 | 1030.07 | 55.34 | 1416 | 14.3 | 4.06 |
2026-08-29 13:36:26 | 5.56 | NE | 7.74 | 23.89 | 0 | 1029.78 | 53.06 | 1473 | 13.74 | 4.06 |
2026-08-29 13:35:27 | 4.81 | NNE | 7.22 | 24.17 | 0 | 1029.98 | 51.84 | 1504 | 13.64 | 4.06 |
2026-08-29 13:34:28 | 3.92 | NE | 4.49 | 24.28 | 0 | 1029.94 | 53.71 | 1457 | 14.29 | 4.06 |
2026-08-29 13:33:29 | 4.85 | NNE | 6.73 | 24.38 | 0 | 1029.92 | 52.14 | 1496 | 13.93 | 4.06 |
2026-08-29 13:32:30 | 3.83 | ENE | 4.75 | 24.65 | 0 | 1030.01 | 54.66 | 1433 | 14.91 | 4.06 |
2026-08-29 13:31:32 | 4.58 | NE | 6.78 | 24.48 | 0 | 1030.04 | 52.95 | 1476 | 14.26 | 4.06 |
2026-08-29 13:29:33 | 4.95 | ENE | 7.3 | 24.13 | 0 | 1029.96 | 54.21 | 1445 | 14.3 | 4.06 |
2026-08-29 13:28:35 | 4.72 | E | 5.54 | 24.13 | 0 | 1030 | 54 | 1450 | 14.24 | 4.06 |
2026-08-29 13:27:36 | 4.99 | ENE | 7.08 | 24.17 | 0 | 1030.15 | 55.42 | 1414 | 14.68 | 4.06 |
2026-08-29 13:26:37 | 3.75 | NE | 6.69 | 24.13 | 0 | 1030.19 | 59.78 | 1305 | 15.82 | 4.06 |
2026-08-29 13:25:38 | 4.2 | NE | 5.37 | 23.97 | 0 | 1030.03 | 57.31 | 1367 | 15.01 | 4.06 |
2026-08-29 13:24:39 | 4.35 | NE | 5.28 | 23.89 | 0 | 1030.2 | 57.05 | 1374 | 14.87 | 4.06 |
2026-08-29 13:23:40 | 3.51 | NE | 5.72 | 23.89 | 0 | 1030.2 | 59.19 | 1320 | 15.44 | 4.06 |
2026-08-29 13:22:41 | 3.53 | NE | 8.27 | 23.75 | 0 | 1030.34 | 58.51 | 1337 | 15.13 | 4.06 |
2026-08-29 13:21:42 | 6.07 | NE | 8.18 | 23.89 | 0 | 1030.26 | 54.19 | 1445 | 14.07 | 4.06 |
2026-08-29 13:20:44 | 5.19 | NE | 5.85 | 24.11 | 0 | 1030.36 | 59.81 | 1305 | 15.81 | 4.06 |
2026-08-29 13:19:45 | 4.69 | NE | 5.98 | 24.1 | 0 | 1030.33 | 57.94 | 1351 | 15.3 | 4.06 |
2026-08-29 13:18:46 | 3.97 | ENE | 6.12 | 24.14 | 0 | 1030.26 | 59.15 | 1321 | 15.66 | 4.06 |
2026-08-29 13:17:47 | 4.16 | ENE | 5.37 | 24.1 | 0 | 1030.33 | 58.65 | 1334 | 15.49 | 4.06 |
2026-08-29 13:16:48 | 3.56 | NE | 4.62 | 24.16 | 0 | 1030.32 | 60.88 | 1278 | 16.13 | 4.06 |
2026-08-29 13:15:49 | 4.15 | NE | 5.37 | 24.21 | 0 | 1030.29 | 55.92 | 1402 | 14.85 | 4.06 |
2026-08-29 13:14:50 | 3.54 | ENE | 5.19 | 24.52 | 0 | 1030.29 | 56.09 | 1398 | 15.19 | 4.06 |
2026-08-29 13:13:51 | 3.16 | ENE | 4.84 | 24.65 | 0 | 1030.35 | 58.9 | 1327 | 16.07 | 4.06 |
2026-08-29 13:12:52 | 2.84 | NNE | 3.96 | 24.68 | 0 | 1030.3 | 57.99 | 1350 | 15.86 | 4.06 |
2026-08-29 13:11:54 | 2.77 | NE | 4.31 | 24.5 | 0 | 1030.4 | 58.11 | 1347 | 15.72 | 4.06 |
2026-08-29 13:10:55 | 2.01 | NNW | 3.43 | 24.27 | 0 | 1030.45 | 57.46 | 1363 | 15.33 | 4.06 |
2026-08-29 13:09:55 | 2.26 | NE | 3.7 | 23.93 | 0 | 1030.45 | 59.66 | 1308 | 15.6 | 4.06 |
2026-08-29 13:08:56 | 2.61 | ENE | 3.26 | 23.66 | 0 | 1030.47 | 62.75 | 1231 | 16.14 | 4.06 |
2026-08-29 13:07:57 | 4.3 | NNE | 4.84 | 23.37 | 0 | 1030.43 | 61.18 | 1270 | 15.47 | 4.06 |
2026-08-29 13:06:59 | 4.56 | ENE | 5.85 | 23.3 | 0 | 1030.37 | 60.69 | 1283 | 15.27 | 4.06 |
2026-08-29 13:06:00 | 6.43 | NE | 7.88 | 23.17 | 0 | 1030.38 | 60.15 | 1296 | 15.01 | 4.06 |
2026-08-29 13:05:01 | 6.04 | ENE | 6.82 | 23.37 | 0 | 1030.27 | 61.02 | 1274 | 15.43 | 4.06 |
2026-08-29 13:04:02 | 5.87 | ENE | 8.84 | 23.37 | 0 | 1030.23 | 59.06 | 1323 | 14.92 | 4.06 |
2026-08-29 13:03:03 | 5.46 | ENE | 7.48 | 23.54 | 0 | 1030.18 | 61.04 | 1274 | 15.59 | 4.06 |
2026-08-29 13:02:04 | 4.3 | ENE | 5.46 | 23.28 | 0 | 1030.22 | 62.68 | 1233 | 15.76 | 4.06 |
2026-08-29 13:01:05 | 6.14 | NE | 8.1 | 22.9 | 0 | 1030.22 | 61.96 | 1251 | 15.22 | 4.06 |
2026-08-29 13:00:06 | 4.48 | NE | 5.02 | 22.79 | 0 | 1030.29 | 59.25 | 1319 | 14.42 | 4.06 |
2026-08-29 12:59:08 | 4.77 | E | 5.85 | 22.75 | 0 | 1030.3 | 60.47 | 1288 | 14.7 | 4.06 |
2026-08-29 12:58:09 | 6.73 | ENE | 10.34 | 22.77 | 0 | 1030.28 | 59.63 | 1309 | 14.5 | 4.06 |
2026-08-29 12:57:10 | 7.27 | ENE | 9.68 | 23.04 | 0 | 1030.17 | 59.42 | 1314 | 14.7 | 4.06 |
2026-08-29 12:56:11 | 4.47 | NE | 5.5 | 23.13 | 0 | 1030.24 | 60.72 | 1282 | 15.12 | 4.06 |
2026-08-29 12:55:11 | 5.35 | NE | 7.3 | 23.22 | 0 | 1030.25 | 59.39 | 1315 | 14.86 | 4.06 |
2026-08-29 12:54:13 | 4.7 | ENE | 6.29 | 23.38 | 0 | 1030.15 | 57.22 | 1369 | 14.43 | 4.06 |
2026-08-29 12:53:14 | 4.09 | ENE | 6.82 | 23.55 | 0 | 1030.26 | 58.84 | 1329 | 15.03 | 4.06 |
2026-08-29 12:52:15 | 3.14 | N | 5.41 | 23.54 | 0 | 1030.32 | 60.38 | 1290 | 15.42 | 4.06 |
2026-08-29 12:51:16 | 3.24 | NNW | 5.1 | 23.44 | 0 | 1030.17 | 60.47 | 1288 | 15.35 | 4.06 |
2026-08-29 12:50:17 | 3.73 | ENE | 4.62 | 23.4 | 0 | 1030.21 | 59.27 | 1318 | 15 | 4.06 |
2026-08-29 12:49:18 | 2.4 | NE | 3.08 | 23.54 | 0 | 1030.28 | 60.25 | 1294 | 15.39 | 4.06 |
2026-08-29 12:48:20 | 1.91 | E | 2.64 | 23.49 | 0 | 1030.29 | 61.05 | 1274 | 15.55 | 4.06 |
2026-08-29 12:47:21 | 3.33 | NNE | 5.06 | 23.58 | 0 | 1030.33 | 59.5 | 1312 | 15.23 | 4.06 |
2026-08-29 12:46:22 | 2.09 | N | 3.34 | 23.87 | 0 | 1030.21 | 60.04 | 1299 | 15.64 | 4.06 |
2026-08-29 12:45:23 | 3.2 | ENE | 4.05 | 23.92 | 0 | 1030.38 | 64.52 | 1187 | 16.82 | 4.06 |
2026-08-29 12:44:24 | 3.35 | ENE | 5.06 | 23.75 | 0 | 1030.45 | 61.29 | 1268 | 15.85 | 4.06 |
2026-08-29 12:43:26 | 3.47 | ENE | 5.28 | 23.82 | 0 | 1030.41 | 59.84 | 1304 | 15.54 | 4.06 |
2026-08-29 12:42:26 | 2.55 | ENE | 5.76 | 23.89 | 0 | 1030.44 | 60.07 | 1298 | 15.67 | 4.06 |
2026-08-29 12:41:28 | 2.33 | N | 3.12 | 23.89 | 0 | 1030.49 | 61.33 | 1267 | 15.99 | 4.06 |
2026-08-29 12:40:29 | 2.23 | ENE | 3.21 | 23.8 | 0 | 1030.62 | 64.4 | 1190 | 16.68 | 4.06 |
2026-08-29 12:39:30 | 2.61 | NE | 3.65 | 23.7 | 0 | 1030.6 | 60.53 | 1287 | 15.61 | 4.06 |
2026-08-29 12:38:31 | 2.85 | NNE | 4.09 | 23.75 | 0 | 1030.6 | 61.36 | 1266 | 15.87 | 4.06 |
2026-08-29 12:37:33 | 3.25 | NE | 4.22 | 23.9 | 0 | 1030.61 | 59.4 | 1315 | 15.5 | 4.06 |
2026-08-29 12:36:34 | 2.62 | ENE | 4.14 | 24.14 | 0 | 1030.64 | 61.67 | 1258 | 16.32 | 4.06 |
2026-08-29 12:35:35 | 2.12 | NE | 2.64 | 24.06 | 0 | 1030.65 | 65.53 | 1162 | 17.2 | 4.06 |
2026-08-29 12:34:36 | 2.87 | NE | 4.58 | 23.87 | 0 | 1030.63 | 66.01 | 1150 | 17.13 | 4.06 |
2026-08-29 12:33:37 | 4.47 | ENE | 6.12 | 23.62 | 0 | 1030.66 | 64.59 | 1185 | 16.55 | 4.06 |
2026-08-29 12:32:38 | 2.63 | ENE | 3.78 | 23.49 | 0 | 1030.65 | 65.28 | 1168 | 16.6 | 4.06 |
2026-08-29 12:31:40 | 2.82 | ENE | 4.05 | 23.25 | 0 | 1030.78 | 66.09 | 1148 | 16.56 | 4.06 |
2026-08-29 12:30:41 | 2.69 | NE | 3.48 | 23.2 | 0 | 1030.72 | 65.49 | 1163 | 16.37 | 4.06 |
2026-08-29 12:29:42 | 1.33 | N | 1.45 | 22.99 | 0 | 1030.79 | 67.61 | 1110 | 16.67 | 4.06 |
2026-08-29 12:28:44 | 2.61 | ENE | 3.48 | 22.72 | 0 | 1030.83 | 64.94 | 1176 | 15.78 | 4.06 |
2026-08-29 12:27:45 | 2.97 | ENE | 4.05 | 22.59 | 0 | 1030.78 | 63.77 | 1206 | 15.38 | 4.06 |
2026-08-29 12:26:46 | 2.38 | ENE | 3.61 | 22.65 | 0 | 1030.76 | 65.65 | 1159 | 15.89 | 4.06 |
2026-08-29 12:25:47 | 1.79 | NE | 2.24 | 22.55 | 0 | 1030.84 | 65.57 | 1161 | 15.77 | 4.06 |
2026-08-29 12:24:49 | 4.19 | ENE | 5.28 | 22.58 | 0 | 1030.79 | 65.12 | 1172 | 15.69 | 4.06 |
2026-08-29 12:23:50 | 3.75 | ENE | 5.06 | 22.73 | 0 | 1030.7 | 65.25 | 1169 | 15.87 | 4.06 |
2026-08-29 12:22:51 | 2.94 | E | 4.22 | 22.67 | 0 | 1030.79 | 66.88 | 1128 | 16.2 | 4.06 |
2026-08-29 12:21:53 | 3.29 | ENE | 4.05 | 22.31 | 0 | 1030.82 | 66.21 | 1145 | 15.7 | 4.06 |
2026-08-29 12:20:54 | 2.87 | ENE | 3.39 | 22.15 | 0 | 1030.87 | 69.01 | 1075 | 16.19 | 4.06 |
2026-08-29 12:19:55 | 2.88 | ENE | 3.52 | 21.76 | 0 | 1030.87 | 69.72 | 1057 | 15.98 | 4.06 |
2026-08-29 12:18:57 | 1.57 | ESE | 2.99 | 21.55 | 0 | 1030.94 | 69.88 | 1053 | 15.82 | 4.06 |
2026-08-29 12:17:58 | 3.15 | NE | 4.49 | 21.32 | 0 | 1030.88 | 68.94 | 1076 | 15.38 | 4.06 |
2026-08-29 12:17:00 | 2.86 | NE | 3.7 | 21.25 | 0 | 1030.86 | 69.64 | 1059 | 15.48 | 4.06 |
2026-08-29 12:16:01 | 1.88 | NE | 2.29 | 21.15 | 0 | 1030.89 | 71.64 | 1009 | 15.82 | 4.06 |
2026-08-29 12:14:04 | 4.62 | ENE | 6.16 | 20.86 | 0 | 1030.86 | 68.67 | 1083 | 14.88 | 4.06 |
2026-08-29 12:13:05 | 4.09 | NE | 6.47 | 20.86 | 0 | 1030.81 | 69.11 | 1072 | 14.98 | 4.06 |
2026-08-29 12:12:06 | 4.25 | E | 6.64 | 20.86 | 0 | 1030.81 | 70.55 | 1036 | 15.3 | 4.06 |
2026-08-29 12:11:08 | 2.72 | ENE | 3.39 | 20.82 | 0 | 1030.84 | 72.37 | 991 | 15.66 | 4.06 |
2026-08-29 12:10:09 | 1.86 | ENE | 2.38 | 20.75 | 0 | 1030.84 | 73.85 | 954 | 15.91 | 4.06 |
2026-08-29 12:09:11 | 2.58 | ENE | 3.3 | 20.58 | 0 | 1030.82 | 71.89 | 1003 | 15.33 | 4.06 |
2026-08-29 12:08:12 | 2.39 | ENE | 3.3 | 20.53 | 0 | 1030.72 | 71.89 | 1003 | 15.28 | 4.06 |
2026-08-29 12:07:14 | 2.1 | NE | 2.9 | 20.55 | 0 | 1030.79 | 72.42 | 989 | 15.42 | 4.06 |
2026-08-29 12:06:15 | 2.72 | NE | 3.96 | 20.48 | 0 | 1030.81 | 71.93 | 1002 | 15.24 | 4.06 |
2026-08-29 12:05:16 | 2.44 | ENE | 3.21 | 20.49 | 0 | 1030.75 | 71.54 | 1011 | 15.17 | 4.06 |
2026-08-29 12:04:18 | 2.7 | NE | 4.88 | 20.48 | 0 | 1030.73 | 71.19 | 1020 | 15.08 | 4.06 |
2026-08-29 12:03:19 | 3.04 | ENE | 4.88 | 20.48 | 0 | 1030.68 | 70.62 | 1034 | 14.96 | 4.06 |
2026-08-29 12:02:21 | 4.79 | NNE | 7.44 | 20.46 | 0 | 1030.61 | 70.15 | 1046 | 14.83 | 4.06 |
2026-08-29 12:01:22 | 3.21 | NE | 4.71 | 20.53 | 0 | 1030.7 | 71.37 | 1016 | 15.17 | 4.06 |
2026-08-29 12:00:23 | 4 | NE | 5.54 | 20.56 | 0 | 1030.66 | 71.18 | 1020 | 15.16 | 4.06 |
2026-08-29 11:59:25 | 4.75 | NNE | 6.29 | 20.62 | 0 | 1030.62 | 71.04 | 1024 | 15.18 | 4.06 |
2026-08-29 11:58:26 | 5.68 | NE | 7.39 | 20.63 | 0 | 1030.68 | 69.28 | 1068 | 14.8 | 4.06 |
2026-08-29 11:57:27 | 3.89 | NE | 5.37 | 20.75 | 0 | 1030.64 | 70.51 | 1037 | 15.19 | 4.06 |
2026-08-29 11:56:29 | 4.65 | ENE | 6.25 | 20.73 | 0 | 1030.68 | 69.5 | 1062 | 14.95 | 4.06 |
2026-08-29 11:55:30 | 5.69 | ENE | 7.3 | 20.8 | 0 | 1030.72 | 68.98 | 1075 | 14.9 | 4.06 |
2026-08-29 11:54:32 | 5.68 | NE | 7.61 | 20.86 | 0 | 1030.67 | 68 | 1100 | 14.73 | 4.06 |
2026-08-29 11:53:33 | 5.35 | NE | 7.39 | 20.95 | 0 | 1030.81 | 67.95 | 1101 | 14.81 | 4.06 |
2026-08-29 11:52:34 | 4.47 | NNE | 5.46 | 21.01 | 0 | 1030.71 | 68.95 | 1076 | 15.09 | 4.06 |
2026-08-29 11:51:36 | 5.57 | NE | 6.69 | 20.95 | 0 | 1030.67 | 68.65 | 1084 | 14.97 | 4.06 |
2026-08-29 11:50:37 | 5.37 | E | 7.08 | 20.95 | 0 | 1030.56 | 69.05 | 1074 | 15.06 | 4.06 |
2026-08-29 11:49:38 | 7.02 | E | 9.28 | 20.89 | 0 | 1030.49 | 68.19 | 1095 | 14.8 | 4.06 |
2026-08-29 11:48:40 | 6.15 | ENE | 7.52 | 20.98 | 0 | 1030.51 | 67.24 | 1119 | 14.67 | 4.06 |
2026-08-29 11:47:41 | 5.74 | NE | 7.04 | 21.12 | 0 | 1030.61 | 67.81 | 1105 | 14.94 | 4.06 |
2026-08-29 11:46:42 | 4.15 | ENE | 6.03 | 21.22 | 0 | 1030.61 | 68.51 | 1087 | 15.19 | 4.06 |
2026-08-29 11:45:44 | 5.03 | NE | 7.08 | 21.29 | 0 | 1030.64 | 68.02 | 1099 | 15.15 | 4.06 |
2026-08-29 11:44:45 | 4.81 | NE | 6.03 | 21.35 | 0 | 1030.54 | 68.26 | 1093 | 15.26 | 4.06 |
2026-08-29 11:43:46 | 4.51 | ENE | 6.91 | 21.44 | 0 | 1030.5 | 67.5 | 1112 | 15.17 | 4.06 |
2026-08-29 11:42:48 | 4.31 | NE | 4.93 | 21.46 | 0 | 1030.53 | 66.63 | 1134 | 14.99 | 4.06 |
2026-08-29 11:41:49 | 5.33 | E | 8.14 | 21.55 | 0 | 1030.53 | 66 | 1150 | 14.93 | 4.06 |
2026-08-29 11:40:50 | 5.4 | ENE | 7.39 | 21.58 | 0 | 1030.55 | 66.2 | 1145 | 15 | 4.06 |
2026-08-29 11:39:51 | 5.72 | ENE | 8.18 | 21.62 | 0 | 1030.39 | 65.26 | 1168 | 14.82 | 4.06 |
2026-08-29 11:38:52 | 4.21 | NE | 6.86 | 21.66 | 0 | 1030.37 | 67.47 | 1113 | 15.37 | 4.06 |
2026-08-29 11:37:54 | 3.26 | NNE | 4.27 | 21.6 | 0 | 1030.53 | 67.66 | 1108 | 15.36 | 4.06 |
2026-08-29 11:36:55 | 3.48 | NNE | 5.81 | 21.59 | 0 | 1030.48 | 66.73 | 1132 | 15.13 | 4.06 |
2026-08-29 11:35:56 | 3.51 | NNE | 4.31 | 21.67 | 0 | 1030.56 | 67.06 | 1123 | 15.29 | 4.06 |
2026-08-29 11:34:58 | 3.29 | ENE | 5.1 | 21.76 | 0 | 1030.6 | 66.96 | 1126 | 15.35 | 4.06 |
2026-08-29 11:33:59 | 3.95 | NE | 5.59 | 21.76 | 0 | 1030.58 | 65.12 | 1172 | 14.92 | 4.06 |
2026-08-29 11:33:01 | 3.22 | NNE | 4.75 | 21.87 | 0 | 1030.68 | 65.6 | 1160 | 15.13 | 4.06 |
2026-08-29 11:32:02 | 2.31 | NNE | 3.3 | 21.94 | 0 | 1030.62 | 66.96 | 1126 | 15.52 | 4.06 |
2026-08-29 11:31:03 | 3.45 | NE | 4.75 | 21.99 | 0 | 1030.49 | 66.08 | 1148 | 15.36 | 4.06 |
2026-08-29 11:30:04 | 2.76 | NNE | 4.18 | 22.04 | 0 | 1030.53 | 66.56 | 1136 | 15.52 | 4.06 |
2026-08-29 11:29:06 | 1.84 | ENE | 2.51 | 22 | 0 | 1030.61 | 70.19 | 1045 | 16.32 | 4.06 |
2026-08-29 11:28:07 | 1.94 | WSW | 2.24 | 21.75 | 0 | 1030.75 | 68.23 | 1094 | 15.63 | 4.06 |
2026-08-29 11:27:08 | 3.18 | ENE | 4.09 | 21.59 | 0 | 1030.82 | 67.49 | 1113 | 15.31 | 4.06 |
2026-08-29 11:26:10 | 4.97 | ENE | 6.51 | 21.52 | 0 | 1030.82 | 65.22 | 1169 | 14.71 | 4.06 |
2026-08-29 11:25:11 | 4.27 | ENE | 6.38 | 21.76 | 0 | 1030.71 | 65.98 | 1150 | 15.12 | 4.06 |
2026-08-29 11:24:12 | 2.75 | NE | 3.83 | 21.94 | 0 | 1030.89 | 66.48 | 1138 | 15.41 | 4.06 |
2026-08-29 11:23:13 | 4.03 | ENE | 6.16 | 21.94 | 0 | 1030.87 | 63.89 | 1203 | 14.79 | 4.06 |
2026-08-29 11:22:15 | 4.02 | ENE | 5.85 | 22.08 | 0 | 1030.89 | 63.68 | 1208 | 14.87 | 4.06 |
2026-08-29 11:21:16 | 4.56 | NNE | 7.44 | 22.07 | 0 | 1030.86 | 64.2 | 1195 | 14.99 | 4.06 |
2026-08-29 11:20:17 | 3.49 | ENE | 4.62 | 21.9 | 0 | 1030.78 | 67.97 | 1101 | 15.72 | 4.06 |
2026-08-29 11:19:19 | 4.5 | ENE | 5.68 | 21.63 | 0 | 1030.66 | 68.25 | 1094 | 15.52 | 4.06 |
2026-08-29 11:18:20 | 5.95 | ENE | 9.5 | 21.35 | 0 | 1030.66 | 66.48 | 1138 | 14.85 | 4.06 |
2026-08-29 11:17:21 | 3.44 | NE | 4.88 | 21.38 | 0 | 1030.5 | 69.3 | 1067 | 15.52 | 4.06 |
2026-08-29 11:16:23 | 4.76 | NE | 6.95 | 21.25 | 0 | 1030.56 | 67.72 | 1107 | 15.04 | 4.06 |
2026-08-29 11:15:24 | 5.88 | ENE | 8.45 | 21.18 | 0 | 1030.55 | 65.91 | 1152 | 14.55 | 4.06 |
2026-08-29 11:14:26 | 5.04 | NE | 6.69 | 21.21 | 0 | 1030.51 | 67.74 | 1106 | 15.01 | 4.06 |
2026-08-29 11:13:27 | 5.63 | NNE | 8.01 | 21.17 | 0 | 1030.42 | 66.64 | 1134 | 14.71 | 4.06 |
2026-08-29 11:12:28 | 3.19 | NW | 5.32 | 21.21 | 0 | 1030.41 | 68.13 | 1097 | 15.1 | 4.06 |
2026-08-29 11:11:30 | 4 | ENE | 5.28 | 21.17 | 0 | 1030.38 | 68.2 | 1095 | 15.07 | 4.06 |
2026-08-29 11:10:31 | 5.23 | NNE | 7.17 | 21.24 | 0 | 1030.43 | 67.71 | 1107 | 15.03 | 4.06 |
2026-08-29 11:09:32 | 5.38 | ENE | 7.39 | 21.32 | 0 | 1030.46 | 66.34 | 1141 | 14.79 | 4.06 |
2026-08-29 11:08:34 | 3.82 | NNE | 5.85 | 21.46 | 0 | 1030.46 | 66.1 | 1147 | 14.86 | 4.06 |
2026-08-29 11:07:35 | 3.95 | NE | 5.85 | 21.58 | 0 | 1030.47 | 67.38 | 1115 | 15.28 | 4.06 |
2026-08-29 11:06:36 | 3.37 | NNE | 4.84 | 21.65 | 0 | 1030.5 | 68.65 | 1084 | 15.63 | 4.06 |
2026-08-29 11:04:39 | 3.51 | NE | 3.87 | 21.72 | 0 | 1030.39 | 66.86 | 1128 | 15.29 | 4.06 |
2026-08-29 11:03:40 | 5.76 | NE | 7.3 | 21.82 | 0 | 1030.41 | 64.73 | 1182 | 14.88 | 4.06 |
2026-08-29 11:02:42 | 5.41 | ENE | 6.69 | 22.12 | 0 | 1030.29 | 66.16 | 1146 | 15.5 | 4.06 |
2026-08-29 11:01:43 | 4.23 | N | 5.85 | 22.21 | 0 | 1030.26 | 66.16 | 1146 | 15.59 | 4.06 |
2026-08-29 11:00:44 | 2.98 | ENE | 5.54 | 22.17 | 0 | 1030.12 | 70 | 1050 | 16.44 | 4.06 |
2026-08-29 10:59:45 | 4.07 | NE | 5.24 | 21.89 | 0 | 1030.08 | 69.5 | 1062 | 16.06 | 4.06 |
2026-08-29 10:58:47 | 4.68 | NE | 6.73 | 21.69 | 0 | 1030.04 | 70.66 | 1033 | 16.12 | 4.06 |
2026-08-29 10:57:48 | 5.79 | NE | 8.54 | 21.5 | 0 | 1029.95 | 69.03 | 1074 | 15.58 | 4.06 |
2026-08-29 10:56:49 | 4.81 | NE | 6.38 | 21.45 | 0 | 1029.91 | 69.64 | 1059 | 15.67 | 4.06 |
2026-08-29 10:55:51 | 6.21 | ENE | 8.62 | 21.28 | 0 | 1029.91 | 69.75 | 1056 | 15.53 | 4.06 |
2026-08-29 10:54:52 | 4.41 | NE | 4.93 | 21.27 | 0 | 1029.87 | 71.68 | 1008 | 15.95 | 4.06 |
2026-08-29 10:53:53 | 5.87 | NE | 6.78 | 21.15 | 0 | 1029.79 | 69.82 | 1054 | 15.42 | 4.06 |
2026-08-29 10:52:55 | 4.75 | ENE | 6.2 | 21.25 | 0 | 1029.85 | 71.26 | 1018 | 15.84 | 4.06 |
2026-08-29 10:51:56 | 5.7 | NE | 8.45 | 21.24 | 0 | 1029.91 | 70.73 | 1032 | 15.71 | 4.06 |
2026-08-29 10:50:58 | 4.66 | ENE | 7.17 | 21.22 | 0 | 1029.9 | 71.22 | 1019 | 15.8 | 4.06 |
2026-08-29 10:49:58 | 5.68 | ENE | 6.25 | 21.21 | 0 | 1029.9 | 73.07 | 973 | 16.19 | 4.06 |
2026-08-29 10:49:00 | 6.35 | NE | 7.48 | 21.08 | 0 | 1029.82 | 70.3 | 1042 | 15.46 | 4.06 |
2026-08-29 10:48:01 | 5.14 | ENE | 6.6 | 21.27 | 0 | 1029.87 | 72.86 | 978 | 16.2 | 4.06 |
2026-08-29 10:47:02 | 7.02 | ENE | 8.89 | 21.21 | 0 | 1029.62 | 68.92 | 1077 | 15.28 | 4.06 |
2026-08-29 10:46:04 | 5.96 | NNE | 7.83 | 21.39 | 0 | 1029.73 | 70 | 1050 | 15.69 | 4.06 |
2026-08-29 10:45:05 | 5.1 | NE | 7.17 | 21.39 | 0 | 1029.68 | 73.5 | 962 | 16.46 | 4.06 |
2026-08-29 10:44:07 | 5.55 | ENE | 6.29 | 21.21 | 0 | 1029.82 | 73.11 | 972 | 16.2 | 4.06 |
2026-08-29 10:43:08 | 6.31 | E | 7.48 | 21.03 | 0 | 1029.9 | 72.72 | 982 | 15.94 | 4.06 |
2026-08-29 10:42:09 | 6.23 | ENE | 7.39 | 20.98 | 0 | 1029.92 | 72.32 | 992 | 15.81 | 4.06 |
2026-08-29 10:41:10 | 5.31 | NE | 7.74 | 21.01 | 0 | 1029.84 | 73.09 | 973 | 16 | 4.06 |
2026-08-29 10:40:11 | 4.85 | ENE | 5.85 | 21 | 0 | 1029.82 | 75.7 | 907 | 16.54 | 4.06 |
2026-08-29 10:39:13 | 5.07 | ENE | 6.29 | 20.82 | 0 | 1029.86 | 75.05 | 924 | 16.23 | 4.06 |
2026-08-29 10:38:14 | 5.97 | ENE | 7.35 | 20.66 | 0 | 1029.79 | 73.9 | 952 | 15.84 | 4.06 |
2026-08-29 10:37:15 | 6.44 | NE | 8.01 | 20.56 | 0 | 1029.82 | 73.29 | 968 | 15.61 | 4.06 |
2026-08-29 10:36:17 | 6.16 | ENE | 8.27 | 20.52 | 0 | 1029.89 | 73.26 | 968 | 15.57 | 4.06 |
2026-08-29 10:35:18 | 6.3 | ENE | 8.14 | 20.55 | 0 | 1029.91 | 73.58 | 960 | 15.66 | 4.07 |
2026-08-29 10:34:20 | 5.71 | NE | 8.54 | 20.53 | 0 | 1029.85 | 73.64 | 959 | 15.66 | 4.06 |
2026-08-29 10:33:21 | 5.94 | ENE | 7.66 | 20.49 | 0 | 1029.85 | 73.91 | 952 | 15.68 | 4.06 |
2026-08-29 10:32:23 | 4.91 | ENE | 6.73 | 20.53 | 0 | 1029.78 | 76.26 | 893 | 16.2 | 4.07 |
2026-08-29 10:31:24 | 6.05 | E | 6.91 | 20.43 | 0 | 1029.8 | 74.33 | 942 | 15.71 | 4.07 |
2026-08-29 10:30:24 | 5.97 | ENE | 7.96 | 20.39 | 0 | 1029.74 | 75.13 | 922 | 15.84 | 4.07 |
2026-08-29 10:29:26 | 6.41 | ENE | 8.23 | 20.39 | 0 | 1029.79 | 75.05 | 924 | 15.82 | 4.07 |
2026-08-29 10:28:27 | 6.15 | ENE | 7.26 | 20.39 | 0 | 1029.75 | 76.2 | 895 | 16.06 | 4.07 |
2026-08-29 10:27:29 | 6.17 | E | 7.92 | 20.43 | 0 | 1029.84 | 76.55 | 886 | 16.17 | 4.07 |
2026-08-29 10:26:30 | 6.93 | E | 8.14 | 20.32 | 0 | 1029.9 | 74.52 | 937 | 15.64 | 4.07 |
2026-08-29 10:25:31 | 5.67 | ENE | 8.23 | 20.48 | 0 | 1029.84 | 77.39 | 865 | 16.39 | 4.07 |
2026-08-29 10:24:33 | 4.03 | ENE | 4.88 | 20.53 | 0 | 1029.89 | 77.91 | 852 | 16.54 | 4.07 |
2026-08-29 10:23:34 | 5.9 | ENE | 7.22 | 20.48 | 0 | 1029.9 | 76.07 | 898 | 16.12 | 4.07 |
2026-08-29 10:22:36 | 5.09 | ENE | 5.46 | 20.6 | 0 | 1029.91 | 77.11 | 872 | 16.45 | 4.07 |
2026-08-29 10:21:37 | 5.54 | ENE | 6.47 | 20.62 | 0 | 1029.89 | 77.28 | 868 | 16.5 | 4.07 |
2026-08-29 10:20:38 | 5.06 | ENE | 5.76 | 20.79 | 0 | 1029.93 | 78.79 | 830 | 16.97 | 4.07 |
2026-08-29 10:19:40 | 5 | ENE | 5.59 | 20.69 | 0 | 1029.82 | 77.42 | 864 | 16.6 | 4.07 |
2026-08-29 10:18:41 | 3.89 | ENE | 6.12 | 20.72 | 0 | 1029.82 | 78.15 | 846 | 16.77 | 4.07 |
2026-08-29 10:17:43 | 4.83 | ENE | 6.34 | 20.63 | 0 | 1029.74 | 77.24 | 869 | 16.5 | 4.07 |
2026-08-29 10:16:44 | 3.85 | ENE | 5.54 | 20.77 | 0 | 1029.76 | 80.01 | 800 | 17.19 | 4.07 |
2026-08-29 10:15:46 | 3.34 | NE | 4.49 | 20.7 | 0 | 1029.75 | 81.1 | 772 | 17.34 | 4.07 |
2026-08-29 10:14:47 | 2.96 | ENE | 4.62 | 20.49 | 0 | 1029.69 | 81.04 | 774 | 17.12 | 4.07 |
2026-08-29 10:13:48 | 3.95 | NE | 5.5 | 20.27 | 0 | 1029.73 | 79.81 | 805 | 16.67 | 4.07 |
2026-08-29 10:12:50 | 2.57 | NNE | 3.96 | 20.27 | 0 | 1029.83 | 80.97 | 776 | 16.9 | 4.07 |
2026-08-29 10:11:51 | 3.42 | NNE | 4.62 | 20.15 | 0 | 1029.87 | 80.49 | 788 | 16.68 | 4.07 |
2026-08-29 10:10:53 | 3.79 | ENE | 4.58 | 20.17 | 0 | 1029.89 | 80.99 | 775 | 16.8 | 4.07 |
2026-08-29 10:09:54 | 5.19 | NE | 6.38 | 20.08 | 0 | 1029.85 | 79.91 | 802 | 16.5 | 4.07 |
2026-08-29 10:08:56 | 3.72 | NNE | 4.31 | 20.12 | 0 | 1029.86 | 80.83 | 779 | 16.72 | 4.07 |
2026-08-29 10:07:57 | 3.32 | N | 4.44 | 20.14 | 0 | 1029.81 | 81.36 | 766 | 16.84 | 4.07 |
2026-08-29 10:06:58 | 2.99 | ENE | 4.14 | 20.18 | 0 | 1029.83 | 81.96 | 751 | 17 | 4.07 |
2026-08-29 10:06:00 | 2.89 | ENE | 4.05 | 20.18 | 0 | 1029.82 | 81.56 | 761 | 16.92 | 4.07 |
2026-08-29 10:05:01 | 2.9 | ENE | 3.96 | 20.18 | 0 | 1029.9 | 81.41 | 765 | 16.89 | 4.07 |
2026-08-29 10:04:03 | 3.97 | ENE | 7.48 | 20.18 | 0 | 1029.9 | 80.74 | 781 | 16.76 | 4.07 |
2026-08-29 10:03:04 | 4.73 | NE | 7.22 | 20.18 | 0 | 1029.81 | 80.09 | 798 | 16.64 | 4.07 |
2026-08-29 10:02:05 | 3.56 | N | 5.1 | 20.25 | 0 | 1029.81 | 80.53 | 787 | 16.79 | 4.07 |
2026-08-29 10:01:07 | 3.55 | NE | 4.71 | 20.29 | 0 | 1029.72 | 80.98 | 775 | 16.92 | 4.07 |
2026-08-29 10:00:08 | 3.15 | ESE | 4.31 | 20.31 | 0 | 1029.71 | 80.91 | 777 | 16.92 | 4.07 |
2026-08-29 09:59:09 | 3.37 | NNE | 5.28 | 20.27 | 0 | 1029.77 | 80.9 | 777 | 16.88 | 4.07 |
2026-08-29 09:58:11 | 2.26 | NNE | 3.26 | 20.36 | 0 | 1029.84 | 82.1 | 747 | 17.2 | 4.07 |
2026-08-29 09:57:12 | 3.58 | NE | 5.5 | 20.33 | 0 | 1029.79 | 81.7 | 757 | 17.1 | 4.07 |
2026-08-29 09:56:14 | 2.94 | NE | 4.36 | 20.33 | 0 | 1029.69 | 81.61 | 760 | 17.08 | 4.07 |
2026-08-29 09:55:15 | 3.29 | ENE | 5.1 | 20.35 | 0 | 1029.71 | 81.89 | 753 | 17.15 | 4.07 |
2026-08-29 09:54:17 | 3.39 | NNE | 4.36 | 20.32 | 0 | 1029.72 | 81.5 | 762 | 17.05 | 4.07 |
2026-08-29 09:53:18 | 4.09 | ENE | 5.98 | 20.36 | 0 | 1029.72 | 81.59 | 760 | 17.1 | 4.07 |
2026-08-29 09:52:19 | 2.31 | N | 3.65 | 20.43 | 0 | 1029.68 | 82.71 | 732 | 17.39 | 4.07 |
2026-08-29 09:51:21 | 3.77 | NE | 5.81 | 20.36 | 0 | 1029.64 | 82.11 | 747 | 17.2 | 4.07 |
2026-08-29 09:50:22 | 2.76 | NE | 4.05 | 20.42 | 0 | 1029.57 | 82.36 | 741 | 17.31 | 4.07 |
2026-08-29 09:49:24 | 2.22 | ENE | 3.74 | 20.52 | 0 | 1029.61 | 83.22 | 719 | 17.57 | 4.07 |
2026-08-29 09:48:24 | 2.8 | ENE | 3.92 | 20.52 | 0 | 1029.56 | 82.89 | 728 | 17.51 | 4.07 |
2026-08-29 09:47:26 | 2.79 | ENE | 3.56 | 20.53 | 0 | 1029.46 | 82.64 | 734 | 17.47 | 4.07 |
2026-08-29 09:46:27 | 3.93 | NE | 7 | 20.55 | 0 | 1029.55 | 82.4 | 740 | 17.45 | 4.07 |
2026-08-29 09:45:29 | 2.51 | ENE | 4.84 | 20.65 | 0 | 1029.55 | 83.05 | 724 | 17.67 | 4.07 |
2026-08-29 09:44:30 | 2.18 | NNE | 3.3 | 20.67 | 0 | 1029.49 | 82.88 | 728 | 17.65 | 4.07 |
2026-08-29 09:43:31 | 2.78 | NE | 3.48 | 20.65 | 0 | 1029.47 | 82.82 | 729 | 17.62 | 4.07 |
2026-08-29 09:42:33 | 3.15 | NE | 4.93 | 20.59 | 0 | 1029.36 | 81.45 | 764 | 17.3 | 4.07 |
2026-08-29 09:41:34 | 4.54 | NE | 7.3 | 20.58 | 0 | 1029.31 | 81.19 | 770 | 17.24 | 4.07 |
2026-08-29 09:40:36 | 3.12 | ENE | 4.53 | 20.66 | 0 | 1029.36 | 82.12 | 747 | 17.5 | 4.07 |
2026-08-29 09:39:37 | 3.31 | NE | 3.65 | 20.69 | 0 | 1029.25 | 81.69 | 758 | 17.44 | 4.07 |
2026-08-29 09:38:38 | 4.01 | NE | 5.54 | 20.7 | 0 | 1029.24 | 81.72 | 757 | 17.46 | 4.07 |
2026-08-29 09:37:40 | 3.02 | N | 3.74 | 20.73 | 0 | 1029.15 | 82.38 | 740 | 17.62 | 4.07 |
2026-08-29 09:36:41 | 2.92 | ENE | 4.09 | 20.82 | 0 | 1029.19 | 83.5 | 712 | 17.92 | 4.07 |
2026-08-29 09:35:43 | 3 | NE | 4.05 | 20.8 | 0 | 1029.13 | 82.73 | 732 | 17.75 | 4.07 |
2026-08-29 09:33:45 | 3.14 | NE | 4.53 | 20.86 | 0 | 1029.15 | 82.86 | 728 | 17.84 | 4.07 |
2026-08-29 09:32:47 | 2.88 | NE | 4.05 | 20.89 | 0 | 1029.16 | 82.75 | 731 | 17.84 | 4.07 |
2026-08-29 09:31:48 | 2.72 | ENE | 4.36 | 21 | 0 | 1029.14 | 83.34 | 716 | 18.07 | 4.07 |
2026-08-29 09:30:50 | 2.16 | ENE | 3.83 | 21.18 | 0 | 1029.18 | 84.77 | 681 | 18.51 | 4.07 |
2026-08-29 09:29:51 | 2.67 | ENE | 3.17 | 21.11 | 0 | 1029.22 | 83.17 | 721 | 18.14 | 4.07 |
2026-08-29 09:28:52 | 2.21 | NNE | 2.46 | 21.11 | 0 | 1029.27 | 82.41 | 740 | 17.99 | 4.07 |
2026-08-29 09:27:54 | 4.18 | NE | 5.1 | 21.14 | 0 | 1029.29 | 80.86 | 778 | 17.72 | 4.07 |
2026-08-29 09:26:55 | 3.24 | ENE | 5.19 | 21.24 | 0 | 1029.32 | 80.43 | 789 | 17.73 | 4.07 |
2026-08-29 09:25:57 | 2.68 | NE | 3.92 | 21.39 | 0 | 1029.29 | 81.23 | 769 | 18.04 | 4.07 |
2026-08-29 09:24:58 | 2.91 | NE | 4 | 21.38 | 0 | 1029.22 | 80.19 | 795 | 17.82 | 4.07 |
2026-08-29 09:24:00 | 2.45 | NNE | 4.14 | 21.31 | 0 | 1029.22 | 81.34 | 766 | 17.98 | 4.07 |
2026-08-29 09:23:01 | 2.17 | ENE | 2.86 | 21.18 | 0 | 1029.23 | 82.94 | 726 | 18.16 | 4.07 |
2026-08-29 09:22:02 | 3.17 | ENE | 4.49 | 20.83 | 0 | 1029.18 | 81.74 | 756 | 17.59 | 4.07 |
2026-08-29 09:21:04 | 3.13 | NE | 3.7 | 20.73 | 0 | 1029.11 | 82.43 | 739 | 17.63 | 4.07 |
2026-08-29 09:20:05 | 3.65 | NNE | 4.4 | 20.56 | 0 | 1029.1 | 82.31 | 742 | 17.44 | 4.07 |
2026-08-29 09:19:07 | 4.28 | ENE | 6.07 | 20.46 | 0 | 1029.04 | 82.48 | 738 | 17.37 | 4.07 |
2026-08-29 09:18:08 | 2.79 | ENE | 4.58 | 20.55 | 0 | 1029.02 | 84.27 | 693 | 17.8 | 4.07 |
2026-08-29 09:17:10 | 2.76 | ENE | 3.17 | 20.53 | 0 | 1028.98 | 83.84 | 704 | 17.7 | 4.07 |
2026-08-29 09:16:11 | 4.1 | ENE | 4.84 | 20.41 | 0 | 1029 | 83.03 | 724 | 17.43 | 4.07 |
2026-08-29 09:15:13 | 3.44 | ENE | 3.96 | 20.39 | 0 | 1029.02 | 83.98 | 700 | 17.59 | 4.07 |
2026-08-29 09:14:14 | 3.05 | ENE | 3.3 | 20.42 | 0 | 1029 | 84.23 | 694 | 17.67 | 4.07 |
2026-08-29 09:13:16 | 2.88 | ENE | 3.56 | 20.45 | 0 | 1029.01 | 84.07 | 698 | 17.67 | 4.07 |
2026-08-29 09:12:17 | 3.01 | ENE | 3.61 | 20.41 | 0 | 1029.03 | 83.74 | 706 | 17.56 | 4.07 |
2026-08-29 09:11:18 | 3.22 | ENE | 4.27 | 20.38 | 0 | 1028.98 | 84.2 | 695 | 17.62 | 4.07 |
2026-08-29 09:10:20 | 2.05 | NNE | 3.74 | 20.45 | 0 | 1029.05 | 84.72 | 682 | 17.79 | 4.07 |
2026-08-29 09:09:21 | 2.68 | ENE | 3.43 | 20.45 | 0 | 1029.03 | 84.65 | 684 | 17.77 | 4.07 |
2026-08-29 09:08:23 | 2.84 | NE | 4.36 | 20.41 | 0 | 1029.01 | 84.69 | 683 | 17.74 | 4.07 |
2026-08-29 09:07:24 | 1.58 | ENE | 2.6 | 20.5 | 0 | 1029.04 | 85.31 | 667 | 17.95 | 4.07 |
2026-08-29 09:06:26 | 1.74 | ENE | 2.82 | 20.53 | 0 | 1029.03 | 85.2 | 670 | 17.96 | 4.07 |
2026-08-29 09:05:27 | 0.98 | ENE | 1.23 | 20.56 | 0 | 1028.98 | 85.37 | 666 | 18.02 | 4.07 |
2026-08-29 09:04:29 | 2.02 | NE | 2.46 | 20.56 | 0 | 1028.98 | 85.26 | 668 | 18 | 4.07 |
2026-08-29 09:03:30 | 2.77 | NE | 3.34 | 20.56 | 0 | 1028.91 | 85.21 | 670 | 17.99 | 4.07 |
2026-08-29 09:02:32 | 3.22 | ENE | 4.8 | 20.53 | 0 | 1028.91 | 85.23 | 669 | 17.96 | 4.07 |
2026-08-29 09:01:33 | 2.87 | NE | 4.71 | 20.56 | 0 | 1028.84 | 85.4 | 665 | 18.02 | 4.07 |
2026-08-29 09:00:34 | 2.87 | NE | 3.83 | 20.6 | 0 | 1028.85 | 85.45 | 664 | 18.07 | 4.07 |
2026-08-29 08:59:36 | 4.14 | ENE | 5.94 | 20.53 | 0 | 1028.81 | 84.76 | 681 | 17.87 | 4.07 |
2026-08-29 08:58:37 | 3.72 | ENE | 4.4 | 20.5 | 0 | 1028.73 | 84.85 | 679 | 17.86 | 4.07 |
2026-08-29 08:57:38 | 3.94 | NE | 5.37 | 20.49 | 0 | 1028.71 | 84.99 | 675 | 17.88 | 4.07 |
2026-08-29 08:56:40 | 4.62 | ENE | 5.32 | 20.43 | 0 | 1028.56 | 84.51 | 687 | 17.73 | 4.07 |
2026-08-29 08:55:41 | 4.93 | ENE | 6.16 | 20.33 | 0 | 1028.55 | 84.63 | 684 | 17.65 | 4.07 |
2026-08-29 08:54:43 | 4.62 | ENE | 5.32 | 20.29 | 0 | 1028.61 | 84.53 | 687 | 17.6 | 4.07 |
2026-08-29 08:53:45 | 5.43 | NE | 6.16 | 20.18 | 0 | 1028.52 | 84.48 | 688 | 17.48 | 4.07 |
2026-08-29 08:52:46 | 4.58 | NE | 5.19 | 20.04 | 0 | 1028.47 | 84.78 | 680 | 17.4 | 4.07 |
2026-08-29 08:51:47 | 4.88 | NE | 5.81 | 19.91 | 0 | 1028.43 | 84.82 | 679 | 17.28 | 4.07 |
2026-08-29 08:50:49 | 4.98 | NE | 5.81 | 19.84 | 0 | 1028.38 | 85.5 | 662 | 17.34 | 4.07 |
2026-08-29 08:49:50 | 5.26 | NE | 7.35 | 19.73 | 0 | 1028.38 | 85.78 | 655 | 17.28 | 4.07 |
2026-08-29 08:48:51 | 3.9 | NE | 4.44 | 19.77 | 0 | 1028.36 | 86.45 | 639 | 17.44 | 4.07 |
2026-08-29 08:47:53 | 2.81 | NE | 4.84 | 19.83 | 0 | 1028.52 | 86.85 | 629 | 17.57 | 4.07 |
2026-08-29 08:46:54 | 2.76 | ENE | 4.66 | 19.81 | 0 | 1028.61 | 86.43 | 639 | 17.48 | 4.07 |
2026-08-29 08:45:56 | 3.45 | NNE | 4.58 | 19.78 | 0 | 1028.65 | 86.18 | 645 | 17.4 | 4.07 |
2026-08-29 08:44:57 | 2.53 | N | 3.21 | 19.81 | 0 | 1028.67 | 86.29 | 643 | 17.45 | 4.07 |
2026-08-29 08:43:59 | 2.89 | ENE | 4.75 | 19.86 | 0 | 1028.62 | 85.98 | 650 | 17.44 | 4.07 |
2026-08-29 08:43:00 | 2.59 | NNE | 3.43 | 19.9 | 0 | 1028.73 | 85.51 | 662 | 17.4 | 4.07 |
2026-08-29 08:42:01 | 2.9 | NNE | 4.22 | 19.97 | 0 | 1028.76 | 84.98 | 675 | 17.37 | 4.07 |
2026-08-29 08:41:02 | 3.85 | ENE | 5.5 | 20.03 | 0 | 1028.7 | 84.19 | 695 | 17.28 | 4.07 |
2026-08-29 08:40:04 | 3.74 | NE | 5.19 | 20.12 | 0 | 1028.7 | 83.45 | 714 | 17.23 | 4.07 |
2026-08-29 08:39:05 | 4.88 | NNE | 5.85 | 20.18 | 0 | 1028.64 | 82.52 | 737 | 17.11 | 4.07 |
2026-08-29 08:38:07 | 5.34 | ENE | 8.14 | 20.21 | 0 | 1028.67 | 81.91 | 752 | 17.02 | 4.07 |
2026-08-29 08:37:08 | 6.08 | ENE | 7.66 | 20.24 | 0 | 1028.52 | 81.32 | 767 | 16.93 | 4.07 |
2026-08-29 08:36:09 | 7.52 | NE | 9.24 | 20.29 | 0 | 1028.64 | 80.78 | 780 | 16.88 | 4.07 |
2026-08-29 08:35:11 | 8.37 | ENE | 9.94 | 20.39 | 0 | 1028.6 | 81.16 | 771 | 17.05 | 4.07 |
2026-08-29 08:34:13 | 9.19 | NE | 11.62 | 20.45 | 0 | 1028.56 | 81.9 | 752 | 17.25 | 4.08 |
2026-08-29 08:33:14 | 7.8 | ENE | 9.24 | 20.43 | 0 | 1028.61 | 82.51 | 737 | 17.35 | 4.07 |
2026-08-29 08:32:15 | 7.19 | NE | 8.62 | 20.5 | 0 | 1028.64 | 83.02 | 724 | 17.52 | 4.07 |
2026-08-29 08:31:17 | 6.17 | ENE | 8.14 | 20.59 | 0 | 1028.69 | 82.71 | 732 | 17.54 | 4.08 |
2026-08-29 08:30:18 | 8.34 | ENE | 10.34 | 20.55 | 0 | 1028.6 | 81.49 | 763 | 17.27 | 4.08 |
2026-08-29 08:29:20 | 8.01 | E | 11.62 | 20.53 | 0 | 1028.55 | 82.74 | 731 | 17.49 | 4.08 |
2026-08-29 08:28:21 | 7.9 | NE | 11.62 | 20.56 | 0 | 1028.59 | 82.94 | 726 | 17.56 | 4.08 |
2026-08-29 08:27:23 | 7.59 | ENE | 11.88 | 20.66 | 0 | 1028.58 | 84.78 | 680 | 18.01 | 4.08 |
2026-08-29 08:26:24 | 7.05 | ENE | 10.87 | 20.59 | 0 | 1028.38 | 84.79 | 680 | 17.94 | 4.07 |
2026-08-29 08:25:26 | 5.84 | NE | 7.39 | 20.59 | 0 | 1028.36 | 85.84 | 654 | 18.13 | 4.08 |
2026-08-29 08:24:27 | 5.59 | ENE | 7.13 | 20.63 | 0 | 1028.37 | 86.28 | 643 | 18.26 | 4.08 |
2026-08-29 08:23:29 | 5.26 | NE | 7.04 | 20.62 | 0 | 1028.28 | 86.28 | 643 | 18.25 | 4.08 |
2026-08-29 08:22:30 | 4.98 | ENE | 6.78 | 20.65 | 0 | 1028.26 | 86.06 | 648 | 18.23 | 4.08 |
2026-08-29 08:21:32 | 5.81 | NE | 8.27 | 20.66 | 0 | 1028.26 | 85.55 | 661 | 18.15 | 4.08 |
2026-08-29 08:20:33 | 5.52 | NE | 7.61 | 20.72 | 0 | 1028.11 | 85.47 | 663 | 18.19 | 4.08 |
2026-08-29 08:19:34 | 4.92 | ENE | 6.95 | 20.7 | 0 | 1028.07 | 84.99 | 675 | 18.08 | 4.08 |
2026-08-29 08:18:35 | 4.75 | NNE | 7.13 | 20.89 | 0 | 1028.03 | 84.73 | 682 | 18.22 | 4.08 |
2026-08-29 08:17:37 | 4.67 | NE | 6.78 | 21.05 | 0 | 1028.07 | 83.52 | 712 | 18.15 | 4.08 |
2026-08-29 08:16:38 | 5.86 | ENE | 8.4 | 21.12 | 0 | 1027.98 | 81.97 | 751 | 17.92 | 4.08 |
2026-08-29 08:15:40 | 5.21 | NE | 7.04 | 21.25 | 0 | 1027.91 | 82.28 | 743 | 18.11 | 4.08 |
2026-08-29 08:14:41 | 6.25 | NE | 7.39 | 21.53 | 0 | 1027.94 | 80.56 | 786 | 18.04 | 4.08 |
2026-08-29 08:13:43 | 4.77 | ENE | 5.59 | 21.89 | 0 | 1028.1 | 79.56 | 811 | 18.19 | 4.08 |
2026-08-29 08:12:44 | 4.56 | NNE | 6.34 | 22.37 | 0 | 1028.24 | 77.63 | 859 | 18.27 | 4.08 |
2026-08-29 08:11:45 | 2.57 | NNE | 4.97 | 22.69 | 0 | 1028.32 | 76.51 | 887 | 18.35 | 4.08 |
2026-08-29 08:10:47 | 1.26 | NNE | 2.55 | 22.87 | 0 | 1028.38 | 75.71 | 907 | 18.35 | 4.08 |
2026-08-29 08:09:48 | 1.91 | NW | 2.2 | 22.97 | 0 | 1028.27 | 75.12 | 922 | 18.32 | 4.08 |
2026-08-29 08:08:50 | 3.21 | NE | 5.54 | 23.01 | 0 | 1028.08 | 74.32 | 942 | 18.19 | 4.08 |
2026-08-29 08:07:51 | 1.77 | NE | 4.09 | 23.06 | 0 | 1028 | 74.25 | 944 | 18.23 | 4.08 |
2026-08-29 08:06:53 | 3.31 | NNE | 4.8 | 23.04 | 0 | 1027.91 | 73.62 | 959 | 18.07 | 4.08 |
2026-08-29 08:05:54 | 2.25 | NE | 3.43 | 23.07 | 0 | 1027.7 | 74.22 | 944 | 18.23 | 4.08 |
2026-08-29 08:04:55 | 2.78 | NNE | 3.96 | 23.17 | 0 | 1027.67 | 74.39 | 940 | 18.36 | 4.08 |
2026-08-29 08:03:57 | 3.09 | ENE | 4.49 | 23.15 | 0 | 1027.62 | 73.91 | 952 | 18.24 | 4.08 |
2026-08-29 08:02:58 | 2.79 | ENE | 2.95 | 23.15 | 0 | 1027.62 | 74.39 | 940 | 18.34 | 4.08 |
2026-08-29 08:02:00 | 5.09 | NE | 6.25 | 23.13 | 0 | 1027.62 | 74.29 | 943 | 18.3 | 4.08 |
2026-08-29 08:01:01 | 5.67 | ENE | 7.57 | 23 | 0 | 1027.58 | 73.89 | 953 | 18.09 | 4.08 |
2026-08-29 08:00:03 | 4.72 | NNE | 7.57 | 22.9 | 0 | 1027.64 | 75.19 | 920 | 18.27 | 4.08 |
2026-08-29 07:59:04 | 4.6 | NE | 5.72 | 22.79 | 0 | 1027.67 | 76.23 | 894 | 18.38 | 4.08 |
2026-08-29 07:58:05 | 3.67 | ENE | 4.44 | 22.72 | 0 | 1027.65 | 76.76 | 881 | 18.43 | 4.08 |
2026-08-29 07:57:07 | 4.74 | NE | 7.96 | 22.56 | 0 | 1027.67 | 76.27 | 893 | 18.17 | 4.08 |
2026-08-29 07:56:08 | 3.57 | NE | 7 | 22.48 | 0 | 1027.57 | 76.95 | 876 | 18.23 | 4.08 |
2026-08-29 07:55:10 | 3.87 | NE | 5.5 | 22.45 | 0 | 1027.67 | 77.11 | 872 | 18.24 | 4.08 |
2026-08-29 07:54:11 | 2.87 | NE | 4.66 | 22.44 | 0 | 1027.66 | 77.81 | 855 | 18.37 | 4.08 |
2026-08-29 07:53:13 | 2.47 | NE | 2.95 | 22.38 | 0 | 1027.63 | 77.76 | 856 | 18.3 | 4.08 |
2026-08-29 07:52:14 | 4.66 | NE | 8.14 | 22.3 | 0 | 1027.67 | 77.17 | 871 | 18.11 | 4.08 |
2026-08-29 07:51:16 | 2.18 | NNW | 3.43 | 22.2 | 0 | 1027.61 | 78.5 | 837 | 18.28 | 4.08 |
2026-08-29 07:50:17 | 2.47 | NE | 3.34 | 22.15 | 0 | 1027.61 | 78.19 | 845 | 18.17 | 4.08 |
2026-08-29 07:49:18 | 1.85 | NE | 3.78 | 22.14 | 0 | 1027.6 | 78.45 | 839 | 18.21 | 4.08 |
2026-08-29 07:48:20 | 2.52 | NNE | 3.7 | 22.07 | 0 | 1027.59 | 78.3 | 842 | 18.11 | 4.08 |
2026-08-29 07:47:21 | 2.51 | NNE | 3.04 | 22.01 | 0 | 1027.63 | 78.81 | 830 | 18.16 | 4.08 |
2026-08-29 07:46:23 | 2.34 | NE | 3.87 | 21.92 | 0 | 1027.59 | 78.93 | 827 | 18.1 | 4.08 |
2026-08-29 07:45:24 | 2.09 | ENE | 2.9 | 21.87 | 0 | 1027.56 | 79.52 | 812 | 18.17 | 4.08 |
2026-08-29 07:44:26 | 1.92 | E | 2.55 | 21.84 | 0 | 1027.52 | 79.84 | 804 | 18.2 | 4.08 |
2026-08-29 07:43:27 | 2.05 | NE | 3.34 | 21.8 | 0 | 1027.49 | 79.94 | 801 | 18.18 | 4.08 |
2026-08-29 07:42:28 | 2.58 | ENE | 4.14 | 21.77 | 0 | 1027.54 | 80.01 | 800 | 18.17 | 4.08 |
2026-08-29 07:41:30 | 2.89 | NE | 3.7 | 21.72 | 0 | 1027.49 | 80 | 800 | 18.12 | 4.08 |
2026-08-29 07:40:32 | 2.09 | NE | 2.73 | 21.66 | 0 | 1027.48 | 80.43 | 789 | 18.14 | 4.08 |
2026-08-29 07:39:33 | 2.21 | ENE | 4.05 | 21.58 | 0 | 1027.48 | 80.51 | 787 | 18.08 | 4.08 |
2026-08-29 07:38:34 | 2.35 | NE | 3.26 | 21.56 | 0 | 1027.49 | 80.76 | 781 | 18.11 | 4.08 |
2026-08-29 07:37:35 | 2.77 | NE | 4 | 21.49 | 0 | 1027.49 | 81.06 | 773 | 18.1 | 4.08 |
2026-08-29 07:36:37 | 2.75 | NE | 4.14 | 21.44 | 0 | 1027.42 | 81.47 | 763 | 18.13 | 4.08 |
2026-08-29 07:35:38 | 3.7 | ENE | 4.62 | 21.35 | 0 | 1027.42 | 81.59 | 760 | 18.07 | 4.08 |
2026-08-29 07:34:40 | 4.04 | NE | 5.24 | 21.27 | 0 | 1027.37 | 81.96 | 751 | 18.06 | 4.08 |
2026-08-29 07:33:41 | 3.7 | ENE | 4.62 | 21.11 | 0 | 1027.37 | 82.7 | 732 | 18.05 | 4.08 |
2026-08-29 07:32:43 | 3.99 | NE | 5.63 | 21 | 0 | 1027.27 | 83.39 | 715 | 18.07 | 4.08 |
2026-08-29 07:31:44 | 3.94 | NE | 4.84 | 20.93 | 0 | 1027.34 | 84.28 | 693 | 18.18 | 4.08 |
2026-08-29 07:30:46 | 2.73 | NE | 3.43 | 20.84 | 0 | 1027.31 | 84.85 | 679 | 18.19 | 4.08 |
2026-08-29 07:29:47 | 3.21 | NE | 4.22 | 20.63 | 0 | 1027.39 | 85.54 | 661 | 18.12 | 4.08 |
2026-08-29 07:28:48 | 3.88 | NE | 5.1 | 20.31 | 0 | 1027.46 | 86.69 | 633 | 18.02 | 4.08 |
2026-08-29 07:27:50 | 2.71 | NE | 3.96 | 20.08 | 0 | 1027.53 | 88.18 | 595 | 18.06 | 4.08 |
2026-08-29 07:26:51 | 1.85 | NNE | 2.95 | 20.03 | 0 | 1027.59 | 88.79 | 580 | 18.12 | 4.08 |
2026-08-29 07:25:53 | 1.05 | NNE | 2.38 | 20.03 | 0 | 1027.65 | 88.96 | 576 | 18.15 | 4.08 |
2026-08-29 07:24:54 | 1.18 | N | 1.72 | 20.05 | 0 | 1027.67 | 88.92 | 577 | 18.16 | 4.08 |
2026-08-29 07:23:56 | 1.68 | NNE | 2.33 | 20.11 | 0 | 1027.67 | 88.72 | 582 | 18.19 | 4.08 |
2026-08-29 07:22:57 | 2.61 | NNE | 3.21 | 20.14 | 0 | 1027.73 | 88.42 | 589 | 18.16 | 4.08 |
2026-08-29 07:21:59 | 2.12 | NNW | 3.08 | 20.21 | 0 | 1027.68 | 87.84 | 604 | 18.13 | 4.08 |
2026-08-29 07:21:00 | 2 | NNW | 2.33 | 20.35 | 0 | 1027.66 | 87.15 | 621 | 18.14 | 4.08 |
2026-08-29 07:20:01 | 1.4 | NW | 1.54 | 20.48 | 0 | 1027.63 | 86.37 | 641 | 18.12 | 4.08 |
2026-08-29 07:19:02 | 1.25 | NW | 1.54 | 20.66 | 0 | 1027.6 | 85.53 | 662 | 18.15 | 4.08 |
2026-08-29 07:18:04 | 0.75 | NW | 0.84 | 20.82 | 0 | 1027.58 | 84.41 | 690 | 18.09 | 4.08 |
2026-08-29 07:17:05 | 0.68 | NW | 0.75 | 20.95 | 0 | 1027.52 | 83.53 | 712 | 18.05 | 4.08 |
2026-08-29 07:16:07 | 0.65 | NW | 0.92 | 20.98 | 0 | 1027.53 | 82.78 | 730 | 17.94 | 4.08 |
2026-08-29 07:15:08 | 0.89 | NW | 0.97 | 21 | 0 | 1027.49 | 82.45 | 739 | 17.89 | 4.08 |
2026-08-29 07:14:10 | 1.53 | NW | 1.98 | 20.95 | 0 | 1027.51 | 82.31 | 742 | 17.82 | 4.08 |
2026-08-29 07:13:11 | 1.5 | NW | 1.72 | 21.03 | 0 | 1027.48 | 82.39 | 740 | 17.91 | 4.08 |
2026-08-29 07:12:13 | 1.76 | NW | 2.07 | 21.08 | 0 | 1027.52 | 82.22 | 744 | 17.93 | 4.08 |
2026-08-29 07:11:14 | 1.59 | NW | 1.76 | 21.03 | 0 | 1027.51 | 82.01 | 750 | 17.84 | 4.08 |
2026-08-29 07:10:16 | 1.78 | NW | 1.98 | 21 | 0 | 1027.52 | 82.26 | 743 | 17.86 | 4.08 |
2026-08-29 07:09:17 | 1.66 | NW | 2.16 | 20.95 | 0 | 1027.5 | 82.54 | 736 | 17.86 | 4.08 |
2026-08-29 07:08:19 | 1.38 | NW | 1.76 | 20.91 | 0 | 1027.49 | 82.72 | 732 | 17.86 | 4.08 |
2026-08-29 07:07:20 | 1.13 | WNW | 1.54 | 20.89 | 0 | 1027.53 | 82.76 | 731 | 17.85 | 4.08 |
2026-08-29 07:06:22 | 1.41 | WNW | 1.54 | 20.89 | 0 | 1027.57 | 83.05 | 724 | 17.9 | 4.08 |
2026-08-29 07:05:23 | 1.3 | WNW | 1.45 | 20.89 | 0 | 1027.58 | 82.98 | 725 | 17.89 | 4.08 |
2026-08-29 07:04:24 | 1 | NW | 1.23 | 20.91 | 0 | 1027.66 | 83.05 | 724 | 17.92 | 4.08 |
2026-08-29 07:03:26 | 0.84 | NW | 0.92 | 20.94 | 0 | 1027.58 | 82.92 | 727 | 17.93 | 4.08 |
2026-08-29 07:02:27 | 0.95 | NW | 1.19 | 20.94 | 0 | 1027.54 | 82.79 | 730 | 17.9 | 4.08 |
2026-08-29 07:01:29 | 0.51 | NW | 0.92 | 20.9 | 0 | 1027.53 | 82.85 | 729 | 17.87 | 4.08 |
2026-08-29 07:00:30 | 0.67 | NW | 0.92 | 20.9 | 0 | 1027.48 | 82.91 | 727 | 17.89 | 4.08 |
2026-08-29 06:59:32 | 0.72 | NW | 1.01 | 20.87 | 0 | 1027.46 | 82.89 | 728 | 17.85 | 4.08 |
2026-08-29 06:58:33 | 0 | NW | 0 | 20.86 | 0 | 1027.45 | 82.86 | 728 | 17.84 | 4.08 |
2026-08-29 06:57:35 | 0.1 | NW | 0.22 | 20.89 | 0 | 1027.47 | 82.76 | 731 | 17.85 | 4.08 |
2026-08-29 06:56:36 | 0.44 | NW | 0.48 | 20.94 | 0 | 1027.45 | 82.69 | 733 | 17.88 | 4.08 |
2026-08-29 06:55:38 | 0.8 | NW | 1.01 | 20.98 | 0 | 1027.48 | 82.57 | 736 | 17.9 | 4.08 |
2026-08-29 06:54:39 | 1.05 | NW | 1.19 | 21.07 | 0 | 1027.45 | 82.39 | 740 | 17.95 | 4.08 |
2026-08-29 06:53:41 | 1.03 | NW | 1.72 | 21 | 0 | 1027.45 | 82.14 | 746 | 17.83 | 4.08 |
2026-08-29 06:52:42 | 0.34 | NW | 0.97 | 20.98 | 0 | 1027.4 | 82.41 | 740 | 17.87 | 4.08 |
2026-08-29 06:51:44 | 0.63 | NW | 0.7 | 20.94 | 0 | 1027.34 | 82.57 | 736 | 17.86 | 4.08 |
2026-08-29 06:50:45 | 0.96 | NW | 1.1 | 20.89 | 0 | 1027.23 | 82.83 | 729 | 17.86 | 4.08 |
2026-08-29 06:49:46 | 1.35 | NW | 1.67 | 20.82 | 0 | 1027.18 | 83.09 | 723 | 17.84 | 4.08 |
2026-08-29 06:48:48 | 1.44 | NW | 1.8 | 20.72 | 0 | 1027.17 | 83.47 | 713 | 17.82 | 4.08 |
2026-08-29 06:47:49 | 1.18 | NW | 1.72 | 20.62 | 0 | 1027.13 | 84 | 700 | 17.82 | 4.08 |
2026-08-29 06:46:51 | 0.97 | NW | 1.54 | 20.52 | 0 | 1027.1 | 84.53 | 687 | 17.82 | 4.08 |
2026-08-29 06:45:52 | 1.33 | NW | 1.8 | 20.43 | 0 | 1027.08 | 84.83 | 679 | 17.79 | 4.08 |
2026-08-29 06:44:54 | 1.23 | NW | 1.5 | 20.41 | 0 | 1027.04 | 85.03 | 674 | 17.81 | 4.08 |
2026-08-29 06:43:55 | 1.04 | WNW | 1.36 | 20.38 | 0 | 1027.02 | 85.14 | 671 | 17.8 | 4.08 |
2026-08-29 06:42:57 | 0.89 | W | 0.97 | 20.35 | 0 | 1027.02 | 85.05 | 674 | 17.75 | 4.08 |
2026-08-29 06:41:58 | 0.86 | W | 1.06 | 20.38 | 0 | 1026.99 | 84.92 | 677 | 17.76 | 4.08 |
2026-08-29 06:41:00 | 1.14 | WNW | 1.45 | 20.42 | 0 | 1026.97 | 84.76 | 681 | 17.77 | 4.08 |
2026-08-29 06:40:01 | 1.23 | W | 1.36 | 20.49 | 0 | 1027 | 84.56 | 686 | 17.8 | 4.08 |
2026-08-29 06:39:03 | 1.33 | W | 1.72 | 20.55 | 0 | 1027.06 | 84.03 | 699 | 17.76 | 4.08 |
2026-08-29 06:38:04 | 1.99 | WNW | 2.24 | 20.63 | 0 | 1027.06 | 83.43 | 714 | 17.72 | 4.08 |
2026-08-29 06:37:06 | 2.05 | WNW | 2.42 | 20.82 | 0 | 1027.13 | 82.57 | 736 | 17.74 | 4.08 |
2026-08-29 06:36:07 | 2.12 | NW | 2.9 | 21.05 | 0 | 1027.11 | 81.73 | 757 | 17.8 | 4.08 |
2026-08-29 06:35:08 | 1.76 | NW | 2.33 | 21.22 | 0 | 1027.15 | 81.24 | 769 | 17.87 | 4.08 |
2026-08-29 06:34:10 | 1.47 | NW | 1.85 | 21.31 | 0 | 1027.08 | 80.69 | 783 | 17.85 | 4.08 |
2026-08-29 06:33:11 | 1.13 | NW | 1.36 | 21.38 | 0 | 1027.01 | 80.23 | 794 | 17.83 | 4.08 |
2026-08-29 06:32:13 | 0.78 | WNW | 1.1 | 21.38 | 0 | 1026.99 | 79.92 | 802 | 17.77 | 4.08 |
2026-08-29 06:31:14 | 0.9 | WNW | 1.14 | 21.38 | 0 | 1026.98 | 79.8 | 805 | 17.75 | 4.08 |
2026-08-29 06:30:16 | 0.91 | WNW | 1.06 | 21.37 | 0 | 1026.94 | 79.62 | 809 | 17.7 | 4.08 |
2026-08-29 06:29:17 | 0.88 | WNW | 1.06 | 21.34 | 0 | 1026.94 | 79.61 | 810 | 17.67 | 4.08 |
2026-08-29 06:28:19 | 0.83 | WNW | 0.97 | 21.38 | 0 | 1026.93 | 79.63 | 809 | 17.71 | 4.08 |
2026-08-29 06:27:20 | 0.93 | WNW | 0.97 | 21.42 | 0 | 1026.88 | 79.37 | 816 | 17.7 | 4.08 |
2026-08-29 06:26:22 | 1.16 | WNW | 1.28 | 21.48 | 0 | 1026.89 | 79.23 | 819 | 17.73 | 4.08 |
2026-08-29 06:25:23 | 1.22 | WNW | 1.36 | 21.58 | 0 | 1026.87 | 78.45 | 839 | 17.67 | 4.08 |
2026-08-29 06:24:24 | 1.25 | WNW | 1.32 | 21.65 | 0 | 1026.89 | 77.91 | 852 | 17.63 | 4.08 |
2026-08-29 06:23:26 | 1.27 | WNW | 1.45 | 21.8 | 0 | 1026.85 | 77.49 | 863 | 17.69 | 4.08 |
2026-08-29 06:22:27 | 0.93 | WNW | 1.06 | 21.92 | 0 | 1026.82 | 76.88 | 878 | 17.68 | 4.08 |
2026-08-29 06:21:29 | 0.68 | W | 0.75 | 21.99 | 0 | 1026.84 | 76.13 | 897 | 17.59 | 4.08 |
2026-08-29 06:20:30 | 0.43 | W | 0.79 | 21.99 | 0 | 1026.82 | 75.75 | 906 | 17.51 | 4.08 |
2026-08-29 06:19:31 | 0 | W | 0 | 21.99 | 0 | 1026.87 | 75.79 | 905 | 17.52 | 4.08 |
2026-08-29 06:18:33 | 0 | W | 0 | 21.97 | 0 | 1026.84 | 76 | 900 | 17.54 | 4.08 |
2026-08-29 06:17:34 | 0 | W | 0 | 21.99 | 0 | 1026.83 | 76.17 | 896 | 17.6 | 4.08 |
2026-08-29 06:16:36 | 0 | W | 0 | 21.94 | 0 | 1026.88 | 76.16 | 896 | 17.55 | 4.08 |
2026-08-29 06:15:37 | 0 | W | 0 | 21.94 | 0 | 1026.84 | 76.21 | 895 | 17.56 | 4.08 |
2026-08-29 06:14:39 | 0 | W | 0 | 21.96 | 0 | 1026.83 | 76.24 | 894 | 17.58 | 4.08 |
2026-08-29 06:13:40 | 0 | WSW | 0 | 21.93 | 0 | 1026.87 | 76.18 | 895 | 17.54 | 4.08 |
2026-08-29 06:12:41 | 0.26 | WSW | 0.48 | 22 | 0 | 1026.9 | 76.18 | 895 | 17.61 | 4.08 |
2026-08-29 06:11:42 | 0.19 | WSW | 0.66 | 22.03 | 0 | 1026.89 | 76.08 | 898 | 17.62 | 4.08 |
2026-08-29 06:10:43 | 0 | WSW | 0 | 22.05 | 0 | 1026.92 | 75.96 | 901 | 17.61 | 4.08 |
2026-08-29 06:09:45 | 0.47 | WSW | 0.62 | 22.05 | 0 | 1026.86 | 75.95 | 901 | 17.61 | 4.08 |
2026-08-29 06:08:46 | 0.7 | WSW | 0.75 | 22.07 | 0 | 1026.9 | 76.12 | 897 | 17.66 | 4.08 |
2026-08-29 06:07:48 | 0.84 | WSW | 0.92 | 22.01 | 0 | 1026.83 | 76.29 | 893 | 17.64 | 4.08 |
2026-08-29 06:06:49 | 1 | WSW | 1.1 | 21.99 | 0 | 1026.86 | 76.54 | 886 | 17.67 | 4.08 |
2026-08-29 06:05:51 | 1.13 | WSW | 1.19 | 21.97 | 0 | 1026.87 | 76.64 | 884 | 17.68 | 4.08 |
2026-08-29 06:04:52 | 1.09 | WSW | 1.28 | 22 | 0 | 1026.82 | 76.61 | 885 | 17.7 | 4.08 |
2026-08-29 06:03:54 | 1.18 | WSW | 1.32 | 22.03 | 0 | 1026.82 | 76.51 | 887 | 17.71 | 4.08 |
2026-08-29 06:02:55 | 1.13 | WSW | 1.32 | 22.04 | 0 | 1026.86 | 76.51 | 887 | 17.72 | 4.08 |
2026-08-29 06:01:56 | 1.02 | WSW | 1.14 | 22.08 | 0 | 1026.85 | 76.37 | 891 | 17.73 | 4.08 |
2026-08-29 06:00:58 | 1.04 | WSW | 1.1 | 22 | 0 | 1026.82 | 76.51 | 887 | 17.68 | 4.08 |
2026-08-29 05:59:59 | 1.14 | WSW | 1.19 | 21.94 | 0 | 1026.89 | 76.85 | 879 | 17.69 | 4.08 |
2026-08-29 05:59:01 | 1.2 | WSW | 1.23 | 21.86 | 0 | 1026.87 | 77.23 | 869 | 17.69 | 4.08 |
2026-08-29 05:58:02 | 1.21 | WSW | 1.28 | 21.79 | 0 | 1026.87 | 77.62 | 859 | 17.7 | 4.08 |
2026-08-29 05:57:04 | 1.27 | WSW | 1.32 | 21.67 | 0 | 1026.9 | 78.24 | 844 | 17.71 | 4.08 |
2026-08-29 05:56:05 | 1.25 | WSW | 1.32 | 21.52 | 0 | 1026.91 | 78.92 | 827 | 17.71 | 4.08 |
2026-08-29 05:55:06 | 1.22 | WSW | 1.28 | 21.38 | 0 | 1026.92 | 79.68 | 808 | 17.72 | 4.08 |
2026-08-29 05:54:07 | 1.31 | NW | 1.45 | 21.25 | 0 | 1026.93 | 80.59 | 785 | 17.78 | 4.08 |
2026-08-29 05:53:09 | 1.13 | NW | 1.19 | 21.05 | 0 | 1026.87 | 81.39 | 765 | 17.74 | 4.08 |
2026-08-29 05:52:10 | 1.04 | NW | 1.06 | 20.95 | 0 | 1026.84 | 82.17 | 746 | 17.79 | 4.08 |
2026-08-29 05:51:11 | 1.08 | NW | 1.1 | 20.9 | 0 | 1026.86 | 82.58 | 735 | 17.82 | 4.08 |
2026-08-29 05:50:13 | 1.23 | NW | 1.23 | 20.86 | 0 | 1026.87 | 82.79 | 730 | 17.82 | 4.08 |
2026-08-29 05:49:14 | 1.33 | NW | 1.45 | 20.82 | 0 | 1026.8 | 82.96 | 726 | 17.82 | 4.08 |
2026-08-29 05:48:16 | 1.34 | NW | 1.63 | 20.8 | 0 | 1026.81 | 83.02 | 724 | 17.81 | 4.08 |
2026-08-29 05:47:17 | 1.03 | NW | 1.1 | 20.83 | 0 | 1026.74 | 82.8 | 730 | 17.8 | 4.08 |
2026-08-29 05:46:19 | 1.06 | NW | 1.23 | 20.94 | 0 | 1026.7 | 82.28 | 743 | 17.8 | 4.08 |
2026-08-29 05:45:20 | 0.77 | NW | 0.84 | 21.08 | 0 | 1026.65 | 81.61 | 760 | 17.81 | 4.08 |
2026-08-29 05:44:30 | 0.8 | NW | 0.84 | 21.14 | 0 | 1026.68 | 81.14 | 771 | 17.78 | 4.08 |
2026-08-29 05:43:33 | 0.95 | NW | 1.28 | 21.21 | 0 | 1026.63 | 80.8 | 780 | 17.78 | 4.08 |
2026-08-29 05:44:00 | 0.99 | NW | 1.06 | 21.21 | 0 | 1026.69 | 80.84 | 779 | 17.79 | 4.08 |
2026-08-29 05:44:01 | 0.86 | NW | 1.06 | 21.2 | 0 | 1026.64 | 80.93 | 777 | 17.79 | 4.08 |
2026-08-29 05:13:08 | 1.64 | W | 2.42 | 22.76 | 0 | 1026.29 | 73.31 | 967 | 17.73 | 4.08 |
2026-08-29 05:12:08 | 2.35 | WNW | 3.08 | 22.76 | 0 | 1026.24 | 73.27 | 968 | 17.72 | 4.08 |
2026-08-29 05:11:10 | 1.63 | WNW | 2.33 | 22.75 | 0 | 1026.24 | 73.21 | 970 | 17.7 | 4.08 |
2026-08-29 05:10:11 | 2.02 | WNW | 2.51 | 22.79 | 0 | 1026.25 | 73.2 | 970 | 17.74 | 4.08 |
2026-08-29 05:09:13 | 2.3 | WNW | 2.9 | 22.8 | 0 | 1026.17 | 73.14 | 971 | 17.73 | 4.08 |
2026-08-29 05:08:14 | 1.7 | WNW | 2.6 | 22.76 | 0 | 1026.18 | 73.27 | 968 | 17.72 | 4.08 |
2026-08-29 05:07:15 | 1.72 | W | 2.51 | 22.79 | 0 | 1026.13 | 73.38 | 965 | 17.78 | 4.08 |
2026-08-29 05:06:17 | 2.21 | W | 2.82 | 22.75 | 0 | 1026.17 | 73.34 | 966 | 17.73 | 4.08 |
2026-08-29 05:05:18 | 1.78 | W | 2.46 | 22.69 | 0 | 1026.11 | 73.69 | 958 | 17.75 | 4.08 |
2026-08-29 05:04:20 | 1.7 | WNW | 2.02 | 22.7 | 0 | 1026.09 | 73.68 | 958 | 17.76 | 4.08 |
2026-08-29 05:03:21 | 1.69 | NW | 2.42 | 22.69 | 0 | 1026.05 | 73.82 | 954 | 17.78 | 4.08 |
2026-08-29 05:02:22 | 1.3 | WNW | 2.16 | 22.72 | 0 | 1026.06 | 73.87 | 953 | 17.82 | 4.08 |
2026-08-29 05:01:24 | 1.31 | W | 2.29 | 22.72 | 0 | 1026.02 | 73.72 | 957 | 17.78 | 4.08 |
2026-08-29 05:00:25 | 1.32 | WNW | 1.72 | 22.79 | 0 | 1026.06 | 73.65 | 959 | 17.84 | 4.08 |
2026-08-29 04:59:27 | 1.28 | NW | 1.76 | 22.85 | 0 | 1026.03 | 73.53 | 962 | 17.87 | 4.08 |
2026-08-29 04:58:28 | 1.19 | NW | 1.45 | 22.89 | 0 | 1025.99 | 73.42 | 964 | 17.88 | 4.08 |
2026-08-29 04:57:30 | 1.52 | WNW | 2.16 | 22.86 | 0 | 1026.01 | 73.4 | 965 | 17.85 | 4.08 |
2026-08-29 04:56:31 | 1.82 | WNW | 2.51 | 22.82 | 0 | 1025.99 | 73.53 | 962 | 17.84 | 4.08 |
2026-08-29 04:55:33 | 1.66 | NW | 1.89 | 22.79 | 0 | 1026.01 | 73.68 | 958 | 17.84 | 4.08 |
2026-08-29 04:54:34 | 1.78 | WNW | 2.38 | 22.82 | 0 | 1025.97 | 73.91 | 952 | 17.92 | 4.08 |
2026-08-29 04:53:36 | 1.14 | W | 1.36 | 22.82 | 0 | 1025.99 | 74.02 | 949 | 17.94 | 4.08 |
2026-08-29 04:52:37 | 1.26 | W | 2.02 | 22.8 | 0 | 1025.96 | 73.98 | 950 | 17.92 | 4.08 |
2026-08-29 04:51:38 | 1.24 | W | 1.85 | 22.82 | 0 | 1025.97 | 74.04 | 949 | 17.95 | 4.08 |
2026-08-29 04:50:40 | 1.44 | W | 2.33 | 22.79 | 0 | 1026 | 74.06 | 948 | 17.92 | 4.08 |
2026-08-29 04:49:41 | 1.35 | W | 1.72 | 22.77 | 0 | 1025.96 | 74.25 | 944 | 17.95 | 4.09 |
2026-08-29 04:48:43 | 1.47 | W | 1.72 | 22.76 | 0 | 1025.92 | 74.29 | 943 | 17.94 | 4.09 |
2026-08-29 04:47:44 | 1.49 | W | 2.29 | 22.7 | 0 | 1025.89 | 74.53 | 937 | 17.94 | 4.08 |
2026-08-29 04:46:46 | 1.18 | WNW | 1.67 | 22.63 | 0 | 1025.86 | 74.78 | 930 | 17.92 | 4.09 |
2026-08-29 04:45:47 | 0.77 | W | 0.92 | 22.59 | 0 | 1025.85 | 75.02 | 924 | 17.94 | 4.09 |
2026-08-29 04:44:49 | 1.2 | W | 1.98 | 22.56 | 0 | 1025.82 | 75.2 | 920 | 17.95 | 4.09 |
2026-08-29 04:43:50 | 1.16 | W | 1.98 | 22.45 | 0 | 1025.86 | 75.53 | 912 | 17.91 | 4.09 |
2026-08-29 04:42:52 | 0.53 | WNW | 0.88 | 22.37 | 0 | 1025.85 | 75.79 | 905 | 17.89 | 4.09 |
2026-08-29 04:41:53 | 0.31 | WNW | 1.06 | 22.3 | 0 | 1025.92 | 75.89 | 903 | 17.84 | 4.09 |
2026-08-29 04:40:54 | 0 | NW | 0 | 22.3 | 0 | 1025.88 | 75.88 | 903 | 17.84 | 4.09 |
2026-08-29 04:39:56 | 0 | NW | 0 | 22.25 | 0 | 1025.87 | 75.99 | 900 | 17.81 | 4.09 |
2026-08-29 04:38:57 | 0 | NW | 0 | 22.22 | 0 | 1025.87 | 76.12 | 897 | 17.81 | 4.09 |
2026-08-29 04:37:59 | 0.41 | NW | 0.66 | 22.2 | 0 | 1025.88 | 76.32 | 892 | 17.83 | 4.09 |
2026-08-29 04:37:00 | 0.43 | NW | 0.66 | 22.15 | 0 | 1025.89 | 76.28 | 893 | 17.78 | 4.09 |
2026-08-29 04:36:02 | 0.03 | NW | 0.31 | 22.15 | 0 | 1025.87 | 75.95 | 901 | 17.71 | 4.09 |
2026-08-29 04:35:03 | 0 | NW | 0 | 22.15 | 0 | 1025.85 | 75.68 | 908 | 17.65 | 4.09 |
2026-08-29 04:34:04 | 0 | NW | 0 | 22.17 | 0 | 1025.82 | 75.75 | 906 | 17.68 | 4.09 |
2026-08-29 04:33:06 | 0 | NW | 0 | 22.2 | 0 | 1025.8 | 75.86 | 903 | 17.74 | 4.09 |
2026-08-29 04:32:07 | 0 | NW | 0 | 22.2 | 0 | 1025.79 | 75.94 | 901 | 17.75 | 4.09 |
2026-08-29 04:31:09 | 0 | NW | 0 | 22.2 | 0 | 1025.81 | 75.99 | 900 | 17.76 | 4.09 |
2026-08-29 04:30:10 | 0 | NW | 0 | 22.17 | 0 | 1025.79 | 75.83 | 904 | 17.7 | 4.09 |
2026-08-29 04:29:12 | 0.14 | NW | 0.44 | 22.18 | 0 | 1025.77 | 75.66 | 908 | 17.68 | 4.09 |
2026-08-29 04:28:13 | 0 | NW | 0 | 22.21 | 0 | 1025.8 | 75.47 | 913 | 17.66 | 4.09 |
2026-08-29 04:27:14 | 0 | NW | 0 | 22.22 | 0 | 1025.79 | 75.2 | 920 | 17.62 | 4.09 |
2026-08-29 04:26:16 | 0 | NW | 0 | 22.25 | 0 | 1025.77 | 75.15 | 921 | 17.64 | 4.09 |
2026-08-29 04:25:17 | 0 | NW | 0 | 22.31 | 0 | 1025.77 | 75.05 | 924 | 17.67 | 4.09 |
2026-08-29 04:24:19 | 0 | NW | 0 | 22.34 | 0 | 1025.79 | 75.02 | 924 | 17.69 | 4.09 |
2026-08-29 04:23:20 | 0.31 | NW | 0.48 | 22.39 | 0 | 1025.8 | 75.11 | 922 | 17.76 | 4.09 |
2026-08-29 04:22:21 | 0.61 | NW | 0.79 | 22.41 | 0 | 1025.76 | 75.14 | 921 | 17.79 | 4.09 |
2026-08-29 04:21:23 | 0.48 | NW | 0.57 | 22.42 | 0 | 1025.69 | 74.93 | 927 | 17.75 | 4.09 |
2026-08-29 04:20:24 | 0.59 | NW | 0.88 | 22.44 | 0 | 1025.68 | 74.75 | 931 | 17.73 | 4.09 |
2026-08-29 04:19:26 | 0.32 | NW | 0.57 | 22.49 | 0 | 1025.71 | 74.35 | 941 | 17.7 | 4.09 |
2026-08-29 04:18:27 | 0.67 | NW | 0.92 | 22.56 | 0 | 1025.66 | 74.32 | 942 | 17.76 | 4.09 |
2026-08-29 04:17:28 | 0 | NW | 0 | 22.6 | 0 | 1025.61 | 74.11 | 947 | 17.75 | 4.09 |
2026-08-29 04:16:30 | 0 | NW | 0 | 22.6 | 0 | 1025.61 | 73.63 | 959 | 17.65 | 4.09 |
2026-08-29 04:15:31 | 0 | NW | 0 | 22.65 | 0 | 1025.59 | 73.38 | 965 | 17.64 | 4.09 |
2026-08-29 04:14:33 | 0 | NW | 0 | 22.69 | 0 | 1025.59 | 73.39 | 965 | 17.68 | 4.09 |
2026-08-29 04:13:34 | 0 | NW | 0 | 22.73 | 0 | 1025.55 | 73.31 | 967 | 17.7 | 4.09 |
2026-08-29 04:12:36 | 0.21 | NW | 0.53 | 22.76 | 0 | 1025.52 | 73.35 | 966 | 17.74 | 4.09 |
2026-08-29 04:11:37 | 0.27 | NW | 0.44 | 22.79 | 0 | 1025.52 | 73.28 | 968 | 17.76 | 4.09 |
2026-08-29 04:10:38 | 0.66 | NW | 0.88 | 22.79 | 0 | 1025.49 | 73.17 | 971 | 17.73 | 4.09 |
2026-08-29 04:09:40 | 0.61 | NW | 0.75 | 22.83 | 0 | 1025.47 | 72.99 | 975 | 17.73 | 4.09 |
2026-08-29 04:08:41 | 0.73 | NW | 0.84 | 22.85 | 0 | 1025.43 | 73.01 | 975 | 17.75 | 4.09 |
2026-08-29 04:07:43 | 0.82 | NW | 0.88 | 22.8 | 0 | 1025.43 | 72.98 | 975 | 17.7 | 4.09 |
2026-08-29 04:06:44 | 1.3 | NW | 1.94 | 22.79 | 0 | 1025.4 | 73.1 | 972 | 17.72 | 4.09 |
2026-08-29 04:05:45 | 0.18 | WNW | 0.66 | 22.77 | 0 | 1025.37 | 72.85 | 979 | 17.64 | 4.09 |
2026-08-29 04:04:47 | 0.48 | WNW | 0.53 | 22.79 | 0 | 1025.4 | 72.85 | 979 | 17.66 | 4.09 |
2026-08-29 04:03:48 | 0.58 | WNW | 0.7 | 22.85 | 0 | 1025.33 | 72.86 | 978 | 17.72 | 4.09 |
2026-08-29 04:02:50 | 0.64 | WNW | 0.79 | 22.85 | 0 | 1025.33 | 72.64 | 984 | 17.67 | 4.09 |
2026-08-29 04:01:51 | 0.54 | WNW | 0.62 | 22.92 | 0 | 1025.29 | 72.04 | 999 | 17.61 | 4.09 |
2026-08-29 04:00:52 | 0.34 | WNW | 0.44 | 23.04 | 0 | 1025.31 | 71.81 | 1005 | 17.67 | 4.09 |
2026-08-29 03:59:54 | 0.23 | WNW | 0.4 | 23.09 | 0 | 1025.25 | 72 | 1000 | 17.76 | 4.09 |
2026-08-29 03:58:55 | 0.5 | WNW | 0.62 | 23.13 | 0 | 1025.25 | 72.08 | 998 | 17.82 | 4.09 |
2026-08-29 03:57:56 | 0.72 | WNW | 0.97 | 23.14 | 0 | 1025.18 | 72.01 | 1000 | 17.81 | 4.09 |
2026-08-29 03:56:58 | 0.85 | WNW | 1.32 | 23.17 | 0 | 1025.21 | 71.94 | 1001 | 17.83 | 4.09 |
2026-08-29 03:55:59 | 0.88 | WNW | 1.14 | 23.21 | 0 | 1025.22 | 71.78 | 1005 | 17.83 | 4.09 |
2026-08-29 03:55:01 | 1.13 | WNW | 1.67 | 23.22 | 0 | 1025.19 | 71.59 | 1010 | 17.8 | 4.09 |
2026-08-29 03:54:02 | 1.26 | WNW | 1.41 | 23.27 | 0 | 1025.14 | 71.43 | 1014 | 17.81 | 4.09 |
2026-08-29 03:53:04 | 1.19 | NW | 1.45 | 23.27 | 0 | 1025.17 | 71.31 | 1017 | 17.78 | 4.09 |
2026-08-29 03:52:05 | 1.56 | NW | 1.72 | 23.32 | 0 | 1025.16 | 71.2 | 1020 | 17.81 | 4.09 |
2026-08-29 03:51:07 | 1.69 | WNW | 1.89 | 23.35 | 0 | 1025.13 | 71.02 | 1024 | 17.8 | 4.09 |
2026-08-29 03:50:08 | 1.73 | NW | 2.24 | 23.4 | 0 | 1025.11 | 70.77 | 1031 | 17.79 | 4.09 |
2026-08-29 03:49:09 | 1.49 | NW | 1.94 | 23.44 | 0 | 1025.08 | 70.52 | 1037 | 17.77 | 4.09 |
2026-08-29 03:48:11 | 1.1 | NW | 1.58 | 23.51 | 0 | 1025.15 | 70.24 | 1044 | 17.77 | 4.09 |
2026-08-29 03:47:12 | 1 | W | 1.28 | 23.52 | 0 | 1025.13 | 70.1 | 1047 | 17.75 | 4.09 |
2026-08-29 03:46:14 | 1.33 | W | 1.54 | 23.55 | 0 | 1025.13 | 70.05 | 1049 | 17.77 | 4.09 |
2026-08-29 03:45:15 | 1.62 | W | 2.29 | 23.61 | 0 | 1025.07 | 69.84 | 1054 | 17.78 | 4.09 |
2026-08-29 03:44:16 | 1.48 | W | 1.8 | 23.61 | 0 | 1025.08 | 69.7 | 1057 | 17.75 | 4.09 |
2026-08-29 03:43:18 | 1.35 | WSW | 1.76 | 23.59 | 0 | 1025.07 | 69.63 | 1059 | 17.71 | 4.09 |
2026-08-29 03:42:19 | 0.96 | W | 1.19 | 23.64 | 0 | 1025.05 | 69.43 | 1064 | 17.71 | 4.09 |
2026-08-29 03:41:20 | 1.23 | W | 1.67 | 23.64 | 0 | 1025.06 | 69.29 | 1068 | 17.68 | 4.09 |
2026-08-29 03:40:21 | 1.63 | W | 2.02 | 23.68 | 0 | 1025.13 | 69.14 | 1071 | 17.69 | 4.09 |
2026-08-29 03:39:23 | 1.25 | WNW | 1.67 | 23.73 | 0 | 1025.08 | 68.89 | 1078 | 17.68 | 4.09 |
2026-08-29 03:38:24 | 2.09 | WNW | 3.12 | 23.73 | 0 | 1025.07 | 68.95 | 1076 | 17.69 | 4.09 |
2026-08-29 03:37:26 | 1.07 | WSW | 1.58 | 23.73 | 0 | 1025.09 | 68.77 | 1081 | 17.65 | 4.09 |
2026-08-29 03:36:27 | 0.75 | NW | 0.88 | 23.73 | 0 | 1025.12 | 68.59 | 1085 | 17.61 | 4.09 |
2026-08-29 03:35:29 | 0.75 | NW | 0.92 | 23.75 | 0 | 1025.13 | 68.49 | 1088 | 17.6 | 4.09 |
2026-08-29 03:34:30 | 0.56 | NW | 0.79 | 23.73 | 0 | 1025.15 | 68.49 | 1088 | 17.58 | 4.09 |
2026-08-29 03:33:31 | 0.54 | NW | 0.66 | 23.76 | 0 | 1025.14 | 68.51 | 1087 | 17.62 | 4.09 |
2026-08-29 03:32:32 | 0.56 | NW | 0.66 | 23.83 | 0 | 1025.16 | 68.42 | 1089 | 17.66 | 4.09 |
2026-08-29 03:31:34 | 0.45 | NW | 0.53 | 23.87 | 0 | 1025.15 | 68.14 | 1096 | 17.64 | 4.09 |
2026-08-29 03:30:35 | 0.72 | NW | 0.84 | 23.89 | 0 | 1025.13 | 67.8 | 1105 | 17.58 | 4.09 |
2026-08-29 03:29:36 | 0.53 | NW | 0.62 | 23.89 | 0 | 1025.11 | 67.72 | 1107 | 17.56 | 4.09 |
2026-08-29 03:28:38 | 0.87 | NW | 1.23 | 23.87 | 0 | 1025.1 | 67.79 | 1105 | 17.55 | 4.09 |
2026-08-29 03:27:39 | 1.34 | NW | 2.29 | 23.87 | 0 | 1025.04 | 67.8 | 1105 | 17.56 | 4.09 |
2026-08-29 03:26:41 | 0.77 | NW | 1.32 | 23.87 | 0 | 1025.06 | 67.72 | 1107 | 17.54 | 4.09 |
2026-08-29 03:25:42 | 0.63 | WNW | 0.7 | 23.89 | 0 | 1025.05 | 67.78 | 1105 | 17.57 | 4.09 |
2026-08-29 03:24:43 | 0.54 | WNW | 0.66 | 23.92 | 0 | 1025.08 | 67.64 | 1109 | 17.57 | 4.09 |
2026-08-29 03:23:45 | 0.58 | WNW | 0.7 | 23.96 | 0 | 1025.11 | 67.55 | 1111 | 17.58 | 4.09 |
2026-08-29 03:22:46 | 0.64 | WNW | 0.79 | 23.99 | 0 | 1025.09 | 67.61 | 1110 | 17.63 | 4.09 |
2026-08-29 03:21:48 | 0.92 | WNW | 1.01 | 23.97 | 0 | 1025.15 | 67.52 | 1112 | 17.59 | 4.09 |
2026-08-29 03:20:49 | 1.11 | WNW | 1.36 | 23.97 | 0 | 1025.09 | 67.42 | 1114 | 17.56 | 4.09 |
2026-08-29 03:19:50 | 1 | WNW | 1.19 | 23.97 | 0 | 1025.05 | 67.35 | 1116 | 17.55 | 4.09 |
2026-08-29 03:18:52 | 1.03 | W | 1.14 | 24 | 0 | 1025.02 | 67.34 | 1116 | 17.57 | 4.09 |
2026-08-29 03:17:53 | 0.86 | W | 1.01 | 24.03 | 0 | 1025.01 | 67.31 | 1117 | 17.59 | 4.09 |
2026-08-29 03:16:55 | 0.96 | W | 1.23 | 24.03 | 0 | 1025.03 | 67.3 | 1117 | 17.59 | 4.09 |
2026-08-29 03:15:56 | 1.34 | W | 2.2 | 24.03 | 0 | 1024.96 | 67.14 | 1121 | 17.55 | 4.09 |
2026-08-29 03:14:57 | 0.4 | S | 0.92 | 23.99 | 0 | 1024.9 | 67.28 | 1118 | 17.55 | 4.09 |
2026-08-29 03:13:59 | 0.78 | S | 1.19 | 23.97 | 0 | 1024.92 | 67.31 | 1117 | 17.54 | 4.09 |
2026-08-29 03:13:00 | 0.07 | S | 0.35 | 23.99 | 0 | 1024.94 | 67.29 | 1118 | 17.55 | 4.09 |
2026-08-29 03:11:59 | 0.05 | S | 0.22 | 24 | 0 | 1024.92 | 67.22 | 1119 | 17.54 | 4.09 |
2026-08-29 03:11:00 | 0.21 | S | 0.57 | 24.03 | 0 | 1024.98 | 67.23 | 1119 | 17.57 | 4.09 |
2026-08-29 03:10:02 | 0.29 | S | 0.88 | 24.03 | 0 | 1024.98 | 67.25 | 1119 | 17.58 | 4.09 |
2026-08-29 03:09:03 | 0 | S | 0 | 24.04 | 0 | 1025.03 | 67.14 | 1121 | 17.56 | 4.09 |
2026-08-29 03:08:04 | 0 | S | 0 | 24.04 | 0 | 1024.99 | 67.19 | 1120 | 17.57 | 4.09 |
2026-08-29 03:07:06 | 0.22 | S | 0.57 | 24.04 | 0 | 1025.03 | 67.34 | 1116 | 17.61 | 4.09 |
2026-08-29 03:06:07 | 0.78 | S | 1.23 | 24.04 | 0 | 1025 | 67.42 | 1114 | 17.63 | 4.09 |
2026-08-29 03:05:09 | 0.38 | S | 0.53 | 24.01 | 0 | 1025.02 | 67.63 | 1109 | 17.65 | 4.09 |
2026-08-29 03:04:10 | 0.42 | S | 0.48 | 24.03 | 0 | 1025.04 | 67.72 | 1107 | 17.69 | 4.09 |
2026-08-29 03:03:12 | 0.48 | S | 0.53 | 24.06 | 0 | 1025.07 | 67.85 | 1104 | 17.75 | 4.09 |
2026-08-29 03:02:12 | 0.79 | S | 0.92 | 24.03 | 0 | 1025.08 | 67.93 | 1102 | 17.74 | 4.09 |
2026-08-29 03:01:14 | 0.84 | S | 0.97 | 24.03 | 0 | 1025.08 | 67.93 | 1102 | 17.74 | 4.09 |
2026-08-29 03:00:15 | 0.99 | S | 1.19 | 24.01 | 0 | 1025.02 | 68.04 | 1099 | 17.75 | 4.09 |
2026-08-29 02:59:17 | 1.24 | S | 1.5 | 24.04 | 0 | 1025 | 68.15 | 1096 | 17.8 | 4.09 |
2026-08-29 02:58:18 | 1.21 | S | 1.41 | 24.07 | 0 | 1025.02 | 68.07 | 1098 | 17.81 | 4.09 |
2026-08-29 02:57:19 | 1.49 | S | 1.8 | 24.07 | 0 | 1025.04 | 68.01 | 1100 | 17.8 | 4.09 |
2026-08-29 02:56:21 | 1.35 | S | 1.58 | 24.1 | 0 | 1025.02 | 68.05 | 1099 | 17.83 | 4.09 |
2026-08-29 02:55:22 | 1.38 | S | 1.54 | 24.14 | 0 | 1025.05 | 67.86 | 1103 | 17.83 | 4.09 |
2026-08-29 02:54:23 | 1.4 | S | 1.89 | 24.17 | 0 | 1025.01 | 67.84 | 1104 | 17.85 | 4.09 |
2026-08-29 02:53:25 | 1.22 | S | 1.76 | 24.24 | 0 | 1025.03 | 67.52 | 1112 | 17.84 | 4.09 |
2026-08-29 02:52:26 | 0.66 | SSW | 1.14 | 24.31 | 0 | 1025.01 | 67.36 | 1116 | 17.87 | 4.09 |
2026-08-29 02:51:27 | 1.22 | SSW | 1.58 | 24.35 | 0 | 1025 | 66.71 | 1132 | 17.76 | 4.09 |
2026-08-29 02:50:29 | 1.59 | SSE | 2.11 | 24.38 | 0 | 1025.02 | 66.59 | 1135 | 17.76 | 4.09 |
2026-08-29 02:49:30 | 0.95 | S | 1.23 | 24.44 | 0 | 1024.98 | 66.63 | 1134 | 17.82 | 4.09 |
2026-08-29 02:48:32 | 1.1 | S | 1.32 | 24.51 | 0 | 1024.99 | 66.54 | 1136 | 17.87 | 4.09 |
2026-08-29 02:47:33 | 1.69 | SSW | 2.29 | 24.51 | 0 | 1025.01 | 65.86 | 1153 | 17.7 | 4.09 |
2026-08-29 02:46:34 | 1.58 | SSW | 2.46 | 24.51 | 0 | 1024.99 | 66.08 | 1148 | 17.76 | 4.09 |
2026-08-29 02:45:36 | 1.01 | SSW | 1.32 | 24.54 | 0 | 1025.06 | 65.95 | 1151 | 17.75 | 4.09 |
2026-08-29 02:44:37 | 1.48 | SW | 2.16 | 24.58 | 0 | 1025.05 | 65.85 | 1154 | 17.77 | 4.09 |
2026-08-29 02:43:39 | 2.02 | SSW | 2.73 | 24.64 | 0 | 1025.03 | 65.81 | 1155 | 17.82 | 4.09 |
2026-08-29 02:42:40 | 1.85 | SW | 3.83 | 24.66 | 0 | 1025.01 | 65.75 | 1156 | 17.82 | 4.09 |
2026-08-29 02:41:41 | 1.68 | SW | 2.16 | 24.66 | 0 | 1025.06 | 65.6 | 1160 | 17.78 | 4.09 |
2026-08-29 02:40:43 | 2.55 | W | 3.39 | 24.68 | 0 | 1025.07 | 65.64 | 1159 | 17.81 | 4.09 |
2026-08-29 02:39:44 | 2.57 | SW | 4.27 | 24.65 | 0 | 1025.06 | 65.35 | 1166 | 17.71 | 4.09 |
2026-08-29 02:38:44 | 2.22 | W | 2.86 | 24.69 | 0 | 1025.11 | 65.23 | 1169 | 17.72 | 4.09 |
2026-08-29 02:37:45 | 2.16 | SW | 2.95 | 24.75 | 0 | 1025.04 | 65.38 | 1165 | 17.82 | 4.09 |
2026-08-29 02:36:46 | 1.53 | SW | 2.11 | 24.79 | 0 | 1025.06 | 64.91 | 1177 | 17.74 | 4.09 |
2026-08-29 02:35:48 | 2.38 | SW | 3.26 | 24.79 | 0 | 1025.04 | 64.83 | 1179 | 17.72 | 4.09 |
2026-08-29 02:34:49 | 2.07 | SW | 3.04 | 24.82 | 0 | 1025.1 | 64.71 | 1182 | 17.72 | 4.09 |
2026-08-29 02:33:51 | 2.26 | SSW | 3.56 | 24.85 | 0 | 1025.02 | 64.51 | 1187 | 17.7 | 4.09 |
2026-08-29 02:32:52 | 2.36 | WSW | 3.7 | 24.86 | 0 | 1025.05 | 64.52 | 1187 | 17.71 | 4.09 |
2026-08-29 02:31:54 | 1.71 | W | 1.85 | 24.93 | 0 | 1025.12 | 64.44 | 1189 | 17.76 | 4.09 |
2026-08-29 02:30:55 | 2.15 | WSW | 2.29 | 24.92 | 0 | 1025.16 | 64.16 | 1196 | 17.68 | 4.09 |
2026-08-29 02:29:56 | 3.04 | WSW | 4.27 | 24.93 | 0 | 1025.15 | 64.25 | 1194 | 17.71 | 4.09 |
2026-08-29 02:28:58 | 2.82 | WSW | 4.22 | 24.94 | 0 | 1025.19 | 64.27 | 1193 | 17.72 | 4.09 |
2026-08-29 02:27:58 | 2.52 | SW | 3.48 | 24.94 | 0 | 1025.18 | 64.28 | 1193 | 17.73 | 4.09 |
2026-08-29 02:26:59 | 1.77 | W | 2.86 | 24.96 | 0 | 1025.26 | 64.97 | 1176 | 17.92 | 4.09 |
2026-08-29 02:26:01 | 1.76 | W | 2.29 | 24.99 | 0 | 1025.25 | 64.9 | 1177 | 17.93 | 4.09 |
2026-08-29 02:25:01 | 1.24 | WSW | 1.58 | 25 | 0 | 1025.21 | 65.18 | 1170 | 18 | 4.09 |
2026-08-29 02:24:02 | 2.08 | SW | 3.3 | 25.05 | 0 | 1025.23 | 65.1 | 1172 | 18.03 | 4.09 |
2026-08-29 02:23:04 | 1.82 | SW | 2.33 | 25.03 | 0 | 1025.17 | 64.51 | 1187 | 17.87 | 4.09 |
2026-08-29 02:22:05 | 1.62 | WNW | 2.38 | 25.03 | 0 | 1025.17 | 64.69 | 1183 | 17.91 | 4.09 |
2026-08-29 02:21:06 | 1.27 | NW | 1.54 | 25.09 | 0 | 1025.24 | 65.62 | 1159 | 18.2 | 4.09 |
2026-08-29 02:20:08 | 2.03 | SSW | 3.48 | 25.09 | 0 | 1025.18 | 65.1 | 1172 | 18.07 | 4.09 |
2026-08-29 02:19:09 | 1.16 | W | 1.41 | 25.09 | 0 | 1025.14 | 65.89 | 1153 | 18.26 | 4.09 |
2026-08-29 02:18:11 | 1.41 | W | 1.8 | 25.11 | 0 | 1025.18 | 65.56 | 1161 | 18.2 | 4.09 |
2026-08-29 02:17:12 | 1.61 | W | 2.42 | 25.11 | 0 | 1025.11 | 66.07 | 1148 | 18.33 | 4.09 |
2026-08-29 02:16:13 | 1.83 | W | 2.11 | 25.14 | 0 | 1025.17 | 66.24 | 1144 | 18.39 | 4.09 |
2026-08-29 02:15:15 | 1.63 | SSW | 3.08 | 25.2 | 0 | 1025.18 | 66.22 | 1144 | 18.45 | 4.09 |
2026-08-29 02:14:16 | 1.01 | WSW | 1.19 | 25.21 | 0 | 1025.22 | 66.05 | 1149 | 18.42 | 4.09 |
2026-08-29 02:13:17 | 1.12 | WSW | 1.45 | 25.21 | 0 | 1025.21 | 66.25 | 1144 | 18.46 | 4.09 |
2026-08-29 02:12:19 | 0.97 | WSW | 1.19 | 25.19 | 0 | 1025.23 | 66.3 | 1142 | 18.46 | 4.09 |
2026-08-29 02:11:20 | 0.96 | W | 1.19 | 25.23 | 0 | 1025.27 | 66.37 | 1141 | 18.51 | 4.09 |
2026-08-29 02:10:22 | 0.81 | W | 1.23 | 25.24 | 0 | 1025.22 | 66.22 | 1144 | 18.48 | 4.09 |
2026-08-29 02:09:23 | 0.7 | SW | 0.88 | 25.27 | 0 | 1025.16 | 66.02 | 1149 | 18.47 | 4.09 |
2026-08-29 02:08:23 | 0.69 | SW | 0.92 | 25.28 | 0 | 1025.12 | 65.88 | 1153 | 18.44 | 4.09 |
2026-08-29 02:07:25 | 0.98 | SW | 1.67 | 25.33 | 0 | 1025.12 | 65.91 | 1152 | 18.5 | 4.09 |
2026-08-29 02:06:26 | 0.54 | SSW | 0.97 | 25.34 | 0 | 1025.08 | 65.94 | 1151 | 18.51 | 4.09 |
2026-08-29 02:05:28 | 1.02 | SSW | 1.63 | 25.37 | 0 | 1025.08 | 66.04 | 1149 | 18.56 | 4.09 |
2026-08-29 02:04:29 | 1.4 | SSW | 1.85 | 25.42 | 0 | 1025.07 | 65.9 | 1152 | 18.58 | 4.09 |
2026-08-29 02:03:30 | 1.47 | SSW | 1.85 | 25.42 | 0 | 1025.1 | 65.75 | 1156 | 18.54 | 4.09 |
2026-08-29 02:02:32 | 0.96 | SSW | 1.23 | 25.4 | 0 | 1025.11 | 65.77 | 1156 | 18.53 | 4.09 |
2026-08-29 02:01:33 | 0.89 | WSW | 1.28 | 25.41 | 0 | 1025.1 | 65.64 | 1159 | 18.51 | 4.09 |
2026-08-29 02:00:34 | 1.11 | SSW | 1.72 | 25.48 | 0 | 1025.14 | 65.52 | 1162 | 18.54 | 4.09 |
2026-08-29 01:59:36 | 0.8 | S | 1.32 | 25.58 | 0 | 1025.13 | 65.55 | 1161 | 18.65 | 4.09 |
2026-08-29 01:58:37 | 0 | S | 0 | 25.65 | 0 | 1025.14 | 64.91 | 1177 | 18.55 | 4.09 |
2026-08-29 01:57:38 | 0.7 | S | 1.06 | 25.72 | 0 | 1025.14 | 64.9 | 1177 | 18.62 | 4.09 |
2026-08-29 01:56:39 | 0.99 | S | 1.5 | 25.79 | 0 | 1025.13 | 64.71 | 1182 | 18.64 | 4.09 |
2026-08-29 01:55:41 | 0.79 | S | 0.88 | 25.81 | 0 | 1025.18 | 64.26 | 1193 | 18.55 | 4.09 |
2026-08-29 01:54:42 | 1.26 | S | 1.89 | 25.86 | 0 | 1025.19 | 64.11 | 1197 | 18.56 | 4.09 |
2026-08-29 01:53:43 | 2.31 | SSW | 3.48 | 25.88 | 0 | 1025.16 | 64.16 | 1196 | 18.59 | 4.09 |
2026-08-29 01:52:44 | 1.05 | SW | 1.32 | 25.89 | 0 | 1025.15 | 64.1 | 1197 | 18.58 | 4.09 |
2026-08-29 01:51:46 | 2.24 | W | 4 | 25.9 | 0 | 1025.13 | 64.04 | 1199 | 18.58 | 4.09 |
2026-08-29 01:50:47 | 1.85 | WSW | 2.68 | 25.92 | 0 | 1025.13 | 64.04 | 1199 | 18.59 | 4.09 |
2026-08-29 01:49:48 | 2.2 | SSW | 2.95 | 25.96 | 0 | 1025.11 | 63.92 | 1202 | 18.6 | 4.09 |
2026-08-29 01:48:50 | 3.27 | WSW | 3.92 | 25.97 | 0 | 1025.11 | 63.65 | 1209 | 18.54 | 4.09 |
2026-08-29 01:46:52 | 2.56 | WNW | 4.53 | 26.03 | 0 | 1025.12 | 63.84 | 1204 | 18.65 | 4.09 |
2026-08-29 01:45:53 | 2.45 | NW | 3.61 | 26.09 | 0 | 1025.16 | 63.48 | 1213 | 18.62 | 4.09 |
2026-08-29 01:44:54 | 2.81 | NW | 3.56 | 26.09 | 0 | 1025.1 | 63.63 | 1209 | 18.65 | 4.09 |
2026-08-29 01:43:56 | 3.35 | WNW | 5.02 | 26.17 | 0 | 1025.06 | 63.41 | 1215 | 18.67 | 4.09 |
2026-08-29 01:42:57 | 3.12 | NW | 4.36 | 26.2 | 0 | 1025.05 | 63.81 | 1205 | 18.8 | 4.09 |
2026-08-29 01:41:58 | 2.81 | W | 4.18 | 26.2 | 0 | 1025.04 | 63.01 | 1225 | 18.6 | 4.09 |
2026-08-29 01:41:00 | 4.26 | NW | 6.47 | 26.2 | 0 | 1025.04 | 63.39 | 1215 | 18.7 | 4.09 |
2026-08-29 01:40:01 | 2.44 | W | 3.21 | 26.16 | 0 | 1025.09 | 64.13 | 1197 | 18.84 | 4.09 |
2026-08-29 01:39:03 | 2.06 | SW | 2.95 | 26.16 | 0 | 1025.07 | 63.65 | 1209 | 18.72 | 4.09 |
2026-08-29 01:37:05 | 2.74 | WNW | 4.49 | 26.07 | 0 | 1025.06 | 64.22 | 1194 | 18.78 | 4.09 |
2026-08-29 01:36:07 | 2.45 | WNW | 3.3 | 26.09 | 0 | 1025.09 | 65.39 | 1165 | 19.09 | 4.09 |
2026-08-29 01:35:08 | 3.21 | WNW | 5.15 | 26.06 | 0 | 1025.16 | 65.11 | 1172 | 18.99 | 4.09 |
2026-08-29 01:34:09 | 2.7 | NNW | 3.39 | 25.97 | 0 | 1025.15 | 66.09 | 1148 | 19.15 | 4.09 |
2026-08-29 01:33:11 | 2.13 | WNW | 2.95 | 25.97 | 0 | 1025.14 | 66.56 | 1136 | 19.26 | 4.09 |
2026-08-29 01:32:12 | 1.93 | WSW | 2.6 | 25.99 | 0 | 1024.97 | 66.59 | 1135 | 19.29 | 4.09 |
2026-08-29 01:31:13 | 1.14 | SW | 1.32 | 25.99 | 0 | 1024.93 | 66.79 | 1130 | 19.34 | 4.09 |
2026-08-29 01:30:15 | 1.83 | SW | 2.46 | 26 | 0 | 1024.95 | 66.87 | 1128 | 19.36 | 4.09 |
2026-08-29 01:29:16 | 2.83 | W | 3.21 | 25.93 | 0 | 1025.03 | 66.76 | 1131 | 19.27 | 4.09 |
2026-08-29 01:28:17 | 3.71 | WSW | 5.37 | 25.81 | 0 | 1025.14 | 67.8 | 1105 | 19.41 | 4.09 |
2026-08-29 01:27:19 | 3.33 | WSW | 5.24 | 25.76 | 0 | 1025.2 | 68.26 | 1093 | 19.47 | 4.09 |
2026-08-29 01:26:20 | 2.5 | WSW | 3.34 | 25.75 | 0 | 1025.11 | 68.23 | 1094 | 19.45 | 4.09 |
2026-08-29 01:25:21 | 2.12 | WSW | 2.99 | 25.78 | 0 | 1024.98 | 68.09 | 1098 | 19.45 | 4.09 |
2026-08-29 01:24:23 | 1.67 | WSW | 1.76 | 25.79 | 0 | 1024.86 | 67.92 | 1102 | 19.41 | 4.09 |
2026-08-29 01:23:24 | 2.22 | WSW | 3.17 | 25.93 | 0 | 1024.95 | 67.44 | 1114 | 19.43 | 4.09 |
2026-08-29 01:22:25 | 1.99 | WSW | 2.42 | 26.07 | 0 | 1025.02 | 67.08 | 1123 | 19.48 | 4.10 |
2026-08-29 01:21:26 | 2.53 | SW | 3.96 | 26.21 | 0 | 1024.92 | 66.25 | 1144 | 19.41 | 4.09 |
2026-08-29 01:20:28 | 2.83 | SSE | 3.43 | 26.23 | 0 | 1024.71 | 65.92 | 1152 | 19.35 | 4.10 |
2026-08-29 01:19:29 | 3.58 | SE | 3.96 | 26.19 | 0 | 1024.51 | 66.02 | 1149 | 19.34 | 4.10 |
2026-08-29 01:18:30 | 3.67 | SE | 4.05 | 26.03 | 0 | 1024.43 | 66.63 | 1134 | 19.33 | 4.09 |
2026-08-29 01:17:32 | 2.88 | SE | 4.09 | 25.81 | 0 | 1024.58 | 67.4 | 1115 | 19.31 | 4.10 |
2026-08-29 01:16:33 | 2.55 | SSE | 3.21 | 25.75 | 0 | 1024.69 | 68.14 | 1096 | 19.43 | 4.10 |
2026-08-29 01:15:34 | 3 | SE | 3.34 | 25.72 | 0 | 1024.68 | 68.33 | 1092 | 19.44 | 4.10 |
2026-08-29 01:14:36 | 3.7 | SE | 4.09 | 25.75 | 0 | 1024.55 | 68.44 | 1089 | 19.5 | 4.10 |
2026-08-29 01:13:37 | 3.7 | ESE | 4 | 25.83 | 0 | 1024.59 | 68.17 | 1096 | 19.51 | 4.10 |
2026-08-29 01:12:38 | 3.25 | ESE | 4.09 | 25.89 | 0 | 1024.64 | 67.93 | 1102 | 19.51 | 4.10 |
2026-08-29 01:11:40 | 4 | SSE | 4.36 | 25.92 | 0 | 1024.69 | 67.8 | 1105 | 19.51 | 4.10 |
2026-08-29 01:10:41 | 4.25 | SE | 4.66 | 25.9 | 0 | 1024.69 | 67.85 | 1104 | 19.5 | 4.10 |
2026-08-29 01:09:42 | 4.37 | SE | 5.28 | 25.96 | 0 | 1024.68 | 67.81 | 1105 | 19.55 | 4.10 |
2026-08-29 01:08:44 | 3.55 | SE | 4 | 26.03 | 0 | 1024.78 | 67.48 | 1113 | 19.54 | 4.10 |
2026-08-29 01:07:45 | 3.54 | SE | 3.96 | 26.15 | 0 | 1024.86 | 66.96 | 1126 | 19.53 | 4.10 |
2026-08-29 01:06:46 | 2.96 | SE | 3.48 | 26.19 | 0 | 1024.96 | 66.67 | 1133 | 19.5 | 4.10 |
2026-08-29 01:05:48 | 2.79 | SE | 3.21 | 26.2 | 0 | 1024.98 | 66.32 | 1142 | 19.42 | 4.10 |
2026-08-29 01:04:49 | 3.13 | SE | 3.56 | 26.33 | 0 | 1024.99 | 66.12 | 1147 | 19.5 | 4.10 |
2026-08-29 01:03:50 | 3.24 | ESE | 3.7 | 26.54 | 0 | 1024.96 | 65.36 | 1166 | 19.51 | 4.10 |
2026-08-29 01:02:52 | 2.58 | ESE | 3.43 | 26.78 | 0 | 1025.04 | 64.44 | 1189 | 19.51 | 4.10 |
2026-08-29 01:01:53 | 1.78 | ESE | 2.46 | 26.92 | 0 | 1025.21 | 63.39 | 1215 | 19.38 | 4.10 |
2026-08-29 01:00:54 | 1.35 | SE | 1.72 | 26.96 | 0 | 1025.38 | 63.14 | 1221 | 19.35 | 4.10 |
2026-08-29 00:59:55 | 1.36 | SE | 1.85 | 26.98 | 0 | 1025.47 | 62.92 | 1227 | 19.31 | 4.10 |
2026-08-29 00:58:54 | 1.27 | SSW | 2.02 | 27.02 | 0 | 1025.6 | 62.7 | 1232 | 19.3 | 4.10 |
2026-08-29 00:57:55 | 1.45 | SW | 2.38 | 27.06 | 0 | 1025.7 | 62.58 | 1235 | 19.3 | 4.10 |
2026-08-29 00:56:56 | 2.04 | SSW | 3.43 | 27.07 | 0 | 1025.83 | 62.54 | 1236 | 19.3 | 4.10 |
2026-08-29 00:55:57 | 2.04 | SW | 2.68 | 27.11 | 0 | 1025.87 | 62.42 | 1239 | 19.31 | 4.10 |
2026-08-29 00:54:59 | 1.03 | SW | 1.36 | 27.14 | 0 | 1025.95 | 62.21 | 1245 | 19.28 | 4.10 |
2026-08-29 00:54:00 | 1.84 | WSW | 2.68 | 27.17 | 0 | 1025.91 | 62.02 | 1249 | 19.26 | 4.10 |
2026-08-29 00:53:01 | 2.01 | W | 3.21 | 27.17 | 0 | 1025.95 | 62.02 | 1249 | 19.26 | 4.10 |
2026-08-29 00:52:03 | 1.82 | SW | 2.73 | 27.2 | 0 | 1026.06 | 62.15 | 1246 | 19.32 | 4.10 |
2026-08-29 00:51:04 | 3 | WNW | 4.44 | 27.25 | 0 | 1026.03 | 61.79 | 1255 | 19.28 | 4.10 |
2026-08-29 00:50:05 | 2.82 | WNW | 5.59 | 27.2 | 0 | 1026.07 | 62 | 1250 | 19.28 | 4.10 |
2026-08-29 00:49:06 | 2.33 | WSW | 4.36 | 27.22 | 0 | 1026.1 | 61.97 | 1251 | 19.3 | 4.10 |
2026-08-29 00:48:08 | 2.26 | W | 3.39 | 27.25 | 0 | 1026.15 | 62.22 | 1244 | 19.39 | 4.10 |
2026-08-29 00:47:09 | 2.37 | WNW | 3.43 | 27.27 | 0 | 1026.13 | 62.42 | 1239 | 19.46 | 4.10 |
2026-08-29 00:46:10 | 1.93 | WSW | 2.11 | 27.32 | 0 | 1026.18 | 62.51 | 1237 | 19.53 | 4.10 |
2026-08-29 00:45:12 | 3.57 | W | 4.44 | 27.32 | 0 | 1026.22 | 62.23 | 1244 | 19.46 | 4.10 |
2026-08-29 00:44:13 | 3.22 | WNW | 4.27 | 27.3 | 0 | 1026.12 | 62.24 | 1244 | 19.44 | 4.10 |
2026-08-29 00:43:14 | 2.32 | WNW | 4.27 | 27.33 | 0 | 1026.24 | 62.75 | 1231 | 19.6 | 4.10 |
2026-08-29 00:42:15 | 3.3 | WNW | 6.03 | 27.36 | 0 | 1026.26 | 62.74 | 1231 | 19.63 | 4.10 |
2026-08-29 00:41:17 | 3.99 | WSW | 5.32 | 27.41 | 0 | 1026.21 | 62.64 | 1234 | 19.65 | 4.10 |
2026-08-29 00:40:18 | 3.63 | W | 5.9 | 27.38 | 0 | 1026.2 | 62.57 | 1236 | 19.6 | 4.10 |
2026-08-29 00:39:19 | 2.83 | WSW | 4.66 | 27.4 | 0 | 1026.11 | 62.68 | 1233 | 19.65 | 4.10 |
2026-08-29 00:38:21 | 2.77 | WSW | 4.27 | 27.41 | 0 | 1025.97 | 62.48 | 1238 | 19.61 | 4.10 |
2026-08-29 00:37:22 | 1.73 | WNW | 3.83 | 27.43 | 0 | 1026.02 | 62.4 | 1240 | 19.6 | 4.10 |
2026-08-29 00:36:23 | 2.05 | WSW | 2.73 | 27.5 | 0 | 1025.98 | 62.31 | 1242 | 19.65 | 4.10 |
2026-08-29 00:35:25 | 3.26 | WSW | 4.49 | 27.53 | 0 | 1025.94 | 62.1 | 1247 | 19.62 | 4.10 |
2026-08-29 00:34:26 | 3.44 | WNW | 4.31 | 27.55 | 0 | 1025.97 | 61.92 | 1252 | 19.59 | 4.10 |
2026-08-29 00:33:27 | 3.62 | WSW | 6.07 | 27.6 | 0 | 1026.02 | 61.74 | 1256 | 19.59 | 4.10 |
2026-08-29 00:32:29 | 3.97 | W | 6.07 | 27.62 | 0 | 1026.02 | 61.63 | 1259 | 19.58 | 4.10 |
2026-08-29 00:31:30 | 3.09 | W | 4.49 | 27.65 | 0 | 1025.85 | 61.43 | 1264 | 19.56 | 4.10 |
2026-08-29 00:30:31 | 4.02 | NW | 5.28 | 27.71 | 0 | 1025.87 | 61.24 | 1269 | 19.57 | 4.10 |
2026-08-29 00:29:33 | 3.39 | W | 5.81 | 27.72 | 0 | 1025.84 | 61.11 | 1272 | 19.54 | 4.10 |
2026-08-29 00:28:34 | 2.5 | WSW | 3.43 | 27.79 | 0 | 1025.81 | 60.89 | 1278 | 19.55 | 4.10 |
2026-08-29 00:27:35 | 5.25 | WSW | 7.22 | 27.85 | 0 | 1025.68 | 60.53 | 1287 | 19.51 | 4.10 |
2026-08-29 00:26:36 | 3.62 | WNW | 4.84 | 27.89 | 0 | 1025.71 | 60.54 | 1286 | 19.55 | 4.10 |
2026-08-29 00:25:38 | 4.05 | WSW | 6.29 | 27.93 | 0 | 1025.54 | 60.28 | 1293 | 19.52 | 4.10 |
2026-08-29 00:24:39 | 3.59 | WNW | 4.84 | 27.98 | 0 | 1025.63 | 60.07 | 1298 | 19.51 | 4.10 |
2026-08-29 00:23:40 | 4.28 | W | 7.26 | 28.02 | 0 | 1025.59 | 59.87 | 1303 | 19.49 | 4.10 |
2026-08-29 00:22:42 | 4.24 | WNW | 7.79 | 28.09 | 0 | 1025.55 | 59.7 | 1307 | 19.51 | 4.10 |
2026-08-29 00:21:43 | 4.71 | WSW | 7.7 | 28.09 | 0 | 1025.47 | 59.35 | 1316 | 19.42 | 4.10 |
2026-08-29 00:20:44 | 4.45 | W | 8.23 | 28.1 | 0 | 1025.5 | 59.53 | 1312 | 19.48 | 4.10 |
2026-08-29 00:19:45 | 4.55 | WNW | 6.51 | 28.1 | 0 | 1025.58 | 59.56 | 1311 | 19.48 | 4.10 |
2026-08-29 00:18:47 | 3.15 | WSW | 6.42 | 28.1 | 0 | 1025.62 | 59.66 | 1308 | 19.51 | 4.10 |
2026-08-29 00:17:48 | 4.18 | SW | 6.03 | 28.13 | 0 | 1025.7 | 59.64 | 1309 | 19.53 | 4.10 |
2026-08-29 00:16:49 | 5.52 | NW | 7.44 | 28.16 | 0 | 1025.61 | 59.63 | 1309 | 19.56 | 4.10 |
2026-08-29 00:15:50 | 6.16 | W | 8.4 | 28.17 | 0 | 1025.75 | 59.55 | 1311 | 19.55 | 4.10 |
2026-08-29 00:14:52 | 6.06 | W | 7.35 | 28.17 | 0 | 1025.74 | 59.65 | 1309 | 19.57 | 4.10 |
2026-08-29 00:13:53 | 7.54 | WNW | 9.99 | 28.19 | 0 | 1025.79 | 59.58 | 1310 | 19.57 | 4.10 |
2026-08-29 00:12:54 | 8.66 | WNW | 12.41 | 28.17 | 0 | 1025.53 | 59.63 | 1309 | 19.57 | 4.10 |
2026-08-29 00:11:55 | 7.34 | W | 11.31 | 28.1 | 0 | 1025.77 | 59.94 | 1301 | 19.59 | 4.10 |
2026-08-29 00:10:57 | 9.23 | WSW | 12.76 | 27.99 | 0 | 1025.75 | 60.13 | 1297 | 19.53 | 4.10 |
2026-08-29 00:09:58 | 6.09 | WNW | 9.06 | 27.88 | 0 | 1025.72 | 60.63 | 1284 | 19.56 | 4.10 |
2026-08-29 00:08:59 | 6.38 | W | 9.11 | 27.72 | 0 | 1025.8 | 60.9 | 1277 | 19.49 | 4.10 |
2026-08-29 00:08:01 | 4.13 | W | 5.98 | 27.61 | 0 | 1025.88 | 61.43 | 1264 | 19.52 | 4.10 |
2026-08-29 00:07:02 | 4.78 | W | 6.25 | 27.64 | 0 | 1025.91 | 61.52 | 1262 | 19.57 | 4.10 |
2026-08-29 00:06:03 | 5.27 | W | 7 | 27.62 | 0 | 1025.85 | 61.43 | 1264 | 19.53 | 4.10 |
2026-08-29 00:05:05 | 6.87 | NW | 9.46 | 27.54 | 0 | 1025.95 | 61.68 | 1258 | 19.52 | 4.10 |
2026-08-29 00:04:06 | 4.32 | WNW | 7.13 | 27.43 | 0 | 1026.04 | 62.13 | 1247 | 19.53 | 4.10 |
2026-08-29 00:03:07 | 3.97 | W | 6.12 | 27.34 | 0 | 1026.08 | 62.35 | 1241 | 19.51 | 4.10 |
2026-08-29 00:02:08 | 4.72 | WSW | 8.1 | 27.33 | 0 | 1026.11 | 62.47 | 1238 | 19.53 | 4.10 |
2026-08-29 00:01:10 | 3.63 | NW | 6.64 | 27.27 | 0 | 1026.03 | 62.5 | 1237 | 19.48 | 4.10 |
2026-08-29 00:00:11 | 3.33 | W | 4.93 | 27.29 | 0 | 1026.18 | 62.38 | 1240 | 19.47 | 4.10 |
2026-08-28 23:59:12 | 4.86 | W | 7.08 | 27.3 | 0 | 1026.18 | 62.34 | 1241 | 19.47 | 4.10 |
2026-08-28 23:58:14 | 4.81 | WNW | 6.82 | 27.2 | 0 | 1026.14 | 62.51 | 1237 | 19.42 | 4.10 |
2026-08-28 23:57:15 | 4.66 | W | 7.52 | 27.11 | 0 | 1026.22 | 62.55 | 1236 | 19.34 | 4.10 |
2026-08-28 23:56:17 | 4.67 | WNW | 6.95 | 27.13 | 0 | 1026.34 | 62.31 | 1242 | 19.3 | 4.10 |
2026-08-28 23:55:18 | 4.36 | WSW | 6.07 | 27.11 | 0 | 1026.35 | 62.28 | 1243 | 19.27 | 4.10 |
2026-08-28 23:54:19 | 3.88 | WSW | 6.86 | 27.11 | 0 | 1026.38 | 62.03 | 1249 | 19.21 | 4.10 |
2026-08-28 23:53:20 | 3.89 | W | 5.46 | 27.14 | 0 | 1026.5 | 62 | 1250 | 19.23 | 4.10 |
2026-08-28 23:52:22 | 2.9 | WNW | 4.44 | 27.19 | 0 | 1026.47 | 61.88 | 1253 | 19.24 | 4.10 |
2026-08-28 23:51:23 | 4.88 | WNW | 7.3 | 27.19 | 0 | 1026.45 | 61.81 | 1255 | 19.23 | 4.10 |
2026-08-28 23:50:24 | 3.82 | NW | 4.44 | 27.14 | 0 | 1026.38 | 61.96 | 1251 | 19.22 | 4.10 |
2026-08-28 23:49:26 | 3.41 | W | 4.22 | 27.1 | 0 | 1026.42 | 61.95 | 1251 | 19.18 | 4.10 |
2026-08-28 23:48:27 | 4.51 | WSW | 5.98 | 27.05 | 0 | 1026.4 | 62.23 | 1244 | 19.2 | 4.10 |
2026-08-28 23:47:28 | 3.41 | WNW | 5.9 | 26.98 | 0 | 1026.4 | 62.42 | 1239 | 19.19 | 4.10 |
2026-08-28 23:46:30 | 3.26 | W | 4.75 | 26.92 | 0 | 1026.34 | 62.47 | 1238 | 19.14 | 4.10 |
2026-08-28 23:45:31 | 2.44 | W | 3.74 | 26.82 | 0 | 1026.26 | 62.74 | 1231 | 19.12 | 4.10 |
2026-08-28 23:44:32 | 2.14 | WNW | 4.22 | 26.77 | 0 | 1026.17 | 62.83 | 1229 | 19.09 | 4.10 |
2026-08-28 23:43:34 | 2.12 | SW | 2.77 | 26.72 | 0 | 1026.13 | 62.88 | 1228 | 19.06 | 4.10 |
2026-08-28 23:42:35 | 1.88 | WNW | 2.6 | 26.74 | 0 | 1026.09 | 62.8 | 1230 | 19.06 | 4.10 |
2026-08-28 23:41:36 | 1.98 | WSW | 2.73 | 26.74 | 0 | 1026.08 | 62.84 | 1229 | 19.07 | 4.10 |
2026-08-28 23:40:37 | 1.72 | WSW | 2.6 | 26.77 | 0 | 1026 | 62.62 | 1234 | 19.04 | 4.10 |
2026-08-28 23:39:39 | 1.37 | W | 1.85 | 26.78 | 0 | 1025.99 | 62.47 | 1238 | 19.01 | 4.10 |
2026-08-28 23:38:40 | 1.78 | WSW | 2.95 | 26.81 | 0 | 1025.91 | 62.31 | 1242 | 19 | 4.10 |
2026-08-28 23:37:41 | 1.41 | W | 1.89 | 26.83 | 0 | 1025.93 | 62.17 | 1246 | 18.98 | 4.10 |
2026-08-28 23:36:42 | 0.89 | SW | 0.97 | 26.88 | 0 | 1025.84 | 61.97 | 1251 | 18.98 | 4.10 |
2026-08-28 23:35:44 | 1.57 | SW | 2.42 | 26.92 | 0 | 1025.85 | 61.84 | 1254 | 18.98 | 4.10 |
2026-08-28 23:34:45 | 1.8 | SW | 2.42 | 26.92 | 0 | 1025.83 | 61.72 | 1257 | 18.95 | 4.10 |
2026-08-28 23:33:46 | 1.38 | SSW | 1.98 | 26.95 | 0 | 1025.79 | 61.58 | 1260 | 18.94 | 4.10 |
2026-08-28 23:32:48 | 1.2 | SSW | 1.98 | 26.99 | 0 | 1025.75 | 61.47 | 1263 | 18.95 | 4.10 |
2026-08-28 23:31:49 | 1.97 | SSW | 2.82 | 27.05 | 0 | 1025.72 | 61.28 | 1268 | 18.96 | 4.10 |
2026-08-28 23:30:50 | 2 | WSW | 2.42 | 27.05 | 0 | 1025.76 | 60.98 | 1275 | 18.88 | 4.10 |
2026-08-28 23:29:52 | 1.6 | SW | 2.46 | 27.07 | 0 | 1025.76 | 61.1 | 1272 | 18.93 | 4.10 |
2026-08-28 23:28:53 | 2.29 | SSW | 3.56 | 27.13 | 0 | 1025.73 | 60.85 | 1279 | 18.92 | 4.10 |
2026-08-28 23:27:54 | 2.29 | SSW | 2.9 | 27.13 | 0 | 1025.74 | 60.97 | 1276 | 18.95 | 4.10 |
2026-08-28 23:26:56 | 2.21 | SW | 2.77 | 27.13 | 0 | 1025.68 | 60.85 | 1279 | 18.92 | 4.10 |
2026-08-28 23:25:57 | 2.38 | SSW | 2.86 | 27.1 | 0 | 1025.65 | 60.81 | 1280 | 18.88 | 4.10 |
2026-08-28 23:24:59 | 2.36 | SW | 2.95 | 27.06 | 0 | 1025.61 | 60.96 | 1276 | 18.88 | 4.10 |
2026-08-28 23:24:00 | 2.11 | SW | 2.73 | 27.09 | 0 | 1025.65 | 60.95 | 1276 | 18.91 | 4.10 |
2026-08-28 23:23:01 | 2.35 | SSW | 2.95 | 27.06 | 0 | 1025.6 | 60.75 | 1281 | 18.83 | 4.10 |
2026-08-28 23:22:02 | 1.8 | SSW | 2.38 | 27.11 | 0 | 1025.65 | 60.85 | 1279 | 18.9 | 4.10 |
2026-08-28 23:21:03 | 1.5 | SSW | 2.6 | 27.14 | 0 | 1025.67 | 60.6 | 1285 | 18.86 | 4.10 |
2026-08-28 23:20:05 | 0.92 | S | 1.54 | 27.25 | 0 | 1025.65 | 60.37 | 1291 | 18.9 | 4.10 |
2026-08-28 23:19:06 | 0.84 | SW | 0.97 | 27.34 | 0 | 1025.66 | 60.13 | 1297 | 18.92 | 4.10 |
2026-08-28 23:18:07 | 1.51 | SW | 2.11 | 27.37 | 0 | 1025.62 | 59.87 | 1303 | 18.88 | 4.10 |
2026-08-28 23:17:08 | 2.04 | SW | 2.68 | 27.4 | 0 | 1025.59 | 59.72 | 1307 | 18.87 | 4.10 |
2026-08-28 23:16:09 | 2.05 | SW | 2.77 | 27.41 | 0 | 1025.58 | 59.43 | 1314 | 18.8 | 4.10 |
2026-08-28 23:15:10 | 1.84 | SSW | 2.68 | 27.45 | 0 | 1025.52 | 59.55 | 1311 | 18.87 | 4.10 |
2026-08-28 23:14:11 | 2.46 | SSW | 3.17 | 27.53 | 0 | 1025.47 | 59.28 | 1318 | 18.87 | 4.10 |
2026-08-28 23:13:12 | 2.02 | SSW | 2.55 | 27.55 | 0 | 1025.42 | 59.1 | 1322 | 18.84 | 4.10 |
2026-08-28 23:12:14 | 2.48 | SSW | 3.48 | 27.6 | 0 | 1025.47 | 58.99 | 1325 | 18.86 | 4.10 |
2026-08-28 23:11:15 | 2.71 | SSW | 3.56 | 27.62 | 0 | 1025.45 | 58.87 | 1328 | 18.85 | 4.10 |
2026-08-28 23:10:16 | 2.45 | SW | 2.9 | 27.64 | 0 | 1025.49 | 58.62 | 1334 | 18.8 | 4.10 |
2026-08-28 23:09:18 | 2.23 | SSW | 2.77 | 27.65 | 0 | 1025.5 | 58.73 | 1332 | 18.84 | 4.10 |
2026-08-28 23:08:19 | 2.74 | SSW | 3.43 | 27.62 | 0 | 1025.45 | 58.39 | 1340 | 18.72 | 4.10 |
2026-08-28 23:07:20 | 1.66 | SSW | 2.16 | 27.62 | 0 | 1025.46 | 58.49 | 1338 | 18.74 | 4.10 |
2026-08-28 23:06:22 | 2.03 | SSW | 2.68 | 27.64 | 0 | 1025.47 | 58.45 | 1339 | 18.75 | 4.10 |
2026-08-28 23:05:23 | 2.24 | SSW | 2.82 | 27.61 | 0 | 1025.46 | 58.31 | 1342 | 18.69 | 4.10 |
2026-08-28 23:04:24 | 1.66 | SSW | 1.89 | 27.57 | 0 | 1025.47 | 58.44 | 1339 | 18.68 | 4.10 |
2026-08-28 23:03:26 | 0.86 | SW | 1.28 | 27.6 | 0 | 1025.55 | 58.55 | 1336 | 18.74 | 4.10 |
2026-08-28 23:02:27 | 1.56 | SSW | 2.46 | 27.65 | 0 | 1025.58 | 58.29 | 1343 | 18.72 | 4.10 |
2026-08-28 23:01:27 | 1.22 | SSW | 1.89 | 27.71 | 0 | 1025.65 | 58.06 | 1348 | 18.71 | 4.10 |
2026-08-28 23:00:29 | 0.8 | SSW | 1.5 | 27.85 | 0 | 1025.61 | 57.92 | 1352 | 18.8 | 4.10 |
2026-08-28 22:59:30 | 1.27 | SSW | 1.45 | 27.93 | 0 | 1025.55 | 57.54 | 1361 | 18.77 | 4.10 |
2026-08-28 22:58:31 | 2.21 | SW | 3.87 | 27.98 | 0 | 1025.51 | 57.18 | 1370 | 18.72 | 4.10 |
2026-08-28 22:57:32 | 2.35 | SW | 2.99 | 28 | 0 | 1025.42 | 57.04 | 1374 | 18.7 | 4.10 |
2026-08-28 22:56:34 | 2.14 | SSW | 2.82 | 28 | 0 | 1025.44 | 57.09 | 1373 | 18.71 | 4.10 |
2026-08-28 22:55:35 | 2.54 | SSW | 3.17 | 28.03 | 0 | 1025.45 | 56.75 | 1381 | 18.64 | 4.10 |
2026-08-28 22:54:36 | 2.52 | SW | 3.17 | 28.06 | 0 | 1025.37 | 56.71 | 1382 | 18.66 | 4.10 |
2026-08-28 22:53:38 | 2.75 | SSW | 3.52 | 28.05 | 0 | 1025.38 | 56.58 | 1385 | 18.61 | 4.10 |
2026-08-28 22:52:39 | 2.54 | SSW | 2.95 | 28.06 | 0 | 1025.31 | 56.64 | 1384 | 18.64 | 4.10 |
2026-08-28 22:50:42 | 2.14 | SW | 3.43 | 28.02 | 0 | 1025.28 | 56.64 | 1384 | 18.6 | 4.10 |
2026-08-28 22:49:43 | 1.63 | SSW | 2.64 | 28.03 | 0 | 1025.31 | 56.75 | 1381 | 18.64 | 4.10 |
2026-08-28 22:48:44 | 1.7 | SW | 2.82 | 28.08 | 0 | 1025.34 | 56.68 | 1383 | 18.67 | 4.10 |
2026-08-28 22:47:45 | 2.07 | SW | 3.08 | 28.05 | 0 | 1025.39 | 56.55 | 1386 | 18.61 | 4.10 |
2026-08-28 22:46:47 | 1.81 | SW | 2.42 | 28.02 | 0 | 1025.39 | 56.82 | 1379 | 18.65 | 4.10 |
2026-08-28 22:45:48 | 1.78 | SSW | 2.46 | 28.05 | 0 | 1025.39 | 56.62 | 1384 | 18.63 | 4.10 |
2026-08-28 22:44:49 | 1.59 | SSW | 2.29 | 28.03 | 0 | 1025.34 | 56.44 | 1389 | 18.56 | 4.10 |
2026-08-28 22:43:51 | 1.88 | SSW | 2.51 | 28.05 | 0 | 1025.36 | 56.35 | 1391 | 18.55 | 4.10 |
2026-08-28 22:42:52 | 1.66 | SSW | 2.46 | 27.99 | 0 | 1025.35 | 56.49 | 1388 | 18.53 | 4.10 |
2026-08-28 22:41:53 | 1.74 | SW | 2.11 | 27.98 | 0 | 1025.41 | 56.5 | 1387 | 18.53 | 4.10 |
2026-08-28 22:40:55 | 1.75 | SSW | 2.55 | 27.99 | 0 | 1025.43 | 56.51 | 1387 | 18.54 | 4.10 |
2026-08-28 22:39:56 | 1.33 | WSW | 2.2 | 27.98 | 0 | 1025.45 | 56.5 | 1387 | 18.53 | 4.10 |
2026-08-28 22:38:57 | 1.01 | SW | 1.58 | 28 | 0 | 1025.44 | 56.39 | 1390 | 18.51 | 4.10 |
2026-08-28 22:37:58 | 1.29 | SW | 1.94 | 28.03 | 0 | 1025.47 | 56.2 | 1395 | 18.49 | 4.10 |
2026-08-28 22:37:00 | 1.24 | W | 1.67 | 28.03 | 0 | 1025.42 | 56.44 | 1389 | 18.56 | 4.10 |
2026-08-28 22:36:01 | 1.25 | SW | 1.58 | 28.08 | 0 | 1025.37 | 56.41 | 1390 | 18.59 | 4.10 |
2026-08-28 22:35:02 | 1.32 | SSW | 1.58 | 28.08 | 0 | 1025.34 | 56.21 | 1395 | 18.54 | 4.10 |
2026-08-28 22:34:04 | 1.29 | SSW | 1.67 | 28.06 | 0 | 1025.29 | 56.32 | 1392 | 18.55 | 4.10 |
2026-08-28 22:33:04 | 1.47 | SW | 1.85 | 28.02 | 0 | 1025.28 | 56.27 | 1393 | 18.5 | 4.10 |
2026-08-28 22:32:05 | 1.81 | SSW | 2.2 | 27.99 | 0 | 1025.22 | 56.66 | 1383 | 18.58 | 4.10 |
2026-08-28 22:31:07 | 1.38 | SSW | 1.85 | 27.95 | 0 | 1025.26 | 56.98 | 1375 | 18.63 | 4.10 |
2026-08-28 22:30:08 | 0.58 | SSW | 0.7 | 28.02 | 0 | 1025.23 | 56.8 | 1380 | 18.65 | 4.10 |
2026-08-28 22:29:09 | 1.34 | SSW | 1.89 | 28.05 | 0 | 1025.24 | 56.7 | 1382 | 18.65 | 4.10 |
2026-08-28 22:28:11 | 0.54 | WSW | 1.06 | 28.1 | 0 | 1025.27 | 56.67 | 1383 | 18.69 | 4.10 |
2026-08-28 22:27:12 | 0.6 | WSW | 0.79 | 28.16 | 0 | 1025.28 | 56.55 | 1386 | 18.71 | 4.10 |
2026-08-28 22:26:13 | 0.95 | WSW | 1.23 | 28.2 | 0 | 1025.3 | 56.47 | 1388 | 18.72 | 4.10 |
2026-08-28 22:25:14 | 1.53 | SSW | 1.98 | 28.26 | 0 | 1025.35 | 56.44 | 1389 | 18.77 | 4.10 |
2026-08-28 22:24:16 | 1.47 | W | 2.42 | 28.28 | 0 | 1025.32 | 55.43 | 1414 | 18.5 | 4.10 |
2026-08-28 22:23:17 | 0.93 | WSW | 1.19 | 28.4 | 0 | 1025.34 | 55.73 | 1407 | 18.7 | 4.10 |
2026-08-28 22:22:18 | 0.75 | WSW | 0.97 | 28.54 | 0 | 1025.37 | 55.54 | 1411 | 18.77 | 4.10 |
2026-08-28 22:21:20 | 0.81 | WSW | 1.28 | 28.64 | 0 | 1025.32 | 55.11 | 1422 | 18.74 | 4.10 |
2026-08-28 22:20:21 | 0.84 | WSW | 1.1 | 28.82 | 0 | 1025.33 | 54.94 | 1426 | 18.86 | 4.10 |
2026-08-28 22:19:22 | 1.02 | WSW | 1.36 | 28.92 | 0 | 1025.29 | 53.98 | 1450 | 18.67 | 4.10 |
2026-08-28 22:18:24 | 1.51 | SW | 2.55 | 29.01 | 0 | 1025.36 | 53.46 | 1463 | 18.6 | 4.10 |
2026-08-28 22:17:25 | 1.41 | SW | 2.9 | 29.01 | 0 | 1025.35 | 53.32 | 1467 | 18.56 | 4.10 |
2026-08-28 22:13:40 | 2.44 | SSW | 3.96 | 28.79 | 0 | 1025.21 | 53.2 | 1470 | 18.32 | 4.10 |
2026-08-28 22:12:41 | 1.9 | SSW | 2.02 | 28.72 | 0 | 1025.2 | 54.6 | 1435 | 18.67 | 4.10 |
2026-08-28 22:11:42 | 2.06 | SSW | 2.33 | 28.48 | 0 | 1025.17 | 54.49 | 1438 | 18.41 | 4.10 |
2026-08-28 22:10:44 | 2.29 | SSW | 3.08 | 28.2 | 0 | 1025.22 | 55.66 | 1408 | 18.49 | 4.10 |
2026-08-28 22:09:45 | 1.48 | S | 2.07 | 27.79 | 0 | 1025.23 | 56.66 | 1383 | 18.39 | 4.10 |
2026-08-28 22:08:46 | 1.31 | SW | 2.24 | 27.53 | 0 | 1025.3 | 58.14 | 1346 | 18.56 | 4.10 |
2026-08-28 22:07:47 | 0.94 | WNW | 1.19 | 27.45 | 0 | 1025.37 | 62.38 | 1240 | 19.62 | 4.10 |
2026-08-28 22:06:49 | 0.87 | WNW | 1.01 | 27.41 | 0 | 1025.42 | 61 | 1275 | 19.22 | 4.10 |
2026-08-28 22:05:50 | 1.17 | WNW | 1.32 | 27.36 | 0 | 1025.39 | 62.34 | 1241 | 19.52 | 4.10 |
2026-08-28 22:04:51 | 1.24 | WNW | 1.45 | 27.27 | 0 | 1025.4 | 62.95 | 1226 | 19.6 | 4.10 |
2026-08-28 22:03:53 | 1.6 | WNW | 1.76 | 27.1 | 0 | 1025.38 | 62.71 | 1232 | 19.37 | 4.10 |
2026-08-28 22:02:53 | 1.61 | WNW | 1.76 | 26.92 | 0 | 1025.37 | 63.95 | 1201 | 19.52 | 4.10 |
2026-08-28 22:01:54 | 1.86 | WNW | 1.98 | 26.75 | 0 | 1025.37 | 64.41 | 1190 | 19.47 | 4.10 |
2026-08-28 22:00:56 | 2.07 | WNW | 2.2 | 26.58 | 0 | 1025.36 | 65.52 | 1162 | 19.59 | 4.10 |
2026-08-28 21:59:57 | 2.03 | WNW | 2.38 | 26.65 | 0 | 1025.37 | 67.17 | 1121 | 20.05 | 4.10 |
2026-08-28 21:58:58 | 2.26 | WNW | 2.64 | 26.74 | 0 | 1025.36 | 66.88 | 1128 | 20.07 | 4.10 |
2026-08-28 21:58:00 | 1.67 | WNW | 1.8 | 26.77 | 0 | 1025.39 | 66.41 | 1140 | 19.98 | 4.10 |
2026-08-28 21:57:01 | 1.88 | WNW | 2.16 | 26.81 | 0 | 1025.35 | 66.4 | 1140 | 20.02 | 4.10 |
2026-08-28 21:56:02 | 2.09 | WNW | 2.38 | 26.85 | 0 | 1025.28 | 66.36 | 1141 | 20.05 | 4.11 |
2026-08-28 21:55:04 | 2.39 | WNW | 2.73 | 26.96 | 0 | 1025.27 | 66.2 | 1145 | 20.11 | 4.11 |
2026-08-28 21:54:05 | 2.22 | WNW | 2.64 | 27.13 | 0 | 1025.17 | 66.13 | 1147 | 20.26 | 4.11 |
2026-08-28 21:53:06 | 1.54 | WNW | 2.24 | 27.32 | 0 | 1025.15 | 65.23 | 1169 | 20.22 | 4.11 |
2026-08-28 21:52:07 | 1.3 | WNW | 1.41 | 27.5 | 0 | 1025.15 | 64.85 | 1179 | 20.29 | 4.11 |
2026-08-28 21:51:08 | 1.41 | WNW | 1.89 | 27.65 | 0 | 1025.11 | 64.39 | 1190 | 20.32 | 4.11 |
2026-08-28 21:50:09 | 0.71 | WNW | 0.92 | 27.72 | 0 | 1025.09 | 63.88 | 1203 | 20.26 | 4.10 |
2026-08-28 21:49:11 | 0.99 | WNW | 1.19 | 27.82 | 0 | 1025.05 | 63.61 | 1210 | 20.28 | 4.11 |
2026-08-28 21:48:12 | 0.96 | WNW | 1.01 | 27.73 | 0 | 1025.08 | 62.82 | 1229 | 20 | 4.11 |
2026-08-28 21:47:13 | 1.81 | WNW | 2.2 | 27.85 | 0 | 1024.97 | 62.69 | 1233 | 20.08 | 4.11 |
2026-08-28 21:46:14 | 1.38 | WNW | 1.76 | 28.2 | 0 | 1024.96 | 62.65 | 1234 | 20.4 | 4.11 |
2026-08-28 21:45:15 | 1.21 | WNW | 1.36 | 28.55 | 0 | 1024.86 | 60.98 | 1275 | 20.29 | 4.11 |
2026-08-28 21:44:16 | 0.94 | WNW | 1.5 | 28.91 | 0 | 1024.89 | 60.63 | 1284 | 20.53 | 4.11 |
2026-08-28 21:43:17 | 0.38 | SW | 0.66 | 29.08 | 0 | 1024.84 | 58.32 | 1342 | 20.06 | 4.11 |
2026-08-28 21:42:19 | 0.47 | SW | 0.88 | 29.19 | 0 | 1024.85 | 57.85 | 1354 | 20.03 | 4.11 |
2026-08-28 21:41:20 | 0.14 | SW | 0.31 | 29.25 | 0 | 1024.81 | 57.76 | 1356 | 20.07 | 4.11 |
2026-08-28 21:40:21 | 0.63 | SW | 1.19 | 29.32 | 0 | 1024.79 | 57.11 | 1372 | 19.95 | 4.11 |
2026-08-28 21:39:22 | 0.51 | SW | 0.79 | 29.37 | 0 | 1024.79 | 57.08 | 1373 | 19.99 | 4.11 |
2026-08-28 21:38:24 | 1.17 | SW | 1.36 | 29.44 | 0 | 1024.73 | 56.97 | 1376 | 20.02 | 4.11 |
2026-08-28 21:37:25 | 1.52 | SW | 1.89 | 29.53 | 0 | 1024.69 | 56.74 | 1381 | 20.04 | 4.11 |
2026-08-28 21:36:26 | 2.06 | SSW | 2.24 | 29.64 | 0 | 1024.63 | 56.61 | 1385 | 20.1 | 4.11 |
2026-08-28 21:35:27 | 2.38 | SSW | 2.6 | 29.75 | 0 | 1024.56 | 56.08 | 1398 | 20.05 | 4.11 |
2026-08-28 21:34:29 | 2.2 | SSW | 2.38 | 29.77 | 0 | 1024.59 | 55.92 | 1402 | 20.03 | 4.11 |
2026-08-28 21:33:30 | 2.21 | SSW | 2.6 | 29.75 | 0 | 1024.61 | 55.8 | 1405 | 19.97 | 4.11 |
2026-08-28 21:32:31 | 2.08 | SSW | 2.82 | 29.71 | 0 | 1024.63 | 55.75 | 1406 | 19.92 | 4.11 |
2026-08-28 21:31:33 | 1.6 | WSW | 1.72 | 29.71 | 0 | 1024.66 | 56.02 | 1399 | 20 | 4.11 |
2026-08-28 21:30:34 | 1.9 | SW | 2.68 | 29.7 | 0 | 1024.75 | 56.03 | 1399 | 19.99 | 4.11 |
2026-08-28 21:29:35 | 1.9 | SSW | 2.24 | 29.64 | 0 | 1024.73 | 56.18 | 1395 | 19.98 | 4.11 |
2026-08-28 21:28:36 | 2.05 | SW | 2.38 | 29.57 | 0 | 1024.76 | 56.43 | 1389 | 19.99 | 4.11 |
2026-08-28 21:27:38 | 2.35 | SW | 3.3 | 29.44 | 0 | 1024.72 | 56.55 | 1386 | 19.9 | 4.11 |
2026-08-28 21:26:39 | 1.82 | SW | 2.38 | 29.32 | 0 | 1024.77 | 57.18 | 1370 | 19.97 | 4.11 |
2026-08-28 21:25:40 | 1.72 | SW | 1.98 | 29.25 | 0 | 1024.8 | 57.82 | 1354 | 20.08 | 4.11 |
2026-08-28 21:24:42 | 1.7 | WSW | 2.11 | 29.19 | 0 | 1024.85 | 58.02 | 1349 | 20.08 | 4.11 |
2026-08-28 21:23:43 | 1.6 | W | 2.11 | 29.17 | 0 | 1024.83 | 58.05 | 1349 | 20.07 | 4.11 |
2026-08-28 21:22:44 | 1.02 | WSW | 1.28 | 29.19 | 0 | 1024.89 | 58.44 | 1339 | 20.2 | 4.11 |
2026-08-28 21:21:45 | 1.25 | WSW | 1.58 | 29.27 | 0 | 1024.86 | 58.23 | 1344 | 20.22 | 4.11 |
2026-08-28 21:20:46 | 1.81 | SW | 2.6 | 29.26 | 0 | 1024.89 | 57.81 | 1355 | 20.09 | 4.11 |
2026-08-28 21:19:48 | 1.87 | WSW | 2.33 | 29.32 | 0 | 1024.85 | 58.01 | 1350 | 20.2 | 4.11 |
2026-08-28 21:17:49 | 1.62 | W | 1.98 | 29.58 | 0 | 1024.79 | 57.06 | 1373 | 20.18 | 4.11 |
2026-08-28 21:16:50 | 1.39 | W | 1.72 | 29.79 | 0 | 1024.83 | 56.57 | 1386 | 20.23 | 4.11 |
2026-08-28 21:15:52 | 1.34 | W | 1.85 | 29.97 | 0 | 1024.85 | 55.8 | 1405 | 20.18 | 4.11 |
2026-08-28 21:14:53 | 1.16 | W | 1.58 | 30.08 | 0 | 1024.83 | 55.24 | 1419 | 20.12 | 4.11 |
2026-08-28 21:13:54 | 1.4 | SSW | 1.58 | 30.11 | 0 | 1024.84 | 54.66 | 1433 | 19.97 | 4.11 |
2026-08-28 21:12:55 | 1.92 | SSW | 2.29 | 30.12 | 0 | 1024.83 | 54.54 | 1436 | 19.95 | 4.11 |
2026-08-28 21:11:57 | 1.81 | SW | 2.46 | 30.15 | 0 | 1024.79 | 54.38 | 1440 | 19.93 | 4.11 |
2026-08-28 21:10:58 | 2.05 | SW | 2.77 | 30.18 | 0 | 1024.81 | 54.58 | 1435 | 20.01 | 4.11 |
2026-08-28 21:09:59 | 1.87 | SW | 3.21 | 30.2 | 0 | 1024.81 | 54.32 | 1442 | 19.96 | 4.11 |
2026-08-28 21:09:01 | 2.48 | SSW | 3.08 | 30.23 | 0 | 1024.81 | 54.32 | 1442 | 19.98 | 4.11 |
2026-08-28 21:08:02 | 2.85 | SSW | 3.48 | 30.2 | 0 | 1024.68 | 54.21 | 1445 | 19.92 | 4.11 |
2026-08-28 21:07:03 | 2.34 | SSW | 2.77 | 30.19 | 0 | 1024.68 | 54.43 | 1439 | 19.98 | 4.11 |
2026-08-28 21:06:04 | 2.85 | SW | 3.21 | 30.2 | 0 | 1024.67 | 54.49 | 1438 | 20.01 | 4.11 |
2026-08-28 21:05:06 | 3.17 | SW | 3.7 | 30.22 | 0 | 1024.76 | 54.44 | 1439 | 20.01 | 4.11 |
2026-08-28 21:04:07 | 2.34 | SW | 2.9 | 30.33 | 0 | 1024.76 | 54.32 | 1442 | 20.08 | 4.11 |
2026-08-28 21:03:08 | 2.73 | SW | 3.21 | 30.37 | 0 | 1024.77 | 54 | 1450 | 20.02 | 4.11 |
2026-08-28 21:02:09 | 2.67 | SSW | 3.39 | 30.42 | 0 | 1024.78 | 53.83 | 1454 | 20.01 | 4.11 |
2026-08-28 21:01:11 | 3.69 | SSW | 5.06 | 30.36 | 0 | 1024.74 | 53.71 | 1457 | 19.92 | 4.11 |
2026-08-28 21:00:12 | 3.57 | SSW | 4.53 | 30.3 | 0 | 1024.77 | 54.11 | 1447 | 19.99 | 4.11 |
2026-08-28 20:59:13 | 4.59 | SSW | 5.28 | 30.22 | 0 | 1024.72 | 54.16 | 1446 | 19.93 | 4.11 |
2026-08-28 20:58:14 | 3.5 | SSW | 4.09 | 30.14 | 0 | 1024.68 | 54.77 | 1431 | 20.03 | 4.11 |
2026-08-28 20:57:16 | 2.72 | SSW | 3.12 | 30.2 | 0 | 1024.65 | 54.93 | 1427 | 20.14 | 4.11 |
2026-08-28 20:56:17 | 3.34 | SSW | 4.4 | 30.3 | 0 | 1024.61 | 54.53 | 1437 | 20.11 | 4.11 |
2026-08-28 20:55:18 | 2.78 | SSW | 3.34 | 30.36 | 0 | 1024.58 | 54.29 | 1443 | 20.1 | 4.11 |
2026-08-28 20:54:20 | 3.7 | SSW | 4.71 | 30.39 | 0 | 1024.63 | 53.91 | 1452 | 20.01 | 4.11 |
2026-08-28 20:53:21 | 4.37 | S | 5.06 | 30.25 | 0 | 1024.62 | 53.97 | 1451 | 19.9 | 4.11 |
2026-08-28 20:52:22 | 3.53 | S | 4.14 | 30.29 | 0 | 1024.78 | 54.61 | 1435 | 20.13 | 4.11 |
2026-08-28 20:51:23 | 2.96 | SSW | 3.56 | 30.37 | 0 | 1024.74 | 54.28 | 1443 | 20.1 | 4.11 |
2026-08-28 20:50:24 | 3.51 | SSW | 3.87 | 30.4 | 0 | 1024.78 | 54.06 | 1448 | 20.06 | 4.11 |
2026-08-28 20:49:25 | 4.03 | SSW | 5.19 | 30.56 | 0 | 1024.77 | 53.79 | 1455 | 20.13 | 4.11 |
2026-08-28 20:48:26 | 3.42 | S | 3.87 | 30.64 | 0 | 1024.65 | 53.26 | 1468 | 20.04 | 4.11 |
2026-08-28 20:47:28 | 4.05 | S | 4.62 | 30.68 | 0 | 1024.69 | 53.08 | 1473 | 20.03 | 4.11 |
2026-08-28 20:46:29 | 3.19 | SSW | 3.74 | 30.66 | 0 | 1024.71 | 53.26 | 1468 | 20.06 | 4.11 |
2026-08-28 20:45:30 | 3.63 | SSW | 4.05 | 30.7 | 0 | 1024.72 | 53.03 | 1474 | 20.03 | 4.11 |
2026-08-28 20:44:32 | 3.28 | SSW | 3.78 | 30.66 | 0 | 1024.74 | 53.04 | 1474 | 20 | 4.11 |
2026-08-28 20:43:33 | 3.29 | SSW | 3.78 | 30.68 | 0 | 1024.77 | 53.02 | 1474 | 20.01 | 4.11 |
2026-08-28 20:42:34 | 3.76 | SSW | 4.44 | 30.6 | 0 | 1024.76 | 53.09 | 1473 | 19.96 | 4.11 |
2026-08-28 20:41:35 | 2.86 | SW | 3.7 | 30.54 | 0 | 1024.73 | 53.51 | 1462 | 20.03 | 4.11 |
2026-08-28 20:40:37 | 3.08 | SSW | 3.65 | 30.57 | 0 | 1024.69 | 53.53 | 1462 | 20.06 | 4.11 |
2026-08-28 20:39:38 | 3.12 | SSW | 3.83 | 30.54 | 0 | 1024.72 | 53.4 | 1465 | 19.99 | 4.11 |
2026-08-28 20:38:39 | 3.3 | SW | 3.56 | 30.57 | 0 | 1024.73 | 53.51 | 1462 | 20.06 | 4.11 |
2026-08-28 20:37:40 | 3.32 | SSW | 4.36 | 30.59 | 0 | 1024.73 | 53.58 | 1460 | 20.1 | 4.11 |
2026-08-28 20:36:42 | 3.11 | SSW | 3.7 | 30.57 | 0 | 1024.79 | 53.51 | 1462 | 20.06 | 4.11 |
2026-08-28 20:35:43 | 3.31 | SSW | 4.09 | 30.5 | 0 | 1024.74 | 53.43 | 1464 | 19.97 | 4.11 |
2026-08-28 20:34:44 | 3.13 | SSW | 4.14 | 30.4 | 0 | 1024.72 | 54.19 | 1445 | 20.1 | 4.11 |
2026-08-28 20:33:45 | 3.87 | SSW | 4.27 | 30.29 | 0 | 1024.69 | 54.12 | 1447 | 19.98 | 4.11 |
2026-08-28 20:32:47 | 3.32 | SSW | 4.31 | 30.22 | 0 | 1024.62 | 54.75 | 1431 | 20.1 | 4.11 |
2026-08-28 20:31:48 | 2.88 | SSW | 3.65 | 30.23 | 0 | 1024.67 | 55.33 | 1417 | 20.28 | 4.11 |
2026-08-28 20:30:49 | 2.71 | SSW | 3.65 | 30.29 | 0 | 1024.71 | 54.97 | 1426 | 20.23 | 4.11 |
2026-08-28 20:29:50 | 3.08 | SW | 3.7 | 30.32 | 0 | 1024.68 | 54.67 | 1433 | 20.17 | 4.11 |
2026-08-28 20:28:52 | 3.32 | SSW | 4.44 | 30.37 | 0 | 1024.65 | 54.42 | 1439 | 20.14 | 4.11 |
2026-08-28 20:27:53 | 3.26 | SSW | 4 | 30.37 | 0 | 1024.67 | 54.44 | 1439 | 20.15 | 4.11 |
2026-08-28 20:26:54 | 2.94 | SSW | 3.56 | 30.37 | 0 | 1024.59 | 54.57 | 1436 | 20.19 | 4.11 |
2026-08-28 20:25:55 | 2.74 | SSW | 3.04 | 30.47 | 0 | 1024.61 | 54.59 | 1435 | 20.29 | 4.11 |
2026-08-28 20:24:57 | 3.29 | SSW | 3.7 | 30.53 | 0 | 1024.6 | 54.43 | 1439 | 20.29 | 4.11 |
2026-08-28 20:23:58 | 3.46 | SSW | 4.14 | 30.57 | 0 | 1024.59 | 54.13 | 1447 | 20.24 | 4.11 |
2026-08-28 20:22:59 | 3.41 | S | 4.09 | 30.66 | 0 | 1024.61 | 54.15 | 1446 | 20.33 | 4.11 |
2026-08-28 20:22:01 | 3.74 | SSW | 4.14 | 30.61 | 0 | 1024.6 | 54.05 | 1449 | 20.26 | 4.11 |
2026-08-28 20:21:02 | 3.97 | S | 4.44 | 30.57 | 0 | 1024.62 | 54.04 | 1449 | 20.22 | 4.11 |
2026-08-28 20:20:03 | 3.96 | S | 4.58 | 30.53 | 0 | 1024.68 | 54.48 | 1438 | 20.31 | 4.11 |
2026-08-28 20:19:04 | 3.43 | SSW | 3.78 | 30.54 | 0 | 1024.7 | 54.71 | 1432 | 20.39 | 4.11 |
2026-08-28 20:18:06 | 3.49 | SSW | 4.14 | 30.6 | 0 | 1024.69 | 54.63 | 1434 | 20.42 | 4.11 |
2026-08-28 20:17:07 | 3.84 | SSW | 4.14 | 30.61 | 0 | 1024.76 | 54.72 | 1432 | 20.46 | 4.11 |
2026-08-28 20:16:08 | 3.73 | SSW | 4.62 | 30.64 | 0 | 1024.68 | 54.63 | 1434 | 20.46 | 4.11 |
2026-08-28 20:15:09 | 3.5 | S | 4.36 | 30.61 | 0 | 1024.66 | 54.52 | 1437 | 20.4 | 4.11 |
2026-08-28 20:14:11 | 3.34 | S | 3.83 | 30.64 | 0 | 1024.68 | 54.75 | 1431 | 20.49 | 4.11 |
2026-08-28 20:12:12 | 3.45 | SSW | 4.27 | 30.68 | 0 | 1024.71 | 54.47 | 1438 | 20.45 | 4.11 |
2026-08-28 20:11:14 | 2.82 | SSW | 4 | 30.77 | 0 | 1024.76 | 54.61 | 1435 | 20.57 | 4.11 |
2026-08-28 20:10:15 | 3.07 | SSW | 3.61 | 30.87 | 0 | 1024.74 | 54.45 | 1439 | 20.62 | 4.12 |
2026-08-28 20:09:16 | 3.43 | S | 4.36 | 30.91 | 0 | 1024.71 | 54.26 | 1443 | 20.6 | 4.12 |
2026-08-28 20:08:17 | 3.35 | SSW | 3.74 | 30.92 | 0 | 1024.72 | 54.34 | 1441 | 20.63 | 4.12 |
2026-08-28 20:07:19 | 3.67 | S | 4.27 | 30.95 | 0 | 1024.65 | 53.86 | 1453 | 20.51 | 4.12 |
2026-08-28 20:06:20 | 2.83 | SSW | 4.05 | 30.94 | 0 | 1024.62 | 53.94 | 1451 | 20.53 | 4.12 |
2026-08-28 20:05:21 | 3.31 | SSW | 4.53 | 30.89 | 0 | 1024.56 | 54.09 | 1448 | 20.53 | 4.12 |
2026-08-28 20:04:23 | 3.62 | SSW | 4.14 | 30.89 | 0 | 1024.52 | 53.91 | 1452 | 20.47 | 4.12 |
2026-08-28 20:03:24 | 3.56 | S | 4.44 | 30.87 | 0 | 1024.6 | 54.16 | 1446 | 20.53 | 4.12 |
2026-08-28 20:02:25 | 3.23 | S | 4.44 | 30.88 | 0 | 1024.56 | 54.64 | 1434 | 20.68 | 4.12 |
2026-08-28 20:01:26 | 3.56 | S | 4.14 | 30.91 | 0 | 1024.61 | 54.49 | 1438 | 20.66 | 4.12 |
2026-08-28 20:00:28 | 3.84 | S | 4.66 | 30.85 | 0 | 1024.58 | 54.52 | 1437 | 20.62 | 4.12 |
2026-08-28 19:59:29 | 3.35 | S | 4 | 30.8 | 0 | 1024.6 | 54.65 | 1434 | 20.61 | 4.12 |
2026-08-28 19:58:30 | 3.25 | SSW | 3.74 | 30.8 | 0 | 1024.59 | 55.38 | 1415 | 20.83 | 4.12 |
2026-08-28 19:57:31 | 3.26 | S | 3.74 | 30.85 | 0 | 1024.65 | 55.33 | 1417 | 20.86 | 4.12 |
2026-08-28 19:56:33 | 3.71 | S | 4.44 | 30.85 | 0 | 1024.56 | 55.15 | 1421 | 20.8 | 4.12 |
2026-08-28 19:55:34 | 3.37 | S | 4.36 | 30.87 | 0 | 1024.58 | 55.37 | 1416 | 20.89 | 4.12 |
2026-08-28 19:54:35 | 3.46 | S | 4.36 | 30.84 | 0 | 1024.65 | 55.38 | 1415 | 20.86 | 4.12 |
2026-08-28 19:53:36 | 3.56 | S | 4.58 | 30.85 | 0 | 1024.62 | 55.37 | 1416 | 20.87 | 4.12 |
2026-08-28 19:52:38 | 3.45 | S | 4.36 | 30.89 | 0 | 1024.64 | 55.46 | 1413 | 20.93 | 4.12 |
2026-08-28 19:51:39 | 3.56 | S | 4.14 | 30.88 | 0 | 1024.57 | 55.34 | 1416 | 20.89 | 4.12 |
2026-08-28 19:50:40 | 2.75 | S | 3.56 | 30.92 | 0 | 1024.53 | 55.37 | 1416 | 20.93 | 4.12 |
2026-08-28 19:49:41 | 3.1 | S | 3.56 | 30.92 | 0 | 1024.56 | 55.27 | 1418 | 20.91 | 4.12 |
2026-08-28 19:48:42 | 3.42 | S | 4.31 | 30.88 | 0 | 1024.57 | 55.32 | 1417 | 20.88 | 4.12 |
2026-08-28 19:47:44 | 2.91 | S | 3.26 | 30.8 | 0 | 1024.53 | 55.58 | 1410 | 20.88 | 4.12 |
2026-08-28 19:46:45 | 2.93 | S | 3.3 | 30.84 | 0 | 1024.52 | 55.39 | 1415 | 20.87 | 4.12 |
2026-08-28 19:45:46 | 2.98 | S | 3.43 | 30.92 | 0 | 1024.52 | 55.23 | 1419 | 20.89 | 4.12 |
2026-08-28 19:44:47 | 2.99 | S | 3.78 | 30.94 | 0 | 1024.49 | 55.15 | 1421 | 20.89 | 4.12 |
2026-08-28 19:43:49 | 2.51 | SSW | 3.34 | 30.95 | 0 | 1024.48 | 55.13 | 1422 | 20.89 | 4.12 |
2026-08-28 19:42:50 | 3.25 | S | 3.7 | 30.95 | 0 | 1024.49 | 55.2 | 1420 | 20.91 | 4.12 |
2026-08-28 19:41:51 | 3.13 | SSW | 3.65 | 30.99 | 0 | 1024.48 | 55.17 | 1421 | 20.94 | 4.12 |
2026-08-28 19:40:52 | 3.14 | SSW | 3.83 | 31.02 | 0 | 1024.46 | 54.97 | 1426 | 20.91 | 4.12 |
2026-08-28 19:39:53 | 3.26 | S | 3.65 | 31.06 | 0 | 1024.41 | 54.79 | 1430 | 20.89 | 4.12 |
2026-08-28 19:38:54 | 3.2 | S | 4.49 | 31.11 | 0 | 1024.42 | 54.6 | 1435 | 20.88 | 4.12 |
2026-08-28 19:37:56 | 2.87 | S | 3.92 | 31.15 | 0 | 1024.42 | 54.33 | 1442 | 20.84 | 4.12 |
2026-08-28 19:36:57 | 3.39 | S | 3.96 | 31.19 | 0 | 1024.38 | 54.13 | 1447 | 20.82 | 4.12 |
2026-08-28 19:35:58 | 2.87 | S | 3.43 | 31.22 | 0 | 1024.36 | 54.14 | 1446 | 20.85 | 4.12 |
2026-08-28 19:34:59 | 2.54 | S | 3.04 | 31.22 | 0 | 1024.38 | 53.87 | 1453 | 20.77 | 4.12 |
2026-08-28 19:34:01 | 2.14 | S | 2.9 | 31.26 | 0 | 1024.4 | 53.32 | 1467 | 20.64 | 4.12 |
2026-08-28 19:33:02 | 1.61 | SSE | 2.07 | 31.34 | 0 | 1024.38 | 52.9 | 1477 | 20.58 | 4.12 |
2026-08-28 19:32:03 | 1.29 | S | 1.63 | 31.49 | 0 | 1024.42 | 52.62 | 1484 | 20.63 | 4.12 |
2026-08-28 19:31:04 | 1.79 | S | 2.16 | 31.59 | 0 | 1024.41 | 52.42 | 1489 | 20.66 | 4.12 |
2026-08-28 19:30:06 | 2.07 | S | 2.42 | 31.63 | 0 | 1024.42 | 52.19 | 1495 | 20.63 | 4.12 |
2026-08-28 19:29:07 | 2.53 | S | 3.48 | 31.61 | 0 | 1024.5 | 52.27 | 1493 | 20.64 | 4.12 |
2026-08-28 19:28:08 | 2.03 | SSW | 2.9 | 31.6 | 0 | 1024.47 | 51.59 | 1510 | 20.41 | 4.12 |
2026-08-28 19:27:09 | 2.29 | S | 2.6 | 31.64 | 0 | 1024.51 | 51.65 | 1509 | 20.47 | 4.12 |
2026-08-28 19:26:11 | 2.36 | S | 2.68 | 31.67 | 0 | 1024.55 | 51.49 | 1513 | 20.45 | 4.12 |
2026-08-28 19:24:13 | 2.3 | SSW | 3.21 | 31.77 | 0 | 1024.55 | 50.95 | 1526 | 20.37 | 4.12 |
2026-08-28 19:23:14 | 2.37 | S | 2.82 | 31.78 | 0 | 1024.56 | 50.78 | 1530 | 20.32 | 4.12 |
2026-08-28 19:22:15 | 2.58 | S | 2.99 | 31.85 | 0 | 1024.55 | 50.18 | 1545 | 20.2 | 4.12 |
2026-08-28 19:21:16 | 2.63 | SSW | 2.86 | 31.87 | 0 | 1024.54 | 49.76 | 1556 | 20.08 | 4.12 |
2026-08-28 19:20:18 | 2.41 | S | 2.9 | 31.91 | 0 | 1024.59 | 49.96 | 1551 | 20.18 | 4.12 |
2026-08-28 19:19:19 | 2.19 | S | 2.46 | 31.97 | 0 | 1024.59 | 49.49 | 1563 | 20.08 | 4.12 |
2026-08-28 19:18:20 | 2.77 | S | 3.08 | 31.99 | 0 | 1024.56 | 49.69 | 1558 | 20.16 | 4.12 |
2026-08-28 19:17:21 | 2.63 | SSW | 3.08 | 32.04 | 0 | 1024.53 | 49.13 | 1572 | 20.03 | 4.12 |
2026-08-28 19:16:23 | 2.78 | SSW | 3.34 | 32.07 | 0 | 1024.58 | 49.17 | 1571 | 20.07 | 4.12 |
2026-08-28 19:14:25 | 2.22 | SSW | 2.82 | 32.03 | 0 | 1024.57 | 47.21 | 1620 | 19.38 | 4.12 |
2026-08-28 19:13:26 | 1.88 | S | 2.11 | 32.01 | 0 | 1024.62 | 45.65 | 1659 | 18.82 | 4.12 |
2026-08-28 19:12:27 | 1.66 | S | 1.94 | 32.05 | 0 | 1024.66 | 46.11 | 1647 | 19.01 | 4.12 |
2026-08-28 19:11:29 | 1.49 | S | 2.29 | 32.11 | 0 | 1024.66 | 45.62 | 1659 | 18.9 | 4.12 |
2026-08-28 19:10:30 | 1.09 | SSW | 1.5 | 32.19 | 0 | 1024.65 | 45.85 | 1654 | 19.05 | 4.12 |
2026-08-28 19:09:31 | 0.83 | SSW | 1.28 | 32.23 | 0 | 1024.65 | 45.71 | 1657 | 19.04 | 4.12 |
2026-08-28 19:08:32 | 0.75 | SSW | 0.88 | 32.31 | 0 | 1024.59 | 45.23 | 1669 | 18.94 | 4.12 |
2026-08-28 19:07:33 | 1.17 | SSW | 1.45 | 32.38 | 0 | 1024.58 | 44.9 | 1677 | 18.89 | 4.12 |
2026-08-28 19:06:34 | 1.21 | SW | 1.45 | 32.44 | 0 | 1024.52 | 44.45 | 1689 | 18.78 | 4.12 |
2026-08-28 19:05:36 | 1.57 | SW | 2.07 | 32.49 | 0 | 1024.53 | 43.9 | 1702 | 18.63 | 4.12 |
2026-08-28 19:04:37 | 1.37 | SSW | 1.76 | 32.53 | 0 | 1024.56 | 43.88 | 1703 | 18.65 | 4.12 |
2026-08-28 19:03:38 | 1.99 | SSW | 2.73 | 32.57 | 0 | 1024.55 | 43.05 | 1724 | 18.39 | 4.12 |
2026-08-28 19:02:39 | 2.39 | SSW | 2.86 | 32.56 | 0 | 1024.6 | 43.17 | 1721 | 18.42 | 4.12 |
2026-08-28 19:01:41 | 2.12 | SSW | 2.55 | 32.56 | 0 | 1024.56 | 43.64 | 1709 | 18.59 | 4.12 |
2026-08-28 19:00:42 | 2.27 | SW | 3.39 | 32.57 | 0 | 1024.59 | 43.5 | 1712 | 18.55 | 4.12 |
2026-08-28 18:59:43 | 2.17 | SW | 2.82 | 32.6 | 0 | 1024.54 | 43.22 | 1719 | 18.48 | 4.12 |
2026-08-28 18:58:44 | 2.11 | SSW | 2.73 | 32.67 | 0 | 1024.54 | 44.4 | 1690 | 18.97 | 4.12 |
2026-08-28 18:57:45 | 2.19 | SSW | 2.6 | 32.71 | 0 | 1024.55 | 44.39 | 1690 | 19 | 4.12 |
2026-08-28 18:56:46 | 2.47 | SSW | 2.95 | 32.77 | 0 | 1024.53 | 44.46 | 1688 | 19.08 | 4.12 |
2026-08-28 18:55:48 | 2.85 | SW | 3.83 | 32.81 | 0 | 1024.55 | 44.2 | 1695 | 19.02 | 4.12 |
2026-08-28 18:54:48 | 3.36 | SSW | 4.36 | 32.83 | 0 | 1024.49 | 43.51 | 1712 | 18.79 | 4.12 |
2026-08-28 18:53:50 | 2.21 | SW | 3.26 | 32.87 | 0 | 1024.55 | 44.82 | 1679 | 19.3 | 4.12 |
2026-08-28 18:52:51 | 2.01 | SW | 2.51 | 32.97 | 0 | 1024.57 | 44.64 | 1684 | 19.33 | 4.12 |
2026-08-28 18:51:52 | 2.61 | SW | 2.86 | 33 | 0 | 1024.54 | 44 | 1700 | 19.12 | 4.12 |
2026-08-28 18:50:53 | 2.44 | SW | 2.68 | 33.05 | 0 | 1024.55 | 43.64 | 1709 | 19.04 | 4.12 |
2026-08-28 18:49:55 | 2.29 | SSW | 3.39 | 33.11 | 0 | 1024.59 | 44.21 | 1695 | 19.3 | 4.12 |
2026-08-28 18:48:55 | 2.56 | WSW | 3.26 | 33.17 | 0 | 1024.58 | 43.72 | 1707 | 19.17 | 4.12 |
2026-08-28 18:47:56 | 3.75 | SSW | 5.68 | 33.21 | 0 | 1024.54 | 43 | 1725 | 18.94 | 4.12 |
2026-08-28 18:46:57 | 3.14 | SW | 5.41 | 33.18 | 0 | 1024.53 | 42.65 | 1734 | 18.79 | 4.12 |
2026-08-28 18:45:58 | 2.91 | SW | 3.87 | 33.24 | 0 | 1024.57 | 44.34 | 1691 | 19.46 | 4.12 |
2026-08-28 18:44:59 | 2.47 | SW | 3.87 | 33.28 | 0 | 1024.54 | 45.47 | 1663 | 19.9 | 4.12 |
2026-08-28 18:44:00 | 1.67 | SW | 1.98 | 33.36 | 0 | 1024.53 | 45.53 | 1662 | 20 | 4.12 |
2026-08-28 18:43:01 | 2.38 | SSW | 3.21 | 33.38 | 0 | 1024.52 | 44.99 | 1675 | 19.82 | 4.12 |
2026-08-28 18:42:03 | 2.05 | SSW | 2.6 | 33.39 | 0 | 1024.53 | 45.63 | 1659 | 20.06 | 4.12 |
2026-08-28 18:41:04 | 1.46 | SSW | 1.94 | 33.49 | 0 | 1024.53 | 45.85 | 1654 | 20.23 | 4.12 |
2026-08-28 18:40:05 | 1.34 | SSW | 1.94 | 33.52 | 0 | 1024.49 | 45.89 | 1653 | 20.27 | 4.12 |
2026-08-28 18:39:06 | 1.85 | SSW | 2.68 | 33.56 | 0 | 1024.49 | 46.45 | 1639 | 20.5 | 4.12 |
2026-08-28 18:38:07 | 2.15 | SSW | 2.33 | 33.59 | 0 | 1024.5 | 45.5 | 1662 | 20.2 | 4.12 |
2026-08-28 18:37:08 | 2.81 | SSW | 3.61 | 33.55 | 0 | 1024.48 | 44.32 | 1692 | 19.74 | 4.12 |
2026-08-28 18:36:09 | 2.53 | SSW | 3.08 | 33.57 | 0 | 1024.49 | 45.97 | 1651 | 20.34 | 4.12 |
2026-08-28 18:35:10 | 1.79 | SSW | 2.24 | 33.62 | 0 | 1024.53 | 44.93 | 1677 | 20.02 | 4.12 |
2026-08-28 18:34:11 | 2.24 | SSW | 2.46 | 33.57 | 0 | 1024.49 | 45.44 | 1664 | 20.16 | 4.12 |
2026-08-28 18:33:12 | 2.98 | SSW | 3.7 | 33.56 | 0 | 1024.47 | 44.8 | 1680 | 19.92 | 4.12 |
2026-08-28 18:32:13 | 2.51 | SSW | 2.9 | 33.63 | 0 | 1024.49 | 46.17 | 1646 | 20.47 | 4.12 |
2026-08-28 18:31:15 | 2.81 | SSW | 3.26 | 33.72 | 0 | 1024.51 | 45.64 | 1659 | 20.36 | 4.12 |
2026-08-28 18:30:16 | 1.88 | SSW | 2.55 | 33.81 | 0 | 1024.54 | 45.85 | 1654 | 20.52 | 4.12 |
2026-08-28 18:29:17 | 2.26 | SSW | 2.68 | 33.86 | 0 | 1024.5 | 45.54 | 1661 | 20.45 | 4.12 |
2026-08-28 18:28:18 | 2.7 | SSW | 3.78 | 33.83 | 0 | 1024.51 | 44.56 | 1686 | 20.08 | 4.12 |
2026-08-28 18:27:19 | 3.35 | SSW | 3.7 | 33.81 | 0 | 1024.46 | 45.24 | 1669 | 20.3 | 4.12 |
2026-08-28 18:26:20 | 2.56 | SW | 4 | 33.94 | 0 | 1024.45 | 45.16 | 1671 | 20.39 | 4.12 |
2026-08-28 18:25:21 | 1.87 | SSW | 2.51 | 33.99 | 0 | 1024.44 | 45.64 | 1659 | 20.61 | 4.12 |
2026-08-28 18:24:22 | 2.21 | SSW | 2.82 | 34.01 | 0 | 1024.45 | 45.65 | 1659 | 20.63 | 4.12 |
2026-08-28 18:23:23 | 1.5 | S | 2.82 | 34.08 | 0 | 1024.41 | 45.31 | 1667 | 20.57 | 4.12 |
2026-08-28 18:22:24 | 1.69 | SSW | 2.24 | 34.18 | 0 | 1024.37 | 47.23 | 1619 | 21.34 | 4.12 |
2026-08-28 18:21:25 | 1.17 | SSW | 1.72 | 34.29 | 0 | 1024.41 | 46.41 | 1640 | 21.15 | 4.12 |
2026-08-28 18:20:26 | 1.27 | SSW | 1.63 | 34.32 | 0 | 1024.37 | 45.31 | 1667 | 20.79 | 4.12 |
2026-08-28 18:19:27 | 1.1 | SSW | 1.32 | 34.31 | 0 | 1024.36 | 44.97 | 1676 | 20.66 | 4.12 |
2026-08-28 18:18:29 | 1.36 | SSW | 1.63 | 34.27 | 0 | 1024.35 | 44.53 | 1687 | 20.46 | 4.12 |
2026-08-28 18:17:29 | 2.37 | SSE | 3.56 | 34.25 | 0 | 1024.31 | 45.2 | 1670 | 20.69 | 4.12 |
2026-08-28 18:16:31 | 1.69 | SSE | 2.73 | 34.32 | 0 | 1024.3 | 44.91 | 1677 | 20.65 | 4.12 |
2026-08-28 18:15:31 | 1.89 | SSE | 2.55 | 34.34 | 0 | 1024.37 | 44.38 | 1690 | 20.47 | 4.12 |
2026-08-28 18:14:33 | 2.06 | S | 2.73 | 34.35 | 0 | 1024.41 | 43.96 | 1701 | 20.33 | 4.12 |
2026-08-28 18:13:34 | 2.26 | S | 2.64 | 34.39 | 0 | 1024.37 | 44.28 | 1693 | 20.48 | 4.12 |
2026-08-28 18:12:35 | 2.25 | S | 2.95 | 34.44 | 0 | 1024.31 | 44.64 | 1684 | 20.66 | 4.12 |
2026-08-28 18:11:36 | 1.76 | S | 2.9 | 34.46 | 0 | 1024.4 | 44.42 | 1689 | 20.59 | 4.12 |
2026-08-28 18:10:37 | 1.99 | SSE | 2.77 | 34.52 | 0 | 1024.38 | 43.85 | 1704 | 20.44 | 4.12 |
2026-08-28 18:09:38 | 1.7 | S | 2.02 | 34.58 | 0 | 1024.35 | 44.27 | 1693 | 20.65 | 4.12 |
2026-08-28 18:08:39 | 2.06 | SSE | 2.82 | 34.56 | 0 | 1024.37 | 43.94 | 1701 | 20.51 | 4.12 |
2026-08-28 18:07:40 | 1.91 | S | 2.24 | 34.59 | 0 | 1024.32 | 44.32 | 1692 | 20.67 | 4.12 |
2026-08-28 18:06:41 | 1.42 | S | 1.54 | 34.62 | 0 | 1024.34 | 44.18 | 1695 | 20.65 | 4.12 |
2026-08-28 18:05:42 | 1.61 | SSW | 2.11 | 34.62 | 0 | 1024.35 | 44.13 | 1697 | 20.63 | 4.12 |
2026-08-28 18:04:43 | 1.24 | S | 1.54 | 34.59 | 0 | 1024.32 | 44.23 | 1694 | 20.64 | 4.12 |
2026-08-28 18:03:44 | 1.23 | S | 1.5 | 34.52 | 0 | 1024.35 | 44.4 | 1690 | 20.64 | 4.12 |
2026-08-28 18:02:45 | 1.84 | SSE | 2.29 | 34.45 | 0 | 1024.32 | 43.69 | 1708 | 20.32 | 4.12 |
2026-08-28 18:01:46 | 2.63 | SSE | 3.17 | 34.45 | 0 | 1024.37 | 43.8 | 1705 | 20.36 | 4.12 |
2026-08-28 18:00:47 | 1.92 | SSE | 2.33 | 34.54 | 0 | 1024.3 | 44.3 | 1692 | 20.62 | 4.12 |
2026-08-28 17:59:48 | 1.51 | SSE | 2.51 | 34.58 | 0 | 1024.31 | 44.8 | 1680 | 20.84 | 4.12 |
2026-08-28 17:58:49 | 1.74 | SSE | 2.82 | 34.58 | 0 | 1024.35 | 44.6 | 1685 | 20.77 | 4.12 |
2026-08-28 17:57:51 | 2.2 | S | 2.64 | 34.58 | 0 | 1024.35 | 43.96 | 1701 | 20.53 | 4.12 |
2026-08-28 17:56:51 | 2.2 | S | 2.9 | 34.56 | 0 | 1024.37 | 44.71 | 1682 | 20.79 | 4.12 |
2026-08-28 17:55:52 | 1.75 | SSW | 2.02 | 34.62 | 0 | 1024.41 | 44.41 | 1690 | 20.73 | 4.12 |
2026-08-28 17:54:53 | 1.67 | SSW | 2.16 | 34.65 | 0 | 1024.43 | 44.15 | 1696 | 20.67 | 4.12 |
2026-08-28 17:53:55 | 1.48 | SW | 1.76 | 34.62 | 0 | 1024.44 | 44.33 | 1692 | 20.7 | 4.12 |
2026-08-28 17:52:56 | 1.56 | SSE | 2.02 | 34.55 | 0 | 1024.46 | 45.48 | 1663 | 21.06 | 4.12 |
2026-08-28 17:51:57 | 1.78 | SSW | 2.51 | 34.46 | 0 | 1024.43 | 45.43 | 1664 | 20.96 | 4.12 |
2026-08-28 17:50:58 | 1.61 | SSW | 2.02 | 34.41 | 0 | 1024.45 | 45.01 | 1675 | 20.76 | 4.12 |
2026-08-28 17:49:59 | 2.5 | S | 3.17 | 34.37 | 0 | 1024.44 | 45.02 | 1674 | 20.73 | 4.12 |
2026-08-28 17:49:00 | 1.94 | SSE | 2.33 | 34.44 | 0 | 1024.5 | 45.83 | 1654 | 21.08 | 4.12 |
2026-08-28 17:48:00 | 1.65 | SSE | 2.11 | 34.48 | 0 | 1024.44 | 45.54 | 1661 | 21.02 | 4.12 |
2026-08-28 17:47:01 | 1.33 | SSE | 2.07 | 34.42 | 0 | 1024.49 | 45.86 | 1653 | 21.08 | 4.12 |
2026-08-28 17:46:02 | 1.54 | SSE | 1.85 | 34.34 | 0 | 1024.46 | 45.64 | 1659 | 20.93 | 4.12 |
2026-08-28 17:45:02 | 1.97 | SSW | 2.16 | 34.25 | 0 | 1024.45 | 45.74 | 1656 | 20.88 | 4.12 |
2026-08-28 17:44:03 | 2.55 | SSE | 2.86 | 34.2 | 0 | 1024.47 | 44.91 | 1677 | 20.54 | 4.12 |
2026-08-28 17:43:04 | 2.89 | S | 3.61 | 34.21 | 0 | 1024.4 | 45.57 | 1661 | 20.78 | 4.12 |
2026-08-28 17:42:05 | 3.12 | SW | 3.74 | 34.2 | 0 | 1024.39 | 44.74 | 1681 | 20.48 | 4.12 |
2026-08-28 17:41:06 | 2.52 | SSW | 3.65 | 34.27 | 0 | 1024.44 | 45.26 | 1668 | 20.73 | 4.12 |
2026-08-28 17:40:07 | 2.25 | SSW | 3.61 | 34.25 | 0 | 1024.44 | 45.44 | 1664 | 20.77 | 4.12 |
2026-08-28 17:39:08 | 2.71 | SSW | 3.48 | 34.17 | 0 | 1024.51 | 45.55 | 1661 | 20.74 | 4.12 |
2026-08-28 17:38:09 | 3.85 | SSW | 4.27 | 34.18 | 0 | 1024.47 | 44.99 | 1675 | 20.55 | 4.12 |
2026-08-28 17:37:10 | 3.49 | SSW | 4.27 | 34.25 | 0 | 1024.46 | 45.01 | 1675 | 20.62 | 4.12 |
2026-08-28 17:36:11 | 3.31 | S | 4.8 | 34.34 | 0 | 1024.53 | 44.53 | 1687 | 20.53 | 4.12 |
2026-08-28 17:35:12 | 2.33 | S | 2.95 | 34.44 | 0 | 1024.52 | 45.8 | 1655 | 21.07 | 4.12 |
2026-08-28 17:34:13 | 2.71 | SSW | 3.56 | 34.46 | 0 | 1024.54 | 45.33 | 1667 | 20.92 | 4.12 |
2026-08-28 17:33:14 | 1.82 | SW | 2.55 | 34.56 | 0 | 1024.53 | 44.42 | 1689 | 20.68 | 4.12 |
2026-08-28 17:32:15 | 1.53 | SSW | 1.94 | 34.48 | 0 | 1024.55 | 44.9 | 1677 | 20.79 | 4.12 |
2026-08-28 17:31:16 | 1.93 | SSW | 2.46 | 34.45 | 0 | 1024.53 | 44.47 | 1688 | 20.6 | 4.12 |
2026-08-28 17:30:17 | 2.33 | S | 3.04 | 34.39 | 0 | 1024.54 | 44.45 | 1689 | 20.54 | 4.12 |
2026-08-28 17:29:18 | 1.67 | SSW | 2.51 | 34.45 | 0 | 1024.52 | 44.24 | 1694 | 20.52 | 4.12 |
2026-08-28 17:28:19 | 1.92 | SSE | 2.99 | 34.44 | 0 | 1024.5 | 45.51 | 1662 | 20.97 | 4.12 |
2026-08-28 17:27:20 | 2 | SSW | 2.29 | 34.45 | 0 | 1024.52 | 45.67 | 1658 | 21.04 | 4.12 |
2026-08-28 17:26:21 | 2.57 | SSW | 3.26 | 34.42 | 0 | 1024.6 | 45.01 | 1675 | 20.77 | 4.12 |
2026-08-28 17:25:22 | 2.33 | S | 3.3 | 34.46 | 0 | 1024.63 | 46.56 | 1636 | 21.36 | 4.12 |
2026-08-28 17:23:24 | 1.5 | SSE | 1.76 | 34.51 | 0 | 1024.61 | 44.52 | 1687 | 20.67 | 4.12 |
2026-08-28 17:22:25 | 2.56 | SSE | 3.08 | 34.61 | 0 | 1024.7 | 44.37 | 1691 | 20.71 | 4.12 |
2026-08-28 17:21:26 | 2.13 | SSE | 2.77 | 34.66 | 0 | 1024.66 | 45.07 | 1673 | 21.01 | 4.12 |
2026-08-28 17:20:27 | 2.25 | SSE | 2.82 | 34.75 | 0 | 1024.67 | 44.18 | 1695 | 20.77 | 4.12 |
2026-08-28 17:19:28 | 0.93 | SE | 1.23 | 34.78 | 0 | 1024.69 | 45.58 | 1660 | 21.3 | 4.12 |
2026-08-28 17:18:29 | 0.74 | SE | 1.5 | 34.69 | 0 | 1024.7 | 44.76 | 1681 | 20.92 | 4.12 |
2026-08-28 17:17:30 | 1.48 | SSW | 1.85 | 34.55 | 0 | 1024.7 | 44.9 | 1677 | 20.85 | 4.12 |
2026-08-28 17:16:31 | 1.63 | SSW | 2.64 | 34.49 | 0 | 1024.66 | 45.53 | 1662 | 21.02 | 4.12 |
2026-08-28 17:15:32 | 1.84 | SSW | 2.33 | 34.41 | 0 | 1024.67 | 45.33 | 1667 | 20.88 | 4.11 |
2026-08-28 17:14:32 | 2.24 | SSE | 3.56 | 34.42 | 0 | 1024.65 | 44.61 | 1685 | 20.63 | 4.11 |
2026-08-28 17:13:33 | 1.83 | S | 2.99 | 34.46 | 0 | 1024.66 | 45.39 | 1665 | 20.94 | 4.11 |
2026-08-28 17:12:34 | 2.49 | SE | 3.26 | 34.51 | 0 | 1024.66 | 44.34 | 1691 | 20.61 | 4.11 |
2026-08-28 17:11:35 | 2.14 | SE | 3.21 | 34.58 | 0 | 1024.73 | 45.59 | 1660 | 21.12 | 4.11 |
2026-08-28 17:10:36 | 2.31 | S | 4.09 | 34.61 | 0 | 1024.65 | 44.55 | 1686 | 20.78 | 4.11 |
2026-08-28 17:09:37 | 2.31 | SSE | 3.21 | 34.61 | 0 | 1024.69 | 44.04 | 1699 | 20.59 | 4.11 |
2026-08-28 17:08:38 | 1.52 | S | 1.98 | 34.65 | 0 | 1024.72 | 45.69 | 1658 | 21.22 | 4.11 |
2026-08-28 17:07:39 | 1.47 | S | 1.67 | 34.56 | 0 | 1024.69 | 46.79 | 1630 | 21.53 | 4.11 |
2026-08-28 17:06:40 | 2.02 | S | 2.6 | 34.45 | 0 | 1024.73 | 45.84 | 1654 | 21.1 | 4.11 |
2026-08-28 17:05:41 | 1.99 | S | 2.55 | 34.41 | 0 | 1024.77 | 45.51 | 1662 | 20.94 | 4.11 |
2026-08-28 17:04:42 | 2.11 | SSE | 2.68 | 34.34 | 0 | 1024.77 | 47.54 | 1611 | 21.59 | 4.11 |
2026-08-28 17:03:43 | 2.01 | S | 2.51 | 34.31 | 0 | 1024.76 | 46.66 | 1633 | 21.26 | 4.11 |
2026-08-28 17:02:44 | 2.75 | SSE | 3.61 | 34.32 | 0 | 1024.72 | 47.62 | 1609 | 21.6 | 4.11 |
2026-08-28 17:00:46 | 1.26 | S | 1.85 | 34.27 | 0 | 1024.79 | 49.27 | 1568 | 22.11 | 4.10 |
2026-08-28 16:59:47 | 1.66 | SSW | 2.64 | 34.1 | 0 | 1024.79 | 48.03 | 1599 | 21.54 | 4.10 |
2026-08-28 16:58:48 | 2.45 | S | 3.52 | 34.11 | 0 | 1024.8 | 47.29 | 1618 | 21.3 | 4.10 |
2026-08-28 16:57:48 | 2.32 | SSW | 3.48 | 34.11 | 0 | 1024.81 | 49.09 | 1573 | 21.91 | 4.10 |
2026-08-28 16:56:49 | 0.86 | SW | 1.23 | 34.03 | 0 | 1024.81 | 49.18 | 1570 | 21.86 | 4.10 |
2026-08-28 16:55:50 | 1.37 | S | 1.76 | 33.89 | 0 | 1024.76 | 48.22 | 1594 | 21.41 | 4.10 |
2026-08-28 16:54:51 | 1.94 | S | 2.64 | 33.72 | 0 | 1024.83 | 47.64 | 1609 | 21.06 | 4.10 |
2026-08-28 16:53:52 | 1.58 | SSW | 1.98 | 33.69 | 0 | 1024.83 | 48.04 | 1599 | 21.17 | 4.10 |
2026-08-28 16:52:53 | 2.08 | SSW | 2.64 | 33.67 | 0 | 1024.83 | 48.66 | 1583 | 21.36 | 4.10 |
2026-08-28 16:51:54 | 1.66 | S | 2.02 | 33.65 | 0 | 1024.84 | 48.13 | 1597 | 21.16 | 4.10 |
2026-08-28 16:50:55 | 2.18 | S | 2.55 | 33.65 | 0 | 1024.82 | 46.97 | 1626 | 20.77 | 4.10 |
2026-08-28 16:49:56 | 1.52 | SSE | 2.07 | 33.6 | 0 | 1024.84 | 49.39 | 1565 | 21.54 | 4.10 |
2026-08-28 16:48:58 | 1.9 | SSW | 2.55 | 33.56 | 0 | 1024.91 | 48.94 | 1576 | 21.35 | 4.10 |
2026-08-28 16:47:58 | 1.67 | SW | 3.26 | 33.49 | 0 | 1024.9 | 49.64 | 1559 | 21.52 | 4.10 |
2026-08-28 16:47:00 | 1.47 | S | 1.67 | 33.41 | 0 | 1024.89 | 49.74 | 1556 | 21.48 | 4.10 |
2026-08-28 16:46:00 | 2.36 | SSE | 3.74 | 33.29 | 0 | 1024.97 | 48.6 | 1585 | 20.99 | 4.10 |
2026-08-28 16:45:01 | 3.47 | SSE | 5.06 | 33.26 | 0 | 1024.9 | 47.12 | 1622 | 20.46 | 4.10 |
2026-08-28 16:44:03 | 2.59 | SSE | 3.34 | 33.28 | 0 | 1025.04 | 47.27 | 1618 | 20.53 | 4.10 |
2026-08-28 16:43:04 | 2.06 | S | 3.12 | 33.24 | 0 | 1025.04 | 47.26 | 1618 | 20.49 | 4.10 |
2026-08-28 16:42:05 | 2.08 | SE | 3.21 | 33.18 | 0 | 1025.09 | 48.91 | 1577 | 21 | 4.10 |
2026-08-28 16:41:06 | 2.16 | SSW | 3.12 | 33.11 | 0 | 1025.05 | 48.11 | 1597 | 20.66 | 4.10 |
2026-08-28 16:40:07 | 1.75 | S | 2.42 | 33 | 0 | 1025.14 | 48.31 | 1592 | 20.63 | 4.10 |
2026-08-28 16:39:08 | 1.45 | S | 1.94 | 32.97 | 0 | 1025.07 | 48.72 | 1582 | 20.74 | 4.10 |
2026-08-28 16:38:09 | 1.24 | SSW | 2.2 | 32.91 | 0 | 1025.08 | 48.41 | 1590 | 20.58 | 4.10 |
2026-08-28 16:37:10 | 1.15 | S | 1.36 | 32.8 | 0 | 1025.09 | 50.03 | 1549 | 21.02 | 4.10 |
2026-08-28 16:36:12 | 1.71 | S | 2.2 | 32.73 | 0 | 1025.1 | 49.52 | 1562 | 20.79 | 4.09 |
2026-08-28 16:35:12 | 1.95 | SSW | 2.64 | 32.66 | 0 | 1025.1 | 49.02 | 1574 | 20.56 | 4.09 |
2026-08-28 16:34:13 | 2.19 | SSW | 2.46 | 32.67 | 0 | 1025.14 | 49.03 | 1574 | 20.57 | 4.09 |
2026-08-28 16:33:14 | 2.1 | S | 2.9 | 32.63 | 0 | 1025.16 | 48.61 | 1585 | 20.39 | 4.09 |
2026-08-28 16:32:15 | 2.21 | S | 3.26 | 32.65 | 0 | 1025.15 | 49.06 | 1573 | 20.56 | 4.09 |
2026-08-28 16:31:17 | 2.6 | SSW | 3.21 | 32.62 | 0 | 1025.17 | 47.9 | 1602 | 20.15 | 4.09 |
2026-08-28 16:30:18 | 2.13 | SSW | 2.77 | 32.59 | 0 | 1025.19 | 49.23 | 1569 | 20.56 | 4.09 |
2026-08-28 16:29:19 | 2.48 | SSW | 2.9 | 32.57 | 0 | 1025.19 | 49.06 | 1573 | 20.49 | 4.09 |
2026-08-28 16:28:20 | 1.69 | SSW | 2.2 | 32.55 | 0 | 1025.22 | 49.22 | 1569 | 20.52 | 4.09 |
2026-08-28 16:27:21 | 1.51 | SSW | 1.67 | 32.55 | 0 | 1025.22 | 49.75 | 1556 | 20.7 | 4.09 |
2026-08-28 16:26:22 | 1.86 | SSW | 2.46 | 32.53 | 0 | 1025.24 | 49.37 | 1566 | 20.55 | 4.09 |
2026-08-28 16:25:23 | 2.51 | SSW | 3.21 | 32.57 | 0 | 1025.21 | 49.88 | 1553 | 20.76 | 4.09 |
2026-08-28 16:24:24 | 2.57 | SSW | 3.21 | 32.62 | 0 | 1025.23 | 49.17 | 1571 | 20.57 | 4.09 |
2026-08-28 16:23:25 | 1.31 | SSW | 1.67 | 32.67 | 0 | 1025.2 | 49.49 | 1563 | 20.72 | 4.09 |
2026-08-28 16:22:26 | 0.94 | SSW | 1.19 | 32.69 | 0 | 1025.26 | 50.44 | 1539 | 21.05 | 4.09 |
2026-08-28 16:21:28 | 1.51 | SSW | 2.07 | 32.63 | 0 | 1025.24 | 49.23 | 1569 | 20.6 | 4.09 |
2026-08-28 16:20:29 | 1.43 | S | 2.16 | 32.65 | 0 | 1025.23 | 49.54 | 1561 | 20.72 | 4.09 |
2026-08-28 16:19:30 | 1.17 | S | 1.5 | 32.62 | 0 | 1025.24 | 48.7 | 1582 | 20.42 | 4.09 |
2026-08-28 16:18:31 | 1.84 | SSW | 2.33 | 32.62 | 0 | 1025.27 | 49.47 | 1563 | 20.67 | 4.09 |
2026-08-28 16:17:32 | 1.55 | SSW | 2.16 | 32.6 | 0 | 1025.25 | 49.96 | 1551 | 20.81 | 4.09 |
2026-08-28 16:16:33 | 1.66 | SSW | 2.16 | 32.6 | 0 | 1025.27 | 49.82 | 1554 | 20.77 | 4.09 |
2026-08-28 16:15:34 | 2.54 | SSW | 3.26 | 32.62 | 0 | 1025.25 | 49.67 | 1558 | 20.74 | 4.09 |
2026-08-28 16:14:35 | 2.93 | SSW | 3.83 | 32.65 | 0 | 1025.24 | 49.03 | 1574 | 20.55 | 4.09 |
2026-08-28 16:13:36 | 2.75 | S | 3.3 | 32.71 | 0 | 1025.25 | 49.82 | 1554 | 20.87 | 4.09 |
2026-08-28 16:12:37 | 2.86 | S | 3.87 | 32.74 | 0 | 1025.23 | 48.67 | 1583 | 20.51 | 4.09 |
2026-08-28 16:11:38 | 2.42 | S | 2.86 | 32.76 | 0 | 1025.26 | 48.25 | 1594 | 20.39 | 4.09 |
2026-08-28 16:10:39 | 1.83 | S | 2.16 | 32.8 | 0 | 1025.27 | 50.77 | 1531 | 21.26 | 4.09 |
2026-08-28 16:09:40 | 2.83 | SSW | 3.34 | 32.78 | 0 | 1025.33 | 48.92 | 1577 | 20.63 | 4.09 |
2026-08-28 16:08:42 | 2.43 | S | 2.73 | 32.8 | 0 | 1025.29 | 48.75 | 1581 | 20.6 | 4.09 |
2026-08-28 16:06:44 | 2.57 | SSW | 3.26 | 32.76 | 0 | 1025.37 | 49.97 | 1551 | 20.96 | 4.09 |
2026-08-28 16:05:45 | 2.62 | SSW | 3.34 | 32.67 | 0 | 1025.36 | 48.99 | 1575 | 20.56 | 4.09 |
2026-08-28 16:04:46 | 2.8 | SSW | 3.74 | 32.63 | 0 | 1025.34 | 49.76 | 1556 | 20.77 | 4.09 |
2026-08-28 16:03:47 | 2.41 | SW | 2.95 | 32.59 | 0 | 1025.31 | 49.65 | 1559 | 20.7 | 4.09 |
2026-08-28 16:02:48 | 2.62 | SSW | 3.48 | 32.53 | 0 | 1025.32 | 50.28 | 1543 | 20.85 | 4.09 |
2026-08-28 16:00:50 | 2.63 | S | 3.87 | 32.49 | 0 | 1025.33 | 49.04 | 1574 | 20.41 | 4.09 |
2026-08-28 15:59:51 | 2.18 | SSW | 3.17 | 32.49 | 0 | 1025.32 | 50.76 | 1531 | 20.97 | 4.09 |
2026-08-28 15:58:52 | 2.53 | SW | 3.12 | 32.46 | 0 | 1025.39 | 50.12 | 1547 | 20.74 | 4.09 |
2026-08-28 15:57:53 | 3.01 | S | 3.96 | 32.42 | 0 | 1025.37 | 50.41 | 1540 | 20.79 | 4.09 |
2026-08-28 15:56:54 | 3.7 | SSW | 4.27 | 32.4 | 0 | 1025.36 | 49.72 | 1557 | 20.55 | 4.09 |
2026-08-28 15:55:55 | 3.58 | SSW | 4.58 | 32.4 | 0 | 1025.37 | 50.07 | 1548 | 20.66 | 4.09 |
2026-08-28 15:54:57 | 2.54 | S | 3.96 | 32.44 | 0 | 1025.36 | 49.51 | 1562 | 20.52 | 4.09 |
2026-08-28 15:53:58 | 3.06 | S | 4.88 | 32.42 | 0 | 1025.37 | 49.97 | 1551 | 20.65 | 4.09 |
2026-08-28 15:52:59 | 2.47 | SSW | 2.99 | 32.42 | 0 | 1025.4 | 50.64 | 1534 | 20.87 | 4.09 |
2026-08-28 15:52:00 | 2.72 | S | 3.78 | 32.36 | 0 | 1025.38 | 50.09 | 1548 | 20.63 | 4.09 |
2026-08-28 15:51:01 | 5.03 | SSW | 6.29 | 32.35 | 0 | 1025.37 | 49.88 | 1553 | 20.56 | 4.09 |
2026-08-28 15:50:02 | 3.87 | SSW | 5.81 | 32.39 | 0 | 1025.39 | 49.37 | 1566 | 20.43 | 4.09 |
2026-08-28 15:49:03 | 3.17 | SSW | 5.1 | 32.38 | 0 | 1025.31 | 49.09 | 1573 | 20.32 | 4.09 |
2026-08-28 15:48:03 | 2.36 | SSW | 3.61 | 32.42 | 0 | 1025.41 | 50.16 | 1546 | 20.71 | 4.09 |
2026-08-28 15:47:02 | 3.08 | S | 4.53 | 32.4 | 0 | 1025.35 | 48.86 | 1578 | 20.27 | 4.09 |
2026-08-28 15:46:03 | 3.41 | S | 4.88 | 32.42 | 0 | 1025.4 | 48.66 | 1583 | 20.22 | 4.09 |
2026-08-28 15:45:04 | 3.09 | SSE | 4.44 | 32.5 | 0 | 1025.41 | 49.01 | 1575 | 20.41 | 4.09 |
2026-08-28 15:44:05 | 3.62 | SSW | 6.25 | 32.46 | 0 | 1025.4 | 49.2 | 1570 | 20.43 | 4.09 |
2026-08-28 15:43:06 | 2.45 | SSE | 3.39 | 32.44 | 0 | 1025.36 | 49.8 | 1555 | 20.61 | 4.09 |
2026-08-28 15:42:07 | 2.85 | SSE | 3.43 | 32.36 | 0 | 1025.32 | 49.1 | 1572 | 20.31 | 4.09 |
2026-08-28 15:41:08 | 4.13 | SSE | 5.32 | 32.29 | 0 | 1025.37 | 49.79 | 1555 | 20.47 | 4.09 |
2026-08-28 15:40:09 | 3.92 | S | 5.28 | 32.26 | 0 | 1025.42 | 49.03 | 1574 | 20.2 | 4.09 |
2026-08-28 15:39:10 | 3.06 | SSE | 3.96 | 32.26 | 0 | 1025.46 | 50.06 | 1548 | 20.53 | 4.09 |
2026-08-28 15:38:11 | 3.9 | SSE | 5.02 | 32.18 | 0 | 1025.38 | 49.68 | 1558 | 20.34 | 4.09 |
2026-08-28 15:37:13 | 4.95 | SSE | 7.22 | 32.22 | 0 | 1025.44 | 49.47 | 1563 | 20.3 | 4.09 |
2026-08-28 15:36:13 | 3.89 | SE | 4.8 | 32.29 | 0 | 1025.42 | 49.45 | 1564 | 20.36 | 4.09 |
2026-08-28 15:35:14 | 3.6 | SSE | 4.8 | 32.25 | 0 | 1025.47 | 49.84 | 1554 | 20.45 | 4.09 |
2026-08-28 15:34:15 | 3.46 | SSW | 5.02 | 32.22 | 0 | 1025.48 | 49.55 | 1561 | 20.33 | 4.09 |
2026-08-28 15:33:16 | 4.03 | S | 5.5 | 32.19 | 0 | 1025.5 | 49.1 | 1572 | 20.15 | 4.08 |
2026-08-28 15:32:18 | 3.31 | S | 4.36 | 32.19 | 0 | 1025.54 | 49.41 | 1565 | 20.26 | 4.08 |
2026-08-28 15:31:18 | 2.98 | S | 4.18 | 32.16 | 0 | 1025.58 | 50.41 | 1540 | 20.55 | 4.08 |
2026-08-28 15:30:20 | 2.99 | SSW | 3.61 | 32.11 | 0 | 1025.51 | 50.64 | 1534 | 20.58 | 4.08 |
2026-08-28 15:29:21 | 4.33 | SSW | 6.29 | 32.07 | 0 | 1025.54 | 50.05 | 1549 | 20.35 | 4.08 |
2026-08-28 15:28:22 | 3.79 | SSW | 4.75 | 32.07 | 0 | 1025.59 | 49.44 | 1564 | 20.16 | 4.08 |
2026-08-28 15:27:23 | 3.52 | SSW | 4.49 | 32.08 | 0 | 1025.68 | 50.85 | 1529 | 20.62 | 4.08 |
2026-08-28 15:26:24 | 2.9 | SSW | 4.18 | 32.07 | 0 | 1025.61 | 49.18 | 1570 | 20.07 | 4.08 |
2026-08-28 15:25:25 | 2.27 | SSW | 2.64 | 32.04 | 0 | 1025.68 | 50.28 | 1543 | 20.4 | 4.08 |
2026-08-28 15:24:26 | 3.01 | SSW | 3.52 | 32.01 | 0 | 1025.74 | 49.64 | 1559 | 20.17 | 4.08 |
2026-08-28 15:23:27 | 2.26 | S | 3.26 | 31.99 | 0 | 1025.72 | 49.79 | 1555 | 20.2 | 4.08 |
2026-08-28 15:22:28 | 2.33 | S | 3.04 | 31.97 | 0 | 1025.71 | 49.48 | 1563 | 20.08 | 4.08 |
2026-08-28 15:21:29 | 3.14 | S | 3.61 | 31.95 | 0 | 1025.73 | 49.21 | 1570 | 19.97 | 4.08 |
2026-08-28 15:20:30 | 4.02 | SSE | 5.9 | 31.92 | 0 | 1025.7 | 49.42 | 1564 | 20.01 | 4.08 |
2026-08-28 15:19:31 | 1.75 | S | 2.29 | 31.89 | 0 | 1025.8 | 49.6 | 1560 | 20.04 | 4.08 |
2026-08-28 15:18:32 | 2.83 | SSW | 3.52 | 31.84 | 0 | 1025.76 | 49.35 | 1566 | 19.92 | 4.08 |
2026-08-28 15:17:33 | 2.68 | S | 3.7 | 31.85 | 0 | 1025.74 | 50.05 | 1549 | 20.15 | 4.08 |
2026-08-28 15:16:35 | 2.68 | S | 3.61 | 31.88 | 0 | 1025.71 | 49.54 | 1561 | 20.02 | 4.08 |
2026-08-28 15:15:36 | 2.75 | S | 4.4 | 31.85 | 0 | 1025.72 | 49.82 | 1554 | 20.08 | 4.08 |
2026-08-28 15:12:39 | 3.28 | SSE | 4.62 | 31.87 | 0 | 1025.73 | 48.83 | 1579 | 19.77 | 4.07 |
2026-08-28 15:11:40 | 2.77 | SE | 3.61 | 31.89 | 0 | 1025.81 | 50.91 | 1527 | 20.47 | 4.07 |
2026-08-28 15:10:41 | 1.88 | SSE | 2.38 | 31.84 | 0 | 1025.75 | 49.7 | 1557 | 20.03 | 4.07 |
2026-08-28 15:09:42 | 2.99 | SW | 4.27 | 31.77 | 0 | 1025.78 | 50.36 | 1541 | 20.18 | 4.07 |
2026-08-28 15:08:43 | 3.57 | SSW | 4.93 | 31.77 | 0 | 1025.78 | 48.96 | 1576 | 19.72 | 4.07 |
2026-08-28 15:07:44 | 2.64 | SSW | 3.96 | 31.83 | 0 | 1025.84 | 49.4 | 1565 | 19.92 | 4.07 |
2026-08-28 15:06:45 | 2.7 | S | 3.52 | 31.76 | 0 | 1025.87 | 50 | 1550 | 20.05 | 4.07 |
2026-08-28 15:05:46 | 2.53 | SSW | 3.12 | 31.74 | 0 | 1025.78 | 50.36 | 1541 | 20.15 | 4.07 |
2026-08-28 15:04:47 | 3.01 | SSW | 4.05 | 31.69 | 0 | 1025.78 | 49.79 | 1555 | 19.92 | 4.07 |
2026-08-28 15:03:48 | 3.81 | SSE | 4.58 | 31.69 | 0 | 1025.79 | 50.47 | 1538 | 20.14 | 4.07 |
2026-08-28 15:02:49 | 3.54 | SSE | 4.93 | 31.71 | 0 | 1025.74 | 49.19 | 1570 | 19.75 | 4.07 |
2026-08-28 15:01:50 | 2.61 | S | 3.92 | 31.74 | 0 | 1025.86 | 50.32 | 1542 | 20.14 | 4.07 |
2026-08-28 15:00:51 | 1.33 | S | 1.85 | 31.7 | 0 | 1025.84 | 49.96 | 1551 | 19.99 | 4.07 |
2026-08-28 14:59:52 | 2.8 | SSW | 4.53 | 31.6 | 0 | 1025.85 | 50.13 | 1547 | 19.95 | 4.07 |
2026-08-28 14:58:53 | 5.24 | S | 6.78 | 31.6 | 0 | 1025.83 | 49.19 | 1570 | 19.64 | 4.07 |
2026-08-28 14:57:54 | 3.75 | S | 4.75 | 31.71 | 0 | 1025.87 | 49.73 | 1557 | 19.92 | 4.07 |
2026-08-28 14:56:55 | 3.53 | S | 5.41 | 31.8 | 0 | 1025.78 | 48.65 | 1584 | 19.65 | 4.07 |
2026-08-28 14:55:56 | 2.85 | S | 3.7 | 31.87 | 0 | 1025.75 | 49.72 | 1557 | 20.06 | 4.07 |
2026-08-28 14:54:57 | 2.14 | SSE | 3.17 | 31.89 | 0 | 1025.8 | 51.25 | 1519 | 20.57 | 4.07 |
2026-08-28 14:53:58 | 2.63 | SSE | 3.65 | 31.84 | 0 | 1025.79 | 49.46 | 1563 | 19.95 | 4.07 |
2026-08-28 14:52:59 | 2.41 | S | 3.3 | 31.73 | 0 | 1025.83 | 49.56 | 1561 | 19.88 | 4.07 |
2026-08-28 14:52:00 | 2.9 | S | 4.27 | 31.67 | 0 | 1025.78 | 50.57 | 1536 | 20.16 | 4.07 |
2026-08-28 14:51:01 | 2.96 | S | 4.05 | 31.63 | 0 | 1025.79 | 49.22 | 1569 | 19.68 | 4.07 |
2026-08-28 14:50:02 | 3.42 | S | 4.4 | 31.64 | 0 | 1025.84 | 50.39 | 1540 | 20.07 | 4.07 |
2026-08-28 14:49:03 | 3.53 | S | 4.88 | 31.7 | 0 | 1025.84 | 49.19 | 1570 | 19.74 | 4.06 |
2026-08-28 14:48:04 | 2.9 | SSW | 4 | 31.77 | 0 | 1025.87 | 49.98 | 1550 | 20.06 | 4.06 |
2026-08-28 14:47:05 | 2.96 | SSW | 3.87 | 31.85 | 0 | 1025.87 | 48.87 | 1578 | 19.77 | 4.06 |
2026-08-28 14:46:06 | 2.49 | SW | 3.7 | 31.94 | 0 | 1025.85 | 49.45 | 1564 | 20.04 | 4.06 |
2026-08-28 14:45:07 | 2.92 | SSE | 4.44 | 31.92 | 0 | 1025.84 | 50.24 | 1544 | 20.28 | 4.06 |
2026-08-28 14:44:08 | 2.58 | S | 3.65 | 31.99 | 0 | 1025.84 | 48.99 | 1575 | 19.94 | 4.06 |
2026-08-28 14:43:09 | 1.85 | S | 2.11 | 32.05 | 0 | 1025.83 | 49.61 | 1560 | 20.19 | 4.06 |
2026-08-28 14:42:10 | 2.27 | SSW | 2.95 | 32.04 | 0 | 1025.81 | 49.21 | 1570 | 20.05 | 4.06 |
2026-08-28 14:41:11 | 2.09 | S | 2.86 | 32.05 | 0 | 1025.77 | 49.1 | 1572 | 20.03 | 4.06 |
2026-08-28 14:40:12 | 2.3 | SSE | 3.08 | 32.11 | 0 | 1025.76 | 50.21 | 1545 | 20.44 | 4.06 |
2026-08-28 14:39:13 | 1.6 | SW | 2.07 | 32.18 | 0 | 1025.76 | 49.34 | 1566 | 20.22 | 4.06 |
2026-08-28 14:38:14 | 2.08 | SSW | 2.9 | 32.19 | 0 | 1025.79 | 50.05 | 1549 | 20.46 | 4.06 |
2026-08-28 14:37:15 | 1.52 | S | 2.16 | 32.26 | 0 | 1025.76 | 49.04 | 1574 | 20.2 | 4.06 |
2026-08-28 14:36:16 | 1.41 | SSW | 2.16 | 32.25 | 0 | 1025.74 | 49.69 | 1558 | 20.4 | 4.06 |
2026-08-28 14:35:17 | 2.04 | S | 3.7 | 32.29 | 0 | 1025.76 | 50.98 | 1525 | 20.86 | 4.06 |
2026-08-28 14:34:18 | 1.72 | SSE | 2.82 | 32.25 | 0 | 1025.81 | 48.15 | 1596 | 19.89 | 4.06 |
2026-08-28 14:33:19 | 1.87 | S | 2.38 | 32.22 | 0 | 1025.78 | 51.18 | 1520 | 20.86 | 4.06 |
2026-08-28 14:32:19 | 2.68 | SSE | 3.78 | 32.12 | 0 | 1025.76 | 49.58 | 1560 | 20.25 | 4.06 |
2026-08-28 14:31:20 | 2.26 | SSE | 2.42 | 32.16 | 0 | 1025.78 | 49.33 | 1567 | 20.2 | 4.06 |
2026-08-28 14:30:21 | 3.66 | S | 4.97 | 32.16 | 0 | 1025.77 | 48.26 | 1593 | 19.85 | 4.06 |
2026-08-28 14:29:22 | 3.13 | SSE | 3.96 | 32.28 | 0 | 1025.79 | 49.21 | 1570 | 20.27 | 4.06 |
2026-08-28 14:28:23 | 4 | SE | 4.88 | 32.25 | 0 | 1025.79 | 50.31 | 1542 | 20.6 | 4.06 |
2026-08-28 14:27:24 | 3.29 | SE | 4.71 | 32.28 | 0 | 1025.75 | 48.02 | 1599 | 19.88 | 4.06 |
2026-08-28 14:26:25 | 3.05 | SSW | 4.05 | 32.32 | 0 | 1025.77 | 48.42 | 1589 | 20.05 | 4.06 |
2026-08-28 14:25:25 | 3.63 | SSE | 5.1 | 32.33 | 0 | 1025.84 | 48.73 | 1582 | 20.16 | 4.06 |
2026-08-28 14:24:26 | 1.6 | SE | 2.33 | 32.36 | 0 | 1025.77 | 49.06 | 1573 | 20.3 | 4.06 |
2026-08-28 14:22:28 | 2.6 | SSE | 3.43 | 32.44 | 0 | 1025.86 | 49.71 | 1557 | 20.58 | 4.06 |
2026-08-28 14:21:29 | 2.13 | SSW | 2.86 | 32.42 | 0 | 1025.83 | 49.3 | 1567 | 20.43 | 4.06 |
2026-08-28 14:20:30 | 3.76 | SSW | 4.84 | 32.43 | 0 | 1025.86 | 47.14 | 1621 | 19.72 | 4.05 |
2026-08-28 14:19:31 | 3.82 | S | 5.1 | 32.69 | 0 | 1025.86 | 46.48 | 1638 | 19.72 | 4.05 |
2026-08-28 14:18:32 | 3.32 | SE | 4.31 | 33.05 | 0 | 1025.91 | 49.05 | 1574 | 20.92 | 4.05 |
2026-08-28 14:17:33 | 1.73 | SE | 2.6 | 33.17 | 0 | 1025.9 | 47.07 | 1623 | 20.36 | 4.05 |
2026-08-28 14:16:34 | 1.04 | SSW | 1.45 | 33.11 | 0 | 1025.94 | 48.38 | 1590 | 20.76 | 4.05 |
2026-08-28 14:15:35 | 1.45 | SSW | 2.68 | 33 | 0 | 1025.91 | 47.55 | 1611 | 20.37 | 4.05 |
2026-08-28 14:14:36 | 1.13 | SW | 1.5 | 32.84 | 0 | 1025.96 | 48.86 | 1578 | 20.67 | 4.05 |
2026-08-28 14:13:37 | 2.76 | SSE | 4.36 | 32.65 | 0 | 1025.91 | 50.93 | 1527 | 21.17 | 4.05 |
2026-08-28 14:12:38 | 2.25 | SE | 3.52 | 32.62 | 0 | 1025.87 | 47.96 | 1601 | 20.17 | 4.05 |
2026-08-28 14:11:39 | 2.71 | SSE | 3.3 | 32.63 | 0 | 1025.85 | 46.97 | 1626 | 19.84 | 4.05 |
2026-08-28 14:10:40 | 2.54 | S | 3.83 | 32.78 | 0 | 1025.89 | 46.71 | 1632 | 19.89 | 4.05 |
2026-08-28 14:09:41 | 3.18 | SSE | 4.31 | 32.83 | 0 | 1025.78 | 47.3 | 1617 | 20.13 | 4.05 |
2026-08-28 14:08:42 | 2.05 | WNW | 4.44 | 32.91 | 0 | 1025.89 | 46.35 | 1641 | 19.88 | 4.04 |
2026-08-28 14:07:43 | 1.43 | SSW | 1.98 | 32.87 | 0 | 1025.94 | 47.57 | 1611 | 20.26 | 4.04 |
2026-08-28 14:06:44 | 1.08 | WNW | 1.58 | 32.65 | 0 | 1025.94 | 47.6 | 1610 | 20.07 | 4.04 |
2026-08-28 14:05:45 | 0.81 | NW | 1.89 | 32.46 | 0 | 1025.94 | 46.52 | 1637 | 19.53 | 4.04 |
2026-08-28 14:03:54 | 2.5 | SSW | 2.95 | 32.29 | 0 | 1025.92 | 45.98 | 1650 | 19.19 | 4.03 |
2026-08-28 14:02:55 | 2.92 | SSW | 4 | 32.31 | 0 | 1025.9 | 45.56 | 1661 | 19.06 | 4.03 |
2026-08-28 14:01:56 | 3.27 | SW | 5.32 | 32.39 | 0 | 1025.88 | 45.6 | 1660 | 19.14 | 4.03 |
2026-08-28 14:00:57 | 3.82 | SSW | 5.1 | 32.5 | 0 | 1025.94 | 45.18 | 1670 | 19.1 | 4.03 |
2026-08-28 13:59:58 | 2.32 | SSW | 4.4 | 32.63 | 0 | 1025.94 | 45.44 | 1664 | 19.31 | 4.03 |
2026-08-28 13:58:59 | 1.35 | WNW | 2.11 | 32.53 | 0 | 1026 | 46.58 | 1635 | 19.61 | 4.03 |
2026-08-28 13:58:00 | 2.11 | WSW | 2.6 | 32.42 | 0 | 1025.96 | 46.48 | 1638 | 19.48 | 4.03 |
2026-08-28 13:57:01 | 3 | W | 4.22 | 32.36 | 0 | 1025.96 | 46.58 | 1635 | 19.46 | 4.03 |
2026-08-28 13:56:02 | 2.89 | W | 3.92 | 32.23 | 0 | 1025.99 | 45.72 | 1657 | 19.04 | 4.03 |
2026-08-28 13:55:03 | 1.74 | WNW | 2.55 | 32.21 | 0 | 1026.05 | 46.65 | 1634 | 19.35 | 4.03 |
2026-08-28 13:54:04 | 2.38 | W | 3.65 | 32.15 | 0 | 1025.98 | 45.77 | 1656 | 18.99 | 4.03 |
2026-08-28 13:53:04 | 3.13 | W | 3.74 | 32.15 | 0 | 1026.01 | 46.11 | 1647 | 19.11 | 4.03 |
2026-08-28 13:52:05 | 3.27 | WNW | 4.71 | 32.18 | 0 | 1026.09 | 46.1 | 1647 | 19.13 | 4.03 |
2026-08-28 13:51:06 | 2.06 | SW | 4.22 | 32.16 | 0 | 1026.04 | 46.68 | 1633 | 19.31 | 4.03 |
2026-08-28 13:50:07 | 3.26 | SW | 5.24 | 32.03 | 0 | 1026.08 | 48.44 | 1589 | 19.79 | 4.03 |
2026-08-28 13:49:08 | 3.46 | SW | 5.15 | 31.98 | 0 | 1025.99 | 46.35 | 1641 | 19.03 | 4.03 |
2026-08-28 13:48:09 | 3.16 | WSW | 4.36 | 32.11 | 0 | 1026.03 | 45.69 | 1658 | 18.92 | 4.03 |
2026-08-28 13:47:10 | 2.85 | W | 3.92 | 32.23 | 0 | 1026.04 | 45.21 | 1670 | 18.86 | 4.03 |
2026-08-28 13:46:11 | 4.65 | SSW | 5.72 | 32.42 | 0 | 1025.96 | 44.73 | 1682 | 18.86 | 4.03 |
2026-08-28 13:45:12 | 2.97 | SW | 5.02 | 32.69 | 0 | 1026.04 | 44.55 | 1686 | 19.04 | 4.03 |
2026-08-28 13:44:13 | 1.59 | S | 1.98 | 32.69 | 0 | 1026.13 | 45.68 | 1658 | 19.44 | 4.03 |
2026-08-28 13:43:14 | 3.21 | SSW | 4.09 | 32.56 | 0 | 1026.12 | 46.2 | 1645 | 19.51 | 4.03 |
2026-08-28 13:42:15 | 3.7 | SW | 4.84 | 32.66 | 0 | 1026.06 | 46.18 | 1645 | 19.59 | 4.03 |
2026-08-28 13:41:16 | 3.24 | W | 4.36 | 32.84 | 0 | 1026.1 | 44.77 | 1681 | 19.26 | 4.03 |
2026-08-28 13:40:16 | 1.09 | W | 1.85 | 32.94 | 0 | 1026.12 | 46.19 | 1645 | 19.85 | 4.03 |
2026-08-28 13:39:17 | 1.04 | NNW | 1.41 | 32.77 | 0 | 1026.13 | 46.25 | 1644 | 19.72 | 4.03 |
2026-08-28 13:38:18 | 1.22 | SSE | 1.54 | 32.53 | 0 | 1026.19 | 46.48 | 1638 | 19.58 | 4.03 |
2026-08-28 13:37:19 | 2.2 | WSW | 3.21 | 32.44 | 0 | 1026.22 | 46.94 | 1626 | 19.66 | 4.03 |
2026-08-28 13:36:20 | 1.73 | SSE | 2.29 | 32.43 | 0 | 1026.24 | 46.06 | 1648 | 19.34 | 4.03 |
2026-08-28 13:35:21 | 3.14 | SW | 4.22 | 32.42 | 0 | 1026.24 | 45.58 | 1660 | 19.16 | 4.03 |
2026-08-28 13:34:22 | 2.47 | W | 3.34 | 32.57 | 0 | 1026.35 | 45.4 | 1665 | 19.24 | 4.03 |
2026-08-28 13:33:23 | 2.33 | S | 3.48 | 32.46 | 0 | 1026.38 | 48.07 | 1598 | 20.06 | 4.03 |
2026-08-28 13:32:23 | 2.28 | SW | 3.12 | 32.26 | 0 | 1026.36 | 46.5 | 1637 | 19.34 | 4.03 |
2026-08-28 13:31:24 | 2.35 | SSW | 4.05 | 32.14 | 0 | 1026.39 | 47.89 | 1603 | 19.71 | 4.03 |
2026-08-28 13:30:25 | 3.15 | SW | 5.72 | 32.18 | 0 | 1026.31 | 45.84 | 1654 | 19.04 | 4.03 |
2026-08-28 13:29:26 | 1.63 | WSW | 2.38 | 32.32 | 0 | 1026.4 | 47.81 | 1605 | 19.84 | 4.03 |
2026-08-28 13:28:27 | 1.76 | SW | 3.08 | 32.26 | 0 | 1026.4 | 46.17 | 1646 | 19.23 | 4.03 |
2026-08-28 13:27:28 | 1.86 | WNW | 3.61 | 32.16 | 0 | 1026.36 | 46.77 | 1631 | 19.34 | 4.03 |
2026-08-28 13:26:29 | 2.04 | SSW | 3.04 | 32.08 | 0 | 1026.37 | 47.53 | 1612 | 19.53 | 4.03 |
2026-08-28 13:25:30 | 3.45 | SSW | 5.02 | 31.94 | 0 | 1026.4 | 47.45 | 1614 | 19.37 | 4.03 |
2026-08-28 13:24:31 | 3.1 | S | 4.36 | 31.95 | 0 | 1026.37 | 45.73 | 1657 | 18.79 | 4.03 |
2026-08-28 13:23:32 | 2.13 | SSW | 2.33 | 31.88 | 0 | 1026.41 | 46.33 | 1642 | 18.94 | 4.03 |
2026-08-28 13:22:33 | 2.99 | SSW | 4.58 | 31.8 | 0 | 1026.43 | 46.13 | 1647 | 18.79 | 4.03 |
2026-08-28 13:20:35 | 3.6 | SSW | 5.54 | 31.77 | 0 | 1026.48 | 48 | 1600 | 19.41 | 4.03 |
2026-08-28 13:19:36 | 4.15 | SW | 6.78 | 31.8 | 0 | 1026.43 | 46.75 | 1631 | 19.01 | 4.03 |
2026-08-28 13:18:37 | 2.51 | SSE | 4.14 | 31.64 | 0 | 1026.47 | 48.31 | 1592 | 19.39 | 4.03 |
2026-08-28 13:17:38 | 3.32 | WNW | 5.02 | 31.49 | 0 | 1026.48 | 49.58 | 1560 | 19.67 | 4.03 |
2026-08-28 13:16:38 | 3.82 | W | 6.69 | 31.51 | 0 | 1026.42 | 46.9 | 1627 | 18.8 | 4.03 |
2026-08-28 13:15:39 | 2.24 | W | 3.78 | 31.54 | 0 | 1026.51 | 47.83 | 1604 | 19.14 | 4.03 |
2026-08-28 13:14:40 | 2.94 | W | 3.48 | 31.44 | 0 | 1026.45 | 46.98 | 1625 | 18.76 | 4.03 |
2026-08-28 13:13:41 | 3.74 | WSW | 6.38 | 31.46 | 0 | 1026.46 | 47.1 | 1622 | 18.82 | 4.03 |
2026-08-28 13:12:42 | 2.49 | SW | 3.43 | 31.54 | 0 | 1026.53 | 47.74 | 1606 | 19.11 | 4.03 |
2026-08-28 13:11:43 | 4.05 | W | 7.3 | 31.54 | 0 | 1026.51 | 46.98 | 1625 | 18.85 | 4.03 |
2026-08-28 13:10:44 | 3.35 | WSW | 5.1 | 31.64 | 0 | 1026.45 | 47.31 | 1617 | 19.05 | 4.03 |
2026-08-28 13:09:45 | 1.6 | WSW | 2.64 | 31.61 | 0 | 1026.38 | 48.43 | 1589 | 19.4 | 4.03 |
2026-08-28 13:08:46 | 2.94 | SSE | 5.06 | 31.4 | 0 | 1026.36 | 49.39 | 1565 | 19.53 | 4.03 |
2026-08-28 13:07:47 | 3.66 | WSW | 5.59 | 31.32 | 0 | 1026.4 | 47.2 | 1620 | 18.73 | 4.03 |
2026-08-28 13:06:48 | 4.97 | S | 6.34 | 31.36 | 0 | 1026.38 | 47.8 | 1605 | 18.96 | 4.03 |
2026-08-28 13:05:49 | 5.6 | S | 6.86 | 31.53 | 0 | 1026.4 | 48.13 | 1597 | 19.23 | 4.03 |
2026-08-28 13:04:50 | 2.92 | SSW | 4.27 | 31.94 | 0 | 1026.41 | 46.38 | 1640 | 19.01 | 4.03 |
2026-08-28 13:03:51 | 2.47 | SE | 3.61 | 31.98 | 0 | 1026.54 | 50.47 | 1538 | 20.41 | 4.03 |
2026-08-28 13:02:52 | 2.15 | SSW | 3.52 | 31.81 | 0 | 1026.55 | 48.33 | 1592 | 19.55 | 4.03 |
2026-08-28 13:01:53 | 1.94 | SSW | 3.21 | 31.7 | 0 | 1026.63 | 51.85 | 1504 | 20.59 | 4.03 |
2026-08-28 13:00:54 | 2 | SSW | 2.82 | 31.5 | 0 | 1026.63 | 50.38 | 1540 | 19.94 | 4.03 |
2026-08-28 12:59:55 | 2.65 | WNW | 4.58 | 31.34 | 0 | 1026.58 | 48.43 | 1589 | 19.16 | 4.03 |
2026-08-28 12:58:56 | 1.41 | W | 1.89 | 31.32 | 0 | 1026.66 | 49.87 | 1553 | 19.61 | 4.03 |
2026-08-28 12:57:57 | 1.61 | SW | 2.73 | 31.06 | 0 | 1026.65 | 49.36 | 1566 | 19.21 | 4.03 |
2026-08-28 12:56:57 | 2.42 | NW | 2.95 | 30.92 | 0 | 1026.67 | 48.98 | 1575 | 18.95 | 4.03 |
2026-08-28 12:55:59 | 1.5 | W | 2.6 | 30.81 | 0 | 1026.69 | 49.83 | 1554 | 19.13 | 4.03 |
2026-08-28 12:55:00 | 2.25 | WSW | 3.92 | 30.63 | 0 | 1026.67 | 50.24 | 1544 | 19.1 | 4.03 |
2026-08-28 12:54:00 | 3.05 | WNW | 3.78 | 30.61 | 0 | 1026.67 | 48.67 | 1583 | 18.57 | 4.03 |
2026-08-28 12:53:01 | 4.98 | W | 6.42 | 30.75 | 0 | 1026.64 | 48.45 | 1589 | 18.62 | 4.03 |
2026-08-28 12:52:02 | 2.32 | NW | 4.36 | 30.94 | 0 | 1026.67 | 50.35 | 1541 | 19.42 | 4.03 |
2026-08-28 12:51:03 | 1.59 | NW | 3.08 | 30.81 | 0 | 1026.7 | 52.49 | 1488 | 19.97 | 4.03 |
2026-08-28 12:50:04 | 2.5 | WNW | 3.34 | 30.75 | 0 | 1026.7 | 50.94 | 1526 | 19.43 | 4.03 |
2026-08-28 12:49:05 | 3.72 | WSW | 4.88 | 30.85 | 0 | 1026.66 | 49.77 | 1556 | 19.15 | 4.03 |
2026-08-28 12:48:06 | 3.03 | WSW | 5.46 | 31.23 | 0 | 1026.7 | 49.09 | 1573 | 19.27 | 4.03 |
2026-08-28 12:47:07 | 1.49 | SW | 2.02 | 31.23 | 0 | 1026.76 | 50.55 | 1536 | 19.75 | 4.03 |
2026-08-28 12:46:08 | 1.64 | SSW | 2.16 | 30.97 | 0 | 1026.79 | 53.85 | 1454 | 20.53 | 4.03 |
2026-08-28 12:45:09 | 3.15 | SSW | 4.14 | 30.74 | 0 | 1026.78 | 52.06 | 1498 | 19.77 | 4.03 |
2026-08-28 12:44:10 | 2.49 | S | 2.99 | 30.63 | 0 | 1026.85 | 51.59 | 1510 | 19.52 | 4.03 |
2026-08-28 12:43:11 | 3.51 | SSW | 5.37 | 30.56 | 0 | 1026.84 | 51.07 | 1523 | 19.29 | 4.03 |
2026-08-28 12:42:12 | 3.14 | SSW | 4.62 | 30.7 | 0 | 1026.77 | 51.01 | 1525 | 19.4 | 4.03 |
2026-08-28 12:41:13 | 2.28 | S | 3.3 | 30.85 | 0 | 1026.84 | 51.74 | 1506 | 19.77 | 4.03 |
2026-08-28 12:40:14 | 2.29 | SSW | 2.73 | 30.73 | 0 | 1026.87 | 52.16 | 1496 | 19.79 | 4.03 |
2026-08-28 12:39:15 | 2.17 | SSW | 3.3 | 30.61 | 0 | 1026.91 | 53.2 | 1470 | 20 | 4.03 |
2026-08-28 12:38:16 | 2.13 | WSW | 2.82 | 30.53 | 0 | 1026.96 | 51.51 | 1512 | 19.4 | 4.03 |
2026-08-28 12:37:17 | 3.16 | SSW | 5.02 | 30.61 | 0 | 1026.97 | 50.08 | 1548 | 19.03 | 4.03 |
2026-08-28 12:36:18 | 4.38 | SSW | 5.24 | 30.77 | 0 | 1026.94 | 50.29 | 1543 | 19.24 | 4.03 |
2026-08-28 12:35:19 | 3.84 | S | 4.97 | 31.01 | 0 | 1027.01 | 49.68 | 1558 | 19.26 | 4.03 |
2026-08-28 12:34:20 | 2.92 | SSW | 3.7 | 31.12 | 0 | 1027.01 | 50.37 | 1541 | 19.59 | 4.03 |
2026-08-28 12:33:20 | 1.7 | S | 2.2 | 31.11 | 0 | 1027.06 | 52.22 | 1494 | 20.16 | 4.03 |
2026-08-28 12:32:21 | 2.08 | SSE | 2.6 | 31.08 | 0 | 1027.01 | 50.47 | 1538 | 19.58 | 4.03 |
2026-08-28 12:31:22 | 1.78 | SSW | 3.78 | 30.92 | 0 | 1027.13 | 51.83 | 1504 | 19.86 | 4.03 |
2026-08-28 12:30:23 | 1.08 | SSW | 1.89 | 30.71 | 0 | 1027.18 | 52.02 | 1499 | 19.73 | 4.03 |
2026-08-28 12:29:24 | 1.09 | SW | 1.67 | 30.56 | 0 | 1027.21 | 53.78 | 1455 | 20.13 | 4.03 |
2026-08-28 12:28:25 | 1.96 | WSW | 2.29 | 30.53 | 0 | 1027.18 | 51.43 | 1514 | 19.38 | 4.03 |
2026-08-28 12:27:26 | 1.98 | WSW | 2.46 | 30.71 | 0 | 1027.19 | 50.16 | 1546 | 19.14 | 4.03 |
2026-08-28 12:26:27 | 1.71 | WNW | 2.51 | 30.75 | 0 | 1027.24 | 52.33 | 1492 | 19.86 | 4.03 |
2026-08-28 12:25:28 | 1.22 | SSW | 1.72 | 30.71 | 0 | 1027.24 | 52.79 | 1480 | 19.97 | 4.03 |
2026-08-28 12:24:30 | 0.6 | S | 1.72 | 30.57 | 0 | 1027.18 | 53.13 | 1472 | 19.94 | 4.03 |
2026-08-28 12:23:31 | 1.21 | S | 1.45 | 30.36 | 0 | 1027.15 | 51.72 | 1507 | 19.31 | 4.03 |
2026-08-28 12:22:32 | 1.09 | SSE | 1.45 | 30.16 | 0 | 1027.21 | 51.95 | 1501 | 19.2 | 4.03 |
2026-08-28 12:21:33 | 1.33 | SSW | 1.89 | 30.04 | 0 | 1027.17 | 54.17 | 1446 | 19.76 | 4.03 |
2026-08-28 12:20:34 | 1.85 | SSW | 2.9 | 29.91 | 0 | 1027.27 | 51.81 | 1505 | 18.93 | 4.03 |
2026-08-28 12:19:35 | 0.71 | WSW | 1.14 | 29.81 | 0 | 1027.31 | 53.95 | 1451 | 19.48 | 4.03 |
2026-08-28 12:18:36 | 0.9 | WNW | 1.32 | 29.56 | 0 | 1027.34 | 54.12 | 1447 | 19.3 | 4.03 |
2026-08-28 12:17:35 | 0.94 | WSW | 1.32 | 29.44 | 0 | 1027.36 | 53.85 | 1454 | 19.11 | 4.03 |
2026-08-28 12:16:36 | 1.76 | WSW | 2.82 | 29.32 | 0 | 1027.39 | 53.32 | 1467 | 18.84 | 4.03 |
2026-08-28 12:15:37 | 1.34 | SSW | 1.98 | 29.27 | 0 | 1027.45 | 54.51 | 1437 | 19.15 | 4.03 |
2026-08-28 12:14:38 | 2.12 | SW | 2.73 | 29.16 | 0 | 1027.42 | 53.05 | 1474 | 18.61 | 4.03 |
2026-08-28 12:13:39 | 2.07 | SW | 3.04 | 29.12 | 0 | 1027.39 | 54.87 | 1428 | 19.12 | 4.03 |
2026-08-28 12:12:40 | 2.62 | WSW | 3.48 | 29.05 | 0 | 1027.38 | 54.57 | 1436 | 18.96 | 4.03 |
2026-08-28 12:11:41 | 2.8 | SSW | 5.06 | 29.03 | 0 | 1027.41 | 53.72 | 1457 | 18.69 | 4.03 |
2026-08-28 12:10:42 | 2.2 | WSW | 3.12 | 29.09 | 0 | 1027.45 | 54.23 | 1444 | 18.9 | 4.03 |
2026-08-28 12:09:43 | 1.22 | WSW | 1.8 | 29.03 | 0 | 1027.45 | 54.95 | 1426 | 19.06 | 4.03 |
2026-08-28 12:08:44 | 2.04 | WSW | 2.82 | 28.98 | 0 | 1027.45 | 54.22 | 1444 | 18.8 | 4.03 |
2026-08-28 12:07:45 | 2.99 | WSW | 4.66 | 28.95 | 0 | 1027.49 | 53.53 | 1462 | 18.56 | 4.03 |
2026-08-28 12:06:46 | 2.1 | SW | 3.43 | 29.02 | 0 | 1027.51 | 53.68 | 1458 | 18.67 | 4.03 |
2026-08-28 12:05:47 | 2.5 | WSW | 4.49 | 29.05 | 0 | 1027.59 | 54.2 | 1445 | 18.86 | 4.03 |
2026-08-28 12:04:48 | 3.17 | W | 4.71 | 29.1 | 0 | 1027.66 | 53.62 | 1459 | 18.73 | 4.03 |
2026-08-28 12:03:49 | 3.75 | W | 4.97 | 29.22 | 0 | 1027.61 | 53.4 | 1465 | 18.77 | 4.03 |
2026-08-28 12:02:50 | 2.33 | WSW | 3.12 | 29.32 | 0 | 1027.6 | 54.21 | 1445 | 19.11 | 4.03 |
2026-08-28 12:01:52 | 3.94 | SSW | 4.75 | 29.34 | 0 | 1027.57 | 53.21 | 1470 | 18.83 | 4.03 |
2026-08-28 12:00:53 | 4.03 | S | 5.24 | 29.54 | 0 | 1027.51 | 51.97 | 1501 | 18.64 | 4.03 |
2026-08-28 11:59:54 | 2.22 | SSW | 2.77 | 29.68 | 0 | 1027.56 | 54.33 | 1442 | 19.48 | 4.03 |
2026-08-28 11:58:55 | 2.86 | S | 4.31 | 29.72 | 0 | 1027.59 | 52.27 | 1493 | 18.89 | 4.03 |
2026-08-28 11:57:56 | 1.75 | S | 2.73 | 29.82 | 0 | 1027.68 | 52.21 | 1495 | 18.97 | 4.03 |
2026-08-28 11:55:58 | 1.24 | WNW | 1.76 | 29.65 | 0 | 1027.64 | 53.46 | 1463 | 19.19 | 4.03 |
2026-08-28 11:54:59 | 1.56 | WSW | 1.85 | 29.68 | 0 | 1027.69 | 52.98 | 1475 | 19.07 | 4.03 |
2026-08-28 11:54:00 | 1.07 | W | 1.32 | 29.72 | 0 | 1027.76 | 53.76 | 1456 | 19.34 | 4.03 |
2026-08-28 11:53:01 | 1.64 | WNW | 2.6 | 29.79 | 0 | 1027.73 | 51.76 | 1506 | 18.8 | 4.03 |
2026-08-28 11:52:02 | 1.13 | WSW | 1.5 | 29.84 | 0 | 1027.77 | 53.01 | 1475 | 19.23 | 4.03 |
2026-08-28 11:51:03 | 1.67 | WSW | 2.42 | 29.84 | 0 | 1027.75 | 53.94 | 1451 | 19.51 | 4.03 |
2026-08-28 11:50:04 | 1.89 | SW | 2.95 | 29.87 | 0 | 1027.82 | 52.52 | 1487 | 19.11 | 4.03 |
2026-08-28 11:49:05 | 1.06 | SSW | 1.58 | 29.93 | 0 | 1027.89 | 53.09 | 1473 | 19.34 | 4.03 |
2026-08-28 11:48:06 | 1.78 | WSW | 2.51 | 29.91 | 0 | 1027.8 | 52.74 | 1481 | 19.21 | 4.03 |
2026-08-28 11:47:07 | 1.41 | SW | 1.94 | 29.89 | 0 | 1027.73 | 54.65 | 1434 | 19.77 | 4.03 |
2026-08-28 11:46:08 | 1.79 | SW | 2.29 | 29.78 | 0 | 1027.84 | 53.91 | 1452 | 19.45 | 4.03 |
2026-08-28 11:45:09 | 1.81 | S | 2.55 | 29.74 | 0 | 1027.76 | 52.28 | 1493 | 18.92 | 4.03 |
2026-08-28 11:44:10 | 2.37 | SSW | 3.08 | 29.74 | 0 | 1027.74 | 53.49 | 1463 | 19.28 | 4.03 |
2026-08-28 11:43:11 | 2.89 | SW | 3.83 | 29.85 | 0 | 1027.78 | 52.04 | 1499 | 18.94 | 4.03 |
2026-08-28 11:42:12 | 1.55 | W | 2.42 | 30.04 | 0 | 1027.75 | 53.05 | 1474 | 19.43 | 4.03 |
2026-08-28 11:41:12 | 0.93 | SSW | 1.28 | 29.98 | 0 | 1027.69 | 53.17 | 1471 | 19.41 | 4.03 |
2026-08-28 11:40:13 | 1.45 | S | 1.8 | 29.84 | 0 | 1027.62 | 54.9 | 1427 | 19.79 | 4.03 |
2026-08-28 11:39:14 | 2.34 | S | 2.77 | 29.82 | 0 | 1027.61 | 53.88 | 1453 | 19.47 | 4.03 |
2026-08-28 11:38:15 | 3.27 | SSE | 4.36 | 29.99 | 0 | 1027.68 | 51.52 | 1512 | 18.91 | 4.03 |
2026-08-28 11:37:16 | 2.15 | SE | 2.73 | 30.23 | 0 | 1027.74 | 55.14 | 1421 | 20.23 | 4.03 |
2026-08-28 11:36:17 | 1.01 | S | 1.67 | 30.25 | 0 | 1027.86 | 56.08 | 1398 | 20.52 | 4.03 |
2026-08-28 11:35:18 | 1.32 | S | 1.85 | 30.15 | 0 | 1027.88 | 54.99 | 1425 | 20.11 | 4.03 |
2026-08-28 11:34:20 | 1.03 | WNW | 1.28 | 30.18 | 0 | 1027.85 | 54.93 | 1427 | 20.12 | 4.03 |
2026-08-28 11:33:21 | 1.41 | WNW | 2.2 | 30.18 | 0 | 1027.86 | 53.57 | 1461 | 19.71 | 4.03 |
2026-08-28 11:32:22 | 1.51 | SW | 2.11 | 30.18 | 0 | 1027.86 | 56.84 | 1379 | 20.67 | 4.03 |
2026-08-28 11:31:23 | 1.56 | SSE | 2.38 | 29.98 | 0 | 1027.86 | 57.77 | 1356 | 20.75 | 4.03 |
2026-08-28 11:30:24 | 1.52 | SE | 3.26 | 29.87 | 0 | 1027.88 | 56.47 | 1388 | 20.28 | 4.03 |
2026-08-28 11:29:25 | 1.77 | SSW | 2.46 | 29.68 | 0 | 1027.84 | 55.95 | 1401 | 19.95 | 4.03 |
2026-08-28 11:28:26 | 1.68 | SE | 2.16 | 29.64 | 0 | 1027.8 | 56.28 | 1393 | 20.01 | 4.03 |
2026-08-28 11:27:27 | 1.8 | SE | 2.42 | 29.75 | 0 | 1027.81 | 56.19 | 1395 | 20.09 | 4.03 |
2026-08-28 11:26:28 | 2.22 | SSE | 3.7 | 29.95 | 0 | 1027.81 | 56.13 | 1397 | 20.25 | 4.03 |
2026-08-28 11:25:29 | 1.48 | SSE | 2.29 | 29.99 | 0 | 1027.84 | 56.69 | 1383 | 20.45 | 4.03 |
2026-08-28 11:24:30 | 1.52 | SSE | 1.8 | 29.87 | 0 | 1027.86 | 56.47 | 1388 | 20.28 | 4.03 |
2026-08-28 11:23:31 | 1.17 | SSE | 1.72 | 29.82 | 0 | 1027.78 | 56.23 | 1394 | 20.16 | 4.03 |
2026-08-28 11:22:32 | 1.3 | W | 1.8 | 29.71 | 0 | 1027.73 | 55.38 | 1415 | 19.81 | 4.03 |
2026-08-28 11:21:33 | 1.46 | S | 2.02 | 29.61 | 0 | 1027.7 | 53.15 | 1471 | 19.06 | 4.03 |
2026-08-28 11:20:34 | 1.62 | S | 2.2 | 29.68 | 0 | 1027.73 | 53.85 | 1454 | 19.33 | 4.03 |
2026-08-28 11:19:35 | 0.95 | SSW | 1.5 | 29.65 | 0 | 1027.82 | 53.22 | 1469 | 19.12 | 4.04 |
2026-08-28 11:18:36 | 1.34 | WSW | 1.72 | 29.68 | 0 | 1027.89 | 53.63 | 1459 | 19.27 | 4.03 |
2026-08-28 11:17:37 | 1.56 | WNW | 2.73 | 29.78 | 0 | 1027.86 | 52.55 | 1486 | 19.03 | 4.04 |
2026-08-28 11:16:38 | 1.34 | WNW | 1.89 | 29.89 | 0 | 1027.89 | 51.8 | 1505 | 18.91 | 4.04 |
2026-08-28 11:15:39 | 1.51 | NW | 2.16 | 30.08 | 0 | 1027.92 | 51.35 | 1516 | 18.94 | 4.04 |
2026-08-28 11:14:41 | 1.62 | W | 2.51 | 30.2 | 0 | 1027.91 | 50.52 | 1537 | 18.79 | 4.04 |
2026-08-28 11:13:42 | 0.32 | NNW | 0.84 | 30.29 | 0 | 1027.93 | 52.81 | 1480 | 19.58 | 4.04 |
2026-08-28 11:12:42 | 0.81 | WNW | 1.23 | 30.18 | 0 | 1027.93 | 52.97 | 1476 | 19.53 | 4.04 |
2026-08-28 11:11:44 | 1.02 | NW | 1.45 | 30.12 | 0 | 1027.88 | 54.35 | 1441 | 19.89 | 4.04 |
2026-08-28 11:10:44 | 0.79 | S | 1.32 | 30.15 | 0 | 1027.95 | 57.28 | 1368 | 20.77 | 4.04 |
2026-08-28 11:09:45 | 0.73 | SW | 1.28 | 30.04 | 0 | 1027.92 | 53.04 | 1474 | 19.42 | 4.03 |
2026-08-28 11:08:46 | 1.06 | SSW | 1.58 | 29.95 | 0 | 1027.9 | 49.85 | 1554 | 18.35 | 4.04 |
2026-08-28 11:07:47 | 1.12 | SSW | 2.55 | 29.99 | 0 | 1027.9 | 50.25 | 1544 | 18.51 | 4.04 |
2026-08-28 11:04:00 | 0.84 | NW | 1.54 | 29.85 | 0 | 1027.95 | 56.15 | 1396 | 20.17 | 4.04 |
2026-08-28 11:03:01 | 0.63 | N | 1.1 | 29.65 | 0 | 1027.89 | 55.37 | 1416 | 19.76 | 4.04 |
2026-08-28 11:02:02 | 0.95 | NW | 1.76 | 29.42 | 0 | 1027.88 | 56.07 | 1398 | 19.74 | 4.04 |
2026-08-28 11:01:03 | 0.49 | S | 0.75 | 29.3 | 0 | 1027.98 | 60.23 | 1294 | 20.79 | 4.04 |
2026-08-28 11:00:05 | 1.18 | S | 1.67 | 29.16 | 0 | 1027.96 | 59.81 | 1305 | 20.55 | 4.04 |
2026-08-28 10:59:06 | 1.55 | S | 2.07 | 29.12 | 0 | 1027.96 | 59.67 | 1308 | 20.47 | 4.04 |
2026-08-28 10:58:07 | 0.84 | S | 1.1 | 29.12 | 0 | 1028.05 | 61.39 | 1265 | 20.93 | 4.04 |
2026-08-28 10:57:08 | 1.5 | SSW | 2.02 | 29.08 | 0 | 1028.05 | 61.48 | 1263 | 20.92 | 4.04 |
2026-08-28 10:56:09 | 1.95 | SSW | 2.42 | 29.1 | 0 | 1028.03 | 61.17 | 1271 | 20.85 | 4.04 |
2026-08-28 10:55:10 | 1.61 | SSW | 1.98 | 29.15 | 0 | 1028.02 | 62.11 | 1247 | 21.15 | 4.04 |
2026-08-28 10:54:11 | 1.45 | SSW | 2.02 | 29.16 | 0 | 1028.08 | 61.16 | 1271 | 20.91 | 4.04 |
2026-08-28 10:53:12 | 0.78 | SSW | 1.72 | 29.12 | 0 | 1028.08 | 62.2 | 1245 | 21.15 | 4.04 |
2026-08-28 10:52:13 | 0.88 | SW | 1.01 | 28.98 | 0 | 1028.09 | 64.84 | 1179 | 21.69 | 4.04 |
2026-08-28 10:51:14 | 0.85 | S | 1.1 | 28.82 | 0 | 1028.02 | 63.59 | 1210 | 21.22 | 4.04 |
2026-08-28 10:50:15 | 0.87 | S | 0.92 | 28.67 | 0 | 1027.97 | 64.45 | 1189 | 21.3 | 4.04 |
2026-08-28 10:49:16 | 1.4 | S | 1.8 | 28.47 | 0 | 1027.89 | 64.93 | 1177 | 21.23 | 4.04 |
2026-08-28 10:48:17 | 2.77 | ESE | 3.78 | 28.32 | 0 | 1027.84 | 65.68 | 1158 | 21.28 | 4.04 |
2026-08-28 10:47:19 | 2.83 | ESE | 3.17 | 28.09 | 0 | 1027.89 | 64.45 | 1189 | 20.75 | 4.04 |
2026-08-28 10:46:20 | 2.53 | ESE | 2.95 | 28.02 | 0 | 1027.89 | 65.3 | 1167 | 20.9 | 4.04 |
2026-08-28 10:45:21 | 2.76 | ESE | 3.17 | 27.92 | 0 | 1027.87 | 64.16 | 1196 | 20.52 | 4.04 |
2026-08-28 10:44:22 | 2.83 | ESE | 3.48 | 27.96 | 0 | 1027.84 | 64.61 | 1185 | 20.67 | 4.04 |
2026-08-28 10:42:24 | 2.9 | SSE | 3.52 | 27.92 | 0 | 1027.83 | 64.94 | 1176 | 20.71 | 4.04 |
2026-08-28 10:41:26 | 3.22 | ESE | 3.43 | 27.85 | 0 | 1027.84 | 65.06 | 1173 | 20.68 | 4.04 |
2026-08-28 10:40:27 | 3.71 | ESE | 4.58 | 27.73 | 0 | 1027.79 | 67.15 | 1121 | 21.08 | 4.04 |
2026-08-28 10:39:28 | 2.84 | E | 3.48 | 27.47 | 0 | 1027.79 | 66.28 | 1143 | 20.62 | 4.04 |
2026-08-28 10:38:29 | 3.39 | ESE | 3.83 | 27.43 | 0 | 1027.79 | 65.73 | 1157 | 20.45 | 4.04 |
2026-08-28 10:37:30 | 3.28 | SE | 3.83 | 27.51 | 0 | 1027.85 | 65.6 | 1160 | 20.49 | 4.04 |
2026-08-28 10:36:31 | 3.24 | ESE | 3.83 | 27.48 | 0 | 1027.89 | 66.21 | 1145 | 20.61 | 4.04 |
2026-08-28 10:35:32 | 3.02 | ENE | 3.3 | 27.41 | 0 | 1027.91 | 66.32 | 1142 | 20.57 | 4.04 |
2026-08-28 10:34:34 | 3.18 | E | 3.78 | 27.37 | 0 | 1027.94 | 67.06 | 1123 | 20.71 | 4.04 |
2026-08-28 10:33:35 | 2.75 | E | 3.34 | 27.23 | 0 | 1027.96 | 66.78 | 1130 | 20.51 | 4.04 |
2026-08-28 10:32:36 | 3 | ENE | 3.61 | 27.25 | 0 | 1027.99 | 67.24 | 1119 | 20.64 | 4.04 |
2026-08-28 10:31:37 | 2.86 | E | 3.56 | 27.2 | 0 | 1027.99 | 67.06 | 1123 | 20.55 | 4.04 |
2026-08-28 10:30:38 | 2.91 | ESE | 3.17 | 27.14 | 0 | 1028.04 | 67.25 | 1119 | 20.54 | 4.04 |
2026-08-28 10:29:40 | 3.2 | SE | 3.96 | 27.19 | 0 | 1028.06 | 66.86 | 1128 | 20.49 | 4.04 |
2026-08-28 10:28:40 | 3.26 | ESE | 3.65 | 27.17 | 0 | 1028.07 | 66.38 | 1140 | 20.36 | 4.04 |
2026-08-28 10:27:42 | 2.56 | ESE | 2.99 | 27.17 | 0 | 1028.14 | 66.95 | 1126 | 20.5 | 4.04 |
2026-08-28 10:26:43 | 2.46 | ESE | 3.08 | 27.2 | 0 | 1028.09 | 67.58 | 1110 | 20.68 | 4.04 |
2026-08-28 10:25:44 | 2.49 | ESE | 3.12 | 27.22 | 0 | 1028.15 | 67.79 | 1105 | 20.75 | 4.04 |
2026-08-28 10:24:45 | 3.12 | ESE | 3.74 | 27.17 | 0 | 1028.17 | 67.83 | 1104 | 20.71 | 4.04 |
2026-08-28 10:23:45 | 3.07 | ESE | 3.48 | 27.22 | 0 | 1028.13 | 67.48 | 1113 | 20.67 | 4.04 |
2026-08-28 10:22:47 | 3.6 | ESE | 5.02 | 27.29 | 0 | 1028.06 | 67.3 | 1117 | 20.7 | 4.04 |
2026-08-28 10:21:48 | 3.32 | ESE | 4.09 | 27.4 | 0 | 1028.05 | 67.22 | 1119 | 20.78 | 4.04 |
2026-08-28 10:20:49 | 3.21 | SE | 4.22 | 27.47 | 0 | 1028 | 67.68 | 1108 | 20.96 | 4.04 |
2026-08-28 10:19:50 | 2.9 | ESE | 3.7 | 27.38 | 0 | 1027.98 | 68.42 | 1089 | 21.05 | 4.04 |
2026-08-28 10:18:51 | 3.03 | ESE | 3.48 | 27.34 | 0 | 1028 | 68.44 | 1089 | 21.02 | 4.04 |
2026-08-28 10:17:52 | 2.44 | ESE | 3.08 | 27.33 | 0 | 1028.04 | 68.2 | 1095 | 20.95 | 4.04 |
2026-08-28 10:16:53 | 2.21 | SE | 2.6 | 27.4 | 0 | 1028.21 | 68.69 | 1083 | 21.13 | 4.04 |
2026-08-28 10:15:55 | 2.44 | ESE | 2.64 | 27.41 | 0 | 1028.25 | 69.18 | 1070 | 21.26 | 4.04 |
2026-08-28 10:14:56 | 2.4 | ESE | 2.82 | 27.34 | 0 | 1028.23 | 70.34 | 1041 | 21.46 | 4.04 |
2026-08-28 10:13:57 | 2.49 | ESE | 3.52 | 27.17 | 0 | 1028.25 | 69.71 | 1057 | 21.15 | 4.04 |
2026-08-28 10:12:58 | 2.01 | ESE | 2.77 | 27.07 | 0 | 1028.26 | 70.37 | 1041 | 21.21 | 4.04 |
2026-08-28 10:11:59 | 2.47 | ESE | 2.77 | 27 | 0 | 1028.28 | 69.85 | 1054 | 21.02 | 4.04 |
2026-08-28 10:11:00 | 2.57 | ESE | 3.43 | 27.07 | 0 | 1028.31 | 69.97 | 1051 | 21.12 | 4.04 |
2026-08-28 10:10:01 | 2.41 | E | 2.86 | 27.11 | 0 | 1028.27 | 68.91 | 1077 | 20.91 | 4.04 |
2026-08-28 10:09:03 | 2.55 | ESE | 2.68 | 27.32 | 0 | 1028.24 | 69.12 | 1072 | 21.16 | 4.04 |
2026-08-28 10:08:04 | 2.69 | E | 3.34 | 27.5 | 0 | 1028.22 | 68.36 | 1091 | 21.15 | 4.04 |
2026-08-28 10:07:05 | 1.6 | ESE | 2.33 | 27.64 | 0 | 1028.21 | 68.58 | 1085 | 21.34 | 4.04 |
2026-08-28 10:06:06 | 1.89 | E | 2.6 | 27.64 | 0 | 1028.2 | 68.91 | 1077 | 21.41 | 4.04 |
2026-08-28 10:04:08 | 1.02 | ESE | 1.23 | 27.36 | 0 | 1028.18 | 70.52 | 1037 | 21.52 | 4.04 |
2026-08-28 10:03:10 | 1.56 | ESE | 1.94 | 27.19 | 0 | 1028.13 | 70.36 | 1041 | 21.32 | 4.04 |
2026-08-28 10:02:11 | 1.79 | E | 2.51 | 27.03 | 0 | 1028.12 | 69.2 | 1070 | 20.9 | 4.04 |
2026-08-28 10:01:12 | 1.88 | E | 2.77 | 27.02 | 0 | 1028.14 | 69.83 | 1054 | 21.04 | 4.04 |
2026-08-28 10:00:13 | 1.94 | ESE | 2.51 | 26.99 | 0 | 1028.17 | 69.53 | 1062 | 20.94 | 4.04 |
2026-08-28 09:59:14 | 1.3 | ESE | 1.89 | 26.95 | 0 | 1028.19 | 69.52 | 1062 | 20.9 | 4.04 |
2026-08-28 09:58:15 | 1.42 | E | 2.11 | 26.93 | 0 | 1028.17 | 69.99 | 1050 | 20.99 | 4.04 |
2026-08-28 09:57:16 | 1.83 | E | 2.95 | 26.85 | 0 | 1028.1 | 69.83 | 1054 | 20.88 | 4.04 |
2026-08-28 09:56:17 | 1.67 | ESE | 2.07 | 26.83 | 0 | 1028.17 | 69.51 | 1062 | 20.78 | 4.04 |
2026-08-28 09:55:19 | 2.23 | ESE | 3.08 | 26.92 | 0 | 1028.14 | 69.63 | 1059 | 20.9 | 4.04 |
2026-08-28 09:54:20 | 1.87 | SE | 2.24 | 26.9 | 0 | 1028.25 | 69.66 | 1058 | 20.88 | 4.04 |
2026-08-28 09:53:21 | 0.95 | ESE | 1.14 | 26.88 | 0 | 1028.34 | 69.67 | 1058 | 20.87 | 4.04 |
2026-08-28 09:52:22 | 1.61 | E | 1.98 | 26.82 | 0 | 1028.37 | 69.3 | 1067 | 20.72 | 4.04 |
2026-08-28 09:51:23 | 1.38 | SE | 1.85 | 26.82 | 0 | 1028.38 | 69.89 | 1053 | 20.86 | 4.04 |
2026-08-28 09:50:24 | 1.34 | SE | 1.54 | 26.72 | 0 | 1028.4 | 70.6 | 1035 | 20.93 | 4.04 |
2026-08-28 09:49:25 | 1.64 | SE | 1.94 | 26.59 | 0 | 1028.43 | 71.52 | 1012 | 21.02 | 4.04 |
2026-08-28 09:48:27 | 1.56 | ESE | 2.11 | 26.48 | 0 | 1028.44 | 72.49 | 988 | 21.13 | 4.04 |
2026-08-28 09:47:28 | 1.74 | ENE | 2.29 | 26.33 | 0 | 1028.39 | 71.65 | 1009 | 20.8 | 4.04 |
2026-08-28 09:46:29 | 2.35 | E | 2.68 | 26.34 | 0 | 1028.31 | 71.42 | 1014 | 20.75 | 4.04 |
2026-08-28 09:45:30 | 2.3 | ESE | 2.73 | 26.48 | 0 | 1028.27 | 71.45 | 1014 | 20.89 | 4.04 |
2026-08-28 09:44:31 | 2.29 | SE | 2.73 | 26.5 | 0 | 1028.27 | 71.44 | 1014 | 20.91 | 4.04 |
2026-08-28 09:43:32 | 1.83 | SE | 2.16 | 26.52 | 0 | 1028.24 | 70.71 | 1032 | 20.76 | 4.04 |
2026-08-28 09:42:33 | 1.72 | SE | 2.2 | 26.59 | 0 | 1028.27 | 69.69 | 1058 | 20.59 | 4.04 |
2026-08-28 09:41:35 | 1.53 | SE | 1.8 | 26.68 | 0 | 1028.28 | 69.6 | 1060 | 20.66 | 4.04 |
2026-08-28 09:40:36 | 1.77 | E | 2.33 | 26.78 | 0 | 1028.36 | 70.15 | 1046 | 20.88 | 4.04 |
2026-08-28 09:39:37 | 1.54 | ESE | 2.02 | 26.79 | 0 | 1028.45 | 69.39 | 1065 | 20.72 | 4.04 |
2026-08-28 09:38:38 | 0.86 | ESE | 1.5 | 26.9 | 0 | 1028.49 | 69.32 | 1067 | 20.8 | 4.04 |
2026-08-28 09:37:39 | 1.64 | E | 2.33 | 27.06 | 0 | 1028.49 | 68.12 | 1097 | 20.67 | 4.04 |
2026-08-28 09:36:41 | 1.42 | E | 2.02 | 27.3 | 0 | 1028.48 | 68.33 | 1092 | 20.95 | 4.04 |
2026-08-28 09:35:42 | 0.95 | NE | 1.32 | 27.34 | 0 | 1028.53 | 68.66 | 1083 | 21.07 | 4.04 |
2026-08-28 09:34:43 | 0.98 | NNE | 1.72 | 27.36 | 0 | 1028.56 | 68.6 | 1085 | 21.07 | 4.04 |
2026-08-28 09:33:44 | 1.44 | NE | 1.94 | 27.44 | 0 | 1028.49 | 68.01 | 1100 | 21.01 | 4.04 |
2026-08-28 09:32:45 | 0.9 | NE | 1.58 | 27.53 | 0 | 1028.47 | 68.57 | 1086 | 21.23 | 4.04 |
2026-08-28 09:31:46 | 1.44 | E | 2.82 | 27.53 | 0 | 1028.44 | 67.3 | 1117 | 20.92 | 4.04 |
2026-08-28 09:30:48 | 1.05 | NNE | 1.23 | 27.55 | 0 | 1028.53 | 67.09 | 1123 | 20.89 | 4.04 |
2026-08-28 09:29:49 | 0.91 | NW | 1.06 | 27.51 | 0 | 1028.54 | 68.2 | 1095 | 21.12 | 4.04 |
2026-08-28 09:28:50 | 0.92 | NW | 1.8 | 27.38 | 0 | 1028.55 | 70.03 | 1049 | 21.43 | 4.04 |
2026-08-28 09:27:51 | 1.4 | SW | 2.82 | 27.29 | 0 | 1028.58 | 70.39 | 1040 | 21.43 | 4.04 |
2026-08-28 09:26:52 | 1.77 | S | 3.87 | 27.22 | 0 | 1028.6 | 70.94 | 1026 | 21.49 | 4.04 |
2026-08-28 09:25:53 | 1.24 | E | 1.54 | 27.19 | 0 | 1028.55 | 70.39 | 1040 | 21.33 | 4.04 |
2026-08-28 09:24:55 | 1.41 | ESE | 2.07 | 27.09 | 0 | 1028.57 | 70.08 | 1048 | 21.16 | 4.04 |
2026-08-28 09:23:56 | 0.57 | N | 1.54 | 27.02 | 0 | 1028.5 | 70.05 | 1049 | 21.09 | 4.04 |
2026-08-28 09:22:58 | 0 | NW | 0 | 26.92 | 0 | 1028.51 | 69.7 | 1057 | 20.91 | 4.04 |
2026-08-28 09:21:58 | 0.59 | NW | 0.79 | 26.88 | 0 | 1028.51 | 69.19 | 1070 | 20.75 | 4.04 |
2026-08-28 09:20:59 | 1.3 | NW | 1.58 | 26.99 | 0 | 1028.53 | 69.19 | 1070 | 20.86 | 4.04 |
2026-08-28 09:20:00 | 0.95 | N | 1.19 | 27.17 | 0 | 1028.54 | 68.74 | 1081 | 20.93 | 4.04 |
2026-08-28 09:19:01 | 1.03 | N | 1.41 | 27.27 | 0 | 1028.55 | 69.03 | 1074 | 21.09 | 4.04 |
2026-08-28 09:18:02 | 0.7 | NNE | 0.97 | 27.22 | 0 | 1028.5 | 69.26 | 1068 | 21.1 | 4.04 |
2026-08-28 09:17:04 | 0.64 | NNE | 1.54 | 27.09 | 0 | 1028.49 | 69.94 | 1051 | 21.13 | 4.04 |
2026-08-28 09:16:04 | 1.12 | NNE | 1.58 | 26.96 | 0 | 1028.5 | 70.01 | 1050 | 21.02 | 4.04 |
2026-08-28 09:15:04 | 1.35 | NE | 1.72 | 26.85 | 0 | 1028.45 | 70.58 | 1035 | 21.05 | 4.04 |
2026-08-28 09:14:05 | 1.37 | NE | 1.94 | 26.78 | 0 | 1028.45 | 72.24 | 994 | 21.36 | 4.04 |
2026-08-28 09:13:06 | 1.66 | NE | 2.02 | 26.62 | 0 | 1028.42 | 71.68 | 1008 | 21.08 | 4.04 |
2026-08-28 09:12:08 | 0.82 | E | 1.28 | 26.52 | 0 | 1028.36 | 72.29 | 993 | 21.12 | 4.04 |
2026-08-28 09:11:09 | 1 | ENE | 1.28 | 26.4 | 0 | 1028.34 | 71.78 | 1005 | 20.89 | 4.04 |
2026-08-28 09:10:10 | 1.55 | ENE | 1.89 | 26.4 | 0 | 1028.33 | 71.88 | 1003 | 20.92 | 4.04 |
2026-08-28 09:09:11 | 1.39 | E | 1.85 | 26.36 | 0 | 1028.36 | 72.42 | 989 | 21 | 4.04 |
2026-08-28 09:07:14 | 1.2 | NE | 1.45 | 26.16 | 0 | 1028.39 | 72.59 | 985 | 20.84 | 4.04 |
2026-08-28 09:06:15 | 1.37 | NE | 1.85 | 26.02 | 0 | 1028.43 | 72.91 | 977 | 20.78 | 4.05 |
2026-08-28 09:05:16 | 1.24 | NE | 1.89 | 25.75 | 0 | 1028.45 | 74.34 | 941 | 20.84 | 4.04 |
2026-08-28 09:04:17 | 1 | NE | 1.54 | 25.44 | 0 | 1028.44 | 76.47 | 888 | 21 | 4.04 |
2026-08-28 09:03:18 | 1.08 | NE | 1.5 | 25.1 | 0 | 1028.47 | 76.24 | 894 | 20.62 | 4.05 |
2026-08-28 09:02:20 | 1.14 | ENE | 1.36 | 24.96 | 0 | 1028.49 | 76.54 | 886 | 20.55 | 4.04 |
2026-08-28 09:01:21 | 1.69 | ENE | 2.07 | 24.85 | 0 | 1028.43 | 76.53 | 887 | 20.44 | 4.04 |
2026-08-28 09:00:22 | 1.33 | ESE | 1.8 | 24.79 | 0 | 1028.45 | 76.71 | 882 | 20.42 | 4.05 |
2026-08-28 08:59:23 | 1.66 | E | 2.02 | 24.75 | 0 | 1028.47 | 77.18 | 870 | 20.48 | 4.05 |
2026-08-28 08:58:25 | 1.33 | E | 1.58 | 24.69 | 0 | 1028.56 | 77.87 | 853 | 20.57 | 4.05 |
2026-08-28 08:57:26 | 1.03 | E | 1.28 | 24.58 | 0 | 1028.59 | 77.86 | 853 | 20.46 | 4.05 |
2026-08-28 08:56:27 | 1.71 | E | 2.2 | 24.51 | 0 | 1028.58 | 77.38 | 865 | 20.29 | 4.05 |
2026-08-28 08:55:28 | 2.16 | E | 2.95 | 24.52 | 0 | 1028.58 | 77.52 | 862 | 20.33 | 4.05 |
2026-08-28 08:54:30 | 2.3 | E | 3.17 | 24.55 | 0 | 1028.56 | 77.47 | 863 | 20.35 | 4.05 |
2026-08-28 08:53:31 | 1.32 | ESE | 1.5 | 24.51 | 0 | 1028.57 | 77.65 | 859 | 20.35 | 4.05 |
2026-08-28 08:52:32 | 2 | ESE | 2.29 | 24.44 | 0 | 1028.58 | 77.43 | 864 | 20.23 | 4.05 |
2026-08-28 08:51:33 | 2.06 | ESE | 2.64 | 24.47 | 0 | 1028.52 | 77.51 | 862 | 20.28 | 4.05 |
2026-08-28 08:50:34 | 2.28 | E | 2.73 | 24.52 | 0 | 1028.54 | 77.5 | 862 | 20.32 | 4.05 |
2026-08-28 08:49:35 | 2.14 | ENE | 2.46 | 24.56 | 0 | 1028.56 | 77.46 | 863 | 20.36 | 4.05 |
2026-08-28 08:48:37 | 2.04 | ESE | 2.33 | 24.61 | 0 | 1028.57 | 76.84 | 879 | 20.27 | 4.05 |
2026-08-28 08:47:38 | 2.03 | ESE | 2.38 | 24.66 | 0 | 1028.61 | 76.93 | 877 | 20.34 | 4.05 |
2026-08-28 08:46:39 | 1.87 | ENE | 2.6 | 24.73 | 0 | 1028.62 | 77.39 | 865 | 20.51 | 4.05 |
2026-08-28 08:45:40 | 1.74 | ESE | 2.11 | 24.71 | 0 | 1028.69 | 76.85 | 879 | 20.37 | 4.05 |
2026-08-28 08:44:42 | 1.92 | ESE | 2.42 | 24.71 | 0 | 1028.72 | 77.53 | 862 | 20.51 | 4.05 |
2026-08-28 08:43:43 | 2.03 | NNW | 3.08 | 24.65 | 0 | 1028.73 | 77.41 | 865 | 20.43 | 4.05 |
2026-08-28 08:42:44 | 1.26 | NNW | 1.98 | 24.62 | 0 | 1028.81 | 76.96 | 876 | 20.31 | 4.05 |
2026-08-28 08:41:45 | 1.8 | NNW | 1.94 | 24.64 | 0 | 1028.81 | 76.62 | 884 | 20.26 | 4.05 |
2026-08-28 08:40:47 | 1.98 | NNW | 2.46 | 24.76 | 0 | 1028.77 | 77.06 | 873 | 20.46 | 4.05 |
2026-08-28 08:39:47 | 1.07 | NW | 1.54 | 24.65 | 0 | 1028.82 | 76.59 | 885 | 20.26 | 4.05 |
2026-08-28 08:38:48 | 1.48 | NW | 2.11 | 24.61 | 0 | 1028.84 | 77.1 | 872 | 20.33 | 4.05 |
2026-08-28 08:37:49 | 1.49 | NW | 1.76 | 24.48 | 0 | 1028.81 | 76.99 | 875 | 20.18 | 4.05 |
2026-08-28 08:36:50 | 1.81 | NW | 2.51 | 24.48 | 0 | 1028.81 | 76.92 | 877 | 20.16 | 4.05 |
2026-08-28 08:35:52 | 1.07 | NW | 1.19 | 24.38 | 0 | 1028.78 | 76.85 | 879 | 20.05 | 4.05 |
2026-08-28 08:34:53 | 1.47 | NW | 1.72 | 24.41 | 0 | 1028.81 | 76.82 | 879 | 20.08 | 4.05 |
2026-08-28 08:33:54 | 1.98 | NW | 2.64 | 24.47 | 0 | 1028.78 | 76.49 | 888 | 20.06 | 4.05 |
2026-08-28 08:32:56 | 1.91 | NW | 2.29 | 24.59 | 0 | 1028.76 | 75.97 | 901 | 20.07 | 4.05 |
2026-08-28 08:31:57 | 2.03 | NNW | 2.42 | 24.81 | 0 | 1028.82 | 75.44 | 914 | 20.17 | 4.05 |
2026-08-28 08:30:58 | 2.13 | NW | 2.51 | 25.05 | 0 | 1028.8 | 74.82 | 929 | 20.27 | 4.05 |
2026-08-28 08:29:59 | 2.11 | NW | 2.46 | 25.34 | 0 | 1028.82 | 73.95 | 951 | 20.36 | 4.05 |
2026-08-28 08:29:01 | 1.18 | NW | 1.5 | 25.6 | 0 | 1028.82 | 73.71 | 957 | 20.55 | 4.05 |
2026-08-28 08:28:02 | 1.57 | NW | 2.16 | 25.69 | 0 | 1028.85 | 73.23 | 969 | 20.54 | 4.05 |
2026-08-28 08:27:03 | 1.5 | NW | 1.94 | 25.85 | 0 | 1028.78 | 72.29 | 993 | 20.48 | 4.05 |
2026-08-28 08:26:04 | 1.02 | NW | 1.45 | 26.03 | 0 | 1028.78 | 72.55 | 986 | 20.71 | 4.05 |
2026-08-28 08:25:06 | 0.76 | WNW | 0.97 | 25.97 | 0 | 1028.8 | 72.71 | 982 | 20.69 | 4.05 |
2026-08-28 08:24:07 | 0.65 | WNW | 0.92 | 25.81 | 0 | 1028.74 | 73.29 | 968 | 20.66 | 4.05 |
2026-08-28 08:23:08 | 1.01 | WNW | 1.63 | 25.51 | 0 | 1028.75 | 71.32 | 1017 | 19.93 | 4.05 |
2026-08-28 08:22:10 | 0.76 | WNW | 1.1 | 25.4 | 0 | 1028.75 | 71.93 | 1002 | 19.97 | 4.05 |
2026-08-28 08:21:11 | 0.42 | WNW | 0.84 | 25.23 | 0 | 1028.73 | 72.26 | 993 | 19.88 | 4.05 |
2026-08-28 08:20:12 | 0.84 | WNW | 1.41 | 25.09 | 0 | 1028.71 | 72.7 | 982 | 19.84 | 4.05 |
2026-08-28 08:19:13 | 0.99 | W | 1.32 | 25.02 | 0 | 1028.66 | 71.88 | 1003 | 19.59 | 4.05 |
2026-08-28 08:18:15 | 1.2 | W | 2.16 | 25.13 | 0 | 1028.64 | 71.67 | 1008 | 19.65 | 4.05 |
2026-08-28 08:17:16 | 1.09 | W | 1.76 | 25.3 | 0 | 1028.66 | 71.21 | 1020 | 19.71 | 4.05 |
2026-08-28 08:16:17 | 0.36 | W | 0.66 | 25.41 | 0 | 1028.63 | 72.49 | 988 | 20.1 | 4.05 |
2026-08-28 08:15:19 | 0.55 | W | 0.79 | 25.3 | 0 | 1028.59 | 71.92 | 1002 | 19.87 | 4.05 |
2026-08-28 08:14:20 | 0.29 | W | 0.4 | 25.3 | 0 | 1028.62 | 72.73 | 982 | 20.05 | 4.05 |
2026-08-28 08:13:21 | 0.6 | W | 1.06 | 25.27 | 0 | 1028.65 | 72.77 | 981 | 20.03 | 4.05 |
2026-08-28 08:12:23 | 0.27 | W | 0.35 | 25.31 | 0 | 1028.69 | 73.37 | 966 | 20.2 | 4.05 |
2026-08-28 08:11:24 | 0.69 | W | 0.84 | 25.38 | 0 | 1028.71 | 73.41 | 965 | 20.28 | 4.05 |
2026-08-28 08:10:25 | 0.85 | W | 1.36 | 25.47 | 0 | 1028.68 | 73.53 | 962 | 20.39 | 4.05 |
2026-08-28 08:09:26 | 0.59 | W | 1.06 | 25.55 | 0 | 1028.59 | 72.79 | 980 | 20.3 | 4.05 |
2026-08-28 08:08:28 | 0.74 | W | 1.01 | 25.57 | 0 | 1028.62 | 72.66 | 983 | 20.29 | 4.05 |
2026-08-28 08:07:29 | 0.1 | W | 0.35 | 25.54 | 0 | 1028.68 | 72.94 | 976 | 20.33 | 4.05 |
2026-08-28 08:06:30 | 0.34 | W | 0.53 | 25.36 | 0 | 1028.65 | 73.3 | 967 | 20.23 | 4.05 |
2026-08-28 08:05:32 | 0.53 | W | 0.79 | 25.2 | 0 | 1028.67 | 73.27 | 968 | 20.07 | 4.05 |
2026-08-28 08:04:33 | 0 | W | 0 | 25.05 | 0 | 1028.72 | 74.75 | 931 | 20.25 | 4.05 |
2026-08-28 08:03:34 | 0 | W | 0 | 24.76 | 0 | 1028.71 | 74.64 | 934 | 19.95 | 4.05 |
2026-08-28 08:02:36 | 0.54 | W | 0.75 | 24.55 | 0 | 1028.76 | 74.24 | 944 | 19.66 | 4.05 |
2026-08-28 08:01:37 | 0.62 | W | 0.88 | 24.51 | 0 | 1028.85 | 74.37 | 941 | 19.65 | 4.05 |
2026-08-28 08:00:38 | 0.51 | W | 0.79 | 24.5 | 0 | 1028.89 | 74.34 | 941 | 19.63 | 4.05 |
2026-08-28 07:59:40 | 0.56 | W | 1.06 | 24.45 | 0 | 1028.9 | 75.21 | 920 | 19.77 | 4.05 |
2026-08-28 07:58:41 | 0.04 | WNW | 0.35 | 24.35 | 0 | 1028.88 | 76.73 | 882 | 20 | 4.05 |
2026-08-28 07:57:42 | 0 | NW | 0 | 24.23 | 0 | 1028.83 | 78.04 | 849 | 20.16 | 4.05 |
2026-08-28 07:56:44 | 0 | NW | 0 | 24.09 | 0 | 1028.82 | 78.53 | 837 | 20.12 | 4.05 |
2026-08-28 07:55:45 | 0 | NW | 0 | 23.92 | 0 | 1028.78 | 78.12 | 847 | 19.87 | 4.05 |
2026-08-28 07:54:46 | 0.41 | NW | 0.53 | 23.87 | 0 | 1028.78 | 77.35 | 866 | 19.66 | 4.05 |
2026-08-28 07:53:48 | 0.5 | NW | 0.75 | 23.96 | 0 | 1028.79 | 76.25 | 894 | 19.52 | 4.05 |
2026-08-28 07:52:49 | 0.83 | NW | 0.97 | 24.2 | 0 | 1028.82 | 75.26 | 918 | 19.54 | 4.05 |
2026-08-28 07:51:51 | 0.75 | W | 0.97 | 24.34 | 0 | 1028.88 | 75.31 | 917 | 19.69 | 4.05 |
2026-08-28 07:50:52 | 0.42 | W | 0.88 | 24.25 | 0 | 1028.88 | 75.35 | 916 | 19.61 | 4.05 |
2026-08-28 07:49:53 | 0.24 | W | 0.57 | 24.04 | 0 | 1028.91 | 75.4 | 915 | 19.42 | 4.05 |
2026-08-28 07:48:54 | 0.33 | W | 0.7 | 23.89 | 0 | 1028.91 | 75.23 | 919 | 19.24 | 4.05 |
2026-08-28 07:47:56 | 1.02 | WSW | 1.67 | 23.79 | 0 | 1028.83 | 75.05 | 924 | 19.1 | 4.05 |
2026-08-28 07:46:57 | 0.76 | W | 0.97 | 23.76 | 0 | 1028.83 | 75.66 | 908 | 19.2 | 4.05 |
2026-08-28 07:45:58 | 1.48 | WSW | 2.24 | 23.68 | 0 | 1028.82 | 75.26 | 918 | 19.04 | 4.05 |
2026-08-28 07:45:00 | 1.01 | WNW | 1.63 | 23.65 | 0 | 1028.77 | 76.17 | 896 | 19.2 | 4.05 |
2026-08-28 07:44:01 | 1.32 | WSW | 1.85 | 23.58 | 0 | 1028.75 | 75.89 | 903 | 19.08 | 4.05 |
2026-08-28 07:43:02 | 1.58 | WSW | 1.94 | 23.52 | 0 | 1028.77 | 76.18 | 895 | 19.08 | 4.05 |
2026-08-28 07:42:04 | 0.9 | W | 1.41 | 23.55 | 0 | 1028.76 | 76.72 | 882 | 19.22 | 4.05 |
2026-08-28 07:41:05 | 0.85 | W | 1.45 | 23.47 | 0 | 1028.74 | 76.65 | 884 | 19.13 | 4.05 |
2026-08-28 07:40:07 | 0.6 | W | 0.75 | 23.48 | 0 | 1028.75 | 77.55 | 861 | 19.33 | 4.05 |
2026-08-28 07:39:08 | 0.69 | W | 0.97 | 23.42 | 0 | 1028.76 | 78.05 | 849 | 19.37 | 4.05 |
2026-08-28 07:38:09 | 0.47 | W | 0.97 | 23.37 | 0 | 1028.8 | 78.5 | 837 | 19.42 | 4.05 |
2026-08-28 07:37:11 | 0.34 | W | 0.79 | 23.32 | 0 | 1028.8 | 78.69 | 833 | 19.41 | 4.05 |
2026-08-28 07:36:12 | 0.87 | W | 1.41 | 23.3 | 0 | 1028.75 | 78.41 | 840 | 19.33 | 4.05 |
2026-08-28 07:35:14 | 1.02 | W | 1.23 | 23.34 | 0 | 1028.73 | 78.2 | 845 | 19.33 | 4.05 |
2026-08-28 07:34:15 | 0.89 | W | 1.19 | 23.37 | 0 | 1028.72 | 78.28 | 843 | 19.37 | 4.05 |
2026-08-28 07:33:17 | 1.07 | W | 1.41 | 23.3 | 0 | 1028.63 | 77.81 | 855 | 19.21 | 4.05 |
2026-08-28 07:32:18 | 0.59 | W | 0.75 | 23.34 | 0 | 1028.63 | 79.08 | 823 | 19.51 | 4.05 |
2026-08-28 07:31:19 | 0.25 | W | 0.62 | 23.32 | 0 | 1028.65 | 79.64 | 809 | 19.6 | 4.05 |
2026-08-28 07:30:21 | 0 | W | 0 | 23.3 | 0 | 1028.65 | 80.79 | 780 | 19.81 | 4.05 |
2026-08-28 07:29:22 | 0.31 | W | 0.44 | 23.15 | 0 | 1028.61 | 80.89 | 778 | 19.69 | 4.05 |
2026-08-28 07:28:23 | 0.11 | W | 0.62 | 23.04 | 0 | 1028.59 | 81.5 | 762 | 19.7 | 4.05 |
2026-08-28 07:27:25 | 0 | W | 0 | 22.92 | 0 | 1028.63 | 82.16 | 746 | 19.71 | 4.05 |
2026-08-28 07:26:26 | 0 | W | 0 | 22.76 | 0 | 1028.62 | 82.35 | 741 | 19.59 | 4.05 |
2026-08-28 07:25:28 | 0 | W | 0 | 22.65 | 0 | 1028.6 | 82.66 | 733 | 19.55 | 4.05 |
2026-08-28 07:24:29 | 0.38 | W | 0.84 | 22.38 | 0 | 1028.58 | 82.69 | 733 | 19.29 | 4.05 |
2026-08-28 07:23:31 | 0.8 | W | 1.5 | 22.14 | 0 | 1028.56 | 83.03 | 724 | 19.12 | 4.05 |
2026-08-28 07:22:32 | 1.07 | WSW | 1.94 | 21.96 | 0 | 1028.59 | 83.95 | 701 | 19.12 | 4.05 |
2026-08-28 07:21:33 | 0.98 | W | 1.32 | 21.76 | 0 | 1028.59 | 84.97 | 676 | 19.12 | 4.05 |
2026-08-28 07:20:35 | 0.76 | W | 0.92 | 21.56 | 0 | 1028.64 | 85.82 | 654 | 19.08 | 4.05 |
2026-08-28 07:19:36 | 0.85 | W | 1.14 | 21.41 | 0 | 1028.67 | 86.59 | 635 | 19.08 | 4.05 |
2026-08-28 07:18:37 | 0.98 | W | 1.23 | 21.24 | 0 | 1028.67 | 87.05 | 624 | 19 | 4.05 |
2026-08-28 07:17:39 | 1.09 | W | 1.32 | 21.05 | 0 | 1028.63 | 87.65 | 609 | 18.92 | 4.05 |
2026-08-28 07:16:40 | 1.09 | W | 1.76 | 20.89 | 0 | 1028.73 | 88.28 | 593 | 18.88 | 4.05 |
2026-08-28 07:15:42 | 1.12 | W | 1.54 | 20.75 | 0 | 1028.73 | 88.73 | 582 | 18.82 | 4.05 |
2026-08-28 07:14:43 | 0.82 | W | 1.14 | 20.62 | 0 | 1028.68 | 89.02 | 574 | 18.74 | 4.05 |
2026-08-28 07:13:44 | 0.5 | WNW | 0.66 | 20.55 | 0 | 1028.72 | 89.09 | 573 | 18.69 | 4.05 |
2026-08-28 07:12:46 | 0.51 | WNW | 0.7 | 20.43 | 0 | 1028.72 | 89.02 | 574 | 18.56 | 4.05 |
2026-08-28 07:11:47 | 0.79 | WNW | 0.92 | 20.41 | 0 | 1028.73 | 88.93 | 577 | 18.52 | 4.05 |
2026-08-28 07:10:49 | 0.57 | WNW | 0.66 | 20.33 | 0 | 1028.76 | 88.8 | 580 | 18.42 | 4.05 |
2026-08-28 07:09:50 | 0.59 | WNW | 0.75 | 20.31 | 0 | 1028.76 | 88.64 | 584 | 18.37 | 4.05 |
2026-08-28 07:08:52 | 0.5 | WNW | 0.62 | 20.31 | 0 | 1028.73 | 88.48 | 588 | 18.34 | 4.05 |
2026-08-28 07:07:53 | 0.41 | WNW | 0.57 | 20.25 | 0 | 1028.76 | 88.31 | 592 | 18.25 | 4.05 |
2026-08-28 07:06:55 | 0.47 | WNW | 0.53 | 20.22 | 0 | 1028.79 | 87.93 | 602 | 18.15 | 4.05 |
2026-08-28 07:05:56 | 0.77 | NW | 0.84 | 20.18 | 0 | 1028.73 | 87.42 | 614 | 18.02 | 4.05 |
2026-08-28 07:04:57 | 0.66 | NW | 0.75 | 20.28 | 0 | 1028.61 | 87.01 | 625 | 18.05 | 4.05 |
2026-08-28 07:03:59 | 0.86 | NW | 0.97 | 20.42 | 0 | 1028.58 | 86.57 | 636 | 18.1 | 4.05 |
2026-08-28 07:02:59 | 0.83 | NW | 1.06 | 20.55 | 0 | 1028.52 | 86.47 | 638 | 18.21 | 4.05 |
2026-08-28 07:02:01 | 0.67 | WNW | 0.75 | 20.69 | 0 | 1028.48 | 86.67 | 633 | 18.39 | 4.05 |
2026-08-28 07:01:02 | 0.56 | WNW | 0.66 | 20.79 | 0 | 1028.46 | 87.12 | 622 | 18.57 | 4.05 |
2026-08-28 07:00:04 | 0.46 | WNW | 0.57 | 20.83 | 0 | 1028.45 | 87.44 | 614 | 18.67 | 4.05 |
2026-08-28 06:59:05 | 0.39 | WNW | 0.48 | 20.72 | 0 | 1028.42 | 87.02 | 624 | 18.48 | 4.05 |
2026-08-28 06:58:06 | 0.28 | WNW | 0.4 | 20.7 | 0 | 1028.44 | 86.31 | 642 | 18.33 | 4.05 |
2026-08-28 06:57:08 | 0.27 | WNW | 0.35 | 20.7 | 0 | 1028.41 | 85.63 | 659 | 18.2 | 4.05 |
2026-08-28 06:56:09 | 0.49 | WNW | 0.57 | 20.84 | 0 | 1028.42 | 85.07 | 673 | 18.24 | 4.05 |
2026-08-28 06:55:11 | 0.56 | WNW | 0.62 | 21.03 | 0 | 1028.5 | 84.44 | 689 | 18.3 | 4.05 |
2026-08-28 06:54:12 | 0.63 | WNW | 0.7 | 21.21 | 0 | 1028.45 | 83.78 | 705 | 18.35 | 4.05 |
2026-08-28 06:53:14 | 0.53 | WNW | 0.75 | 21.38 | 0 | 1028.47 | 83.76 | 706 | 18.52 | 4.05 |
2026-08-28 06:52:15 | 0 | WNW | 0 | 21.52 | 0 | 1028.45 | 84.25 | 694 | 18.75 | 4.05 |
2026-08-28 06:51:17 | 0.17 | WNW | 0.35 | 21.55 | 0 | 1028.44 | 84.23 | 694 | 18.77 | 4.05 |
2026-08-28 06:50:17 | 0.36 | WNW | 0.4 | 21.53 | 0 | 1028.43 | 84.16 | 696 | 18.74 | 4.05 |
2026-08-28 06:49:19 | 0.66 | WNW | 0.92 | 21.53 | 0 | 1028.46 | 84.19 | 695 | 18.75 | 4.05 |
2026-08-28 06:48:20 | 0.81 | WNW | 1.01 | 21.55 | 0 | 1028.4 | 84.24 | 694 | 18.77 | 4.05 |
2026-08-28 06:47:22 | 0.98 | WNW | 1.1 | 21.5 | 0 | 1028.37 | 84.33 | 692 | 18.74 | 4.05 |
2026-08-28 06:46:23 | 1.03 | WNW | 1.36 | 21.48 | 0 | 1028.32 | 84.6 | 685 | 18.77 | 4.05 |
2026-08-28 06:45:25 | 0.91 | WNW | 1.06 | 21.44 | 0 | 1028.36 | 84.86 | 678 | 18.78 | 4.05 |
2026-08-28 06:44:26 | 0.93 | WNW | 1.01 | 21.37 | 0 | 1028.37 | 85.09 | 673 | 18.76 | 4.05 |
2026-08-28 06:43:28 | 1.07 | WNW | 1.32 | 21.29 | 0 | 1028.37 | 85.37 | 666 | 18.73 | 4.05 |
2026-08-28 06:42:29 | 0.91 | WNW | 1.06 | 21.2 | 0 | 1028.41 | 85.58 | 660 | 18.68 | 4.05 |
2026-08-28 06:41:30 | 0.75 | WNW | 0.84 | 21.21 | 0 | 1028.47 | 85.65 | 659 | 18.71 | 4.05 |
2026-08-28 06:40:32 | 0.77 | WNW | 0.88 | 21.2 | 0 | 1028.46 | 85.69 | 658 | 18.71 | 4.05 |
2026-08-28 06:39:33 | 0.76 | WNW | 0.97 | 21.2 | 0 | 1028.43 | 85.8 | 655 | 18.73 | 4.05 |
2026-08-28 06:38:35 | 0.66 | WNW | 0.88 | 21.18 | 0 | 1028.39 | 85.9 | 652 | 18.72 | 4.05 |
2026-08-28 06:37:36 | 0.92 | WNW | 1.1 | 21.14 | 0 | 1028.41 | 86.11 | 647 | 18.72 | 4.05 |
2026-08-28 06:36:38 | 0.96 | WNW | 1.1 | 21.1 | 0 | 1028.33 | 86.25 | 644 | 18.71 | 4.05 |
2026-08-28 06:35:39 | 0.96 | WNW | 1.1 | 21.05 | 0 | 1028.29 | 86.43 | 639 | 18.7 | 4.05 |
2026-08-28 06:34:40 | 1.06 | WNW | 1.28 | 21.03 | 0 | 1028.29 | 86.58 | 635 | 18.7 | 4.05 |
2026-08-28 06:33:42 | 1.18 | WNW | 1.32 | 20.97 | 0 | 1028.32 | 86.74 | 631 | 18.67 | 4.05 |
2026-08-28 06:32:43 | 1.22 | WNW | 1.36 | 20.94 | 0 | 1028.3 | 86.89 | 628 | 18.67 | 4.05 |
2026-08-28 06:31:45 | 1.2 | WNW | 1.32 | 20.91 | 0 | 1028.33 | 86.97 | 626 | 18.66 | 4.05 |
2026-08-28 06:30:46 | 1.5 | WNW | 1.63 | 20.89 | 0 | 1028.31 | 87.05 | 624 | 18.65 | 4.05 |
2026-08-28 06:29:48 | 1.75 | WNW | 1.89 | 20.86 | 0 | 1028.29 | 87.13 | 622 | 18.64 | 4.05 |
2026-08-28 06:28:49 | 1.67 | WNW | 1.8 | 20.84 | 0 | 1028.28 | 87.08 | 623 | 18.61 | 4.05 |
2026-08-28 06:27:51 | 1.49 | WNW | 1.63 | 20.87 | 0 | 1028.26 | 86.91 | 627 | 18.61 | 4.05 |
2026-08-28 06:26:51 | 1.51 | WNW | 1.63 | 20.89 | 0 | 1028.2 | 87.11 | 622 | 18.66 | 4.05 |
2026-08-28 06:25:52 | 1.37 | WNW | 1.5 | 20.89 | 0 | 1028.2 | 87.22 | 619 | 18.68 | 4.05 |
2026-08-28 06:24:54 | 1.21 | WNW | 1.36 | 20.84 | 0 | 1028.15 | 87.24 | 619 | 18.64 | 4.05 |
2026-08-28 06:23:55 | 0.97 | W | 1.1 | 20.82 | 0 | 1028.14 | 87.23 | 619 | 18.62 | 4.05 |
2026-08-28 06:22:57 | 0.8 | W | 1.01 | 20.83 | 0 | 1028.12 | 87.26 | 618 | 18.63 | 4.05 |
2026-08-28 06:21:58 | 0.56 | W | 0.7 | 20.84 | 0 | 1028.11 | 87.32 | 617 | 18.65 | 4.05 |
2026-08-28 06:21:00 | 0.6 | W | 0.66 | 20.82 | 0 | 1028.09 | 87.41 | 615 | 18.65 | 4.05 |
2026-08-28 06:20:01 | 0.57 | W | 0.66 | 20.84 | 0 | 1028.06 | 87.58 | 610 | 18.7 | 4.05 |
2026-08-28 06:19:03 | 0.75 | W | 0.92 | 20.8 | 0 | 1028.06 | 87.75 | 606 | 18.69 | 4.05 |
2026-08-28 06:18:04 | 0.94 | W | 1.06 | 20.76 | 0 | 1028.07 | 87.96 | 601 | 18.69 | 4.05 |
2026-08-28 06:17:06 | 1 | W | 1.1 | 20.72 | 0 | 1028.07 | 88.16 | 596 | 18.69 | 4.05 |
2026-08-28 06:16:07 | 1.24 | W | 1.32 | 20.65 | 0 | 1028.12 | 88.33 | 592 | 18.65 | 4.05 |
2026-08-28 06:15:09 | 1.41 | W | 1.58 | 20.58 | 0 | 1028.1 | 88.57 | 586 | 18.62 | 4.05 |
2026-08-28 06:14:10 | 1.22 | W | 1.36 | 20.52 | 0 | 1028.13 | 88.76 | 581 | 18.6 | 4.05 |
2026-08-28 06:13:11 | 1.35 | W | 1.5 | 20.46 | 0 | 1028.15 | 88.88 | 578 | 18.56 | 4.05 |
2026-08-28 06:12:13 | 1.49 | WNW | 1.67 | 20.42 | 0 | 1028.14 | 88.88 | 578 | 18.52 | 4.05 |
2026-08-28 06:11:14 | 1.74 | WNW | 1.89 | 20.45 | 0 | 1028.13 | 88.85 | 579 | 18.55 | 4.05 |
2026-08-28 06:10:16 | 1.82 | WNW | 2.07 | 20.43 | 0 | 1028.1 | 88.75 | 581 | 18.51 | 4.05 |
2026-08-28 06:09:17 | 1.51 | WNW | 1.63 | 20.45 | 0 | 1028.1 | 88.7 | 582 | 18.52 | 4.05 |
2026-08-28 06:08:19 | 1.58 | WNW | 1.8 | 20.46 | 0 | 1028.12 | 88.67 | 583 | 18.52 | 4.05 |
2026-08-28 06:07:20 | 1.82 | WNW | 1.98 | 20.5 | 0 | 1028.11 | 88.94 | 576 | 18.61 | 4.05 |
2026-08-28 06:06:22 | 1.43 | WNW | 1.67 | 20.43 | 0 | 1028.06 | 89.21 | 570 | 18.59 | 4.05 |
2026-08-28 06:05:23 | 1.08 | W | 1.32 | 20.33 | 0 | 1028.08 | 89.27 | 568 | 18.5 | 4.05 |
2026-08-28 06:04:25 | 0.87 | W | 1.06 | 20.27 | 0 | 1028.03 | 89.08 | 573 | 18.41 | 4.05 |
2026-08-28 06:03:26 | 0.38 | W | 0.84 | 20.28 | 0 | 1028.05 | 88.9 | 577 | 18.39 | 4.05 |
2026-08-28 06:02:28 | 0 | W | 0 | 20.22 | 0 | 1028.04 | 88.7 | 582 | 18.29 | 4.05 |
2026-08-28 06:01:29 | 0 | W | 0 | 20.2 | 0 | 1028.07 | 88.68 | 583 | 18.27 | 4.05 |
2026-08-28 06:00:30 | 0 | W | 0 | 20.24 | 0 | 1027.99 | 88.69 | 583 | 18.31 | 4.05 |
2026-08-28 05:59:32 | 0 | W | 0 | 20.25 | 0 | 1027.99 | 88.72 | 582 | 18.33 | 4.05 |
2026-08-28 05:58:33 | 0 | W | 0 | 20.31 | 0 | 1028.04 | 88.75 | 581 | 18.39 | 4.05 |
2026-08-28 05:57:35 | 0.3 | W | 0.35 | 20.33 | 0 | 1028.06 | 88.85 | 579 | 18.43 | 4.05 |
2026-08-28 05:56:36 | 0.39 | W | 0.48 | 20.36 | 0 | 1028.11 | 88.98 | 575 | 18.48 | 4.05 |
2026-08-28 05:55:38 | 0.59 | W | 0.66 | 20.35 | 0 | 1028.14 | 89.05 | 574 | 18.48 | 4.05 |
2026-08-28 05:54:39 | 0.74 | W | 0.84 | 20.32 | 0 | 1028.14 | 89.14 | 571 | 18.47 | 4.05 |
2026-08-28 05:53:40 | 0.77 | W | 1.01 | 20.28 | 0 | 1028.14 | 89.16 | 571 | 18.43 | 4.05 |
2026-08-28 05:52:42 | 0.07 | W | 0.31 | 20.2 | 0 | 1028.08 | 88.97 | 576 | 18.32 | 4.05 |
2026-08-28 05:51:43 | 0.37 | W | 0.66 | 20.17 | 0 | 1028.08 | 88.73 | 582 | 18.25 | 4.05 |
2026-08-28 05:50:45 | 0.53 | W | 0.88 | 20.15 | 0 | 1028.06 | 88.6 | 585 | 18.21 | 4.05 |
2026-08-28 05:49:46 | 0.17 | W | 0.31 | 20.11 | 0 | 1028.1 | 88.14 | 596 | 18.08 | 4.05 |
2026-08-28 05:48:48 | 0 | W | 0 | 20.11 | 0 | 1028.05 | 87.89 | 603 | 18.04 | 4.05 |
2026-08-28 05:47:49 | 0 | W | 0 | 20.11 | 0 | 1028.12 | 87.72 | 607 | 18.01 | 4.05 |
2026-08-28 05:46:50 | 0 | W | 0 | 20.11 | 0 | 1028.08 | 87.46 | 613 | 17.96 | 4.05 |
2026-08-28 05:45:52 | 0 | W | 0 | 20.17 | 0 | 1028.12 | 87.27 | 618 | 17.98 | 4.05 |
2026-08-28 05:44:28 | 0.11 | W | 0.22 | 20.28 | 0 | 1028.1 | 86.55 | 636 | 17.96 | 4.05 |
2026-08-28 05:44:59 | 0 | W | 0 | 20.2 | 0 | 1028.1 | 86.93 | 627 | 17.95 | 4.05 |
2026-08-28 05:44:01 | 0.6 | WNW | 1.01 | 20.52 | 0 | 1028.1 | 85.57 | 661 | 18.02 | 4.05 |
2026-08-28 05:44:03 | 0.8 | W | 1.1 | 20.39 | 0 | 1028.13 | 86.43 | 639 | 18.05 | 4.05 |
2026-08-28 05:12:39 | 2.21 | WSW | 2.64 | 22.37 | 0 | 1028.26 | 80.1 | 797 | 18.77 | 4.05 |
2026-08-28 05:11:41 | 1.57 | WSW | 1.94 | 22.32 | 0 | 1028.23 | 80.25 | 794 | 18.75 | 4.05 |
2026-08-28 05:10:42 | 1.76 | WSW | 3.3 | 22.32 | 0 | 1028.29 | 80.34 | 791 | 18.77 | 4.05 |
2026-08-28 05:09:44 | 1.4 | WSW | 2.2 | 22.25 | 0 | 1028.3 | 80.52 | 787 | 18.74 | 4.05 |
2026-08-28 05:08:45 | 1.34 | WSW | 1.8 | 22.21 | 0 | 1028.3 | 80.68 | 783 | 18.73 | 4.05 |
2026-08-28 05:07:46 | 1.61 | WSW | 2.02 | 22.18 | 0 | 1028.28 | 80.84 | 779 | 18.73 | 4.05 |
2026-08-28 05:06:48 | 2.09 | WSW | 2.73 | 22.15 | 0 | 1028.26 | 81.05 | 774 | 18.74 | 4.05 |
2026-08-28 05:05:49 | 2.15 | WSW | 2.51 | 22.12 | 0 | 1028.26 | 81.22 | 769 | 18.75 | 4.05 |
2026-08-28 05:04:51 | 1.31 | W | 1.76 | 22.1 | 0 | 1028.35 | 81.24 | 769 | 18.73 | 4.05 |
2026-08-28 05:03:52 | 1.68 | WSW | 1.89 | 22.1 | 0 | 1028.35 | 81.27 | 768 | 18.74 | 4.05 |
2026-08-28 05:02:53 | 1.59 | WSW | 1.76 | 22.12 | 0 | 1028.37 | 81.31 | 767 | 18.77 | 4.05 |
2026-08-28 05:01:55 | 1.53 | WSW | 1.72 | 22.11 | 0 | 1028.35 | 81.3 | 767 | 18.75 | 4.05 |
2026-08-28 05:00:56 | 1.58 | WSW | 1.72 | 22.1 | 0 | 1028.4 | 81.43 | 764 | 18.77 | 4.05 |
2026-08-28 04:59:58 | 1.74 | WSW | 1.94 | 22.07 | 0 | 1028.4 | 81.59 | 760 | 18.77 | 4.05 |
2026-08-28 04:58:59 | 1.61 | WSW | 1.89 | 22 | 0 | 1028.42 | 81.74 | 756 | 18.73 | 4.05 |
2026-08-28 04:58:00 | 1.1 | W | 1.45 | 21.99 | 0 | 1028.43 | 81.76 | 756 | 18.73 | 4.05 |
2026-08-28 04:57:02 | 0.67 | W | 0.97 | 21.96 | 0 | 1028.44 | 81.64 | 759 | 18.67 | 4.05 |
2026-08-28 04:56:03 | 0.57 | W | 0.7 | 22 | 0 | 1028.43 | 81.5 | 762 | 18.69 | 4.05 |
2026-08-28 04:55:05 | 0.59 | W | 0.79 | 22.07 | 0 | 1028.48 | 81.4 | 765 | 18.73 | 4.05 |
2026-08-28 04:54:06 | 0.67 | W | 0.84 | 22.1 | 0 | 1028.44 | 81.25 | 769 | 18.73 | 4.05 |
2026-08-28 04:53:08 | 0.85 | W | 0.97 | 22.14 | 0 | 1028.45 | 81.12 | 772 | 18.75 | 4.05 |
2026-08-28 04:52:09 | 1.27 | WSW | 1.76 | 22.2 | 0 | 1028.47 | 81.12 | 772 | 18.81 | 4.05 |
2026-08-28 04:51:10 | 1.13 | W | 1.41 | 22.2 | 0 | 1028.43 | 81.07 | 773 | 18.8 | 4.06 |
2026-08-28 04:50:12 | 0.83 | W | 1.58 | 22.18 | 0 | 1028.46 | 81.12 | 772 | 18.79 | 4.06 |
2026-08-28 04:49:13 | 1.27 | W | 1.85 | 22.14 | 0 | 1028.49 | 81.22 | 769 | 18.77 | 4.06 |
2026-08-28 04:48:14 | 1.37 | W | 2.24 | 22.17 | 0 | 1028.49 | 81.18 | 770 | 18.79 | 4.05 |
2026-08-28 04:47:15 | 1.21 | W | 1.58 | 22.21 | 0 | 1028.54 | 81.07 | 773 | 18.81 | 4.06 |
2026-08-28 04:46:17 | 1.12 | WSW | 1.45 | 22.22 | 0 | 1028.48 | 80.96 | 776 | 18.79 | 4.06 |
2026-08-28 04:45:18 | 1.12 | W | 1.76 | 22.22 | 0 | 1028.48 | 80.96 | 776 | 18.79 | 4.06 |
2026-08-28 04:44:20 | 1.43 | W | 1.58 | 22.22 | 0 | 1028.45 | 81.01 | 775 | 18.8 | 4.06 |
2026-08-28 04:43:21 | 1.57 | WNW | 1.89 | 22.22 | 0 | 1028.45 | 81.02 | 774 | 18.81 | 4.06 |
2026-08-28 04:42:23 | 1.7 | W | 2.42 | 22.27 | 0 | 1028.5 | 81.04 | 774 | 18.86 | 4.06 |
2026-08-28 04:41:24 | 1.36 | WNW | 1.89 | 22.24 | 0 | 1028.5 | 81.06 | 773 | 18.83 | 4.06 |
2026-08-28 04:40:25 | 1.89 | WNW | 2.24 | 22.21 | 0 | 1028.48 | 81.11 | 772 | 18.81 | 4.06 |
2026-08-28 04:39:27 | 1.51 | WNW | 2.29 | 22.17 | 0 | 1028.52 | 81.14 | 771 | 18.78 | 4.06 |
2026-08-28 04:38:28 | 1.33 | W | 1.8 | 22.18 | 0 | 1028.52 | 80.98 | 775 | 18.76 | 4.05 |
2026-08-28 04:34:44 | 1.12 | W | 1.54 | 22.37 | 0 | 1028.49 | 80.34 | 791 | 18.82 | 4.06 |
2026-08-28 04:33:45 | 1.42 | WNW | 1.63 | 22.38 | 0 | 1028.5 | 80.32 | 792 | 18.82 | 4.06 |
2026-08-28 04:32:46 | 1.76 | W | 2.29 | 22.38 | 0 | 1028.5 | 80.36 | 791 | 18.83 | 4.06 |
2026-08-28 04:31:48 | 1.44 | W | 1.94 | 22.35 | 0 | 1028.48 | 80.38 | 790 | 18.8 | 4.06 |
2026-08-28 04:30:48 | 1.23 | W | 1.98 | 22.32 | 0 | 1028.47 | 80.58 | 785 | 18.82 | 4.06 |
2026-08-28 04:29:50 | 0.7 | W | 1.06 | 22.24 | 0 | 1028.48 | 80.59 | 785 | 18.74 | 4.06 |
2026-08-28 04:28:51 | 0.35 | W | 0.75 | 22.22 | 0 | 1028.41 | 80.75 | 781 | 18.75 | 4.06 |
2026-08-28 04:27:53 | 0.65 | WSW | 0.84 | 22.17 | 0 | 1028.37 | 80.96 | 776 | 18.74 | 4.06 |
2026-08-28 04:26:54 | 1.47 | WSW | 1.76 | 22.14 | 0 | 1028.41 | 81.22 | 769 | 18.77 | 4.06 |
2026-08-28 04:25:55 | 0.93 | WSW | 1.36 | 22.08 | 0 | 1028.44 | 81.45 | 764 | 18.75 | 4.06 |
2026-08-28 04:24:56 | 1.48 | WSW | 1.89 | 22 | 0 | 1028.46 | 81.84 | 754 | 18.75 | 4.06 |
2026-08-28 04:23:58 | 1.31 | WSW | 1.63 | 21.87 | 0 | 1028.46 | 82.3 | 742 | 18.71 | 4.06 |
2026-08-28 04:22:59 | 1.28 | WSW | 1.85 | 21.79 | 0 | 1028.44 | 82.68 | 733 | 18.71 | 4.06 |
2026-08-28 04:22:00 | 0.83 | W | 0.92 | 21.75 | 0 | 1028.45 | 82.95 | 726 | 18.72 | 4.06 |
2026-08-28 04:21:01 | 0.81 | W | 0.88 | 21.72 | 0 | 1028.42 | 83.05 | 724 | 18.71 | 4.06 |
2026-08-28 04:20:02 | 0.69 | W | 0.75 | 21.7 | 0 | 1028.44 | 83.03 | 724 | 18.69 | 4.06 |
2026-08-28 04:19:04 | 0.66 | W | 0.79 | 21.72 | 0 | 1028.43 | 82.94 | 726 | 18.69 | 4.06 |
2026-08-28 04:18:05 | 0.91 | W | 1.1 | 21.67 | 0 | 1028.43 | 82.82 | 729 | 18.62 | 4.06 |
2026-08-28 04:17:06 | 0.54 | W | 0.79 | 21.7 | 0 | 1028.38 | 82.44 | 739 | 18.58 | 4.06 |
2026-08-28 04:16:08 | 0.44 | W | 0.57 | 21.75 | 0 | 1028.43 | 82.11 | 747 | 18.56 | 4.06 |
2026-08-28 04:15:09 | 0.97 | WSW | 1.23 | 21.83 | 0 | 1028.48 | 81.71 | 757 | 18.56 | 4.06 |
2026-08-28 04:14:11 | 0.81 | W | 1.1 | 21.93 | 0 | 1028.44 | 80.93 | 777 | 18.5 | 4.06 |
2026-08-28 04:13:12 | 0.72 | W | 1.19 | 22.05 | 0 | 1028.42 | 79.84 | 804 | 18.41 | 4.06 |
2026-08-28 04:12:14 | 0.62 | NW | 0.75 | 22.24 | 0 | 1028.42 | 79.45 | 814 | 18.51 | 4.06 |
2026-08-28 04:11:15 | 0.71 | NW | 0.88 | 22.41 | 0 | 1028.39 | 79.37 | 816 | 18.66 | 4.06 |
2026-08-28 04:10:16 | 0.72 | WNW | 1.14 | 22.47 | 0 | 1028.38 | 79.27 | 818 | 18.7 | 4.06 |
2026-08-28 04:09:17 | 0.81 | WNW | 1.19 | 22.48 | 0 | 1028.45 | 79.24 | 819 | 18.7 | 4.06 |
2026-08-28 04:08:18 | 0.4 | WNW | 0.66 | 22.54 | 0 | 1028.49 | 79.05 | 824 | 18.72 | 4.06 |
2026-08-28 04:07:20 | 1.1 | WNW | 1.54 | 22.52 | 0 | 1028.51 | 79.24 | 819 | 18.74 | 4.06 |
2026-08-28 04:06:21 | 1.8 | NW | 2.16 | 22.52 | 0 | 1028.47 | 79.34 | 816 | 18.76 | 4.06 |
2026-08-28 04:05:22 | 1.58 | NW | 1.76 | 22.48 | 0 | 1028.44 | 79.49 | 813 | 18.75 | 4.06 |
2026-08-28 04:04:24 | 1.76 | NW | 1.98 | 22.42 | 0 | 1028.45 | 79.61 | 810 | 18.72 | 4.06 |
2026-08-28 04:03:24 | 1.87 | NW | 2.64 | 22.37 | 0 | 1028.44 | 79.84 | 804 | 18.72 | 4.06 |
2026-08-28 04:02:26 | 1.84 | NW | 2.51 | 22.34 | 0 | 1028.48 | 80.08 | 798 | 18.74 | 4.06 |
2026-08-28 04:01:27 | 1.46 | NW | 2.02 | 22.28 | 0 | 1028.51 | 80.21 | 795 | 18.7 | 4.06 |
2026-08-28 04:00:29 | 0.97 | NW | 1.14 | 22.24 | 0 | 1028.52 | 80.26 | 793 | 18.67 | 4.06 |
2026-08-28 03:59:30 | 1.12 | NW | 1.76 | 22.24 | 0 | 1028.56 | 80.31 | 792 | 18.68 | 4.06 |
2026-08-28 03:58:31 | 0.8 | NW | 1.01 | 22.21 | 0 | 1028.54 | 80.33 | 792 | 18.66 | 4.06 |
2026-08-28 03:57:33 | 0.82 | NW | 1.06 | 22.21 | 0 | 1028.49 | 80.31 | 792 | 18.65 | 4.06 |
2026-08-28 03:56:34 | 0.84 | NW | 1.19 | 22.21 | 0 | 1028.45 | 80.21 | 795 | 18.63 | 4.06 |
2026-08-28 03:55:35 | 0.92 | NW | 1.06 | 22.24 | 0 | 1028.45 | 79.98 | 800 | 18.62 | 4.06 |
2026-08-28 03:54:37 | 0.72 | NW | 1.01 | 22.27 | 0 | 1028.47 | 79.53 | 812 | 18.56 | 4.06 |
2026-08-28 03:53:38 | 0.36 | WNW | 1.06 | 22.34 | 0 | 1028.46 | 78.94 | 826 | 18.51 | 4.06 |
2026-08-28 03:52:39 | 0.05 | W | 0.26 | 22.39 | 0 | 1028.42 | 78.09 | 848 | 18.38 | 4.06 |
2026-08-28 03:51:41 | 0 | W | 0 | 22.55 | 0 | 1028.4 | 77.36 | 866 | 18.39 | 4.06 |
2026-08-28 03:50:42 | 0.48 | W | 0.84 | 22.72 | 0 | 1028.41 | 76.96 | 876 | 18.47 | 4.06 |
2026-08-28 03:49:44 | 0.55 | W | 0.84 | 22.99 | 0 | 1028.32 | 76.28 | 893 | 18.59 | 4.06 |
2026-08-28 03:48:45 | 0.44 | W | 0.53 | 23.15 | 0 | 1028.33 | 75.07 | 923 | 18.49 | 4.06 |
2026-08-28 03:47:46 | 0.43 | W | 0.53 | 23.4 | 0 | 1028.38 | 74.7 | 932 | 18.65 | 4.06 |
2026-08-28 03:46:48 | 0.39 | W | 0.62 | 23.51 | 0 | 1028.32 | 74.27 | 943 | 18.66 | 4.06 |
2026-08-28 03:45:49 | 0.72 | W | 0.84 | 23.61 | 0 | 1028.32 | 74.28 | 943 | 18.76 | 4.06 |
2026-08-28 03:44:51 | 1.16 | WSW | 1.54 | 23.61 | 0 | 1028.31 | 74.17 | 946 | 18.74 | 4.06 |
2026-08-28 03:43:52 | 0.73 | SW | 1.06 | 23.69 | 0 | 1028.37 | 74 | 950 | 18.78 | 4.06 |
2026-08-28 03:42:53 | 0.81 | SW | 1.28 | 23.73 | 0 | 1028.37 | 73.95 | 951 | 18.81 | 4.06 |
2026-08-28 03:41:55 | 1.77 | SW | 2.68 | 23.7 | 0 | 1028.39 | 74.02 | 949 | 18.79 | 4.06 |
2026-08-28 03:40:56 | 1.51 | WSW | 2.42 | 23.68 | 0 | 1028.4 | 74.09 | 948 | 18.79 | 4.06 |
2026-08-28 03:39:58 | 0.84 | W | 1.1 | 23.7 | 0 | 1028.47 | 73.98 | 950 | 18.78 | 4.06 |
2026-08-28 03:38:59 | 0.62 | WNW | 1.23 | 23.76 | 0 | 1028.48 | 73.84 | 954 | 18.81 | 4.06 |
2026-08-28 03:38:00 | 1.51 | W | 2.2 | 23.76 | 0 | 1028.48 | 73.8 | 955 | 18.8 | 4.06 |
2026-08-28 03:37:02 | 1.38 | WSW | 3.43 | 23.79 | 0 | 1028.44 | 73.68 | 958 | 18.81 | 4.06 |
2026-08-28 03:36:03 | 0.98 | W | 1.5 | 23.8 | 0 | 1028.48 | 73.64 | 959 | 18.81 | 4.06 |
2026-08-28 03:35:05 | 1.6 | W | 2.29 | 23.79 | 0 | 1028.5 | 73.69 | 958 | 18.81 | 4.06 |
2026-08-28 03:34:06 | 1.22 | WSW | 1.72 | 23.82 | 0 | 1028.53 | 73.64 | 959 | 18.83 | 4.06 |
2026-08-28 03:33:07 | 0.91 | WNW | 1.1 | 23.8 | 0 | 1028.48 | 73.6 | 960 | 18.8 | 4.06 |
2026-08-28 03:32:08 | 1.21 | SW | 1.8 | 23.8 | 0 | 1028.49 | 73.54 | 961 | 18.78 | 4.06 |
2026-08-28 03:31:10 | 1.01 | NW | 1.45 | 23.86 | 0 | 1028.48 | 73.45 | 964 | 18.82 | 4.06 |
2026-08-28 03:30:11 | 0.73 | WNW | 1.41 | 23.9 | 0 | 1028.42 | 73.08 | 973 | 18.78 | 4.06 |
2026-08-28 03:29:12 | 0.55 | WNW | 0.84 | 23.99 | 0 | 1028.42 | 72.78 | 980 | 18.8 | 4.06 |
2026-08-28 03:27:15 | 1.01 | W | 1.32 | 24.13 | 0 | 1028.45 | 72.37 | 991 | 18.84 | 4.06 |
2026-08-28 03:26:17 | 0.98 | WSW | 1.67 | 24.2 | 0 | 1028.42 | 72.1 | 997 | 18.85 | 4.06 |
2026-08-28 03:25:18 | 1.03 | SW | 1.5 | 24.24 | 0 | 1028.41 | 72.04 | 999 | 18.88 | 4.06 |
2026-08-28 03:24:19 | 1.47 | WNW | 2.86 | 24.23 | 0 | 1028.34 | 71.97 | 1001 | 18.85 | 4.06 |
2026-08-28 03:23:21 | 1.66 | WSW | 2.29 | 24.21 | 0 | 1028.37 | 72.01 | 1000 | 18.84 | 4.06 |
2026-08-28 03:22:22 | 1.44 | WSW | 2.29 | 24.19 | 0 | 1028.43 | 72.04 | 999 | 18.83 | 4.06 |
2026-08-28 03:21:23 | 1.13 | W | 1.76 | 24.19 | 0 | 1028.4 | 72.08 | 998 | 18.84 | 4.06 |
2026-08-28 03:20:25 | 1.58 | W | 1.98 | 24.19 | 0 | 1028.45 | 72.03 | 999 | 18.83 | 4.06 |
2026-08-28 03:19:26 | 1.49 | W | 2.29 | 24.21 | 0 | 1028.48 | 72.1 | 997 | 18.86 | 4.06 |
2026-08-28 03:18:28 | 1.79 | SW | 2.95 | 24.19 | 0 | 1028.41 | 72.08 | 998 | 18.84 | 4.06 |
2026-08-28 03:17:29 | 2.04 | WSW | 2.77 | 24.16 | 0 | 1028.42 | 72.23 | 994 | 18.84 | 4.06 |
2026-08-28 03:16:30 | 2.05 | WSW | 2.86 | 24.11 | 0 | 1028.42 | 72.42 | 989 | 18.84 | 4.06 |
2026-08-28 03:15:32 | 1.35 | SW | 2.29 | 24.07 | 0 | 1028.46 | 72.42 | 989 | 18.8 | 4.06 |
2026-08-28 03:14:33 | 1.15 | W | 1.76 | 24.1 | 0 | 1028.43 | 72.55 | 986 | 18.86 | 4.06 |
2026-08-28 03:13:35 | 1.49 | WSW | 2.55 | 24.11 | 0 | 1028.36 | 72.38 | 990 | 18.83 | 4.06 |
2026-08-28 03:12:36 | 0.74 | WSW | 1.32 | 24.17 | 0 | 1028.37 | 72.15 | 996 | 18.83 | 4.06 |
2026-08-28 03:11:37 | 0.83 | WSW | 1.72 | 24.2 | 0 | 1028.42 | 72.08 | 998 | 18.85 | 4.06 |
2026-08-28 03:10:39 | 1.31 | W | 1.67 | 24.21 | 0 | 1028.45 | 72.07 | 998 | 18.86 | 4.06 |
2026-08-28 03:09:40 | 1.73 | WSW | 2.77 | 24.21 | 0 | 1028.46 | 72.05 | 999 | 18.85 | 4.06 |
2026-08-28 03:08:41 | 1.3 | W | 1.67 | 24.21 | 0 | 1028.4 | 72.07 | 998 | 18.86 | 4.06 |
2026-08-28 03:07:42 | 0.88 | SW | 1.41 | 24.24 | 0 | 1028.42 | 71.97 | 1001 | 18.86 | 4.06 |
2026-08-28 03:06:44 | 1.25 | SW | 1.94 | 24.27 | 0 | 1028.39 | 71.85 | 1004 | 18.86 | 4.06 |
2026-08-28 03:05:45 | 1.19 | WNW | 1.58 | 24.3 | 0 | 1028.44 | 71.72 | 1007 | 18.86 | 4.06 |
2026-08-28 03:04:46 | 0.77 | SW | 1.5 | 24.35 | 0 | 1028.35 | 71.61 | 1010 | 18.89 | 4.06 |
2026-08-28 03:03:48 | 0.99 | WSW | 1.58 | 24.37 | 0 | 1028.42 | 71.45 | 1014 | 18.87 | 4.06 |
2026-08-28 03:02:49 | 1.32 | SSW | 1.72 | 24.41 | 0 | 1028.42 | 71.31 | 1017 | 18.88 | 4.06 |
2026-08-28 03:01:50 | 1.72 | W | 2.29 | 24.45 | 0 | 1028.44 | 71.2 | 1020 | 18.89 | 4.06 |
2026-08-28 03:00:52 | 1 | NW | 1.76 | 24.48 | 0 | 1028.44 | 71 | 1025 | 18.87 | 4.06 |
2026-08-28 02:59:54 | 1.01 | W | 1.89 | 24.51 | 0 | 1028.39 | 70.87 | 1028 | 18.87 | 4.06 |
2026-08-28 02:58:54 | 1.13 | WSW | 1.5 | 24.55 | 0 | 1028.37 | 70.69 | 1033 | 18.87 | 4.06 |
2026-08-28 02:57:56 | 1.5 | SW | 2.02 | 24.59 | 0 | 1028.33 | 70.57 | 1036 | 18.88 | 4.06 |
2026-08-28 02:56:57 | 1.59 | SW | 2.68 | 24.62 | 0 | 1028.3 | 70.38 | 1040 | 18.87 | 4.06 |
2026-08-28 02:55:58 | 1.06 | WNW | 1.32 | 24.64 | 0 | 1028.3 | 70.29 | 1043 | 18.87 | 4.06 |
2026-08-28 02:55:00 | 1.55 | WSW | 2.38 | 24.68 | 0 | 1028.32 | 70.23 | 1044 | 18.89 | 4.06 |
2026-08-28 02:54:01 | 1.62 | WSW | 2.16 | 24.66 | 0 | 1028.3 | 70.06 | 1048 | 18.83 | 4.06 |
2026-08-28 02:53:03 | 1.27 | W | 1.76 | 24.72 | 0 | 1028.32 | 69.93 | 1052 | 18.86 | 4.06 |
2026-08-28 02:52:04 | 1.11 | WNW | 2.02 | 24.76 | 0 | 1028.32 | 69.69 | 1058 | 18.84 | 4.06 |
2026-08-28 02:51:05 | 1.74 | WSW | 1.98 | 24.82 | 0 | 1028.3 | 69.63 | 1059 | 18.89 | 4.06 |
2026-08-28 02:50:07 | 2.46 | WNW | 3.34 | 24.86 | 0 | 1028.29 | 69.44 | 1064 | 18.88 | 4.06 |
2026-08-28 02:49:08 | 2.2 | SW | 2.64 | 24.89 | 0 | 1028.36 | 69.37 | 1066 | 18.89 | 4.06 |
2026-08-28 02:48:08 | 2.06 | WSW | 2.82 | 24.9 | 0 | 1028.36 | 69.28 | 1068 | 18.88 | 4.06 |
2026-08-28 02:47:09 | 3.12 | WNW | 4.14 | 24.9 | 0 | 1028.41 | 69.28 | 1068 | 18.88 | 4.06 |
2026-08-28 02:46:10 | 1.86 | WNW | 2.38 | 24.86 | 0 | 1028.41 | 69.37 | 1066 | 18.87 | 4.06 |
2026-08-28 02:45:12 | 1.87 | SW | 2.46 | 24.86 | 0 | 1028.43 | 69.34 | 1066 | 18.86 | 4.06 |
2026-08-28 02:44:13 | 1.98 | WSW | 3.43 | 24.89 | 0 | 1028.43 | 69.26 | 1068 | 18.87 | 4.06 |
2026-08-28 02:43:15 | 1.5 | W | 2.73 | 24.9 | 0 | 1028.47 | 69.08 | 1073 | 18.84 | 4.06 |
2026-08-28 02:42:16 | 1.01 | WSW | 1.5 | 24.92 | 0 | 1028.46 | 69.12 | 1072 | 18.87 | 4.06 |
2026-08-28 02:41:17 | 0.91 | NW | 1.19 | 24.92 | 0 | 1028.41 | 69.01 | 1075 | 18.84 | 4.06 |
2026-08-28 02:40:19 | 1.87 | SW | 3.43 | 24.99 | 0 | 1028.47 | 68.8 | 1080 | 18.86 | 4.06 |
2026-08-28 02:39:20 | 1.52 | WSW | 2.95 | 25.02 | 0 | 1028.52 | 68.64 | 1084 | 18.85 | 4.06 |
2026-08-28 02:38:21 | 1.65 | W | 2.82 | 25.06 | 0 | 1028.5 | 68.54 | 1086 | 18.86 | 4.06 |
2026-08-28 02:37:23 | 2.22 | W | 2.99 | 25.03 | 0 | 1028.52 | 68.6 | 1085 | 18.85 | 4.06 |
2026-08-28 02:36:24 | 2.28 | WSW | 3.65 | 24.97 | 0 | 1028.42 | 68.64 | 1084 | 18.8 | 4.06 |
2026-08-28 02:35:26 | 1.77 | W | 2.33 | 24.96 | 0 | 1028.45 | 68.75 | 1081 | 18.82 | 4.06 |
2026-08-28 02:34:27 | 1.81 | W | 2.51 | 24.96 | 0 | 1028.48 | 68.72 | 1082 | 18.81 | 4.06 |
2026-08-28 02:33:28 | 2.49 | WSW | 3.17 | 24.96 | 0 | 1028.46 | 68.72 | 1082 | 18.81 | 4.06 |
2026-08-28 02:32:30 | 2.85 | W | 4.18 | 24.89 | 0 | 1028.51 | 68.92 | 1077 | 18.79 | 4.06 |
2026-08-28 02:31:31 | 1.7 | W | 2.2 | 24.87 | 0 | 1028.48 | 69.16 | 1071 | 18.83 | 4.06 |
2026-08-28 02:30:32 | 2.42 | SW | 3.34 | 24.92 | 0 | 1028.46 | 69.04 | 1074 | 18.85 | 4.06 |
2026-08-28 02:29:34 | 1.8 | WSW | 3.56 | 24.89 | 0 | 1028.44 | 69.18 | 1070 | 18.85 | 4.06 |
2026-08-28 02:28:35 | 2.52 | WSW | 4.22 | 24.9 | 0 | 1028.47 | 69.2 | 1070 | 18.87 | 4.06 |
2026-08-28 02:27:35 | 2.38 | W | 3.04 | 24.92 | 0 | 1028.51 | 69.2 | 1070 | 18.88 | 4.06 |
2026-08-28 02:26:37 | 2.25 | SW | 3.96 | 24.89 | 0 | 1028.45 | 69.26 | 1068 | 18.87 | 4.06 |
2026-08-28 02:25:38 | 2.21 | W | 3.7 | 24.89 | 0 | 1028.41 | 69.31 | 1067 | 18.88 | 4.06 |
2026-08-28 02:24:39 | 2.02 | WSW | 2.68 | 24.89 | 0 | 1028.46 | 69.43 | 1064 | 18.91 | 4.06 |
2026-08-28 02:23:41 | 3.15 | W | 4.18 | 24.87 | 0 | 1028.44 | 69.31 | 1067 | 18.86 | 4.06 |
2026-08-28 02:22:42 | 2.54 | WSW | 3.52 | 24.83 | 0 | 1028.5 | 69.53 | 1062 | 18.87 | 4.06 |
2026-08-28 02:21:43 | 2 | WSW | 2.29 | 24.83 | 0 | 1028.54 | 69.71 | 1057 | 18.92 | 4.06 |
2026-08-28 02:20:45 | 3.2 | W | 4.84 | 24.82 | 0 | 1028.51 | 69.62 | 1059 | 18.89 | 4.06 |
2026-08-28 02:19:46 | 2.81 | WNW | 4.14 | 24.83 | 0 | 1028.51 | 69.85 | 1054 | 18.95 | 4.06 |
2026-08-28 02:18:48 | 2.97 | W | 3.96 | 24.81 | 0 | 1028.49 | 69.79 | 1055 | 18.92 | 4.06 |
2026-08-28 02:17:49 | 2.63 | SSW | 3.96 | 24.85 | 0 | 1028.46 | 69.8 | 1055 | 18.96 | 4.06 |
2026-08-28 02:16:50 | 2.05 | W | 3.48 | 24.85 | 0 | 1028.52 | 69.81 | 1055 | 18.96 | 4.06 |
2026-08-28 02:15:51 | 1.76 | WSW | 2.46 | 24.89 | 0 | 1028.44 | 69.74 | 1056 | 18.98 | 4.06 |
2026-08-28 02:14:53 | 2.11 | W | 3.12 | 24.9 | 0 | 1028.47 | 69.59 | 1060 | 18.96 | 4.06 |
2026-08-28 02:13:54 | 2.52 | WSW | 4.05 | 24.92 | 0 | 1028.49 | 69.62 | 1059 | 18.98 | 4.06 |
2026-08-28 02:12:55 | 1.87 | WNW | 3.04 | 24.96 | 0 | 1028.49 | 69.45 | 1064 | 18.98 | 4.06 |
2026-08-28 02:11:57 | 2.38 | W | 3.3 | 25 | 0 | 1028.52 | 69.37 | 1066 | 19 | 4.06 |
2026-08-28 02:10:58 | 2.29 | W | 4.14 | 25.02 | 0 | 1028.54 | 69.24 | 1069 | 18.99 | 4.06 |
2026-08-28 02:09:59 | 2.64 | WSW | 3.21 | 25.07 | 0 | 1028.56 | 69.06 | 1073 | 19 | 4.06 |
2026-08-28 02:09:00 | 3.03 | WSW | 5.02 | 25.14 | 0 | 1028.57 | 68.8 | 1080 | 19 | 4.06 |
2026-08-28 02:08:01 | 2.65 | SW | 3.74 | 25.16 | 0 | 1028.61 | 68.56 | 1086 | 18.96 | 4.06 |
2026-08-28 02:07:03 | 1.79 | WSW | 2.02 | 25.23 | 0 | 1028.58 | 68.33 | 1092 | 18.98 | 4.06 |
2026-08-28 02:06:04 | 2.04 | WSW | 2.64 | 25.24 | 0 | 1028.65 | 68.14 | 1096 | 18.94 | 4.06 |
2026-08-28 02:05:05 | 2.33 | WSW | 3.56 | 25.24 | 0 | 1028.62 | 68.07 | 1098 | 18.93 | 4.06 |
2026-08-28 02:04:07 | 2.42 | WSW | 3.74 | 25.2 | 0 | 1028.54 | 68.2 | 1095 | 18.92 | 4.06 |
2026-08-28 02:03:08 | 2.45 | SW | 3.92 | 25.21 | 0 | 1028.57 | 68.12 | 1097 | 18.91 | 4.06 |
2026-08-28 02:02:09 | 2.35 | SW | 2.9 | 25.2 | 0 | 1028.59 | 68.29 | 1093 | 18.94 | 4.06 |
2026-08-28 02:01:11 | 2.7 | WSW | 3.92 | 25.21 | 0 | 1028.64 | 68.26 | 1093 | 18.94 | 4.06 |
2026-08-28 02:00:12 | 1.95 | SW | 2.82 | 25.24 | 0 | 1028.67 | 68.42 | 1089 | 19.01 | 4.06 |
2026-08-28 01:59:13 | 2.24 | WSW | 3.39 | 25.24 | 0 | 1028.65 | 68.27 | 1093 | 18.97 | 4.06 |
2026-08-28 01:58:15 | 2.32 | SW | 3.92 | 25.3 | 0 | 1028.61 | 68.21 | 1095 | 19.02 | 4.06 |
2026-08-28 01:57:16 | 2.46 | WSW | 3.96 | 25.26 | 0 | 1028.63 | 68.25 | 1094 | 18.99 | 4.06 |
2026-08-28 01:56:17 | 2.25 | WNW | 4.09 | 25.27 | 0 | 1028.64 | 68.35 | 1091 | 19.02 | 4.06 |
2026-08-28 01:55:19 | 2.81 | WSW | 3.65 | 25.26 | 0 | 1028.75 | 68.25 | 1094 | 18.99 | 4.06 |
2026-08-28 01:54:20 | 2.31 | SW | 4.09 | 25.26 | 0 | 1028.75 | 68.12 | 1097 | 18.96 | 4.06 |
2026-08-28 01:53:21 | 2.04 | SW | 3.3 | 25.31 | 0 | 1028.76 | 67.94 | 1101 | 18.96 | 4.06 |
2026-08-28 01:52:23 | 1.96 | WSW | 3.74 | 25.33 | 0 | 1028.77 | 67.71 | 1107 | 18.93 | 4.06 |
2026-08-28 01:51:24 | 1.33 | WSW | 2.16 | 25.4 | 0 | 1028.65 | 67.5 | 1112 | 18.94 | 4.06 |
2026-08-28 01:50:25 | 2.08 | WSW | 2.38 | 25.41 | 0 | 1028.72 | 67.38 | 1115 | 18.92 | 4.06 |
2026-08-28 01:49:27 | 1.84 | SSW | 2.46 | 25.45 | 0 | 1028.73 | 67.27 | 1118 | 18.94 | 4.06 |
2026-08-28 01:48:28 | 2.25 | SW | 2.99 | 25.48 | 0 | 1028.73 | 67.08 | 1123 | 18.92 | 4.06 |
2026-08-28 01:47:29 | 2.52 | SW | 4.53 | 25.47 | 0 | 1028.73 | 67.16 | 1121 | 18.93 | 4.06 |
2026-08-28 01:46:30 | 2.37 | W | 3.92 | 25.47 | 0 | 1028.71 | 67.2 | 1120 | 18.94 | 4.06 |
2026-08-28 01:45:32 | 2.5 | WSW | 4.22 | 25.44 | 0 | 1028.72 | 67.34 | 1116 | 18.94 | 4.06 |
2026-08-28 01:44:33 | 2.25 | W | 3.56 | 25.4 | 0 | 1028.8 | 67.35 | 1116 | 18.91 | 4.06 |
2026-08-28 01:43:34 | 2.78 | WNW | 3.52 | 25.38 | 0 | 1028.8 | 67.53 | 1112 | 18.93 | 4.06 |
2026-08-28 01:42:36 | 2.49 | WSW | 3.78 | 25.38 | 0 | 1028.8 | 67.43 | 1114 | 18.91 | 4.06 |
2026-08-28 01:41:37 | 2.29 | WNW | 3.43 | 25.34 | 0 | 1028.81 | 67.6 | 1110 | 18.91 | 4.06 |
2026-08-28 01:40:38 | 2.47 | WNW | 3.74 | 25.33 | 0 | 1028.81 | 67.66 | 1108 | 18.91 | 4.06 |
2026-08-28 01:39:40 | 1.67 | W | 2.82 | 25.36 | 0 | 1028.82 | 67.69 | 1108 | 18.95 | 4.06 |
2026-08-28 01:38:41 | 2.45 | WNW | 3.7 | 25.37 | 0 | 1028.81 | 67.61 | 1110 | 18.94 | 4.06 |
2026-08-28 01:37:42 | 2.73 | W | 4.58 | 25.4 | 0 | 1028.85 | 67.56 | 1111 | 18.96 | 4.06 |
2026-08-28 01:36:44 | 2.71 | WSW | 3.96 | 25.4 | 0 | 1028.72 | 67.57 | 1111 | 18.96 | 4.06 |
2026-08-28 01:35:45 | 2.92 | WSW | 5.28 | 25.36 | 0 | 1028.76 | 67.5 | 1112 | 18.91 | 4.06 |
2026-08-28 01:34:46 | 2.44 | SW | 3.26 | 25.41 | 0 | 1028.68 | 67.5 | 1112 | 18.95 | 4.06 |
2026-08-28 01:33:48 | 2.03 | W | 2.82 | 25.44 | 0 | 1028.7 | 67.26 | 1118 | 18.92 | 4.06 |
2026-08-28 01:32:49 | 2.56 | SW | 4.14 | 25.47 | 0 | 1028.69 | 67.12 | 1122 | 18.92 | 4.06 |
2026-08-28 01:31:51 | 2.67 | W | 4.27 | 25.51 | 0 | 1028.76 | 66.93 | 1127 | 18.91 | 4.06 |
2026-08-28 01:30:52 | 2.64 | WSW | 3.56 | 25.54 | 0 | 1028.78 | 66.73 | 1132 | 18.89 | 4.06 |
2026-08-28 01:29:53 | 2.5 | W | 3.43 | 25.61 | 0 | 1028.8 | 66.57 | 1136 | 18.92 | 4.06 |
2026-08-28 01:28:55 | 2.81 | WSW | 4.09 | 25.66 | 0 | 1028.77 | 66.25 | 1144 | 18.89 | 4.06 |
2026-08-28 01:27:56 | 2.61 | WSW | 4.36 | 25.72 | 0 | 1028.76 | 66.05 | 1149 | 18.9 | 4.06 |
2026-08-28 01:26:56 | 2.79 | W | 3.56 | 25.76 | 0 | 1028.75 | 65.89 | 1153 | 18.9 | 4.06 |
2026-08-28 01:25:58 | 2.47 | W | 3.87 | 25.78 | 0 | 1028.68 | 65.78 | 1155 | 18.89 | 4.06 |
2026-08-28 01:24:59 | 2.77 | W | 4.71 | 25.79 | 0 | 1028.65 | 65.58 | 1160 | 18.85 | 4.06 |
2026-08-28 01:24:00 | 2.39 | W | 3.83 | 25.85 | 0 | 1028.76 | 65.48 | 1163 | 18.88 | 4.06 |
2026-08-28 01:23:02 | 2.49 | W | 3.61 | 25.85 | 0 | 1028.77 | 65.33 | 1167 | 18.85 | 4.06 |
2026-08-28 01:22:03 | 2.44 | WNW | 4.49 | 25.88 | 0 | 1028.78 | 65.24 | 1169 | 18.85 | 4.06 |
2026-08-28 01:21:04 | 3.18 | WSW | 4.62 | 25.89 | 0 | 1028.72 | 65.13 | 1172 | 18.84 | 4.06 |
2026-08-28 01:20:06 | 2.72 | W | 4.09 | 25.9 | 0 | 1028.79 | 65.08 | 1173 | 18.83 | 4.06 |
2026-08-28 01:19:07 | 2.71 | WSW | 3.52 | 25.89 | 0 | 1028.73 | 65.11 | 1172 | 18.83 | 4.06 |
2026-08-28 01:18:08 | 3.07 | WSW | 4.58 | 25.88 | 0 | 1028.74 | 65.14 | 1171 | 18.83 | 4.06 |
2026-08-28 01:17:10 | 2.94 | WSW | 5.15 | 25.83 | 0 | 1028.78 | 65.28 | 1168 | 18.82 | 4.06 |
2026-08-28 01:16:11 | 2.75 | WSW | 4.05 | 25.85 | 0 | 1028.81 | 65.32 | 1167 | 18.85 | 4.06 |
2026-08-28 01:15:12 | 2.78 | WSW | 4.44 | 25.85 | 0 | 1028.76 | 65.28 | 1168 | 18.84 | 4.06 |
2026-08-28 01:14:14 | 2.32 | W | 3.08 | 25.82 | 0 | 1028.75 | 65.32 | 1167 | 18.82 | 4.07 |
2026-08-28 01:13:15 | 2.52 | W | 3.74 | 25.79 | 0 | 1028.82 | 65.34 | 1166 | 18.79 | 4.06 |
2026-08-28 01:12:16 | 2.76 | WSW | 3.52 | 25.81 | 0 | 1028.82 | 65.35 | 1166 | 18.81 | 4.07 |
2026-08-28 01:11:18 | 2.57 | WSW | 4.36 | 25.76 | 0 | 1028.79 | 65.36 | 1166 | 18.77 | 4.07 |
2026-08-28 01:10:19 | 3.52 | W | 4.75 | 25.78 | 0 | 1028.73 | 65.44 | 1164 | 18.81 | 4.07 |
2026-08-28 01:09:21 | 2.32 | WSW | 3.74 | 25.72 | 0 | 1028.77 | 65.6 | 1160 | 18.79 | 4.07 |
2026-08-28 01:08:22 | 2.54 | W | 3.92 | 25.72 | 0 | 1028.77 | 65.6 | 1160 | 18.79 | 4.06 |
2026-08-28 01:07:23 | 2.78 | W | 3.43 | 25.72 | 0 | 1028.71 | 65.58 | 1160 | 18.79 | 4.07 |
2026-08-28 01:06:24 | 2.53 | WSW | 3.87 | 25.71 | 0 | 1028.79 | 65.56 | 1161 | 18.77 | 4.07 |
2026-08-28 01:05:26 | 2.79 | WSW | 4.75 | 25.75 | 0 | 1028.78 | 65.59 | 1160 | 18.82 | 4.07 |
2026-08-28 01:04:27 | 2.34 | SSW | 3.65 | 25.75 | 0 | 1028.75 | 65.46 | 1163 | 18.78 | 4.07 |
2026-08-28 01:03:28 | 1.98 | WSW | 2.46 | 25.79 | 0 | 1028.76 | 65.36 | 1166 | 18.8 | 4.07 |
2026-08-28 01:02:30 | 2.72 | SW | 3.7 | 25.86 | 0 | 1028.8 | 65.14 | 1171 | 18.81 | 4.07 |
2026-08-28 01:01:31 | 2.18 | WSW | 2.99 | 25.88 | 0 | 1028.82 | 65 | 1175 | 18.79 | 4.07 |
2026-08-28 01:00:32 | 2.28 | WSW | 3.17 | 25.92 | 0 | 1028.85 | 64.9 | 1177 | 18.81 | 4.07 |
2026-08-28 00:59:34 | 2.39 | SSW | 3.04 | 25.96 | 0 | 1028.89 | 64.81 | 1180 | 18.82 | 4.07 |
2026-08-28 00:58:35 | 2.61 | SW | 3.78 | 25.97 | 0 | 1028.91 | 64.65 | 1184 | 18.79 | 4.07 |
2026-08-28 00:57:36 | 2.68 | W | 3.56 | 26 | 0 | 1028.9 | 64.64 | 1184 | 18.82 | 4.07 |
2026-08-28 00:56:38 | 2.51 | WSW | 3.92 | 26.02 | 0 | 1028.93 | 64.57 | 1186 | 18.82 | 4.07 |
2026-08-28 00:55:39 | 2.07 | WSW | 3.21 | 26 | 0 | 1028.92 | 64.52 | 1187 | 18.79 | 4.07 |
2026-08-28 00:54:40 | 3.11 | SW | 4.22 | 25.99 | 0 | 1028.9 | 64.53 | 1187 | 18.78 | 4.07 |
2026-08-28 00:53:42 | 2.15 | WSW | 2.82 | 25.97 | 0 | 1028.94 | 64.67 | 1183 | 18.8 | 4.07 |
2026-08-28 00:52:43 | 3.07 | SSW | 4.49 | 25.97 | 0 | 1028.92 | 64.67 | 1183 | 18.8 | 4.07 |
2026-08-28 00:51:44 | 2.62 | SW | 3.96 | 25.97 | 0 | 1028.91 | 64.7 | 1182 | 18.81 | 4.07 |
2026-08-28 00:50:46 | 2.63 | SW | 3.56 | 25.96 | 0 | 1028.86 | 64.64 | 1184 | 18.78 | 4.07 |
2026-08-28 00:49:47 | 2.17 | SW | 2.73 | 25.97 | 0 | 1028.84 | 64.76 | 1181 | 18.82 | 4.07 |
2026-08-28 00:48:48 | 2.84 | WSW | 3.48 | 26 | 0 | 1028.89 | 64.61 | 1185 | 18.81 | 4.07 |
2026-08-28 00:47:50 | 2.74 | SW | 4.27 | 25.96 | 0 | 1028.88 | 64.68 | 1183 | 18.79 | 4.07 |
2026-08-28 00:46:51 | 2.57 | SW | 4.18 | 25.99 | 0 | 1028.94 | 64.83 | 1179 | 18.86 | 4.07 |
2026-08-28 00:45:52 | 3.02 | SW | 4.49 | 25.96 | 0 | 1028.96 | 64.86 | 1178 | 18.84 | 4.07 |
2026-08-28 00:44:53 | 3.01 | WSW | 4.14 | 25.9 | 0 | 1028.99 | 65.01 | 1175 | 18.82 | 4.07 |
2026-08-28 00:43:55 | 2.36 | SSW | 3.04 | 25.9 | 0 | 1028.99 | 65.11 | 1172 | 18.84 | 4.07 |
2026-08-28 00:42:56 | 3.5 | SW | 4.4 | 25.92 | 0 | 1028.99 | 64.98 | 1175 | 18.83 | 4.07 |
2026-08-28 00:41:57 | 2.53 | SSW | 4.58 | 25.92 | 0 | 1029.01 | 64.95 | 1176 | 18.82 | 4.07 |
2026-08-28 00:40:59 | 2.63 | SW | 3.48 | 25.92 | 0 | 1028.96 | 64.95 | 1176 | 18.82 | 4.07 |
2026-08-28 00:40:00 | 2.35 | SW | 3.21 | 25.96 | 0 | 1029.03 | 65.06 | 1173 | 18.89 | 4.07 |
2026-08-28 00:39:01 | 2.18 | SSW | 2.6 | 25.99 | 0 | 1029.06 | 64.84 | 1179 | 18.86 | 4.07 |
2026-08-28 00:38:03 | 2.9 | SW | 4.58 | 26.02 | 0 | 1029.08 | 64.84 | 1179 | 18.89 | 4.07 |
2026-08-28 00:37:04 | 2.15 | SW | 2.73 | 26 | 0 | 1029.04 | 64.9 | 1177 | 18.88 | 4.07 |
2026-08-28 00:36:05 | 2.14 | WSW | 2.82 | 26.04 | 0 | 1029.07 | 64.8 | 1180 | 18.9 | 4.07 |
2026-08-28 00:35:07 | 2.27 | WSW | 2.51 | 26.13 | 0 | 1029.07 | 64.6 | 1185 | 18.93 | 4.07 |
2026-08-28 00:34:08 | 2.56 | SW | 3.56 | 26.19 | 0 | 1029.13 | 64.39 | 1190 | 18.94 | 4.07 |
2026-08-28 00:33:09 | 2.64 | SW | 3.96 | 26.24 | 0 | 1029.09 | 64.2 | 1195 | 18.94 | 4.07 |
2026-08-28 00:32:10 | 2.25 | SW | 3.92 | 26.21 | 0 | 1029.12 | 64.1 | 1197 | 18.88 | 4.07 |
2026-08-28 00:31:12 | 2.76 | SSW | 4.05 | 26.31 | 0 | 1029.17 | 64.05 | 1199 | 18.97 | 4.07 |
2026-08-28 00:30:13 | 2.76 | SW | 3.52 | 26.34 | 0 | 1029.17 | 63.82 | 1204 | 18.94 | 4.07 |
2026-08-28 00:29:15 | 3.37 | SSW | 5.5 | 26.36 | 0 | 1029.08 | 63.6 | 1210 | 18.9 | 4.07 |
2026-08-28 00:28:16 | 2.94 | SW | 4.18 | 26.37 | 0 | 1029.1 | 63.62 | 1209 | 18.92 | 4.07 |
2026-08-28 00:27:17 | 3.14 | SSW | 3.87 | 26.43 | 0 | 1029.08 | 63.55 | 1211 | 18.95 | 4.07 |
2026-08-28 00:26:19 | 3.05 | SW | 3.61 | 26.45 | 0 | 1029.08 | 63.34 | 1216 | 18.92 | 4.07 |
2026-08-28 00:24:21 | 2.97 | SW | 3.87 | 26.51 | 0 | 1029.15 | 63.13 | 1222 | 18.92 | 4.07 |
2026-08-28 00:23:22 | 2.69 | WSW | 3.61 | 26.56 | 0 | 1029.06 | 63.04 | 1224 | 18.95 | 4.07 |
2026-08-28 00:22:24 | 2.29 | SW | 2.86 | 26.58 | 0 | 1029.13 | 62.94 | 1226 | 18.94 | 4.07 |
2026-08-28 00:21:25 | 2.76 | WSW | 3.26 | 26.61 | 0 | 1029.07 | 62.83 | 1229 | 18.94 | 4.07 |
2026-08-28 00:20:26 | 2.67 | SSW | 3.61 | 26.65 | 0 | 1029.09 | 62.76 | 1231 | 18.96 | 4.07 |
2026-08-28 00:19:28 | 2.82 | SW | 4.05 | 26.67 | 0 | 1029.06 | 62.72 | 1232 | 18.97 | 4.07 |
2026-08-28 00:18:29 | 2.56 | SW | 3.56 | 26.62 | 0 | 1029.06 | 62.73 | 1232 | 18.93 | 4.07 |
2026-08-28 00:17:31 | 2.29 | WSW | 2.77 | 26.65 | 0 | 1029.05 | 62.78 | 1230 | 18.97 | 4.07 |
2026-08-28 00:16:32 | 2.34 | SW | 3.52 | 26.65 | 0 | 1029.03 | 62.69 | 1233 | 18.94 | 4.07 |
2026-08-28 00:15:33 | 2.55 | SW | 3.43 | 26.64 | 0 | 1029.07 | 62.63 | 1234 | 18.92 | 4.07 |
2026-08-28 00:14:34 | 2.59 | SW | 3.83 | 26.59 | 0 | 1029.09 | 62.88 | 1228 | 18.94 | 4.07 |
2026-08-28 00:13:35 | 2.45 | SW | 3.78 | 26.58 | 0 | 1029.08 | 62.96 | 1226 | 18.95 | 4.07 |
2026-08-28 00:12:36 | 2.37 | SW | 3.56 | 26.58 | 0 | 1029.11 | 63.02 | 1224 | 18.96 | 4.07 |
2026-08-28 00:11:37 | 2.46 | SSW | 3.3 | 26.58 | 0 | 1029.13 | 63.14 | 1221 | 18.99 | 4.07 |
2026-08-28 00:10:38 | 2.03 | SW | 2.6 | 26.58 | 0 | 1029.1 | 63.07 | 1223 | 18.97 | 4.07 |
2026-08-28 00:09:39 | 1.39 | SW | 2.02 | 26.59 | 0 | 1029.12 | 63.04 | 1224 | 18.98 | 4.07 |
2026-08-28 00:08:41 | 1.5 | SW | 1.85 | 26.65 | 0 | 1029.18 | 62.81 | 1230 | 18.97 | 4.07 |
2026-08-28 00:07:42 | 1.52 | SW | 2.16 | 26.75 | 0 | 1029.18 | 62.68 | 1233 | 19.04 | 4.07 |
2026-08-28 00:06:43 | 2.04 | SW | 2.51 | 26.74 | 0 | 1029.21 | 62.56 | 1236 | 19 | 4.07 |
2026-08-28 00:05:45 | 2.62 | SW | 3.39 | 26.74 | 0 | 1029.2 | 62.51 | 1237 | 18.98 | 4.07 |
2026-08-28 00:03:47 | 2.49 | SW | 3.34 | 26.7 | 0 | 1029.24 | 62.7 | 1232 | 18.99 | 4.07 |
2026-08-28 00:02:49 | 1.43 | SW | 1.85 | 26.7 | 0 | 1029.2 | 62.68 | 1233 | 18.99 | 4.07 |
2026-08-28 00:01:50 | 1.69 | WSW | 3.04 | 26.71 | 0 | 1029.23 | 62.66 | 1233 | 18.99 | 4.07 |
2026-08-28 00:00:51 | 0.98 | WSW | 1.28 | 26.75 | 0 | 1029.25 | 62.47 | 1238 | 18.98 | 4.07 |